<?xml version="1.0" encoding="UTF-8" standalone="no" ?>
<gpx xmlns="http://www.topografix.com/GPX/1/1" xmlns:xsi="http://www.w3.org/2001/XMLSchema-instance" xsi:schemaLocation="http://www.topografix.com/GPX/1/1 http://www.topografix.com/GPX/1/1/gpx.xsd" version="1.1" creator="VisuGPX - https://www.visugpx.com">
  <metadata>
    <name>Rando des Pommiers en fleurs (28/04/19) </name>
  </metadata>
  <trk>
    <name><![CDATA[Mon enregistrement du 28/04/2019]]></name>
    <trkseg>
      <trkpt lat="48.90676" lon="0.25354">
        <ele>269</ele>
        <time>2019-04-28T06:31:04Z</time>
      </trkpt>
      <trkpt lat="48.90672" lon="0.25338">
        <ele>269</ele>
        <time>2019-04-28T06:31:06Z</time>
      </trkpt>
      <trkpt lat="48.90673" lon="0.25339">
        <ele>269</ele>
        <time>2019-04-28T06:31:11Z</time>
      </trkpt>
      <trkpt lat="48.90673" lon="0.25338">
        <ele>269</ele>
        <time>2019-04-28T06:31:16Z</time>
      </trkpt>
      <trkpt lat="48.90671" lon="0.25338">
        <ele>269</ele>
        <time>2019-04-28T06:31:21Z</time>
      </trkpt>
      <trkpt lat="48.9067" lon="0.25338">
        <ele>269</ele>
        <time>2019-04-28T06:31:26Z</time>
      </trkpt>
      <trkpt lat="48.9067" lon="0.25338">
        <ele>269</ele>
        <time>2019-04-28T06:31:31Z</time>
      </trkpt>
      <trkpt lat="48.90669" lon="0.25338">
        <ele>269</ele>
        <time>2019-04-28T06:31:41Z</time>
      </trkpt>
      <trkpt lat="48.90669" lon="0.25338">
        <ele>269</ele>
        <time>2019-04-28T06:31:51Z</time>
      </trkpt>
      <trkpt lat="48.90669" lon="0.25338">
        <ele>268</ele>
        <time>2019-04-28T06:31:56Z</time>
      </trkpt>
      <trkpt lat="48.90667" lon="0.25341">
        <ele>267</ele>
        <time>2019-04-28T06:32:06Z</time>
      </trkpt>
      <trkpt lat="48.90663" lon="0.25348">
        <ele>268</ele>
        <time>2019-04-28T06:32:16Z</time>
      </trkpt>
      <trkpt lat="48.90657" lon="0.25359">
        <ele>268</ele>
        <time>2019-04-28T06:32:25Z</time>
      </trkpt>
      <trkpt lat="48.90654" lon="0.25364">
        <ele>268</ele>
        <time>2019-04-28T06:32:31Z</time>
      </trkpt>
      <trkpt lat="48.90653" lon="0.25366">
        <ele>268</ele>
        <time>2019-04-28T06:32:36Z</time>
      </trkpt>
      <trkpt lat="48.90653" lon="0.25367">
        <ele>268</ele>
        <time>2019-04-28T06:32:42Z</time>
      </trkpt>
      <trkpt lat="48.90653" lon="0.25367">
        <ele>268</ele>
        <time>2019-04-28T06:32:48Z</time>
      </trkpt>
      <trkpt lat="48.90653" lon="0.25368">
        <ele>268</ele>
        <time>2019-04-28T06:33:00Z</time>
      </trkpt>
      <trkpt lat="48.90654" lon="0.25374">
        <ele>268</ele>
        <time>2019-04-28T06:33:00Z</time>
      </trkpt>
      <trkpt lat="48.90656" lon="0.25383">
        <ele>267</ele>
        <time>2019-04-28T06:33:04Z</time>
      </trkpt>
      <trkpt lat="48.90655" lon="0.2539">
        <ele>267</ele>
        <time>2019-04-28T06:33:11Z</time>
      </trkpt>
      <trkpt lat="48.90655" lon="0.25397">
        <ele>268</ele>
        <time>2019-04-28T06:33:16Z</time>
      </trkpt>
      <trkpt lat="48.90654" lon="0.25401">
        <ele>268</ele>
        <time>2019-04-28T06:33:21Z</time>
      </trkpt>
      <trkpt lat="48.90656" lon="0.25404">
        <ele>267</ele>
        <time>2019-04-28T06:33:31Z</time>
      </trkpt>
      <trkpt lat="48.90659" lon="0.25408">
        <ele>268</ele>
        <time>2019-04-28T06:33:41Z</time>
      </trkpt>
      <trkpt lat="48.90665" lon="0.25416">
        <ele>267</ele>
        <time>2019-04-28T06:33:51Z</time>
      </trkpt>
      <trkpt lat="48.90673" lon="0.25424">
        <ele>269</ele>
        <time>2019-04-28T06:34:01Z</time>
      </trkpt>
      <trkpt lat="48.90681" lon="0.25432">
        <ele>269</ele>
        <time>2019-04-28T06:34:06Z</time>
      </trkpt>
      <trkpt lat="48.90686" lon="0.25438">
        <ele>269</ele>
        <time>2019-04-28T06:34:11Z</time>
      </trkpt>
      <trkpt lat="48.90692" lon="0.25448">
        <ele>270</ele>
        <time>2019-04-28T06:34:21Z</time>
      </trkpt>
      <trkpt lat="48.90697" lon="0.25456">
        <ele>268</ele>
        <time>2019-04-28T06:34:31Z</time>
      </trkpt>
      <trkpt lat="48.90701" lon="0.25463">
        <ele>268</ele>
        <time>2019-04-28T06:34:36Z</time>
      </trkpt>
      <trkpt lat="48.90712" lon="0.25472">
        <ele>268</ele>
        <time>2019-04-28T06:34:45Z</time>
      </trkpt>
      <trkpt lat="48.90725" lon="0.2548">
        <ele>269</ele>
        <time>2019-04-28T06:34:51Z</time>
      </trkpt>
      <trkpt lat="48.90735" lon="0.25487">
        <ele>269</ele>
        <time>2019-04-28T06:34:56Z</time>
      </trkpt>
      <trkpt lat="48.90741" lon="0.25491">
        <ele>269</ele>
        <time>2019-04-28T06:35:01Z</time>
      </trkpt>
      <trkpt lat="48.90745" lon="0.25498">
        <ele>268</ele>
        <time>2019-04-28T06:35:11Z</time>
      </trkpt>
      <trkpt lat="48.90749" lon="0.25504">
        <ele>266</ele>
        <time>2019-04-28T06:35:21Z</time>
      </trkpt>
      <trkpt lat="48.90755" lon="0.25505">
        <ele>265</ele>
        <time>2019-04-28T06:35:31Z</time>
      </trkpt>
      <trkpt lat="48.90753" lon="0.2553">
        <ele>265</ele>
        <time>2019-04-28T06:35:41Z</time>
      </trkpt>
      <trkpt lat="48.90753" lon="0.25551">
        <ele>265</ele>
        <time>2019-04-28T06:35:46Z</time>
      </trkpt>
      <trkpt lat="48.90754" lon="0.25571">
        <ele>265</ele>
        <time>2019-04-28T06:35:56Z</time>
      </trkpt>
      <trkpt lat="48.90757" lon="0.25588">
        <ele>269</ele>
        <time>2019-04-28T06:36:01Z</time>
      </trkpt>
      <trkpt lat="48.90763" lon="0.25609">
        <ele>270</ele>
        <time>2019-04-28T06:36:11Z</time>
      </trkpt>
      <trkpt lat="48.90768" lon="0.25623">
        <ele>270</ele>
        <time>2019-04-28T06:36:19Z</time>
      </trkpt>
      <trkpt lat="48.90773" lon="0.25633">
        <ele>271</ele>
        <time>2019-04-28T06:36:26Z</time>
      </trkpt>
      <trkpt lat="48.90776" lon="0.25643">
        <ele>271</ele>
        <time>2019-04-28T06:36:29Z</time>
      </trkpt>
      <trkpt lat="48.9078" lon="0.25652">
        <ele>269</ele>
        <time>2019-04-28T06:36:36Z</time>
      </trkpt>
      <trkpt lat="48.90783" lon="0.25661">
        <ele>268</ele>
        <time>2019-04-28T06:36:39Z</time>
      </trkpt>
      <trkpt lat="48.90786" lon="0.25669">
        <ele>267</ele>
        <time>2019-04-28T06:36:46Z</time>
      </trkpt>
      <trkpt lat="48.90788" lon="0.25676">
        <ele>266</ele>
        <time>2019-04-28T06:36:49Z</time>
      </trkpt>
      <trkpt lat="48.90792" lon="0.25686">
        <ele>265</ele>
        <time>2019-04-28T06:36:56Z</time>
      </trkpt>
      <trkpt lat="48.90796" lon="0.25695">
        <ele>265</ele>
        <time>2019-04-28T06:37:01Z</time>
      </trkpt>
      <trkpt lat="48.908" lon="0.25703">
        <ele>267</ele>
        <time>2019-04-28T06:37:06Z</time>
      </trkpt>
      <trkpt lat="48.90804" lon="0.25712">
        <ele>266</ele>
        <time>2019-04-28T06:37:12Z</time>
      </trkpt>
      <trkpt lat="48.90807" lon="0.25721">
        <ele>265</ele>
        <time>2019-04-28T06:37:18Z</time>
      </trkpt>
      <trkpt lat="48.9081" lon="0.25732">
        <ele>266</ele>
        <time>2019-04-28T06:37:26Z</time>
      </trkpt>
      <trkpt lat="48.90813" lon="0.25743">
        <ele>266</ele>
        <time>2019-04-28T06:37:31Z</time>
      </trkpt>
      <trkpt lat="48.90819" lon="0.25753">
        <ele>266</ele>
        <time>2019-04-28T06:37:39Z</time>
      </trkpt>
      <trkpt lat="48.90825" lon="0.25765">
        <ele>266</ele>
        <time>2019-04-28T06:37:46Z</time>
      </trkpt>
      <trkpt lat="48.9083" lon="0.25777">
        <ele>267</ele>
        <time>2019-04-28T06:37:51Z</time>
      </trkpt>
      <trkpt lat="48.90834" lon="0.25789">
        <ele>268</ele>
        <time>2019-04-28T06:37:59Z</time>
      </trkpt>
      <trkpt lat="48.9084" lon="0.25799">
        <ele>269</ele>
        <time>2019-04-28T06:38:06Z</time>
      </trkpt>
      <trkpt lat="48.90848" lon="0.25798">
        <ele>269</ele>
        <time>2019-04-28T06:38:16Z</time>
      </trkpt>
      <trkpt lat="48.90854" lon="0.25793">
        <ele>270</ele>
        <time>2019-04-28T06:38:21Z</time>
      </trkpt>
      <trkpt lat="48.9086" lon="0.25788">
        <ele>270</ele>
        <time>2019-04-28T06:38:26Z</time>
      </trkpt>
      <trkpt lat="48.90867" lon="0.25777">
        <ele>271</ele>
        <time>2019-04-28T06:38:36Z</time>
      </trkpt>
      <trkpt lat="48.90872" lon="0.25767">
        <ele>271</ele>
        <time>2019-04-28T06:38:41Z</time>
      </trkpt>
      <trkpt lat="48.90877" lon="0.25758">
        <ele>271</ele>
        <time>2019-04-28T06:38:49Z</time>
      </trkpt>
      <trkpt lat="48.90881" lon="0.25754">
        <ele>269</ele>
        <time>2019-04-28T06:38:56Z</time>
      </trkpt>
      <trkpt lat="48.90887" lon="0.25756">
        <ele>267</ele>
        <time>2019-04-28T06:39:06Z</time>
      </trkpt>
      <trkpt lat="48.90891" lon="0.25762">
        <ele>266</ele>
        <time>2019-04-28T06:39:11Z</time>
      </trkpt>
      <trkpt lat="48.90898" lon="0.25769">
        <ele>266</ele>
        <time>2019-04-28T06:39:20Z</time>
      </trkpt>
      <trkpt lat="48.90906" lon="0.25776">
        <ele>267</ele>
        <time>2019-04-28T06:39:23Z</time>
      </trkpt>
      <trkpt lat="48.90912" lon="0.25782">
        <ele>267</ele>
        <time>2019-04-28T06:39:30Z</time>
      </trkpt>
      <trkpt lat="48.90919" lon="0.25787">
        <ele>267</ele>
        <time>2019-04-28T06:39:33Z</time>
      </trkpt>
      <trkpt lat="48.90925" lon="0.25791">
        <ele>267</ele>
        <time>2019-04-28T06:39:40Z</time>
      </trkpt>
      <trkpt lat="48.90931" lon="0.25795">
        <ele>266</ele>
        <time>2019-04-28T06:39:43Z</time>
      </trkpt>
      <trkpt lat="48.90937" lon="0.25801">
        <ele>265</ele>
        <time>2019-04-28T06:39:51Z</time>
      </trkpt>
      <trkpt lat="48.9094" lon="0.25806">
        <ele>265</ele>
        <time>2019-04-28T06:39:56Z</time>
      </trkpt>
      <trkpt lat="48.90943" lon="0.25813">
        <ele>263</ele>
        <time>2019-04-28T06:40:01Z</time>
      </trkpt>
      <trkpt lat="48.90948" lon="0.25823">
        <ele>262</ele>
        <time>2019-04-28T06:40:10Z</time>
      </trkpt>
      <trkpt lat="48.90952" lon="0.25832">
        <ele>262</ele>
        <time>2019-04-28T06:40:14Z</time>
      </trkpt>
      <trkpt lat="48.90957" lon="0.25841">
        <ele>261</ele>
        <time>2019-04-28T06:40:20Z</time>
      </trkpt>
      <trkpt lat="48.90963" lon="0.25847">
        <ele>260</ele>
        <time>2019-04-28T06:40:24Z</time>
      </trkpt>
      <trkpt lat="48.9097" lon="0.25854">
        <ele>258</ele>
        <time>2019-04-28T06:40:31Z</time>
      </trkpt>
      <trkpt lat="48.90977" lon="0.25859">
        <ele>258</ele>
        <time>2019-04-28T06:40:41Z</time>
      </trkpt>
      <trkpt lat="48.90982" lon="0.25865">
        <ele>256</ele>
        <time>2019-04-28T06:40:44Z</time>
      </trkpt>
      <trkpt lat="48.90988" lon="0.2587">
        <ele>256</ele>
        <time>2019-04-28T06:40:51Z</time>
      </trkpt>
      <trkpt lat="48.90994" lon="0.25875">
        <ele>256</ele>
        <time>2019-04-28T06:40:54Z</time>
      </trkpt>
      <trkpt lat="48.91" lon="0.2588">
        <ele>256</ele>
        <time>2019-04-28T06:41:01Z</time>
      </trkpt>
      <trkpt lat="48.91003" lon="0.25883">
        <ele>256</ele>
        <time>2019-04-28T06:41:04Z</time>
      </trkpt>
      <trkpt lat="48.91005" lon="0.25885">
        <ele>257</ele>
        <time>2019-04-28T06:41:11Z</time>
      </trkpt>
      <trkpt lat="48.91009" lon="0.25888">
        <ele>256</ele>
        <time>2019-04-28T06:41:14Z</time>
      </trkpt>
      <trkpt lat="48.91014" lon="0.25893">
        <ele>257</ele>
        <time>2019-04-28T06:41:21Z</time>
      </trkpt>
      <trkpt lat="48.9102" lon="0.25899">
        <ele>257</ele>
        <time>2019-04-28T06:41:24Z</time>
      </trkpt>
      <trkpt lat="48.91022" lon="0.25901">
        <ele>258</ele>
        <time>2019-04-28T06:41:31Z</time>
      </trkpt>
      <trkpt lat="48.91024" lon="0.25904">
        <ele>259</ele>
        <time>2019-04-28T06:41:34Z</time>
      </trkpt>
      <trkpt lat="48.91025" lon="0.25907">
        <ele>259</ele>
        <time>2019-04-28T06:41:41Z</time>
      </trkpt>
      <trkpt lat="48.91028" lon="0.25912">
        <ele>258</ele>
        <time>2019-04-28T06:41:45Z</time>
      </trkpt>
      <trkpt lat="48.91032" lon="0.25918">
        <ele>258</ele>
        <time>2019-04-28T06:41:51Z</time>
      </trkpt>
      <trkpt lat="48.91036" lon="0.25925">
        <ele>259</ele>
        <time>2019-04-28T06:41:55Z</time>
      </trkpt>
      <trkpt lat="48.91043" lon="0.25932">
        <ele>260</ele>
        <time>2019-04-28T06:42:01Z</time>
      </trkpt>
      <trkpt lat="48.91047" lon="0.25935">
        <ele>260</ele>
        <time>2019-04-28T06:42:06Z</time>
      </trkpt>
      <trkpt lat="48.91048" lon="0.25936">
        <ele>260</ele>
        <time>2019-04-28T06:42:13Z</time>
      </trkpt>
      <trkpt lat="48.91049" lon="0.25936">
        <ele>259</ele>
        <time>2019-04-28T06:42:17Z</time>
      </trkpt>
      <trkpt lat="48.91052" lon="0.25937">
        <ele>259</ele>
        <time>2019-04-28T06:42:23Z</time>
      </trkpt>
      <trkpt lat="48.91058" lon="0.25939">
        <ele>259</ele>
        <time>2019-04-28T06:42:27Z</time>
      </trkpt>
      <trkpt lat="48.91068" lon="0.25942">
        <ele>260</ele>
        <time>2019-04-28T06:42:33Z</time>
      </trkpt>
      <trkpt lat="48.91078" lon="0.25948">
        <ele>261</ele>
        <time>2019-04-28T06:42:37Z</time>
      </trkpt>
      <trkpt lat="48.91085" lon="0.25954">
        <ele>258</ele>
        <time>2019-04-28T06:42:43Z</time>
      </trkpt>
      <trkpt lat="48.91092" lon="0.2596">
        <ele>257</ele>
        <time>2019-04-28T06:42:47Z</time>
      </trkpt>
      <trkpt lat="48.91098" lon="0.25965">
        <ele>258</ele>
        <time>2019-04-28T06:42:54Z</time>
      </trkpt>
      <trkpt lat="48.91103" lon="0.2597">
        <ele>259</ele>
        <time>2019-04-28T06:42:57Z</time>
      </trkpt>
      <trkpt lat="48.91106" lon="0.25973">
        <ele>259</ele>
        <time>2019-04-28T06:43:04Z</time>
      </trkpt>
      <trkpt lat="48.91107" lon="0.25975">
        <ele>258</ele>
        <time>2019-04-28T06:43:07Z</time>
      </trkpt>
      <trkpt lat="48.91107" lon="0.25977">
        <ele>255</ele>
        <time>2019-04-28T06:43:14Z</time>
      </trkpt>
      <trkpt lat="48.91106" lon="0.25985">
        <ele>254</ele>
        <time>2019-04-28T06:43:17Z</time>
      </trkpt>
      <trkpt lat="48.91105" lon="0.25989">
        <ele>254</ele>
        <time>2019-04-28T06:43:24Z</time>
      </trkpt>
      <trkpt lat="48.91102" lon="0.25994">
        <ele>254</ele>
        <time>2019-04-28T06:43:27Z</time>
      </trkpt>
      <trkpt lat="48.911" lon="0.26001">
        <ele>254</ele>
        <time>2019-04-28T06:43:34Z</time>
      </trkpt>
      <trkpt lat="48.91097" lon="0.26008">
        <ele>253</ele>
        <time>2019-04-28T06:43:37Z</time>
      </trkpt>
      <trkpt lat="48.91092" lon="0.26018">
        <ele>253</ele>
        <time>2019-04-28T06:43:44Z</time>
      </trkpt>
      <trkpt lat="48.9109" lon="0.26023">
        <ele>251</ele>
        <time>2019-04-28T06:43:47Z</time>
      </trkpt>
      <trkpt lat="48.91087" lon="0.26027">
        <ele>250</ele>
        <time>2019-04-28T06:43:54Z</time>
      </trkpt>
      <trkpt lat="48.91084" lon="0.26033">
        <ele>251</ele>
        <time>2019-04-28T06:43:58Z</time>
      </trkpt>
      <trkpt lat="48.9108" lon="0.26041">
        <ele>250</ele>
        <time>2019-04-28T06:44:04Z</time>
      </trkpt>
      <trkpt lat="48.91077" lon="0.26047">
        <ele>250</ele>
        <time>2019-04-28T06:44:08Z</time>
      </trkpt>
      <trkpt lat="48.91072" lon="0.26053">
        <ele>249</ele>
        <time>2019-04-28T06:44:14Z</time>
      </trkpt>
      <trkpt lat="48.91068" lon="0.26056">
        <ele>250</ele>
        <time>2019-04-28T06:44:18Z</time>
      </trkpt>
      <trkpt lat="48.91065" lon="0.26059">
        <ele>249</ele>
        <time>2019-04-28T06:44:24Z</time>
      </trkpt>
      <trkpt lat="48.9106" lon="0.26065">
        <ele>249</ele>
        <time>2019-04-28T06:44:28Z</time>
      </trkpt>
      <trkpt lat="48.91053" lon="0.2607">
        <ele>248</ele>
        <time>2019-04-28T06:44:35Z</time>
      </trkpt>
      <trkpt lat="48.91046" lon="0.26074">
        <ele>247</ele>
        <time>2019-04-28T06:44:38Z</time>
      </trkpt>
      <trkpt lat="48.9104" lon="0.26076">
        <ele>248</ele>
        <time>2019-04-28T06:44:45Z</time>
      </trkpt>
      <trkpt lat="48.91035" lon="0.26077">
        <ele>248</ele>
        <time>2019-04-28T06:44:48Z</time>
      </trkpt>
      <trkpt lat="48.91033" lon="0.26077">
        <ele>248</ele>
        <time>2019-04-28T06:44:55Z</time>
      </trkpt>
      <trkpt lat="48.91032" lon="0.26077">
        <ele>248</ele>
        <time>2019-04-28T06:44:58Z</time>
      </trkpt>
      <trkpt lat="48.91032" lon="0.26077">
        <ele>248</ele>
        <time>2019-04-28T06:45:05Z</time>
      </trkpt>
      <trkpt lat="48.9103" lon="0.26078">
        <ele>249</ele>
        <time>2019-04-28T06:45:08Z</time>
      </trkpt>
      <trkpt lat="48.91025" lon="0.2608">
        <ele>250</ele>
        <time>2019-04-28T06:45:15Z</time>
      </trkpt>
      <trkpt lat="48.91018" lon="0.26082">
        <ele>251</ele>
        <time>2019-04-28T06:45:18Z</time>
      </trkpt>
      <trkpt lat="48.91011" lon="0.26083">
        <ele>249</ele>
        <time>2019-04-28T06:45:25Z</time>
      </trkpt>
      <trkpt lat="48.91005" lon="0.26082">
        <ele>247</ele>
        <time>2019-04-28T06:45:28Z</time>
      </trkpt>
      <trkpt lat="48.90998" lon="0.26081">
        <ele>243</ele>
        <time>2019-04-28T06:45:35Z</time>
      </trkpt>
      <trkpt lat="48.90991" lon="0.2608">
        <ele>241</ele>
        <time>2019-04-28T06:45:38Z</time>
      </trkpt>
      <trkpt lat="48.90988" lon="0.2608">
        <ele>241</ele>
        <time>2019-04-28T06:45:45Z</time>
      </trkpt>
      <trkpt lat="48.90985" lon="0.2608">
        <ele>238</ele>
        <time>2019-04-28T06:45:49Z</time>
      </trkpt>
      <trkpt lat="48.9098" lon="0.26081">
        <ele>237</ele>
        <time>2019-04-28T06:45:55Z</time>
      </trkpt>
      <trkpt lat="48.90972" lon="0.26082">
        <ele>236</ele>
        <time>2019-04-28T06:45:59Z</time>
      </trkpt>
      <trkpt lat="48.90959" lon="0.26083">
        <ele>235</ele>
        <time>2019-04-28T06:46:05Z</time>
      </trkpt>
      <trkpt lat="48.90952" lon="0.26085">
        <ele>235</ele>
        <time>2019-04-28T06:46:11Z</time>
      </trkpt>
      <trkpt lat="48.90948" lon="0.26086">
        <ele>235</ele>
        <time>2019-04-28T06:46:16Z</time>
      </trkpt>
      <trkpt lat="48.90944" lon="0.26087">
        <ele>233</ele>
        <time>2019-04-28T06:46:26Z</time>
      </trkpt>
      <trkpt lat="48.9094" lon="0.26089">
        <ele>232</ele>
        <time>2019-04-28T06:46:29Z</time>
      </trkpt>
      <trkpt lat="48.90933" lon="0.26093">
        <ele>231</ele>
        <time>2019-04-28T06:46:36Z</time>
      </trkpt>
      <trkpt lat="48.90924" lon="0.26098">
        <ele>228</ele>
        <time>2019-04-28T06:46:39Z</time>
      </trkpt>
      <trkpt lat="48.90915" lon="0.26102">
        <ele>228</ele>
        <time>2019-04-28T06:46:46Z</time>
      </trkpt>
      <trkpt lat="48.90912" lon="0.26104">
        <ele>229</ele>
        <time>2019-04-28T06:46:49Z</time>
      </trkpt>
      <trkpt lat="48.90908" lon="0.26104">
        <ele>231</ele>
        <time>2019-04-28T06:46:56Z</time>
      </trkpt>
      <trkpt lat="48.90904" lon="0.26106">
        <ele>233</ele>
        <time>2019-04-28T06:46:59Z</time>
      </trkpt>
      <trkpt lat="48.90895" lon="0.26113">
        <ele>232</ele>
        <time>2019-04-28T06:47:06Z</time>
      </trkpt>
      <trkpt lat="48.90892" lon="0.26117">
        <ele>232</ele>
        <time>2019-04-28T06:47:09Z</time>
      </trkpt>
      <trkpt lat="48.90889" lon="0.2612">
        <ele>231</ele>
        <time>2019-04-28T06:47:16Z</time>
      </trkpt>
      <trkpt lat="48.90882" lon="0.26137">
        <ele>231</ele>
        <time>2019-04-28T06:47:21Z</time>
      </trkpt>
      <trkpt lat="48.90879" lon="0.26144">
        <ele>231</ele>
        <time>2019-04-28T06:47:26Z</time>
      </trkpt>
      <trkpt lat="48.90877" lon="0.26148">
        <ele>227</ele>
        <time>2019-04-28T06:47:36Z</time>
      </trkpt>
      <trkpt lat="48.90875" lon="0.26152">
        <ele>226</ele>
        <time>2019-04-28T06:47:41Z</time>
      </trkpt>
      <trkpt lat="48.90869" lon="0.26159">
        <ele>225</ele>
        <time>2019-04-28T06:47:46Z</time>
      </trkpt>
      <trkpt lat="48.90861" lon="0.26172">
        <ele>226</ele>
        <time>2019-04-28T06:47:52Z</time>
      </trkpt>
      <trkpt lat="48.90856" lon="0.26182">
        <ele>226</ele>
        <time>2019-04-28T06:47:58Z</time>
      </trkpt>
      <trkpt lat="48.90852" lon="0.26195">
        <ele>221</ele>
        <time>2019-04-28T06:48:02Z</time>
      </trkpt>
      <trkpt lat="48.9085" lon="0.26212">
        <ele>217</ele>
        <time>2019-04-28T06:48:08Z</time>
      </trkpt>
      <trkpt lat="48.90848" lon="0.2622">
        <ele>216</ele>
        <time>2019-04-28T06:48:12Z</time>
      </trkpt>
      <trkpt lat="48.90846" lon="0.26226">
        <ele>215</ele>
        <time>2019-04-28T06:48:18Z</time>
      </trkpt>
      <trkpt lat="48.90843" lon="0.26232">
        <ele>212</ele>
        <time>2019-04-28T06:48:22Z</time>
      </trkpt>
      <trkpt lat="48.90839" lon="0.26238">
        <ele>210</ele>
        <time>2019-04-28T06:48:29Z</time>
      </trkpt>
      <trkpt lat="48.90836" lon="0.26246">
        <ele>210</ele>
        <time>2019-04-28T06:48:32Z</time>
      </trkpt>
      <trkpt lat="48.90834" lon="0.26254">
        <ele>212</ele>
        <time>2019-04-28T06:48:39Z</time>
      </trkpt>
      <trkpt lat="48.90832" lon="0.26261">
        <ele>211</ele>
        <time>2019-04-28T06:48:43Z</time>
      </trkpt>
      <trkpt lat="48.90829" lon="0.26267">
        <ele>212</ele>
        <time>2019-04-28T06:48:49Z</time>
      </trkpt>
      <trkpt lat="48.90824" lon="0.26272">
        <ele>212</ele>
        <time>2019-04-28T06:48:53Z</time>
      </trkpt>
      <trkpt lat="48.90817" lon="0.26276">
        <ele>210</ele>
        <time>2019-04-28T06:48:59Z</time>
      </trkpt>
      <trkpt lat="48.90811" lon="0.26279">
        <ele>210</ele>
        <time>2019-04-28T06:49:03Z</time>
      </trkpt>
      <trkpt lat="48.90805" lon="0.26281">
        <ele>211</ele>
        <time>2019-04-28T06:49:10Z</time>
      </trkpt>
      <trkpt lat="48.90801" lon="0.26283">
        <ele>211</ele>
        <time>2019-04-28T06:49:13Z</time>
      </trkpt>
      <trkpt lat="48.90795" lon="0.26284">
        <ele>211</ele>
        <time>2019-04-28T06:49:20Z</time>
      </trkpt>
      <trkpt lat="48.90792" lon="0.26285">
        <ele>212</ele>
        <time>2019-04-28T06:49:23Z</time>
      </trkpt>
      <trkpt lat="48.9079" lon="0.26285">
        <ele>213</ele>
        <time>2019-04-28T06:49:30Z</time>
      </trkpt>
      <trkpt lat="48.90783" lon="0.26286">
        <ele>214</ele>
        <time>2019-04-28T06:49:33Z</time>
      </trkpt>
      <trkpt lat="48.90773" lon="0.26289">
        <ele>214</ele>
        <time>2019-04-28T06:49:40Z</time>
      </trkpt>
      <trkpt lat="48.90768" lon="0.2629">
        <ele>215</ele>
        <time>2019-04-28T06:49:43Z</time>
      </trkpt>
      <trkpt lat="48.90765" lon="0.26291">
        <ele>215</ele>
        <time>2019-04-28T06:49:50Z</time>
      </trkpt>
      <trkpt lat="48.9076" lon="0.26293">
        <ele>214</ele>
        <time>2019-04-28T06:49:53Z</time>
      </trkpt>
      <trkpt lat="48.90753" lon="0.26294">
        <ele>214</ele>
        <time>2019-04-28T06:50:00Z</time>
      </trkpt>
      <trkpt lat="48.90746" lon="0.26296">
        <ele>213</ele>
        <time>2019-04-28T06:50:04Z</time>
      </trkpt>
      <trkpt lat="48.9074" lon="0.26298">
        <ele>212</ele>
        <time>2019-04-28T06:50:10Z</time>
      </trkpt>
      <trkpt lat="48.90734" lon="0.263">
        <ele>212</ele>
        <time>2019-04-28T06:50:14Z</time>
      </trkpt>
      <trkpt lat="48.90728" lon="0.26303">
        <ele>212</ele>
        <time>2019-04-28T06:50:20Z</time>
      </trkpt>
      <trkpt lat="48.90722" lon="0.26306">
        <ele>214</ele>
        <time>2019-04-28T06:50:24Z</time>
      </trkpt>
      <trkpt lat="48.90717" lon="0.26309">
        <ele>215</ele>
        <time>2019-04-28T06:50:30Z</time>
      </trkpt>
      <trkpt lat="48.90712" lon="0.26312">
        <ele>217</ele>
        <time>2019-04-28T06:50:34Z</time>
      </trkpt>
      <trkpt lat="48.90708" lon="0.26318">
        <ele>217</ele>
        <time>2019-04-28T06:50:41Z</time>
      </trkpt>
      <trkpt lat="48.90702" lon="0.26328">
        <ele>216</ele>
        <time>2019-04-28T06:50:44Z</time>
      </trkpt>
      <trkpt lat="48.90699" lon="0.26332">
        <ele>216</ele>
        <time>2019-04-28T06:50:51Z</time>
      </trkpt>
      <trkpt lat="48.90695" lon="0.26335">
        <ele>216</ele>
        <time>2019-04-28T06:50:54Z</time>
      </trkpt>
      <trkpt lat="48.9069" lon="0.26341">
        <ele>216</ele>
        <time>2019-04-28T06:51:01Z</time>
      </trkpt>
      <trkpt lat="48.90683" lon="0.26349">
        <ele>217</ele>
        <time>2019-04-28T06:51:04Z</time>
      </trkpt>
      <trkpt lat="48.90677" lon="0.26356">
        <ele>216</ele>
        <time>2019-04-28T06:51:11Z</time>
      </trkpt>
      <trkpt lat="48.90671" lon="0.26362">
        <ele>215</ele>
        <time>2019-04-28T06:51:14Z</time>
      </trkpt>
      <trkpt lat="48.90665" lon="0.26368">
        <ele>214</ele>
        <time>2019-04-28T06:51:21Z</time>
      </trkpt>
      <trkpt lat="48.9066" lon="0.26372">
        <ele>213</ele>
        <time>2019-04-28T06:51:24Z</time>
      </trkpt>
      <trkpt lat="48.90655" lon="0.26375">
        <ele>213</ele>
        <time>2019-04-28T06:51:31Z</time>
      </trkpt>
      <trkpt lat="48.9065" lon="0.26378">
        <ele>214</ele>
        <time>2019-04-28T06:51:34Z</time>
      </trkpt>
      <trkpt lat="48.90644" lon="0.26381">
        <ele>214</ele>
        <time>2019-04-28T06:51:41Z</time>
      </trkpt>
      <trkpt lat="48.90638" lon="0.26383">
        <ele>212</ele>
        <time>2019-04-28T06:51:45Z</time>
      </trkpt>
      <trkpt lat="48.90632" lon="0.26384">
        <ele>210</ele>
        <time>2019-04-28T06:51:51Z</time>
      </trkpt>
      <trkpt lat="48.90625" lon="0.26385">
        <ele>209</ele>
        <time>2019-04-28T06:51:56Z</time>
      </trkpt>
      <trkpt lat="48.90617" lon="0.26386">
        <ele>209</ele>
        <time>2019-04-28T06:52:01Z</time>
      </trkpt>
      <trkpt lat="48.9061" lon="0.26386">
        <ele>209</ele>
        <time>2019-04-28T06:52:06Z</time>
      </trkpt>
      <trkpt lat="48.90602" lon="0.26385">
        <ele>210</ele>
        <time>2019-04-28T06:52:13Z</time>
      </trkpt>
      <trkpt lat="48.90595" lon="0.26382">
        <ele>211</ele>
        <time>2019-04-28T06:52:17Z</time>
      </trkpt>
      <trkpt lat="48.90588" lon="0.2638">
        <ele>212</ele>
        <time>2019-04-28T06:52:23Z</time>
      </trkpt>
      <trkpt lat="48.90583" lon="0.2638">
        <ele>211</ele>
        <time>2019-04-28T06:52:27Z</time>
      </trkpt>
      <trkpt lat="48.90578" lon="0.2638">
        <ele>210</ele>
        <time>2019-04-28T06:52:33Z</time>
      </trkpt>
      <trkpt lat="48.90571" lon="0.26383">
        <ele>211</ele>
        <time>2019-04-28T06:52:37Z</time>
      </trkpt>
      <trkpt lat="48.90564" lon="0.26386">
        <ele>213</ele>
        <time>2019-04-28T06:52:43Z</time>
      </trkpt>
      <trkpt lat="48.90557" lon="0.26388">
        <ele>212</ele>
        <time>2019-04-28T06:52:47Z</time>
      </trkpt>
      <trkpt lat="48.9055" lon="0.26388">
        <ele>214</ele>
        <time>2019-04-28T06:52:53Z</time>
      </trkpt>
      <trkpt lat="48.90543" lon="0.26386">
        <ele>214</ele>
        <time>2019-04-28T06:52:57Z</time>
      </trkpt>
      <trkpt lat="48.90536" lon="0.26383">
        <ele>214</ele>
        <time>2019-04-28T06:53:04Z</time>
      </trkpt>
      <trkpt lat="48.90529" lon="0.26381">
        <ele>213</ele>
        <time>2019-04-28T06:53:07Z</time>
      </trkpt>
      <trkpt lat="48.90524" lon="0.2638">
        <ele>212</ele>
        <time>2019-04-28T06:53:14Z</time>
      </trkpt>
      <trkpt lat="48.90518" lon="0.26378">
        <ele>210</ele>
        <time>2019-04-28T06:53:17Z</time>
      </trkpt>
      <trkpt lat="48.90513" lon="0.26377">
        <ele>209</ele>
        <time>2019-04-28T06:53:24Z</time>
      </trkpt>
      <trkpt lat="48.90507" lon="0.26376">
        <ele>210</ele>
        <time>2019-04-28T06:53:27Z</time>
      </trkpt>
      <trkpt lat="48.90499" lon="0.26377">
        <ele>209</ele>
        <time>2019-04-28T06:53:34Z</time>
      </trkpt>
      <trkpt lat="48.90491" lon="0.2638">
        <ele>211</ele>
        <time>2019-04-28T06:53:38Z</time>
      </trkpt>
      <trkpt lat="48.90485" lon="0.26382">
        <ele>213</ele>
        <time>2019-04-28T06:53:44Z</time>
      </trkpt>
      <trkpt lat="48.90478" lon="0.26384">
        <ele>213</ele>
        <time>2019-04-28T06:53:48Z</time>
      </trkpt>
      <trkpt lat="48.90472" lon="0.26385">
        <ele>213</ele>
        <time>2019-04-28T06:53:54Z</time>
      </trkpt>
      <trkpt lat="48.90465" lon="0.26384">
        <ele>215</ele>
        <time>2019-04-28T06:53:58Z</time>
      </trkpt>
      <trkpt lat="48.90458" lon="0.26384">
        <ele>216</ele>
        <time>2019-04-28T06:54:05Z</time>
      </trkpt>
      <trkpt lat="48.9045" lon="0.26385">
        <ele>218</ele>
        <time>2019-04-28T06:54:10Z</time>
      </trkpt>
      <trkpt lat="48.9044" lon="0.26386">
        <ele>220</ele>
        <time>2019-04-28T06:54:13Z</time>
      </trkpt>
      <trkpt lat="48.90436" lon="0.26387">
        <ele>221</ele>
        <time>2019-04-28T06:54:20Z</time>
      </trkpt>
      <trkpt lat="48.9043" lon="0.26387">
        <ele>222</ele>
        <time>2019-04-28T06:54:23Z</time>
      </trkpt>
      <trkpt lat="48.90423" lon="0.26387">
        <ele>224</ele>
        <time>2019-04-28T06:54:30Z</time>
      </trkpt>
      <trkpt lat="48.90415" lon="0.26386">
        <ele>224</ele>
        <time>2019-04-28T06:54:33Z</time>
      </trkpt>
      <trkpt lat="48.90407" lon="0.26385">
        <ele>224</ele>
        <time>2019-04-28T06:54:40Z</time>
      </trkpt>
      <trkpt lat="48.904" lon="0.26384">
        <ele>224</ele>
        <time>2019-04-28T06:54:43Z</time>
      </trkpt>
      <trkpt lat="48.90393" lon="0.26384">
        <ele>224</ele>
        <time>2019-04-28T06:54:50Z</time>
      </trkpt>
      <trkpt lat="48.90386" lon="0.26384">
        <ele>224</ele>
        <time>2019-04-28T06:54:53Z</time>
      </trkpt>
      <trkpt lat="48.90378" lon="0.26385">
        <ele>223</ele>
        <time>2019-04-28T06:55:00Z</time>
      </trkpt>
      <trkpt lat="48.90371" lon="0.26385">
        <ele>221</ele>
        <time>2019-04-28T06:55:04Z</time>
      </trkpt>
      <trkpt lat="48.90363" lon="0.26383">
        <ele>221</ele>
        <time>2019-04-28T06:55:10Z</time>
      </trkpt>
      <trkpt lat="48.90356" lon="0.26381">
        <ele>221</ele>
        <time>2019-04-28T06:55:14Z</time>
      </trkpt>
      <trkpt lat="48.90345" lon="0.26377">
        <ele>221</ele>
        <time>2019-04-28T06:55:21Z</time>
      </trkpt>
      <trkpt lat="48.90336" lon="0.26375">
        <ele>221</ele>
        <time>2019-04-28T06:55:31Z</time>
      </trkpt>
      <trkpt lat="48.90328" lon="0.26373">
        <ele>222</ele>
        <time>2019-04-28T06:55:34Z</time>
      </trkpt>
      <trkpt lat="48.90321" lon="0.26369">
        <ele>221</ele>
        <time>2019-04-28T06:55:41Z</time>
      </trkpt>
      <trkpt lat="48.90313" lon="0.26365">
        <ele>221</ele>
        <time>2019-04-28T06:55:44Z</time>
      </trkpt>
      <trkpt lat="48.90306" lon="0.26361">
        <ele>221</ele>
        <time>2019-04-28T06:55:51Z</time>
      </trkpt>
      <trkpt lat="48.90299" lon="0.26359">
        <ele>220</ele>
        <time>2019-04-28T06:55:54Z</time>
      </trkpt>
      <trkpt lat="48.90292" lon="0.26358">
        <ele>217</ele>
        <time>2019-04-28T06:56:01Z</time>
      </trkpt>
      <trkpt lat="48.90286" lon="0.26357">
        <ele>216</ele>
        <time>2019-04-28T06:56:04Z</time>
      </trkpt>
      <trkpt lat="48.90279" lon="0.26355">
        <ele>214</ele>
        <time>2019-04-28T06:56:11Z</time>
      </trkpt>
      <trkpt lat="48.90273" lon="0.26353">
        <ele>213</ele>
        <time>2019-04-28T06:56:14Z</time>
      </trkpt>
      <trkpt lat="48.90266" lon="0.2635">
        <ele>212</ele>
        <time>2019-04-28T06:56:21Z</time>
      </trkpt>
      <trkpt lat="48.9026" lon="0.26346">
        <ele>211</ele>
        <time>2019-04-28T06:56:24Z</time>
      </trkpt>
      <trkpt lat="48.90254" lon="0.26345">
        <ele>210</ele>
        <time>2019-04-28T06:56:31Z</time>
      </trkpt>
      <trkpt lat="48.90248" lon="0.26345">
        <ele>209</ele>
        <time>2019-04-28T06:56:35Z</time>
      </trkpt>
      <trkpt lat="48.90241" lon="0.26345">
        <ele>207</ele>
        <time>2019-04-28T06:56:41Z</time>
      </trkpt>
      <trkpt lat="48.90234" lon="0.26345">
        <ele>206</ele>
        <time>2019-04-28T06:56:45Z</time>
      </trkpt>
      <trkpt lat="48.90227" lon="0.26346">
        <ele>205</ele>
        <time>2019-04-28T06:56:51Z</time>
      </trkpt>
      <trkpt lat="48.90219" lon="0.26347">
        <ele>204</ele>
        <time>2019-04-28T06:56:55Z</time>
      </trkpt>
      <trkpt lat="48.90209" lon="0.2635">
        <ele>203</ele>
        <time>2019-04-28T06:57:01Z</time>
      </trkpt>
      <trkpt lat="48.90199" lon="0.26352">
        <ele>203</ele>
        <time>2019-04-28T06:57:06Z</time>
      </trkpt>
      <trkpt lat="48.90193" lon="0.26354">
        <ele>202</ele>
        <time>2019-04-28T06:57:11Z</time>
      </trkpt>
      <trkpt lat="48.90184" lon="0.26355">
        <ele>201</ele>
        <time>2019-04-28T06:57:16Z</time>
      </trkpt>
      <trkpt lat="48.90177" lon="0.26357">
        <ele>202</ele>
        <time>2019-04-28T06:57:23Z</time>
      </trkpt>
      <trkpt lat="48.90171" lon="0.2636">
        <ele>203</ele>
        <time>2019-04-28T06:57:26Z</time>
      </trkpt>
      <trkpt lat="48.90164" lon="0.26364">
        <ele>204</ele>
        <time>2019-04-28T06:57:33Z</time>
      </trkpt>
      <trkpt lat="48.90157" lon="0.26369">
        <ele>204</ele>
        <time>2019-04-28T06:57:37Z</time>
      </trkpt>
      <trkpt lat="48.90151" lon="0.26373">
        <ele>205</ele>
        <time>2019-04-28T06:57:43Z</time>
      </trkpt>
      <trkpt lat="48.90145" lon="0.26379">
        <ele>205</ele>
        <time>2019-04-28T06:57:47Z</time>
      </trkpt>
      <trkpt lat="48.90139" lon="0.26385">
        <ele>208</ele>
        <time>2019-04-28T06:57:53Z</time>
      </trkpt>
      <trkpt lat="48.90132" lon="0.26391">
        <ele>212</ele>
        <time>2019-04-28T06:57:57Z</time>
      </trkpt>
      <trkpt lat="48.90124" lon="0.26397">
        <ele>214</ele>
        <time>2019-04-28T06:58:04Z</time>
      </trkpt>
      <trkpt lat="48.90117" lon="0.26404">
        <ele>216</ele>
        <time>2019-04-28T06:58:07Z</time>
      </trkpt>
      <trkpt lat="48.90111" lon="0.26411">
        <ele>218</ele>
        <time>2019-04-28T06:58:14Z</time>
      </trkpt>
      <trkpt lat="48.90104" lon="0.26417">
        <ele>221</ele>
        <time>2019-04-28T06:58:17Z</time>
      </trkpt>
      <trkpt lat="48.90097" lon="0.26422">
        <ele>222</ele>
        <time>2019-04-28T06:58:24Z</time>
      </trkpt>
      <trkpt lat="48.90091" lon="0.26427">
        <ele>222</ele>
        <time>2019-04-28T06:58:27Z</time>
      </trkpt>
      <trkpt lat="48.90086" lon="0.2643">
        <ele>221</ele>
        <time>2019-04-28T06:58:34Z</time>
      </trkpt>
      <trkpt lat="48.9008" lon="0.26434">
        <ele>221</ele>
        <time>2019-04-28T06:58:37Z</time>
      </trkpt>
      <trkpt lat="48.90074" lon="0.26439">
        <ele>222</ele>
        <time>2019-04-28T06:58:44Z</time>
      </trkpt>
      <trkpt lat="48.90068" lon="0.26445">
        <ele>223</ele>
        <time>2019-04-28T06:58:47Z</time>
      </trkpt>
      <trkpt lat="48.90061" lon="0.26453">
        <ele>223</ele>
        <time>2019-04-28T06:58:54Z</time>
      </trkpt>
      <trkpt lat="48.90055" lon="0.26459">
        <ele>223</ele>
        <time>2019-04-28T06:58:57Z</time>
      </trkpt>
      <trkpt lat="48.90048" lon="0.26464">
        <ele>223</ele>
        <time>2019-04-28T06:59:04Z</time>
      </trkpt>
      <trkpt lat="48.90042" lon="0.26469">
        <ele>222</ele>
        <time>2019-04-28T06:59:07Z</time>
      </trkpt>
      <trkpt lat="48.90036" lon="0.26472">
        <ele>223</ele>
        <time>2019-04-28T06:59:14Z</time>
      </trkpt>
      <trkpt lat="48.90031" lon="0.26475">
        <ele>224</ele>
        <time>2019-04-28T06:59:17Z</time>
      </trkpt>
      <trkpt lat="48.90025" lon="0.26479">
        <ele>224</ele>
        <time>2019-04-28T06:59:24Z</time>
      </trkpt>
      <trkpt lat="48.90018" lon="0.26483">
        <ele>225</ele>
        <time>2019-04-28T06:59:27Z</time>
      </trkpt>
      <trkpt lat="48.90012" lon="0.26488">
        <ele>224</ele>
        <time>2019-04-28T06:59:34Z</time>
      </trkpt>
      <trkpt lat="48.90007" lon="0.26494">
        <ele>222</ele>
        <time>2019-04-28T06:59:38Z</time>
      </trkpt>
      <trkpt lat="48.90001" lon="0.265">
        <ele>221</ele>
        <time>2019-04-28T06:59:44Z</time>
      </trkpt>
      <trkpt lat="48.89996" lon="0.26505">
        <ele>221</ele>
        <time>2019-04-28T06:59:48Z</time>
      </trkpt>
      <trkpt lat="48.89992" lon="0.26512">
        <ele>221</ele>
        <time>2019-04-28T06:59:54Z</time>
      </trkpt>
      <trkpt lat="48.89987" lon="0.26517">
        <ele>219</ele>
        <time>2019-04-28T06:59:58Z</time>
      </trkpt>
      <trkpt lat="48.89981" lon="0.26522">
        <ele>219</ele>
        <time>2019-04-28T07:00:05Z</time>
      </trkpt>
      <trkpt lat="48.89974" lon="0.26528">
        <ele>219</ele>
        <time>2019-04-28T07:00:08Z</time>
      </trkpt>
      <trkpt lat="48.89968" lon="0.26533">
        <ele>221</ele>
        <time>2019-04-28T07:00:15Z</time>
      </trkpt>
      <trkpt lat="48.89962" lon="0.26538">
        <ele>222</ele>
        <time>2019-04-28T07:00:18Z</time>
      </trkpt>
      <trkpt lat="48.89956" lon="0.26541">
        <ele>224</ele>
        <time>2019-04-28T07:00:25Z</time>
      </trkpt>
      <trkpt lat="48.8995" lon="0.26543">
        <ele>225</ele>
        <time>2019-04-28T07:00:28Z</time>
      </trkpt>
      <trkpt lat="48.89944" lon="0.26546">
        <ele>224</ele>
        <time>2019-04-28T07:00:35Z</time>
      </trkpt>
      <trkpt lat="48.89937" lon="0.2655">
        <ele>224</ele>
        <time>2019-04-28T07:00:38Z</time>
      </trkpt>
      <trkpt lat="48.89931" lon="0.26555">
        <ele>223</ele>
        <time>2019-04-28T07:00:45Z</time>
      </trkpt>
      <trkpt lat="48.89924" lon="0.2656">
        <ele>223</ele>
        <time>2019-04-28T07:00:48Z</time>
      </trkpt>
      <trkpt lat="48.89918" lon="0.26566">
        <ele>222</ele>
        <time>2019-04-28T07:00:54Z</time>
      </trkpt>
      <trkpt lat="48.89909" lon="0.26573">
        <ele>222</ele>
        <time>2019-04-28T07:00:59Z</time>
      </trkpt>
      <trkpt lat="48.899" lon="0.26582">
        <ele>221</ele>
        <time>2019-04-28T07:01:08Z</time>
      </trkpt>
      <trkpt lat="48.89893" lon="0.26589">
        <ele>221</ele>
        <time>2019-04-28T07:01:15Z</time>
      </trkpt>
      <trkpt lat="48.89885" lon="0.26594">
        <ele>220</ele>
        <time>2019-04-28T07:01:19Z</time>
      </trkpt>
      <trkpt lat="48.89878" lon="0.26599">
        <ele>219</ele>
        <time>2019-04-28T07:01:25Z</time>
      </trkpt>
      <trkpt lat="48.89873" lon="0.26605">
        <ele>217</ele>
        <time>2019-04-28T07:01:29Z</time>
      </trkpt>
      <trkpt lat="48.89867" lon="0.26611">
        <ele>216</ele>
        <time>2019-04-28T07:01:36Z</time>
      </trkpt>
      <trkpt lat="48.89862" lon="0.26617">
        <ele>216</ele>
        <time>2019-04-28T07:01:39Z</time>
      </trkpt>
      <trkpt lat="48.89858" lon="0.26621">
        <ele>217</ele>
        <time>2019-04-28T07:01:46Z</time>
      </trkpt>
      <trkpt lat="48.89854" lon="0.26623">
        <ele>219</ele>
        <time>2019-04-28T07:01:49Z</time>
      </trkpt>
      <trkpt lat="48.89847" lon="0.26628">
        <ele>220</ele>
        <time>2019-04-28T07:01:56Z</time>
      </trkpt>
      <trkpt lat="48.8984" lon="0.26634">
        <ele>221</ele>
        <time>2019-04-28T07:01:59Z</time>
      </trkpt>
      <trkpt lat="48.89833" lon="0.26642">
        <ele>222</ele>
        <time>2019-04-28T07:02:06Z</time>
      </trkpt>
      <trkpt lat="48.89827" lon="0.26651">
        <ele>222</ele>
        <time>2019-04-28T07:02:09Z</time>
      </trkpt>
      <trkpt lat="48.8982" lon="0.2666">
        <ele>222</ele>
        <time>2019-04-28T07:02:16Z</time>
      </trkpt>
      <trkpt lat="48.89813" lon="0.26667">
        <ele>224</ele>
        <time>2019-04-28T07:02:19Z</time>
      </trkpt>
      <trkpt lat="48.89804" lon="0.26672">
        <ele>224</ele>
        <time>2019-04-28T07:02:26Z</time>
      </trkpt>
      <trkpt lat="48.89796" lon="0.26678">
        <ele>225</ele>
        <time>2019-04-28T07:02:29Z</time>
      </trkpt>
      <trkpt lat="48.8979" lon="0.26683">
        <ele>224</ele>
        <time>2019-04-28T07:02:36Z</time>
      </trkpt>
      <trkpt lat="48.89783" lon="0.26689">
        <ele>224</ele>
        <time>2019-04-28T07:02:40Z</time>
      </trkpt>
      <trkpt lat="48.89778" lon="0.26693">
        <ele>222</ele>
        <time>2019-04-28T07:02:46Z</time>
      </trkpt>
      <trkpt lat="48.89773" lon="0.26696">
        <ele>221</ele>
        <time>2019-04-28T07:02:50Z</time>
      </trkpt>
      <trkpt lat="48.89768" lon="0.267">
        <ele>219</ele>
        <time>2019-04-28T07:02:56Z</time>
      </trkpt>
      <trkpt lat="48.89765" lon="0.26702">
        <ele>218</ele>
        <time>2019-04-28T07:03:00Z</time>
      </trkpt>
      <trkpt lat="48.89762" lon="0.26705">
        <ele>219</ele>
        <time>2019-04-28T07:03:07Z</time>
      </trkpt>
      <trkpt lat="48.89757" lon="0.26711">
        <ele>219</ele>
        <time>2019-04-28T07:03:10Z</time>
      </trkpt>
      <trkpt lat="48.8975" lon="0.26718">
        <ele>219</ele>
        <time>2019-04-28T07:03:17Z</time>
      </trkpt>
      <trkpt lat="48.89742" lon="0.26725">
        <ele>218</ele>
        <time>2019-04-28T07:03:20Z</time>
      </trkpt>
      <trkpt lat="48.89735" lon="0.2673">
        <ele>218</ele>
        <time>2019-04-28T07:03:27Z</time>
      </trkpt>
      <trkpt lat="48.89727" lon="0.26736">
        <ele>218</ele>
        <time>2019-04-28T07:03:31Z</time>
      </trkpt>
      <trkpt lat="48.8972" lon="0.26741">
        <ele>216</ele>
        <time>2019-04-28T07:03:37Z</time>
      </trkpt>
      <trkpt lat="48.89713" lon="0.26746">
        <ele>214</ele>
        <time>2019-04-28T07:03:41Z</time>
      </trkpt>
      <trkpt lat="48.89705" lon="0.26755">
        <ele>213</ele>
        <time>2019-04-28T07:03:48Z</time>
      </trkpt>
      <trkpt lat="48.89701" lon="0.26759">
        <ele>213</ele>
        <time>2019-04-28T07:03:51Z</time>
      </trkpt>
      <trkpt lat="48.89699" lon="0.2676">
        <ele>213</ele>
        <time>2019-04-28T07:03:58Z</time>
      </trkpt>
      <trkpt lat="48.89697" lon="0.2676">
        <ele>213</ele>
        <time>2019-04-28T07:04:01Z</time>
      </trkpt>
      <trkpt lat="48.89695" lon="0.26757">
        <ele>214</ele>
        <time>2019-04-28T07:04:08Z</time>
      </trkpt>
      <trkpt lat="48.89695" lon="0.26755">
        <ele>214</ele>
        <time>2019-04-28T07:04:11Z</time>
      </trkpt>
      <trkpt lat="48.89693" lon="0.26752">
        <ele>215</ele>
        <time>2019-04-28T07:04:18Z</time>
      </trkpt>
      <trkpt lat="48.89693" lon="0.2675">
        <ele>215</ele>
        <time>2019-04-28T07:04:21Z</time>
      </trkpt>
      <trkpt lat="48.89692" lon="0.26747">
        <ele>215</ele>
        <time>2019-04-28T07:04:28Z</time>
      </trkpt>
      <trkpt lat="48.89691" lon="0.26742">
        <ele>215</ele>
        <time>2019-04-28T07:04:31Z</time>
      </trkpt>
      <trkpt lat="48.89687" lon="0.26736">
        <ele>216</ele>
        <time>2019-04-28T07:04:38Z</time>
      </trkpt>
      <trkpt lat="48.89682" lon="0.26731">
        <ele>216</ele>
        <time>2019-04-28T07:04:41Z</time>
      </trkpt>
      <trkpt lat="48.89675" lon="0.26731">
        <ele>215</ele>
        <time>2019-04-28T07:04:48Z</time>
      </trkpt>
      <trkpt lat="48.8966" lon="0.26734">
        <ele>215</ele>
        <time>2019-04-28T07:04:52Z</time>
      </trkpt>
      <trkpt lat="48.89653" lon="0.26736">
        <ele>215</ele>
        <time>2019-04-28T07:04:58Z</time>
      </trkpt>
      <trkpt lat="48.89651" lon="0.26737">
        <ele>215</ele>
        <time>2019-04-28T07:05:02Z</time>
      </trkpt>
      <trkpt lat="48.8965" lon="0.26741">
        <ele>215</ele>
        <time>2019-04-28T07:05:08Z</time>
      </trkpt>
      <trkpt lat="48.8965" lon="0.26743">
        <ele>215</ele>
        <time>2019-04-28T07:05:13Z</time>
      </trkpt>
      <trkpt lat="48.8965" lon="0.26743">
        <ele>215</ele>
        <time>2019-04-28T07:05:23Z</time>
      </trkpt>
      <trkpt lat="48.8965" lon="0.26744">
        <ele>215</ele>
        <time>2019-04-28T07:05:30Z</time>
      </trkpt>
      <trkpt lat="48.89648" lon="0.26748">
        <ele>217</ele>
        <time>2019-04-28T07:05:33Z</time>
      </trkpt>
      <trkpt lat="48.89641" lon="0.26757">
        <ele>218</ele>
        <time>2019-04-28T07:05:40Z</time>
      </trkpt>
      <trkpt lat="48.89631" lon="0.2677">
        <ele>216</ele>
        <time>2019-04-28T07:05:44Z</time>
      </trkpt>
      <trkpt lat="48.89619" lon="0.26782">
        <ele>217</ele>
        <time>2019-04-28T07:05:50Z</time>
      </trkpt>
      <trkpt lat="48.89611" lon="0.2679">
        <ele>218</ele>
        <time>2019-04-28T07:05:54Z</time>
      </trkpt>
      <trkpt lat="48.89602" lon="0.26797">
        <ele>218</ele>
        <time>2019-04-28T07:06:00Z</time>
      </trkpt>
      <trkpt lat="48.89598" lon="0.26802">
        <ele>217</ele>
        <time>2019-04-28T07:06:04Z</time>
      </trkpt>
      <trkpt lat="48.89596" lon="0.26805">
        <ele>217</ele>
        <time>2019-04-28T07:06:11Z</time>
      </trkpt>
      <trkpt lat="48.89594" lon="0.26806">
        <ele>216</ele>
        <time>2019-04-28T07:06:14Z</time>
      </trkpt>
      <trkpt lat="48.8959" lon="0.26807">
        <ele>215</ele>
        <time>2019-04-28T07:06:21Z</time>
      </trkpt>
      <trkpt lat="48.89584" lon="0.26811">
        <ele>215</ele>
        <time>2019-04-28T07:06:24Z</time>
      </trkpt>
      <trkpt lat="48.89576" lon="0.26818">
        <ele>217</ele>
        <time>2019-04-28T07:06:31Z</time>
      </trkpt>
      <trkpt lat="48.89567" lon="0.26826">
        <ele>218</ele>
        <time>2019-04-28T07:06:34Z</time>
      </trkpt>
      <trkpt lat="48.89559" lon="0.2683">
        <ele>217</ele>
        <time>2019-04-28T07:06:41Z</time>
      </trkpt>
      <trkpt lat="48.89551" lon="0.26832">
        <ele>216</ele>
        <time>2019-04-28T07:06:44Z</time>
      </trkpt>
      <trkpt lat="48.89545" lon="0.26831">
        <ele>217</ele>
        <time>2019-04-28T07:06:51Z</time>
      </trkpt>
      <trkpt lat="48.8954" lon="0.26833">
        <ele>218</ele>
        <time>2019-04-28T07:06:54Z</time>
      </trkpt>
      <trkpt lat="48.89535" lon="0.26837">
        <ele>219</ele>
        <time>2019-04-28T07:07:01Z</time>
      </trkpt>
      <trkpt lat="48.89529" lon="0.2684">
        <ele>218</ele>
        <time>2019-04-28T07:07:05Z</time>
      </trkpt>
      <trkpt lat="48.89524" lon="0.26845">
        <ele>218</ele>
        <time>2019-04-28T07:07:11Z</time>
      </trkpt>
      <trkpt lat="48.89519" lon="0.26849">
        <ele>217</ele>
        <time>2019-04-28T07:07:15Z</time>
      </trkpt>
      <trkpt lat="48.89513" lon="0.26854">
        <ele>217</ele>
        <time>2019-04-28T07:07:21Z</time>
      </trkpt>
      <trkpt lat="48.89507" lon="0.26857">
        <ele>217</ele>
        <time>2019-04-28T07:07:25Z</time>
      </trkpt>
      <trkpt lat="48.89502" lon="0.2686">
        <ele>219</ele>
        <time>2019-04-28T07:07:32Z</time>
      </trkpt>
      <trkpt lat="48.89494" lon="0.26859">
        <ele>222</ele>
        <time>2019-04-28T07:07:35Z</time>
      </trkpt>
      <trkpt lat="48.89484" lon="0.26859">
        <ele>222</ele>
        <time>2019-04-28T07:07:42Z</time>
      </trkpt>
      <trkpt lat="48.89474" lon="0.2686">
        <ele>223</ele>
        <time>2019-04-28T07:07:45Z</time>
      </trkpt>
      <trkpt lat="48.89467" lon="0.26863">
        <ele>225</ele>
        <time>2019-04-28T07:07:52Z</time>
      </trkpt>
      <trkpt lat="48.89463" lon="0.26869">
        <ele>227</ele>
        <time>2019-04-28T07:07:55Z</time>
      </trkpt>
      <trkpt lat="48.89461" lon="0.26873">
        <ele>228</ele>
        <time>2019-04-28T07:08:02Z</time>
      </trkpt>
      <trkpt lat="48.89458" lon="0.26872">
        <ele>227</ele>
        <time>2019-04-28T07:08:05Z</time>
      </trkpt>
      <trkpt lat="48.89457" lon="0.26868">
        <ele>224</ele>
        <time>2019-04-28T07:08:12Z</time>
      </trkpt>
      <trkpt lat="48.89454" lon="0.26862">
        <ele>221</ele>
        <time>2019-04-28T07:08:15Z</time>
      </trkpt>
      <trkpt lat="48.89451" lon="0.26857">
        <ele>219</ele>
        <time>2019-04-28T07:08:22Z</time>
      </trkpt>
      <trkpt lat="48.89445" lon="0.26848">
        <ele>220</ele>
        <time>2019-04-28T07:08:25Z</time>
      </trkpt>
      <trkpt lat="48.8944" lon="0.26841">
        <ele>221</ele>
        <time>2019-04-28T07:08:32Z</time>
      </trkpt>
      <trkpt lat="48.89436" lon="0.26833">
        <ele>223</ele>
        <time>2019-04-28T07:08:35Z</time>
      </trkpt>
      <trkpt lat="48.89435" lon="0.26826">
        <ele>225</ele>
        <time>2019-04-28T07:08:42Z</time>
      </trkpt>
      <trkpt lat="48.89435" lon="0.26817">
        <ele>226</ele>
        <time>2019-04-28T07:08:46Z</time>
      </trkpt>
      <trkpt lat="48.89436" lon="0.26809">
        <ele>226</ele>
        <time>2019-04-28T07:08:52Z</time>
      </trkpt>
      <trkpt lat="48.89435" lon="0.26801">
        <ele>226</ele>
        <time>2019-04-28T07:08:56Z</time>
      </trkpt>
      <trkpt lat="48.89435" lon="0.26795">
        <ele>225</ele>
        <time>2019-04-28T07:09:02Z</time>
      </trkpt>
      <trkpt lat="48.89436" lon="0.26791">
        <ele>225</ele>
        <time>2019-04-28T07:09:06Z</time>
      </trkpt>
      <trkpt lat="48.89437" lon="0.26786">
        <ele>224</ele>
        <time>2019-04-28T07:09:13Z</time>
      </trkpt>
      <trkpt lat="48.89435" lon="0.2678">
        <ele>225</ele>
        <time>2019-04-28T07:09:16Z</time>
      </trkpt>
      <trkpt lat="48.89433" lon="0.26772">
        <ele>224</ele>
        <time>2019-04-28T07:09:23Z</time>
      </trkpt>
      <trkpt lat="48.8943" lon="0.26767">
        <ele>221</ele>
        <time>2019-04-28T07:09:26Z</time>
      </trkpt>
      <trkpt lat="48.89429" lon="0.26759">
        <ele>218</ele>
        <time>2019-04-28T07:09:33Z</time>
      </trkpt>
      <trkpt lat="48.89429" lon="0.26749">
        <ele>216</ele>
        <time>2019-04-28T07:09:36Z</time>
      </trkpt>
      <trkpt lat="48.8943" lon="0.26739">
        <ele>215</ele>
        <time>2019-04-28T07:09:43Z</time>
      </trkpt>
      <trkpt lat="48.89436" lon="0.26727">
        <ele>212</ele>
        <time>2019-04-28T07:09:46Z</time>
      </trkpt>
      <trkpt lat="48.89442" lon="0.26716">
        <ele>210</ele>
        <time>2019-04-28T07:09:53Z</time>
      </trkpt>
      <trkpt lat="48.89447" lon="0.26707">
        <ele>211</ele>
        <time>2019-04-28T07:09:56Z</time>
      </trkpt>
      <trkpt lat="48.89448" lon="0.26701">
        <ele>214</ele>
        <time>2019-04-28T07:10:03Z</time>
      </trkpt>
      <trkpt lat="48.89448" lon="0.26696">
        <ele>218</ele>
        <time>2019-04-28T07:10:06Z</time>
      </trkpt>
      <trkpt lat="48.89447" lon="0.2669">
        <ele>220</ele>
        <time>2019-04-28T07:10:13Z</time>
      </trkpt>
      <trkpt lat="48.89447" lon="0.26684">
        <ele>222</ele>
        <time>2019-04-28T07:10:17Z</time>
      </trkpt>
      <trkpt lat="48.89445" lon="0.26679">
        <ele>225</ele>
        <time>2019-04-28T07:10:23Z</time>
      </trkpt>
      <trkpt lat="48.89437" lon="0.26676">
        <ele>225</ele>
        <time>2019-04-28T07:10:28Z</time>
      </trkpt>
      <trkpt lat="48.89429" lon="0.26671">
        <ele>224</ele>
        <time>2019-04-28T07:10:35Z</time>
      </trkpt>
      <trkpt lat="48.89421" lon="0.26665">
        <ele>225</ele>
        <time>2019-04-28T07:10:38Z</time>
      </trkpt>
      <trkpt lat="48.89416" lon="0.26659">
        <ele>226</ele>
        <time>2019-04-28T07:10:45Z</time>
      </trkpt>
      <trkpt lat="48.8941" lon="0.26656">
        <ele>227</ele>
        <time>2019-04-28T07:10:48Z</time>
      </trkpt>
      <trkpt lat="48.89398" lon="0.26657">
        <ele>227</ele>
        <time>2019-04-28T07:10:55Z</time>
      </trkpt>
      <trkpt lat="48.89385" lon="0.26662">
        <ele>227</ele>
        <time>2019-04-28T07:10:59Z</time>
      </trkpt>
      <trkpt lat="48.89379" lon="0.26664">
        <ele>227</ele>
        <time>2019-04-28T07:11:05Z</time>
      </trkpt>
      <trkpt lat="48.89378" lon="0.2666">
        <ele>225</ele>
        <time>2019-04-28T07:11:09Z</time>
      </trkpt>
      <trkpt lat="48.89379" lon="0.26656">
        <ele>224</ele>
        <time>2019-04-28T07:11:15Z</time>
      </trkpt>
      <trkpt lat="48.89379" lon="0.26652">
        <ele>224</ele>
        <time>2019-04-28T07:11:19Z</time>
      </trkpt>
      <trkpt lat="48.89381" lon="0.26649">
        <ele>226</ele>
        <time>2019-04-28T07:11:25Z</time>
      </trkpt>
      <trkpt lat="48.89381" lon="0.26647">
        <ele>228</ele>
        <time>2019-04-28T07:11:29Z</time>
      </trkpt>
      <trkpt lat="48.89377" lon="0.26646">
        <ele>229</ele>
        <time>2019-04-28T07:11:36Z</time>
      </trkpt>
      <trkpt lat="48.89373" lon="0.26645">
        <ele>230</ele>
        <time>2019-04-28T07:11:39Z</time>
      </trkpt>
      <trkpt lat="48.8937" lon="0.26641">
        <ele>230</ele>
        <time>2019-04-28T07:11:46Z</time>
      </trkpt>
      <trkpt lat="48.89363" lon="0.26638">
        <ele>234</ele>
        <time>2019-04-28T07:11:51Z</time>
      </trkpt>
      <trkpt lat="48.89355" lon="0.26638">
        <ele>236</ele>
        <time>2019-04-28T07:11:58Z</time>
      </trkpt>
      <trkpt lat="48.8935" lon="0.26638">
        <ele>238</ele>
        <time>2019-04-28T07:12:03Z</time>
      </trkpt>
      <trkpt lat="48.8934" lon="0.26633">
        <ele>240</ele>
        <time>2019-04-28T07:12:11Z</time>
      </trkpt>
      <trkpt lat="48.89336" lon="0.26631">
        <ele>240</ele>
        <time>2019-04-28T07:12:15Z</time>
      </trkpt>
      <trkpt lat="48.89333" lon="0.26626">
        <ele>243</ele>
        <time>2019-04-28T07:12:23Z</time>
      </trkpt>
      <trkpt lat="48.89327" lon="0.26615">
        <ele>244</ele>
        <time>2019-04-28T07:12:32Z</time>
      </trkpt>
      <trkpt lat="48.89323" lon="0.26606">
        <ele>244</ele>
        <time>2019-04-28T07:12:35Z</time>
      </trkpt>
      <trkpt lat="48.89319" lon="0.26598">
        <ele>244</ele>
        <time>2019-04-28T07:12:42Z</time>
      </trkpt>
      <trkpt lat="48.89314" lon="0.26588">
        <ele>245</ele>
        <time>2019-04-28T07:12:48Z</time>
      </trkpt>
      <trkpt lat="48.89312" lon="0.26579">
        <ele>246</ele>
        <time>2019-04-28T07:12:53Z</time>
      </trkpt>
      <trkpt lat="48.89311" lon="0.26575">
        <ele>248</ele>
        <time>2019-04-28T07:12:58Z</time>
      </trkpt>
      <trkpt lat="48.89309" lon="0.26568">
        <ele>248</ele>
        <time>2019-04-28T07:13:05Z</time>
      </trkpt>
      <trkpt lat="48.89309" lon="0.26565">
        <ele>248</ele>
        <time>2019-04-28T07:13:12Z</time>
      </trkpt>
      <trkpt lat="48.89306" lon="0.26555">
        <ele>249</ele>
        <time>2019-04-28T07:13:15Z</time>
      </trkpt>
      <trkpt lat="48.89305" lon="0.26551">
        <ele>249</ele>
        <time>2019-04-28T07:13:22Z</time>
      </trkpt>
      <trkpt lat="48.89302" lon="0.26542">
        <ele>250</ele>
        <time>2019-04-28T07:13:25Z</time>
      </trkpt>
      <trkpt lat="48.89301" lon="0.26538">
        <ele>250</ele>
        <time>2019-04-28T07:13:32Z</time>
      </trkpt>
      <trkpt lat="48.893" lon="0.26532">
        <ele>249</ele>
        <time>2019-04-28T07:13:36Z</time>
      </trkpt>
      <trkpt lat="48.89299" lon="0.26528">
        <ele>249</ele>
        <time>2019-04-28T07:13:42Z</time>
      </trkpt>
      <trkpt lat="48.89298" lon="0.26527">
        <ele>249</ele>
        <time>2019-04-28T07:13:46Z</time>
      </trkpt>
      <trkpt lat="48.89298" lon="0.26525">
        <ele>248</ele>
        <time>2019-04-28T07:13:52Z</time>
      </trkpt>
      <trkpt lat="48.89296" lon="0.26515">
        <ele>249</ele>
        <time>2019-04-28T07:13:56Z</time>
      </trkpt>
      <trkpt lat="48.89295" lon="0.26503">
        <ele>250</ele>
        <time>2019-04-28T07:14:03Z</time>
      </trkpt>
      <trkpt lat="48.89293" lon="0.26488">
        <ele>251</ele>
        <time>2019-04-28T07:14:06Z</time>
      </trkpt>
      <trkpt lat="48.89291" lon="0.26474">
        <ele>253</ele>
        <time>2019-04-28T07:14:13Z</time>
      </trkpt>
      <trkpt lat="48.89288" lon="0.2646">
        <ele>254</ele>
        <time>2019-04-28T07:14:16Z</time>
      </trkpt>
      <trkpt lat="48.89287" lon="0.26453">
        <ele>256</ele>
        <time>2019-04-28T07:14:23Z</time>
      </trkpt>
      <trkpt lat="48.89285" lon="0.26447">
        <ele>256</ele>
        <time>2019-04-28T07:14:26Z</time>
      </trkpt>
      <trkpt lat="48.89285" lon="0.26444">
        <ele>256</ele>
        <time>2019-04-28T07:14:33Z</time>
      </trkpt>
      <trkpt lat="48.89285" lon="0.26443">
        <ele>256</ele>
        <time>2019-04-28T07:14:36Z</time>
      </trkpt>
      <trkpt lat="48.89284" lon="0.26441">
        <ele>257</ele>
        <time>2019-04-28T07:14:43Z</time>
      </trkpt>
      <trkpt lat="48.89284" lon="0.26436">
        <ele>257</ele>
        <time>2019-04-28T07:14:46Z</time>
      </trkpt>
      <trkpt lat="48.89284" lon="0.26433">
        <ele>258</ele>
        <time>2019-04-28T07:14:53Z</time>
      </trkpt>
      <trkpt lat="48.89285" lon="0.26422">
        <ele>258</ele>
        <time>2019-04-28T07:14:56Z</time>
      </trkpt>
      <trkpt lat="48.89286" lon="0.26416">
        <ele>258</ele>
        <time>2019-04-28T07:15:03Z</time>
      </trkpt>
      <trkpt lat="48.89286" lon="0.26408">
        <ele>259</ele>
        <time>2019-04-28T07:15:08Z</time>
      </trkpt>
      <trkpt lat="48.89285" lon="0.26398">
        <ele>261</ele>
        <time>2019-04-28T07:15:13Z</time>
      </trkpt>
      <trkpt lat="48.89285" lon="0.26383">
        <ele>262</ele>
        <time>2019-04-28T07:15:23Z</time>
      </trkpt>
      <trkpt lat="48.89286" lon="0.26369">
        <ele>264</ele>
        <time>2019-04-28T07:15:28Z</time>
      </trkpt>
      <trkpt lat="48.89288" lon="0.26363">
        <ele>263</ele>
        <time>2019-04-28T07:15:35Z</time>
      </trkpt>
      <trkpt lat="48.8929" lon="0.26356">
        <ele>263</ele>
        <time>2019-04-28T07:15:38Z</time>
      </trkpt>
      <trkpt lat="48.89293" lon="0.26347">
        <ele>262</ele>
        <time>2019-04-28T07:15:45Z</time>
      </trkpt>
      <trkpt lat="48.89296" lon="0.26338">
        <ele>263</ele>
        <time>2019-04-28T07:15:49Z</time>
      </trkpt>
      <trkpt lat="48.89298" lon="0.26327">
        <ele>264</ele>
        <time>2019-04-28T07:15:55Z</time>
      </trkpt>
      <trkpt lat="48.89299" lon="0.26321">
        <ele>266</ele>
        <time>2019-04-28T07:15:59Z</time>
      </trkpt>
      <trkpt lat="48.89301" lon="0.26314">
        <ele>266</ele>
        <time>2019-04-28T07:16:05Z</time>
      </trkpt>
      <trkpt lat="48.89302" lon="0.26308">
        <ele>265</ele>
        <time>2019-04-28T07:16:09Z</time>
      </trkpt>
      <trkpt lat="48.89302" lon="0.26301">
        <ele>266</ele>
        <time>2019-04-28T07:16:15Z</time>
      </trkpt>
      <trkpt lat="48.89302" lon="0.26294">
        <ele>266</ele>
        <time>2019-04-28T07:16:19Z</time>
      </trkpt>
      <trkpt lat="48.89302" lon="0.26291">
        <ele>266</ele>
        <time>2019-04-28T07:16:25Z</time>
      </trkpt>
      <trkpt lat="48.89302" lon="0.26287">
        <ele>266</ele>
        <time>2019-04-28T07:16:29Z</time>
      </trkpt>
      <trkpt lat="48.89302" lon="0.2628">
        <ele>265</ele>
        <time>2019-04-28T07:16:36Z</time>
      </trkpt>
      <trkpt lat="48.89303" lon="0.26268">
        <ele>265</ele>
        <time>2019-04-28T07:16:39Z</time>
      </trkpt>
      <trkpt lat="48.89304" lon="0.26257">
        <ele>265</ele>
        <time>2019-04-28T07:16:46Z</time>
      </trkpt>
      <trkpt lat="48.89304" lon="0.26245">
        <ele>266</ele>
        <time>2019-04-28T07:16:49Z</time>
      </trkpt>
      <trkpt lat="48.89304" lon="0.2624">
        <ele>266</ele>
        <time>2019-04-28T07:16:56Z</time>
      </trkpt>
      <trkpt lat="48.89305" lon="0.26232">
        <ele>266</ele>
        <time>2019-04-28T07:16:59Z</time>
      </trkpt>
      <trkpt lat="48.89307" lon="0.2622">
        <ele>264</ele>
        <time>2019-04-28T07:17:06Z</time>
      </trkpt>
      <trkpt lat="48.89309" lon="0.2621">
        <ele>266</ele>
        <time>2019-04-28T07:17:09Z</time>
      </trkpt>
      <trkpt lat="48.89311" lon="0.26199">
        <ele>266</ele>
        <time>2019-04-28T07:17:16Z</time>
      </trkpt>
      <trkpt lat="48.89314" lon="0.26191">
        <ele>267</ele>
        <time>2019-04-28T07:17:19Z</time>
      </trkpt>
      <trkpt lat="48.89315" lon="0.26187">
        <ele>267</ele>
        <time>2019-04-28T07:17:26Z</time>
      </trkpt>
      <trkpt lat="48.89318" lon="0.26179">
        <ele>267</ele>
        <time>2019-04-28T07:17:29Z</time>
      </trkpt>
      <trkpt lat="48.8932" lon="0.26174">
        <ele>267</ele>
        <time>2019-04-28T07:17:36Z</time>
      </trkpt>
      <trkpt lat="48.89323" lon="0.26167">
        <ele>267</ele>
        <time>2019-04-28T07:17:40Z</time>
      </trkpt>
      <trkpt lat="48.89326" lon="0.26159">
        <ele>268</ele>
        <time>2019-04-28T07:17:46Z</time>
      </trkpt>
      <trkpt lat="48.89329" lon="0.2615">
        <ele>269</ele>
        <time>2019-04-28T07:17:50Z</time>
      </trkpt>
      <trkpt lat="48.89333" lon="0.26141">
        <ele>268</ele>
        <time>2019-04-28T07:17:56Z</time>
      </trkpt>
      <trkpt lat="48.89338" lon="0.26133">
        <ele>268</ele>
        <time>2019-04-28T07:18:00Z</time>
      </trkpt>
      <trkpt lat="48.89343" lon="0.26128">
        <ele>268</ele>
        <time>2019-04-28T07:18:07Z</time>
      </trkpt>
      <trkpt lat="48.89348" lon="0.26121">
        <ele>267</ele>
        <time>2019-04-28T07:18:10Z</time>
      </trkpt>
      <trkpt lat="48.89351" lon="0.26117">
        <ele>267</ele>
        <time>2019-04-28T07:18:17Z</time>
      </trkpt>
      <trkpt lat="48.89354" lon="0.26111">
        <ele>267</ele>
        <time>2019-04-28T07:18:20Z</time>
      </trkpt>
      <trkpt lat="48.89357" lon="0.26104">
        <ele>268</ele>
        <time>2019-04-28T07:18:27Z</time>
      </trkpt>
      <trkpt lat="48.89362" lon="0.26092">
        <ele>269</ele>
        <time>2019-04-28T07:18:30Z</time>
      </trkpt>
      <trkpt lat="48.89365" lon="0.26087">
        <ele>270</ele>
        <time>2019-04-28T07:18:37Z</time>
      </trkpt>
      <trkpt lat="48.89368" lon="0.26079">
        <ele>271</ele>
        <time>2019-04-28T07:18:40Z</time>
      </trkpt>
      <trkpt lat="48.89373" lon="0.26069">
        <ele>271</ele>
        <time>2019-04-28T07:18:47Z</time>
      </trkpt>
      <trkpt lat="48.89379" lon="0.26056">
        <ele>272</ele>
        <time>2019-04-28T07:18:50Z</time>
      </trkpt>
      <trkpt lat="48.89379" lon="0.26045">
        <ele>272</ele>
        <time>2019-04-28T07:18:57Z</time>
      </trkpt>
      <trkpt lat="48.89376" lon="0.26036">
        <ele>272</ele>
        <time>2019-04-28T07:19:00Z</time>
      </trkpt>
      <trkpt lat="48.89371" lon="0.26027">
        <ele>271</ele>
        <time>2019-04-28T07:19:07Z</time>
      </trkpt>
      <trkpt lat="48.89368" lon="0.26021">
        <ele>271</ele>
        <time>2019-04-28T07:19:11Z</time>
      </trkpt>
      <trkpt lat="48.89362" lon="0.26013">
        <ele>270</ele>
        <time>2019-04-28T07:19:17Z</time>
      </trkpt>
      <trkpt lat="48.89355" lon="0.26004">
        <ele>270</ele>
        <time>2019-04-28T07:19:21Z</time>
      </trkpt>
      <trkpt lat="48.89349" lon="0.25996">
        <ele>268</ele>
        <time>2019-04-28T07:19:27Z</time>
      </trkpt>
      <trkpt lat="48.89344" lon="0.25988">
        <ele>269</ele>
        <time>2019-04-28T07:19:31Z</time>
      </trkpt>
      <trkpt lat="48.89338" lon="0.25978">
        <ele>268</ele>
        <time>2019-04-28T07:19:38Z</time>
      </trkpt>
      <trkpt lat="48.89332" lon="0.25969">
        <ele>269</ele>
        <time>2019-04-28T07:19:43Z</time>
      </trkpt>
      <trkpt lat="48.89326" lon="0.25963">
        <ele>269</ele>
        <time>2019-04-28T07:19:48Z</time>
      </trkpt>
      <trkpt lat="48.89317" lon="0.25959">
        <ele>271</ele>
        <time>2019-04-28T07:19:58Z</time>
      </trkpt>
      <trkpt lat="48.89306" lon="0.25957">
        <ele>273</ele>
        <time>2019-04-28T07:20:08Z</time>
      </trkpt>
      <trkpt lat="48.89294" lon="0.25958">
        <ele>272</ele>
        <time>2019-04-28T07:20:18Z</time>
      </trkpt>
      <trkpt lat="48.89284" lon="0.25958">
        <ele>270</ele>
        <time>2019-04-28T07:20:23Z</time>
      </trkpt>
      <trkpt lat="48.89276" lon="0.25958">
        <ele>269</ele>
        <time>2019-04-28T07:20:28Z</time>
      </trkpt>
      <trkpt lat="48.89267" lon="0.25959">
        <ele>269</ele>
        <time>2019-04-28T07:20:33Z</time>
      </trkpt>
      <trkpt lat="48.89257" lon="0.25961">
        <ele>272</ele>
        <time>2019-04-28T07:20:43Z</time>
      </trkpt>
      <trkpt lat="48.89249" lon="0.25963">
        <ele>272</ele>
        <time>2019-04-28T07:20:48Z</time>
      </trkpt>
      <trkpt lat="48.89242" lon="0.25967">
        <ele>272</ele>
        <time>2019-04-28T07:20:53Z</time>
      </trkpt>
      <trkpt lat="48.89236" lon="0.25971">
        <ele>272</ele>
        <time>2019-04-28T07:20:58Z</time>
      </trkpt>
      <trkpt lat="48.89227" lon="0.2598">
        <ele>271</ele>
        <time>2019-04-28T07:21:08Z</time>
      </trkpt>
      <trkpt lat="48.89217" lon="0.25989">
        <ele>271</ele>
        <time>2019-04-28T07:21:18Z</time>
      </trkpt>
      <trkpt lat="48.89209" lon="0.25995">
        <ele>272</ele>
        <time>2019-04-28T07:21:23Z</time>
      </trkpt>
      <trkpt lat="48.89199" lon="0.26">
        <ele>272</ele>
        <time>2019-04-28T07:21:33Z</time>
      </trkpt>
      <trkpt lat="48.89192" lon="0.26003">
        <ele>271</ele>
        <time>2019-04-28T07:21:38Z</time>
      </trkpt>
      <trkpt lat="48.89179" lon="0.26007">
        <ele>269</ele>
        <time>2019-04-28T07:21:48Z</time>
      </trkpt>
      <trkpt lat="48.89165" lon="0.26011">
        <ele>269</ele>
        <time>2019-04-28T07:21:58Z</time>
      </trkpt>
      <trkpt lat="48.89156" lon="0.26014">
        <ele>268</ele>
        <time>2019-04-28T07:22:03Z</time>
      </trkpt>
      <trkpt lat="48.89146" lon="0.26019">
        <ele>267</ele>
        <time>2019-04-28T07:22:13Z</time>
      </trkpt>
      <trkpt lat="48.89137" lon="0.26022">
        <ele>267</ele>
        <time>2019-04-28T07:22:18Z</time>
      </trkpt>
      <trkpt lat="48.89123" lon="0.26026">
        <ele>267</ele>
        <time>2019-04-28T07:22:28Z</time>
      </trkpt>
      <trkpt lat="48.89115" lon="0.26027">
        <ele>267</ele>
        <time>2019-04-28T07:22:33Z</time>
      </trkpt>
      <trkpt lat="48.89109" lon="0.26028">
        <ele>267</ele>
        <time>2019-04-28T07:22:38Z</time>
      </trkpt>
      <trkpt lat="48.89103" lon="0.26029">
        <ele>267</ele>
        <time>2019-04-28T07:22:43Z</time>
      </trkpt>
      <trkpt lat="48.89097" lon="0.26029">
        <ele>268</ele>
        <time>2019-04-28T07:22:48Z</time>
      </trkpt>
      <trkpt lat="48.89091" lon="0.26028">
        <ele>268</ele>
        <time>2019-04-28T07:22:53Z</time>
      </trkpt>
      <trkpt lat="48.89078" lon="0.26023">
        <ele>267</ele>
        <time>2019-04-28T07:23:03Z</time>
      </trkpt>
      <trkpt lat="48.89067" lon="0.26016">
        <ele>268</ele>
        <time>2019-04-28T07:23:13Z</time>
      </trkpt>
      <trkpt lat="48.89059" lon="0.26009">
        <ele>268</ele>
        <time>2019-04-28T07:23:18Z</time>
      </trkpt>
      <trkpt lat="48.89047" lon="0.25999">
        <ele>271</ele>
        <time>2019-04-28T07:23:28Z</time>
      </trkpt>
      <trkpt lat="48.89038" lon="0.25991">
        <ele>271</ele>
        <time>2019-04-28T07:23:33Z</time>
      </trkpt>
      <trkpt lat="48.89029" lon="0.25984">
        <ele>272</ele>
        <time>2019-04-28T07:23:38Z</time>
      </trkpt>
      <trkpt lat="48.89022" lon="0.25978">
        <ele>274</ele>
        <time>2019-04-28T07:23:43Z</time>
      </trkpt>
      <trkpt lat="48.89013" lon="0.2597">
        <ele>273</ele>
        <time>2019-04-28T07:23:53Z</time>
      </trkpt>
      <trkpt lat="48.89002" lon="0.25961">
        <ele>272</ele>
        <time>2019-04-28T07:24:03Z</time>
      </trkpt>
      <trkpt lat="48.88991" lon="0.25951">
        <ele>271</ele>
        <time>2019-04-28T07:24:13Z</time>
      </trkpt>
      <trkpt lat="48.88981" lon="0.25942">
        <ele>270</ele>
        <time>2019-04-28T07:24:23Z</time>
      </trkpt>
      <trkpt lat="48.88971" lon="0.25933">
        <ele>270</ele>
        <time>2019-04-28T07:24:33Z</time>
      </trkpt>
      <trkpt lat="48.88959" lon="0.25922">
        <ele>272</ele>
        <time>2019-04-28T07:24:43Z</time>
      </trkpt>
      <trkpt lat="48.88951" lon="0.25914">
        <ele>272</ele>
        <time>2019-04-28T07:24:48Z</time>
      </trkpt>
      <trkpt lat="48.88943" lon="0.25907">
        <ele>273</ele>
        <time>2019-04-28T07:24:53Z</time>
      </trkpt>
      <trkpt lat="48.88935" lon="0.259">
        <ele>271</ele>
        <time>2019-04-28T07:24:58Z</time>
      </trkpt>
      <trkpt lat="48.88927" lon="0.25896">
        <ele>271</ele>
        <time>2019-04-28T07:25:08Z</time>
      </trkpt>
      <trkpt lat="48.88921" lon="0.25892">
        <ele>270</ele>
        <time>2019-04-28T07:25:13Z</time>
      </trkpt>
      <trkpt lat="48.88915" lon="0.25885">
        <ele>270</ele>
        <time>2019-04-28T07:25:18Z</time>
      </trkpt>
      <trkpt lat="48.88904" lon="0.25871">
        <ele>272</ele>
        <time>2019-04-28T07:25:28Z</time>
      </trkpt>
      <trkpt lat="48.88892" lon="0.25857">
        <ele>273</ele>
        <time>2019-04-28T07:25:38Z</time>
      </trkpt>
      <trkpt lat="48.88884" lon="0.25847">
        <ele>273</ele>
        <time>2019-04-28T07:25:43Z</time>
      </trkpt>
      <trkpt lat="48.88876" lon="0.25838">
        <ele>274</ele>
        <time>2019-04-28T07:25:48Z</time>
      </trkpt>
      <trkpt lat="48.88869" lon="0.2583">
        <ele>274</ele>
        <time>2019-04-28T07:25:53Z</time>
      </trkpt>
      <trkpt lat="48.88859" lon="0.25817">
        <ele>274</ele>
        <time>2019-04-28T07:26:03Z</time>
      </trkpt>
      <trkpt lat="48.88852" lon="0.25806">
        <ele>274</ele>
        <time>2019-04-28T07:26:08Z</time>
      </trkpt>
      <trkpt lat="48.88842" lon="0.25794">
        <ele>273</ele>
        <time>2019-04-28T07:26:18Z</time>
      </trkpt>
      <trkpt lat="48.88835" lon="0.25785">
        <ele>271</ele>
        <time>2019-04-28T07:26:23Z</time>
      </trkpt>
      <trkpt lat="48.8883" lon="0.25777">
        <ele>271</ele>
        <time>2019-04-28T07:26:28Z</time>
      </trkpt>
      <trkpt lat="48.88824" lon="0.25768">
        <ele>270</ele>
        <time>2019-04-28T07:26:33Z</time>
      </trkpt>
      <trkpt lat="48.88817" lon="0.25759">
        <ele>270</ele>
        <time>2019-04-28T07:26:43Z</time>
      </trkpt>
      <trkpt lat="48.88812" lon="0.25752">
        <ele>269</ele>
        <time>2019-04-28T07:26:48Z</time>
      </trkpt>
      <trkpt lat="48.88804" lon="0.25744">
        <ele>269</ele>
        <time>2019-04-28T07:26:58Z</time>
      </trkpt>
      <trkpt lat="48.88793" lon="0.25736">
        <ele>269</ele>
        <time>2019-04-28T07:27:08Z</time>
      </trkpt>
      <trkpt lat="48.88784" lon="0.25731">
        <ele>270</ele>
        <time>2019-04-28T07:27:13Z</time>
      </trkpt>
      <trkpt lat="48.88773" lon="0.25727">
        <ele>269</ele>
        <time>2019-04-28T07:27:23Z</time>
      </trkpt>
      <trkpt lat="48.88764" lon="0.25724">
        <ele>268</ele>
        <time>2019-04-28T07:27:28Z</time>
      </trkpt>
      <trkpt lat="48.88755" lon="0.25724">
        <ele>270</ele>
        <time>2019-04-28T07:27:33Z</time>
      </trkpt>
      <trkpt lat="48.88741" lon="0.25726">
        <ele>271</ele>
        <time>2019-04-28T07:27:43Z</time>
      </trkpt>
      <trkpt lat="48.88731" lon="0.25727">
        <ele>271</ele>
        <time>2019-04-28T07:27:48Z</time>
      </trkpt>
      <trkpt lat="48.88719" lon="0.25727">
        <ele>270</ele>
        <time>2019-04-28T07:27:58Z</time>
      </trkpt>
      <trkpt lat="48.88709" lon="0.25726">
        <ele>269</ele>
        <time>2019-04-28T07:28:08Z</time>
      </trkpt>
      <trkpt lat="48.88701" lon="0.25724">
        <ele>269</ele>
        <time>2019-04-28T07:28:13Z</time>
      </trkpt>
      <trkpt lat="48.88691" lon="0.25718">
        <ele>269</ele>
        <time>2019-04-28T07:28:23Z</time>
      </trkpt>
      <trkpt lat="48.88678" lon="0.25711">
        <ele>270</ele>
        <time>2019-04-28T07:28:33Z</time>
      </trkpt>
      <trkpt lat="48.88669" lon="0.25704">
        <ele>271</ele>
        <time>2019-04-28T07:28:38Z</time>
      </trkpt>
      <trkpt lat="48.88657" lon="0.25694">
        <ele>271</ele>
        <time>2019-04-28T07:28:48Z</time>
      </trkpt>
      <trkpt lat="48.88649" lon="0.25686">
        <ele>272</ele>
        <time>2019-04-28T07:28:53Z</time>
      </trkpt>
      <trkpt lat="48.88638" lon="0.25676">
        <ele>274</ele>
        <time>2019-04-28T07:29:03Z</time>
      </trkpt>
      <trkpt lat="48.8863" lon="0.25669">
        <ele>274</ele>
        <time>2019-04-28T07:29:08Z</time>
      </trkpt>
      <trkpt lat="48.88621" lon="0.2566">
        <ele>275</ele>
        <time>2019-04-28T07:29:13Z</time>
      </trkpt>
      <trkpt lat="48.88615" lon="0.25653">
        <ele>275</ele>
        <time>2019-04-28T07:30:48Z</time>
      </trkpt>
      <trkpt lat="48.88607" lon="0.25647">
        <ele>275</ele>
        <time>2019-04-28T07:30:48Z</time>
      </trkpt>
      <trkpt lat="48.88594" lon="0.25639">
        <ele>275</ele>
        <time>2019-04-28T07:30:48Z</time>
      </trkpt>
      <trkpt lat="48.88581" lon="0.25633">
        <ele>275</ele>
        <time>2019-04-28T07:30:48Z</time>
      </trkpt>
      <trkpt lat="48.88568" lon="0.25627">
        <ele>275</ele>
        <time>2019-04-28T07:30:48Z</time>
      </trkpt>
      <trkpt lat="48.8856" lon="0.25624">
        <ele>275</ele>
        <time>2019-04-28T07:30:48Z</time>
      </trkpt>
      <trkpt lat="48.88546" lon="0.25618">
        <ele>275</ele>
        <time>2019-04-28T07:30:48Z</time>
      </trkpt>
      <trkpt lat="48.88528" lon="0.25611">
        <ele>275</ele>
        <time>2019-04-28T07:30:48Z</time>
      </trkpt>
      <trkpt lat="48.88516" lon="0.25606">
        <ele>275</ele>
        <time>2019-04-28T07:30:48Z</time>
      </trkpt>
      <trkpt lat="48.88505" lon="0.25599">
        <ele>275</ele>
        <time>2019-04-28T07:30:48Z</time>
      </trkpt>
      <trkpt lat="48.88495" lon="0.25595">
        <ele>275</ele>
        <time>2019-04-28T07:30:48Z</time>
      </trkpt>
      <trkpt lat="48.88485" lon="0.25592">
        <ele>275</ele>
        <time>2019-04-28T07:30:48Z</time>
      </trkpt>
      <trkpt lat="48.88472" lon="0.2559">
        <ele>275</ele>
        <time>2019-04-28T07:30:58Z</time>
      </trkpt>
      <trkpt lat="48.88459" lon="0.25587">
        <ele>275</ele>
        <time>2019-04-28T07:31:08Z</time>
      </trkpt>
      <trkpt lat="48.88444" lon="0.25585">
        <ele>277</ele>
        <time>2019-04-28T07:31:18Z</time>
      </trkpt>
      <trkpt lat="48.88436" lon="0.25583">
        <ele>277</ele>
        <time>2019-04-28T07:31:23Z</time>
      </trkpt>
      <trkpt lat="48.88423" lon="0.25582">
        <ele>276</ele>
        <time>2019-04-28T07:31:33Z</time>
      </trkpt>
      <trkpt lat="48.8841" lon="0.25579">
        <ele>278</ele>
        <time>2019-04-28T07:31:43Z</time>
      </trkpt>
      <trkpt lat="48.884" lon="0.25569">
        <ele>276</ele>
        <time>2019-04-28T07:31:53Z</time>
      </trkpt>
      <trkpt lat="48.88391" lon="0.25552">
        <ele>274</ele>
        <time>2019-04-28T07:32:03Z</time>
      </trkpt>
      <trkpt lat="48.88387" lon="0.25541">
        <ele>274</ele>
        <time>2019-04-28T07:32:08Z</time>
      </trkpt>
      <trkpt lat="48.88382" lon="0.25523">
        <ele>275</ele>
        <time>2019-04-28T07:32:18Z</time>
      </trkpt>
      <trkpt lat="48.88376" lon="0.255">
        <ele>275</ele>
        <time>2019-04-28T07:32:28Z</time>
      </trkpt>
      <trkpt lat="48.88372" lon="0.25486">
        <ele>275</ele>
        <time>2019-04-28T07:32:33Z</time>
      </trkpt>
      <trkpt lat="48.88369" lon="0.25476">
        <ele>276</ele>
        <time>2019-04-28T07:32:38Z</time>
      </trkpt>
      <trkpt lat="48.88364" lon="0.25462">
        <ele>278</ele>
        <time>2019-04-28T07:32:48Z</time>
      </trkpt>
      <trkpt lat="48.88361" lon="0.25452">
        <ele>279</ele>
        <time>2019-04-28T07:32:53Z</time>
      </trkpt>
      <trkpt lat="48.88355" lon="0.25436">
        <ele>279</ele>
        <time>2019-04-28T07:33:03Z</time>
      </trkpt>
      <trkpt lat="48.88349" lon="0.25418">
        <ele>280</ele>
        <time>2019-04-28T07:33:13Z</time>
      </trkpt>
      <trkpt lat="48.88345" lon="0.25399">
        <ele>280</ele>
        <time>2019-04-28T07:33:23Z</time>
      </trkpt>
      <trkpt lat="48.88344" lon="0.25386">
        <ele>280</ele>
        <time>2019-04-28T07:33:28Z</time>
      </trkpt>
      <trkpt lat="48.88347" lon="0.25371">
        <ele>279</ele>
        <time>2019-04-28T07:33:38Z</time>
      </trkpt>
      <trkpt lat="48.88352" lon="0.2536">
        <ele>279</ele>
        <time>2019-04-28T07:33:43Z</time>
      </trkpt>
      <trkpt lat="48.88358" lon="0.25352">
        <ele>280</ele>
        <time>2019-04-28T07:33:48Z</time>
      </trkpt>
      <trkpt lat="48.88367" lon="0.25341">
        <ele>281</ele>
        <time>2019-04-28T07:33:58Z</time>
      </trkpt>
      <trkpt lat="48.88374" lon="0.25333">
        <ele>282</ele>
        <time>2019-04-28T07:34:03Z</time>
      </trkpt>
      <trkpt lat="48.8838" lon="0.25326">
        <ele>282</ele>
        <time>2019-04-28T07:34:08Z</time>
      </trkpt>
      <trkpt lat="48.88392" lon="0.25316">
        <ele>280</ele>
        <time>2019-04-28T07:34:18Z</time>
      </trkpt>
      <trkpt lat="48.88401" lon="0.25307">
        <ele>280</ele>
        <time>2019-04-28T07:34:28Z</time>
      </trkpt>
      <trkpt lat="48.88412" lon="0.25296">
        <ele>280</ele>
        <time>2019-04-28T07:34:38Z</time>
      </trkpt>
      <trkpt lat="48.88423" lon="0.25286">
        <ele>279</ele>
        <time>2019-04-28T07:34:48Z</time>
      </trkpt>
      <trkpt lat="48.88434" lon="0.25276">
        <ele>278</ele>
        <time>2019-04-28T07:34:58Z</time>
      </trkpt>
      <trkpt lat="48.88442" lon="0.25269">
        <ele>278</ele>
        <time>2019-04-28T07:35:03Z</time>
      </trkpt>
      <trkpt lat="48.8845" lon="0.25259">
        <ele>279</ele>
        <time>2019-04-28T07:35:13Z</time>
      </trkpt>
      <trkpt lat="48.88456" lon="0.25246">
        <ele>280</ele>
        <time>2019-04-28T07:35:23Z</time>
      </trkpt>
      <trkpt lat="48.88458" lon="0.25235">
        <ele>282</ele>
        <time>2019-04-28T07:35:28Z</time>
      </trkpt>
      <trkpt lat="48.88459" lon="0.25225">
        <ele>283</ele>
        <time>2019-04-28T07:35:33Z</time>
      </trkpt>
      <trkpt lat="48.88455" lon="0.25204">
        <ele>281</ele>
        <time>2019-04-28T07:35:43Z</time>
      </trkpt>
      <trkpt lat="48.88451" lon="0.25189">
        <ele>281</ele>
        <time>2019-04-28T07:35:48Z</time>
      </trkpt>
      <trkpt lat="48.88447" lon="0.25176">
        <ele>281</ele>
        <time>2019-04-28T07:35:53Z</time>
      </trkpt>
      <trkpt lat="48.88444" lon="0.25166">
        <ele>280</ele>
        <time>2019-04-28T07:35:58Z</time>
      </trkpt>
      <trkpt lat="48.88442" lon="0.25151">
        <ele>280</ele>
        <time>2019-04-28T07:36:08Z</time>
      </trkpt>
      <trkpt lat="48.8844" lon="0.2514">
        <ele>281</ele>
        <time>2019-04-28T07:36:13Z</time>
      </trkpt>
      <trkpt lat="48.8844" lon="0.25133">
        <ele>281</ele>
        <time>2019-04-28T07:36:18Z</time>
      </trkpt>
      <trkpt lat="48.88439" lon="0.25129">
        <ele>281</ele>
        <time>2019-04-28T07:36:23Z</time>
      </trkpt>
      <trkpt lat="48.88438" lon="0.25125">
        <ele>283</ele>
        <time>2019-04-28T07:36:33Z</time>
      </trkpt>
      <trkpt lat="48.88438" lon="0.25118">
        <ele>283</ele>
        <time>2019-04-28T07:36:43Z</time>
      </trkpt>
      <trkpt lat="48.88438" lon="0.25115">
        <ele>283</ele>
        <time>2019-04-28T07:36:48Z</time>
      </trkpt>
      <trkpt lat="48.8844" lon="0.25106">
        <ele>281</ele>
        <time>2019-04-28T07:36:58Z</time>
      </trkpt>
      <trkpt lat="48.88441" lon="0.25098">
        <ele>281</ele>
        <time>2019-04-28T07:37:03Z</time>
      </trkpt>
      <trkpt lat="48.88442" lon="0.25095">
        <ele>281</ele>
        <time>2019-04-28T07:37:08Z</time>
      </trkpt>
      <trkpt lat="48.88442" lon="0.25092">
        <ele>281</ele>
        <time>2019-04-28T07:37:18Z</time>
      </trkpt>
      <trkpt lat="48.88442" lon="0.25091">
        <ele>281</ele>
        <time>2019-04-28T07:37:23Z</time>
      </trkpt>
      <trkpt lat="48.88442" lon="0.25091">
        <ele>281</ele>
        <time>2019-04-28T07:37:28Z</time>
      </trkpt>
      <trkpt lat="48.88443" lon="0.25089">
        <ele>281</ele>
        <time>2019-04-28T07:37:33Z</time>
      </trkpt>
      <trkpt lat="48.88444" lon="0.25085">
        <ele>281</ele>
        <time>2019-04-28T07:37:38Z</time>
      </trkpt>
      <trkpt lat="48.88446" lon="0.2508">
        <ele>281</ele>
        <time>2019-04-28T07:37:48Z</time>
      </trkpt>
      <trkpt lat="48.88447" lon="0.25075">
        <ele>281</ele>
        <time>2019-04-28T07:37:58Z</time>
      </trkpt>
      <trkpt lat="48.88448" lon="0.25071">
        <ele>281</ele>
        <time>2019-04-28T07:38:03Z</time>
      </trkpt>
      <trkpt lat="48.88457" lon="0.25061">
        <ele>280</ele>
        <time>2019-04-28T07:38:13Z</time>
      </trkpt>
      <trkpt lat="48.88452" lon="0.25072">
        <ele>279</ele>
        <time>2019-04-28T07:38:23Z</time>
      </trkpt>
      <trkpt lat="48.88444" lon="0.25081">
        <ele>279</ele>
        <time>2019-04-28T07:38:29Z</time>
      </trkpt>
      <trkpt lat="48.88438" lon="0.25089">
        <ele>283</ele>
        <time>2019-04-28T07:38:35Z</time>
      </trkpt>
      <trkpt lat="48.88436" lon="0.25092">
        <ele>283</ele>
        <time>2019-04-28T07:38:43Z</time>
      </trkpt>
      <trkpt lat="48.88435" lon="0.25095">
        <ele>283</ele>
        <time>2019-04-28T07:38:49Z</time>
      </trkpt>
      <trkpt lat="48.88434" lon="0.25095">
        <ele>283</ele>
        <time>2019-04-28T07:38:56Z</time>
      </trkpt>
      <trkpt lat="48.88434" lon="0.25098">
        <ele>282</ele>
        <time>2019-04-28T07:39:03Z</time>
      </trkpt>
      <trkpt lat="48.88435" lon="0.25099">
        <ele>282</ele>
        <time>2019-04-28T07:39:08Z</time>
      </trkpt>
      <trkpt lat="48.88434" lon="0.25104">
        <ele>282</ele>
        <time>2019-04-28T07:39:18Z</time>
      </trkpt>
      <trkpt lat="48.88434" lon="0.25109">
        <ele>283</ele>
        <time>2019-04-28T07:39:28Z</time>
      </trkpt>
      <trkpt lat="48.88433" lon="0.25111">
        <ele>283</ele>
        <time>2019-04-28T07:39:33Z</time>
      </trkpt>
      <trkpt lat="48.88431" lon="0.25111">
        <ele>281</ele>
        <time>2019-04-28T07:39:38Z</time>
      </trkpt>
      <trkpt lat="48.88428" lon="0.25111">
        <ele>281</ele>
        <time>2019-04-28T07:39:48Z</time>
      </trkpt>
      <trkpt lat="48.88427" lon="0.25111">
        <ele>281</ele>
        <time>2019-04-28T07:39:53Z</time>
      </trkpt>
      <trkpt lat="48.88427" lon="0.25111">
        <ele>281</ele>
        <time>2019-04-28T07:40:03Z</time>
      </trkpt>
      <trkpt lat="48.88426" lon="0.25111">
        <ele>281</ele>
        <time>2019-04-28T07:40:08Z</time>
      </trkpt>
      <trkpt lat="48.88426" lon="0.25111">
        <ele>281</ele>
        <time>2019-04-28T07:40:18Z</time>
      </trkpt>
      <trkpt lat="48.88426" lon="0.25111">
        <ele>281</ele>
        <time>2019-04-28T07:40:23Z</time>
      </trkpt>
      <trkpt lat="48.88429" lon="0.25109">
        <ele>281</ele>
        <time>2019-04-28T07:40:28Z</time>
      </trkpt>
      <trkpt lat="48.88432" lon="0.25108">
        <ele>280</ele>
        <time>2019-04-28T07:40:33Z</time>
      </trkpt>
      <trkpt lat="48.88434" lon="0.25108">
        <ele>280</ele>
        <time>2019-04-28T07:40:43Z</time>
      </trkpt>
      <trkpt lat="48.88435" lon="0.25107">
        <ele>280</ele>
        <time>2019-04-28T07:40:53Z</time>
      </trkpt>
      <trkpt lat="48.88435" lon="0.25107">
        <ele>280</ele>
        <time>2019-04-28T07:41:03Z</time>
      </trkpt>
      <trkpt lat="48.88435" lon="0.25107">
        <ele>280</ele>
        <time>2019-04-28T07:41:08Z</time>
      </trkpt>
      <trkpt lat="48.88435" lon="0.25107">
        <ele>280</ele>
        <time>2019-04-28T07:41:13Z</time>
      </trkpt>
      <trkpt lat="48.88435" lon="0.25107">
        <ele>280</ele>
        <time>2019-04-28T07:41:23Z</time>
      </trkpt>
      <trkpt lat="48.88435" lon="0.25107">
        <ele>280</ele>
        <time>2019-04-28T07:41:33Z</time>
      </trkpt>
      <trkpt lat="48.88435" lon="0.25107">
        <ele>280</ele>
        <time>2019-04-28T07:41:38Z</time>
      </trkpt>
      <trkpt lat="48.88435" lon="0.25107">
        <ele>280</ele>
        <time>2019-04-28T07:41:48Z</time>
      </trkpt>
      <trkpt lat="48.88435" lon="0.25107">
        <ele>280</ele>
        <time>2019-04-28T07:41:58Z</time>
      </trkpt>
      <trkpt lat="48.88435" lon="0.25107">
        <ele>280</ele>
        <time>2019-04-28T07:42:08Z</time>
      </trkpt>
      <trkpt lat="48.88435" lon="0.25107">
        <ele>280</ele>
        <time>2019-04-28T07:42:13Z</time>
      </trkpt>
      <trkpt lat="48.88435" lon="0.25107">
        <ele>280</ele>
        <time>2019-04-28T07:42:18Z</time>
      </trkpt>
      <trkpt lat="48.88436" lon="0.25107">
        <ele>280</ele>
        <time>2019-04-28T07:42:23Z</time>
      </trkpt>
      <trkpt lat="48.88436" lon="0.25107">
        <ele>280</ele>
        <time>2019-04-28T07:42:33Z</time>
      </trkpt>
      <trkpt lat="48.88436" lon="0.25107">
        <ele>280</ele>
        <time>2019-04-28T07:42:38Z</time>
      </trkpt>
      <trkpt lat="48.88436" lon="0.25107">
        <ele>280</ele>
        <time>2019-04-28T07:42:48Z</time>
      </trkpt>
      <trkpt lat="48.88436" lon="0.25107">
        <ele>280</ele>
        <time>2019-04-28T07:42:53Z</time>
      </trkpt>
      <trkpt lat="48.88436" lon="0.25107">
        <ele>280</ele>
        <time>2019-04-28T07:43:03Z</time>
      </trkpt>
      <trkpt lat="48.88436" lon="0.25107">
        <ele>280</ele>
        <time>2019-04-28T07:43:08Z</time>
      </trkpt>
      <trkpt lat="48.88436" lon="0.25106">
        <ele>280</ele>
        <time>2019-04-28T07:43:18Z</time>
      </trkpt>
      <trkpt lat="48.88436" lon="0.25106">
        <ele>280</ele>
        <time>2019-04-28T07:43:28Z</time>
      </trkpt>
      <trkpt lat="48.88436" lon="0.25107">
        <ele>280</ele>
        <time>2019-04-28T07:43:33Z</time>
      </trkpt>
      <trkpt lat="48.88436" lon="0.25107">
        <ele>280</ele>
        <time>2019-04-28T07:43:43Z</time>
      </trkpt>
      <trkpt lat="48.88436" lon="0.25107">
        <ele>280</ele>
        <time>2019-04-28T07:43:48Z</time>
      </trkpt>
      <trkpt lat="48.88436" lon="0.25107">
        <ele>280</ele>
        <time>2019-04-28T07:43:58Z</time>
      </trkpt>
      <trkpt lat="48.88436" lon="0.25107">
        <ele>280</ele>
        <time>2019-04-28T07:44:08Z</time>
      </trkpt>
      <trkpt lat="48.88436" lon="0.25107">
        <ele>280</ele>
        <time>2019-04-28T07:44:18Z</time>
      </trkpt>
      <trkpt lat="48.88436" lon="0.25107">
        <ele>280</ele>
        <time>2019-04-28T07:44:23Z</time>
      </trkpt>
      <trkpt lat="48.88436" lon="0.25107">
        <ele>280</ele>
        <time>2019-04-28T07:44:33Z</time>
      </trkpt>
      <trkpt lat="48.88436" lon="0.25107">
        <ele>280</ele>
        <time>2019-04-28T07:44:38Z</time>
      </trkpt>
      <trkpt lat="48.88436" lon="0.25107">
        <ele>280</ele>
        <time>2019-04-28T07:44:43Z</time>
      </trkpt>
      <trkpt lat="48.88436" lon="0.25107">
        <ele>280</ele>
        <time>2019-04-28T07:44:48Z</time>
      </trkpt>
      <trkpt lat="48.88436" lon="0.25107">
        <ele>280</ele>
        <time>2019-04-28T07:44:53Z</time>
      </trkpt>
      <trkpt lat="48.88436" lon="0.25107">
        <ele>280</ele>
        <time>2019-04-28T07:44:58Z</time>
      </trkpt>
      <trkpt lat="48.88436" lon="0.25107">
        <ele>280</ele>
        <time>2019-04-28T07:45:03Z</time>
      </trkpt>
      <trkpt lat="48.88436" lon="0.25107">
        <ele>281</ele>
        <time>2019-04-28T07:45:13Z</time>
      </trkpt>
      <trkpt lat="48.88436" lon="0.25107">
        <ele>281</ele>
        <time>2019-04-28T07:45:18Z</time>
      </trkpt>
      <trkpt lat="48.88435" lon="0.25108">
        <ele>281</ele>
        <time>2019-04-28T07:45:23Z</time>
      </trkpt>
      <trkpt lat="48.88435" lon="0.25108">
        <ele>281</ele>
        <time>2019-04-28T07:45:33Z</time>
      </trkpt>
      <trkpt lat="48.88435" lon="0.25108">
        <ele>281</ele>
        <time>2019-04-28T07:45:38Z</time>
      </trkpt>
      <trkpt lat="48.88435" lon="0.25108">
        <ele>281</ele>
        <time>2019-04-28T07:45:48Z</time>
      </trkpt>
      <trkpt lat="48.88435" lon="0.25108">
        <ele>281</ele>
        <time>2019-04-28T07:45:58Z</time>
      </trkpt>
      <trkpt lat="48.88437" lon="0.25104">
        <ele>281</ele>
        <time>2019-04-28T07:46:03Z</time>
      </trkpt>
      <trkpt lat="48.88438" lon="0.25101">
        <ele>281</ele>
        <time>2019-04-28T07:46:08Z</time>
      </trkpt>
      <trkpt lat="48.88438" lon="0.25095">
        <ele>281</ele>
        <time>2019-04-28T07:46:18Z</time>
      </trkpt>
      <trkpt lat="48.88437" lon="0.25093">
        <ele>281</ele>
        <time>2019-04-28T07:46:28Z</time>
      </trkpt>
      <trkpt lat="48.88436" lon="0.25092">
        <ele>281</ele>
        <time>2019-04-28T07:46:33Z</time>
      </trkpt>
      <trkpt lat="48.88436" lon="0.25092">
        <ele>281</ele>
        <time>2019-04-28T07:46:38Z</time>
      </trkpt>
      <trkpt lat="48.88435" lon="0.25092">
        <ele>281</ele>
        <time>2019-04-28T07:46:43Z</time>
      </trkpt>
      <trkpt lat="48.88436" lon="0.25092">
        <ele>281</ele>
        <time>2019-04-28T07:46:53Z</time>
      </trkpt>
      <trkpt lat="48.88436" lon="0.25092">
        <ele>281</ele>
        <time>2019-04-28T07:46:58Z</time>
      </trkpt>
      <trkpt lat="48.88441" lon="0.25093">
        <ele>281</ele>
        <time>2019-04-28T07:47:03Z</time>
      </trkpt>
      <trkpt lat="48.88444" lon="0.25093">
        <ele>281</ele>
        <time>2019-04-28T07:47:08Z</time>
      </trkpt>
      <trkpt lat="48.88446" lon="0.25093">
        <ele>281</ele>
        <time>2019-04-28T07:47:13Z</time>
      </trkpt>
      <trkpt lat="48.88449" lon="0.25089">
        <ele>280</ele>
        <time>2019-04-28T07:47:23Z</time>
      </trkpt>
      <trkpt lat="48.88451" lon="0.25088">
        <ele>280</ele>
        <time>2019-04-28T07:47:28Z</time>
      </trkpt>
      <trkpt lat="48.88451" lon="0.25087">
        <ele>280</ele>
        <time>2019-04-28T07:47:38Z</time>
      </trkpt>
      <trkpt lat="48.88452" lon="0.25087">
        <ele>280</ele>
        <time>2019-04-28T07:47:43Z</time>
      </trkpt>
      <trkpt lat="48.8845" lon="0.25085">
        <ele>280</ele>
        <time>2019-04-28T07:47:53Z</time>
      </trkpt>
      <trkpt lat="48.8845" lon="0.25084">
        <ele>280</ele>
        <time>2019-04-28T07:47:58Z</time>
      </trkpt>
      <trkpt lat="48.88449" lon="0.25083">
        <ele>280</ele>
        <time>2019-04-28T07:48:06Z</time>
      </trkpt>
      <trkpt lat="48.88449" lon="0.25083">
        <ele>280</ele>
        <time>2019-04-28T07:48:13Z</time>
      </trkpt>
      <trkpt lat="48.88449" lon="0.25083">
        <ele>275</ele>
        <time>2019-04-28T07:48:23Z</time>
      </trkpt>
      <trkpt lat="48.88451" lon="0.25082">
        <ele>275</ele>
        <time>2019-04-28T07:48:28Z</time>
      </trkpt>
      <trkpt lat="48.88453" lon="0.25082">
        <ele>275</ele>
        <time>2019-04-28T07:48:33Z</time>
      </trkpt>
      <trkpt lat="48.88455" lon="0.25082">
        <ele>275</ele>
        <time>2019-04-28T07:48:43Z</time>
      </trkpt>
      <trkpt lat="48.88456" lon="0.25082">
        <ele>275</ele>
        <time>2019-04-28T07:48:48Z</time>
      </trkpt>
      <trkpt lat="48.88457" lon="0.25081">
        <ele>271</ele>
        <time>2019-04-28T07:48:56Z</time>
      </trkpt>
      <trkpt lat="48.88455" lon="0.25077">
        <ele>269</ele>
        <time>2019-04-28T07:49:03Z</time>
      </trkpt>
      <trkpt lat="48.88454" lon="0.25073">
        <ele>269</ele>
        <time>2019-04-28T07:49:08Z</time>
      </trkpt>
      <trkpt lat="48.88453" lon="0.25072">
        <ele>269</ele>
        <time>2019-04-28T07:49:13Z</time>
      </trkpt>
      <trkpt lat="48.88453" lon="0.2507">
        <ele>269</ele>
        <time>2019-04-28T07:49:23Z</time>
      </trkpt>
      <trkpt lat="48.88456" lon="0.25065">
        <ele>266</ele>
        <time>2019-04-28T07:49:28Z</time>
      </trkpt>
      <trkpt lat="48.88457" lon="0.2506">
        <ele>266</ele>
        <time>2019-04-28T07:49:37Z</time>
      </trkpt>
      <trkpt lat="48.88457" lon="0.25057">
        <ele>269</ele>
        <time>2019-04-28T07:49:43Z</time>
      </trkpt>
      <trkpt lat="48.8846" lon="0.25054">
        <ele>270</ele>
        <time>2019-04-28T07:49:53Z</time>
      </trkpt>
      <trkpt lat="48.88464" lon="0.2505">
        <ele>270</ele>
        <time>2019-04-28T07:49:58Z</time>
      </trkpt>
      <trkpt lat="48.88473" lon="0.25054">
        <ele>275</ele>
        <time>2019-04-28T07:50:08Z</time>
      </trkpt>
      <trkpt lat="48.88478" lon="0.25061">
        <ele>277</ele>
        <time>2019-04-28T07:50:13Z</time>
      </trkpt>
      <trkpt lat="48.88483" lon="0.25076">
        <ele>278</ele>
        <time>2019-04-28T07:50:23Z</time>
      </trkpt>
      <trkpt lat="48.88489" lon="0.25093">
        <ele>276</ele>
        <time>2019-04-28T07:50:33Z</time>
      </trkpt>
      <trkpt lat="48.88494" lon="0.25103">
        <ele>275</ele>
        <time>2019-04-28T07:50:38Z</time>
      </trkpt>
      <trkpt lat="48.88498" lon="0.25113">
        <ele>275</ele>
        <time>2019-04-28T07:50:43Z</time>
      </trkpt>
      <trkpt lat="48.88505" lon="0.25128">
        <ele>275</ele>
        <time>2019-04-28T07:50:53Z</time>
      </trkpt>
      <trkpt lat="48.88511" lon="0.25145">
        <ele>276</ele>
        <time>2019-04-28T07:51:03Z</time>
      </trkpt>
      <trkpt lat="48.88516" lon="0.25158">
        <ele>276</ele>
        <time>2019-04-28T07:51:08Z</time>
      </trkpt>
      <trkpt lat="48.88521" lon="0.25168">
        <ele>277</ele>
        <time>2019-04-28T07:51:13Z</time>
      </trkpt>
      <trkpt lat="48.8853" lon="0.25171">
        <ele>276</ele>
        <time>2019-04-28T07:51:23Z</time>
      </trkpt>
      <trkpt lat="48.88541" lon="0.25165">
        <ele>275</ele>
        <time>2019-04-28T07:51:33Z</time>
      </trkpt>
      <trkpt lat="48.88548" lon="0.25159">
        <ele>276</ele>
        <time>2019-04-28T07:51:38Z</time>
      </trkpt>
      <trkpt lat="48.88559" lon="0.2515">
        <ele>276</ele>
        <time>2019-04-28T07:51:48Z</time>
      </trkpt>
      <trkpt lat="48.88566" lon="0.25149">
        <ele>275</ele>
        <time>2019-04-28T07:51:53Z</time>
      </trkpt>
      <trkpt lat="48.88569" lon="0.25154">
        <ele>276</ele>
        <time>2019-04-28T07:51:58Z</time>
      </trkpt>
      <trkpt lat="48.88572" lon="0.25169">
        <ele>279</ele>
        <time>2019-04-28T07:52:08Z</time>
      </trkpt>
      <trkpt lat="48.88575" lon="0.25187">
        <ele>280</ele>
        <time>2019-04-28T07:52:18Z</time>
      </trkpt>
      <trkpt lat="48.88577" lon="0.25199">
        <ele>280</ele>
        <time>2019-04-28T07:52:23Z</time>
      </trkpt>
      <trkpt lat="48.8858" lon="0.25215">
        <ele>282</ele>
        <time>2019-04-28T07:52:33Z</time>
      </trkpt>
      <trkpt lat="48.88584" lon="0.25234">
        <ele>283</ele>
        <time>2019-04-28T07:52:43Z</time>
      </trkpt>
      <trkpt lat="48.88587" lon="0.25248">
        <ele>283</ele>
        <time>2019-04-28T07:52:48Z</time>
      </trkpt>
      <trkpt lat="48.88589" lon="0.25259">
        <ele>282</ele>
        <time>2019-04-28T07:52:53Z</time>
      </trkpt>
      <trkpt lat="48.88592" lon="0.25276">
        <ele>281</ele>
        <time>2019-04-28T07:53:03Z</time>
      </trkpt>
      <trkpt lat="48.88594" lon="0.2529">
        <ele>282</ele>
        <time>2019-04-28T07:53:08Z</time>
      </trkpt>
      <trkpt lat="48.88596" lon="0.25303">
        <ele>282</ele>
        <time>2019-04-28T07:53:13Z</time>
      </trkpt>
      <trkpt lat="48.88597" lon="0.25322">
        <ele>285</ele>
        <time>2019-04-28T07:53:23Z</time>
      </trkpt>
      <trkpt lat="48.88604" lon="0.25337">
        <ele>286</ele>
        <time>2019-04-28T07:53:33Z</time>
      </trkpt>
      <trkpt lat="48.88612" lon="0.25343">
        <ele>285</ele>
        <time>2019-04-28T07:53:38Z</time>
      </trkpt>
      <trkpt lat="48.88623" lon="0.25349">
        <ele>283</ele>
        <time>2019-04-28T07:53:48Z</time>
      </trkpt>
      <trkpt lat="48.88636" lon="0.25359">
        <ele>282</ele>
        <time>2019-04-28T07:53:58Z</time>
      </trkpt>
      <trkpt lat="48.88647" lon="0.25368">
        <ele>280</ele>
        <time>2019-04-28T07:54:03Z</time>
      </trkpt>
      <trkpt lat="48.88659" lon="0.25375">
        <ele>277</ele>
        <time>2019-04-28T07:54:13Z</time>
      </trkpt>
      <trkpt lat="48.88671" lon="0.25373">
        <ele>276</ele>
        <time>2019-04-28T07:54:23Z</time>
      </trkpt>
      <trkpt lat="48.88679" lon="0.2537">
        <ele>277</ele>
        <time>2019-04-28T07:54:28Z</time>
      </trkpt>
      <trkpt lat="48.88689" lon="0.25361">
        <ele>277</ele>
        <time>2019-04-28T07:54:38Z</time>
      </trkpt>
      <trkpt lat="48.88698" lon="0.25352">
        <ele>277</ele>
        <time>2019-04-28T07:54:48Z</time>
      </trkpt>
      <trkpt lat="48.88705" lon="0.25345">
        <ele>277</ele>
        <time>2019-04-28T07:54:53Z</time>
      </trkpt>
      <trkpt lat="48.88714" lon="0.25338">
        <ele>277</ele>
        <time>2019-04-28T07:55:03Z</time>
      </trkpt>
      <trkpt lat="48.88719" lon="0.25334">
        <ele>277</ele>
        <time>2019-04-28T07:55:08Z</time>
      </trkpt>
      <trkpt lat="48.88721" lon="0.25333">
        <ele>277</ele>
        <time>2019-04-28T07:55:13Z</time>
      </trkpt>
      <trkpt lat="48.88729" lon="0.25328">
        <ele>277</ele>
        <time>2019-04-28T07:55:23Z</time>
      </trkpt>
      <trkpt lat="48.88735" lon="0.25324">
        <ele>277</ele>
        <time>2019-04-28T07:55:28Z</time>
      </trkpt>
      <trkpt lat="48.88746" lon="0.25317">
        <ele>277</ele>
        <time>2019-04-28T07:55:38Z</time>
      </trkpt>
      <trkpt lat="48.88759" lon="0.2531">
        <ele>277</ele>
        <time>2019-04-28T07:55:48Z</time>
      </trkpt>
      <trkpt lat="48.88769" lon="0.25304">
        <ele>277</ele>
        <time>2019-04-28T07:55:58Z</time>
      </trkpt>
      <trkpt lat="48.88778" lon="0.25296">
        <ele>276</ele>
        <time>2019-04-28T07:56:03Z</time>
      </trkpt>
      <trkpt lat="48.88784" lon="0.25291">
        <ele>276</ele>
        <time>2019-04-28T07:56:08Z</time>
      </trkpt>
      <trkpt lat="48.88796" lon="0.25281">
        <ele>275</ele>
        <time>2019-04-28T07:56:18Z</time>
      </trkpt>
      <trkpt lat="48.88805" lon="0.25275">
        <ele>276</ele>
        <time>2019-04-28T07:56:23Z</time>
      </trkpt>
      <trkpt lat="48.88817" lon="0.25266">
        <ele>277</ele>
        <time>2019-04-28T07:56:33Z</time>
      </trkpt>
      <trkpt lat="48.88829" lon="0.25256">
        <ele>278</ele>
        <time>2019-04-28T07:56:43Z</time>
      </trkpt>
      <trkpt lat="48.88836" lon="0.25251">
        <ele>278</ele>
        <time>2019-04-28T07:56:53Z</time>
      </trkpt>
      <trkpt lat="48.88847" lon="0.25241">
        <ele>278</ele>
        <time>2019-04-28T07:57:03Z</time>
      </trkpt>
      <trkpt lat="48.88854" lon="0.25235">
        <ele>278</ele>
        <time>2019-04-28T07:57:08Z</time>
      </trkpt>
      <trkpt lat="48.8886" lon="0.2523">
        <ele>278</ele>
        <time>2019-04-28T07:57:13Z</time>
      </trkpt>
      <trkpt lat="48.88868" lon="0.25224">
        <ele>278</ele>
        <time>2019-04-28T07:57:18Z</time>
      </trkpt>
      <trkpt lat="48.88884" lon="0.25215">
        <ele>276</ele>
        <time>2019-04-28T07:57:28Z</time>
      </trkpt>
      <trkpt lat="48.88892" lon="0.25211">
        <ele>276</ele>
        <time>2019-04-28T07:57:33Z</time>
      </trkpt>
      <trkpt lat="48.88903" lon="0.25205">
        <ele>277</ele>
        <time>2019-04-28T07:57:43Z</time>
      </trkpt>
      <trkpt lat="48.88914" lon="0.25198">
        <ele>277</ele>
        <time>2019-04-28T07:57:53Z</time>
      </trkpt>
      <trkpt lat="48.88923" lon="0.25193">
        <ele>276</ele>
        <time>2019-04-28T07:57:58Z</time>
      </trkpt>
      <trkpt lat="48.88935" lon="0.25186">
        <ele>275</ele>
        <time>2019-04-28T07:58:08Z</time>
      </trkpt>
      <trkpt lat="48.88942" lon="0.25181">
        <ele>275</ele>
        <time>2019-04-28T07:58:13Z</time>
      </trkpt>
      <trkpt lat="48.88946" lon="0.25178">
        <ele>275</ele>
        <time>2019-04-28T07:58:18Z</time>
      </trkpt>
      <trkpt lat="48.88951" lon="0.25175">
        <ele>275</ele>
        <time>2019-04-28T07:58:23Z</time>
      </trkpt>
      <trkpt lat="48.88957" lon="0.25171">
        <ele>275</ele>
        <time>2019-04-28T07:58:33Z</time>
      </trkpt>
      <trkpt lat="48.88964" lon="0.25167">
        <ele>276</ele>
        <time>2019-04-28T07:58:38Z</time>
      </trkpt>
      <trkpt lat="48.88974" lon="0.25157">
        <ele>275</ele>
        <time>2019-04-28T07:58:48Z</time>
      </trkpt>
      <trkpt lat="48.88977" lon="0.25144">
        <ele>272</ele>
        <time>2019-04-28T07:58:53Z</time>
      </trkpt>
      <trkpt lat="48.88975" lon="0.25132">
        <ele>271</ele>
        <time>2019-04-28T07:58:58Z</time>
      </trkpt>
      <trkpt lat="48.8897" lon="0.2512">
        <ele>271</ele>
        <time>2019-04-28T07:59:08Z</time>
      </trkpt>
      <trkpt lat="48.88965" lon="0.25111">
        <ele>273</ele>
        <time>2019-04-28T07:59:18Z</time>
      </trkpt>
      <trkpt lat="48.88958" lon="0.25098">
        <ele>274</ele>
        <time>2019-04-28T07:59:28Z</time>
      </trkpt>
      <trkpt lat="48.88952" lon="0.25085">
        <ele>274</ele>
        <time>2019-04-28T07:59:33Z</time>
      </trkpt>
      <trkpt lat="48.88949" lon="0.25078">
        <ele>274</ele>
        <time>2019-04-28T07:59:38Z</time>
      </trkpt>
      <trkpt lat="48.88946" lon="0.25072">
        <ele>274</ele>
        <time>2019-04-28T07:59:43Z</time>
      </trkpt>
      <trkpt lat="48.88945" lon="0.25068">
        <ele>275</ele>
        <time>2019-04-28T07:59:48Z</time>
      </trkpt>
      <trkpt lat="48.88942" lon="0.25057">
        <ele>276</ele>
        <time>2019-04-28T07:59:58Z</time>
      </trkpt>
      <trkpt lat="48.88938" lon="0.25049">
        <ele>276</ele>
        <time>2019-04-28T08:00:03Z</time>
      </trkpt>
      <trkpt lat="48.88929" lon="0.25034">
        <ele>278</ele>
        <time>2019-04-28T08:00:13Z</time>
      </trkpt>
      <trkpt lat="48.88923" lon="0.25022">
        <ele>278</ele>
        <time>2019-04-28T08:00:23Z</time>
      </trkpt>
      <trkpt lat="48.88917" lon="0.25011">
        <ele>279</ele>
        <time>2019-04-28T08:00:28Z</time>
      </trkpt>
      <trkpt lat="48.8891" lon="0.24997">
        <ele>278</ele>
        <time>2019-04-28T08:00:38Z</time>
      </trkpt>
      <trkpt lat="48.88907" lon="0.2499">
        <ele>280</ele>
        <time>2019-04-28T08:00:43Z</time>
      </trkpt>
      <trkpt lat="48.88901" lon="0.24972">
        <ele>282</ele>
        <time>2019-04-28T08:00:53Z</time>
      </trkpt>
      <trkpt lat="48.88898" lon="0.24963">
        <ele>281</ele>
        <time>2019-04-28T08:00:58Z</time>
      </trkpt>
      <trkpt lat="48.88895" lon="0.24955">
        <ele>280</ele>
        <time>2019-04-28T08:01:03Z</time>
      </trkpt>
      <trkpt lat="48.88892" lon="0.24945">
        <ele>280</ele>
        <time>2019-04-28T08:01:13Z</time>
      </trkpt>
      <trkpt lat="48.8889" lon="0.24937">
        <ele>281</ele>
        <time>2019-04-28T08:01:18Z</time>
      </trkpt>
      <trkpt lat="48.88887" lon="0.24928">
        <ele>283</ele>
        <time>2019-04-28T08:01:23Z</time>
      </trkpt>
      <trkpt lat="48.88878" lon="0.24906">
        <ele>284</ele>
        <time>2019-04-28T08:01:33Z</time>
      </trkpt>
      <trkpt lat="48.88872" lon="0.24891">
        <ele>284</ele>
        <time>2019-04-28T08:01:43Z</time>
      </trkpt>
      <trkpt lat="48.8887" lon="0.24884">
        <ele>282</ele>
        <time>2019-04-28T08:01:48Z</time>
      </trkpt>
      <trkpt lat="48.88869" lon="0.24869">
        <ele>279</ele>
        <time>2019-04-28T08:01:58Z</time>
      </trkpt>
      <trkpt lat="48.8887" lon="0.24859">
        <ele>278</ele>
        <time>2019-04-28T08:02:03Z</time>
      </trkpt>
      <trkpt lat="48.88877" lon="0.24847">
        <ele>276</ele>
        <time>2019-04-28T08:02:13Z</time>
      </trkpt>
      <trkpt lat="48.88882" lon="0.24839">
        <ele>274</ele>
        <time>2019-04-28T08:02:18Z</time>
      </trkpt>
      <trkpt lat="48.88891" lon="0.24829">
        <ele>273</ele>
        <time>2019-04-28T08:02:28Z</time>
      </trkpt>
      <trkpt lat="48.88898" lon="0.24823">
        <ele>273</ele>
        <time>2019-04-28T08:02:33Z</time>
      </trkpt>
      <trkpt lat="48.88909" lon="0.24812">
        <ele>272</ele>
        <time>2019-04-28T08:02:43Z</time>
      </trkpt>
      <trkpt lat="48.88921" lon="0.24801">
        <ele>275</ele>
        <time>2019-04-28T08:02:53Z</time>
      </trkpt>
      <trkpt lat="48.88933" lon="0.2479">
        <ele>275</ele>
        <time>2019-04-28T08:02:58Z</time>
      </trkpt>
      <trkpt lat="48.88944" lon="0.24781">
        <ele>278</ele>
        <time>2019-04-28T08:03:08Z</time>
      </trkpt>
      <trkpt lat="48.88953" lon="0.24771">
        <ele>278</ele>
        <time>2019-04-28T08:03:13Z</time>
      </trkpt>
      <trkpt lat="48.88957" lon="0.24765">
        <ele>277</ele>
        <time>2019-04-28T08:03:18Z</time>
      </trkpt>
      <trkpt lat="48.88962" lon="0.2476">
        <ele>278</ele>
        <time>2019-04-28T08:03:23Z</time>
      </trkpt>
      <trkpt lat="48.88969" lon="0.24752">
        <ele>278</ele>
        <time>2019-04-28T08:03:33Z</time>
      </trkpt>
      <trkpt lat="48.88978" lon="0.24742">
        <ele>277</ele>
        <time>2019-04-28T08:03:43Z</time>
      </trkpt>
      <trkpt lat="48.88985" lon="0.24734">
        <ele>275</ele>
        <time>2019-04-28T08:03:48Z</time>
      </trkpt>
      <trkpt lat="48.88995" lon="0.24725">
        <ele>275</ele>
        <time>2019-04-28T08:03:58Z</time>
      </trkpt>
      <trkpt lat="48.89005" lon="0.24718">
        <ele>275</ele>
        <time>2019-04-28T08:04:08Z</time>
      </trkpt>
      <trkpt lat="48.89019" lon="0.24705">
        <ele>277</ele>
        <time>2019-04-28T08:04:18Z</time>
      </trkpt>
      <trkpt lat="48.89029" lon="0.24695">
        <ele>278</ele>
        <time>2019-04-28T08:04:28Z</time>
      </trkpt>
      <trkpt lat="48.89037" lon="0.24688">
        <ele>278</ele>
        <time>2019-04-28T08:04:33Z</time>
      </trkpt>
      <trkpt lat="48.89048" lon="0.24678">
        <ele>278</ele>
        <time>2019-04-28T08:04:43Z</time>
      </trkpt>
      <trkpt lat="48.89056" lon="0.2467">
        <ele>278</ele>
        <time>2019-04-28T08:04:48Z</time>
      </trkpt>
      <trkpt lat="48.89065" lon="0.2466">
        <ele>278</ele>
        <time>2019-04-28T08:04:53Z</time>
      </trkpt>
      <trkpt lat="48.89069" lon="0.24655">
        <ele>279</ele>
        <time>2019-04-28T08:04:58Z</time>
      </trkpt>
      <trkpt lat="48.89081" lon="0.24647">
        <ele>279</ele>
        <time>2019-04-28T08:05:08Z</time>
      </trkpt>
      <trkpt lat="48.8909" lon="0.24639">
        <ele>280</ele>
        <time>2019-04-28T08:05:13Z</time>
      </trkpt>
      <trkpt lat="48.891" lon="0.24628">
        <ele>279</ele>
        <time>2019-04-28T08:05:23Z</time>
      </trkpt>
      <trkpt lat="48.89107" lon="0.24621">
        <ele>279</ele>
        <time>2019-04-28T08:05:28Z</time>
      </trkpt>
      <trkpt lat="48.89111" lon="0.24617">
        <ele>278</ele>
        <time>2019-04-28T08:05:33Z</time>
      </trkpt>
      <trkpt lat="48.89119" lon="0.2461">
        <ele>277</ele>
        <time>2019-04-28T08:05:38Z</time>
      </trkpt>
      <trkpt lat="48.8913" lon="0.24602">
        <ele>277</ele>
        <time>2019-04-28T08:05:48Z</time>
      </trkpt>
      <trkpt lat="48.89138" lon="0.24596">
        <ele>277</ele>
        <time>2019-04-28T08:05:53Z</time>
      </trkpt>
      <trkpt lat="48.89147" lon="0.24584">
        <ele>277</ele>
        <time>2019-04-28T08:06:03Z</time>
      </trkpt>
      <trkpt lat="48.89153" lon="0.24578">
        <ele>277</ele>
        <time>2019-04-28T08:06:08Z</time>
      </trkpt>
      <trkpt lat="48.89157" lon="0.24569">
        <ele>277</ele>
        <time>2019-04-28T08:06:18Z</time>
      </trkpt>
      <trkpt lat="48.89159" lon="0.24558">
        <ele>277</ele>
        <time>2019-04-28T08:06:28Z</time>
      </trkpt>
      <trkpt lat="48.89154" lon="0.24539">
        <ele>277</ele>
        <time>2019-04-28T08:06:38Z</time>
      </trkpt>
      <trkpt lat="48.89152" lon="0.2453">
        <ele>277</ele>
        <time>2019-04-28T08:06:43Z</time>
      </trkpt>
      <trkpt lat="48.89151" lon="0.24526">
        <ele>277</ele>
        <time>2019-04-28T08:06:48Z</time>
      </trkpt>
      <trkpt lat="48.89147" lon="0.24517">
        <ele>277</ele>
        <time>2019-04-28T08:06:58Z</time>
      </trkpt>
      <trkpt lat="48.89143" lon="0.24509">
        <ele>277</ele>
        <time>2019-04-28T08:07:03Z</time>
      </trkpt>
      <trkpt lat="48.89133" lon="0.24489">
        <ele>278</ele>
        <time>2019-04-28T08:07:13Z</time>
      </trkpt>
      <trkpt lat="48.89127" lon="0.24477">
        <ele>278</ele>
        <time>2019-04-28T08:07:23Z</time>
      </trkpt>
      <trkpt lat="48.8912" lon="0.24463">
        <ele>277</ele>
        <time>2019-04-28T08:07:33Z</time>
      </trkpt>
      <trkpt lat="48.89113" lon="0.24448">
        <ele>277</ele>
        <time>2019-04-28T08:07:38Z</time>
      </trkpt>
      <trkpt lat="48.89108" lon="0.2444">
        <ele>277</ele>
        <time>2019-04-28T08:07:43Z</time>
      </trkpt>
      <trkpt lat="48.89103" lon="0.24432">
        <ele>278</ele>
        <time>2019-04-28T08:07:48Z</time>
      </trkpt>
      <trkpt lat="48.89093" lon="0.24419">
        <ele>276</ele>
        <time>2019-04-28T08:07:58Z</time>
      </trkpt>
      <trkpt lat="48.89083" lon="0.2441">
        <ele>275</ele>
        <time>2019-04-28T08:08:08Z</time>
      </trkpt>
      <trkpt lat="48.89079" lon="0.24405">
        <ele>275</ele>
        <time>2019-04-28T08:08:13Z</time>
      </trkpt>
      <trkpt lat="48.8907" lon="0.24395">
        <ele>275</ele>
        <time>2019-04-28T08:08:23Z</time>
      </trkpt>
      <trkpt lat="48.89062" lon="0.24388">
        <ele>275</ele>
        <time>2019-04-28T08:08:33Z</time>
      </trkpt>
      <trkpt lat="48.89051" lon="0.2438">
        <ele>275</ele>
        <time>2019-04-28T08:08:38Z</time>
      </trkpt>
      <trkpt lat="48.89039" lon="0.24373">
        <ele>276</ele>
        <time>2019-04-28T08:08:48Z</time>
      </trkpt>
      <trkpt lat="48.89026" lon="0.24366">
        <ele>275</ele>
        <time>2019-04-28T08:08:58Z</time>
      </trkpt>
      <trkpt lat="48.89018" lon="0.24363">
        <ele>275</ele>
        <time>2019-04-28T08:09:03Z</time>
      </trkpt>
      <trkpt lat="48.89008" lon="0.24359">
        <ele>275</ele>
        <time>2019-04-28T08:09:13Z</time>
      </trkpt>
      <trkpt lat="48.89002" lon="0.24357">
        <ele>275</ele>
        <time>2019-04-28T08:09:18Z</time>
      </trkpt>
      <trkpt lat="48.88994" lon="0.24355">
        <ele>274</ele>
        <time>2019-04-28T08:09:23Z</time>
      </trkpt>
      <trkpt lat="48.88982" lon="0.24351">
        <ele>274</ele>
        <time>2019-04-28T08:09:33Z</time>
      </trkpt>
      <trkpt lat="48.88976" lon="0.24348">
        <ele>275</ele>
        <time>2019-04-28T08:09:38Z</time>
      </trkpt>
      <trkpt lat="48.88968" lon="0.24341">
        <ele>272</ele>
        <time>2019-04-28T08:09:48Z</time>
      </trkpt>
      <trkpt lat="48.88959" lon="0.24326">
        <ele>269</ele>
        <time>2019-04-28T08:09:58Z</time>
      </trkpt>
      <trkpt lat="48.88947" lon="0.24305">
        <ele>268</ele>
        <time>2019-04-28T08:10:08Z</time>
      </trkpt>
      <trkpt lat="48.88938" lon="0.24288">
        <ele>267</ele>
        <time>2019-04-28T08:10:18Z</time>
      </trkpt>
      <trkpt lat="48.88929" lon="0.24273">
        <ele>266</ele>
        <time>2019-04-28T08:10:28Z</time>
      </trkpt>
      <trkpt lat="48.88922" lon="0.24258">
        <ele>266</ele>
        <time>2019-04-28T08:10:38Z</time>
      </trkpt>
      <trkpt lat="48.88917" lon="0.24245">
        <ele>266</ele>
        <time>2019-04-28T08:10:43Z</time>
      </trkpt>
      <trkpt lat="48.88913" lon="0.24234">
        <ele>264</ele>
        <time>2019-04-28T08:10:48Z</time>
      </trkpt>
      <trkpt lat="48.8891" lon="0.24225">
        <ele>263</ele>
        <time>2019-04-28T08:10:53Z</time>
      </trkpt>
      <trkpt lat="48.88907" lon="0.24216">
        <ele>263</ele>
        <time>2019-04-28T08:10:58Z</time>
      </trkpt>
      <trkpt lat="48.88903" lon="0.24203">
        <ele>263</ele>
        <time>2019-04-28T08:11:08Z</time>
      </trkpt>
      <trkpt lat="48.88898" lon="0.24185">
        <ele>261</ele>
        <time>2019-04-28T08:11:18Z</time>
      </trkpt>
      <trkpt lat="48.88894" lon="0.24173">
        <ele>260</ele>
        <time>2019-04-28T08:11:23Z</time>
      </trkpt>
      <trkpt lat="48.88892" lon="0.24166">
        <ele>259</ele>
        <time>2019-04-28T08:11:28Z</time>
      </trkpt>
      <trkpt lat="48.88889" lon="0.24159">
        <ele>259</ele>
        <time>2019-04-28T08:11:33Z</time>
      </trkpt>
      <trkpt lat="48.88886" lon="0.24147">
        <ele>261</ele>
        <time>2019-04-28T08:11:43Z</time>
      </trkpt>
      <trkpt lat="48.88881" lon="0.24134">
        <ele>262</ele>
        <time>2019-04-28T08:11:53Z</time>
      </trkpt>
      <trkpt lat="48.88873" lon="0.2411">
        <ele>262</ele>
        <time>2019-04-28T08:12:03Z</time>
      </trkpt>
      <trkpt lat="48.88867" lon="0.24095">
        <ele>262</ele>
        <time>2019-04-28T08:12:08Z</time>
      </trkpt>
      <trkpt lat="48.88862" lon="0.24085">
        <ele>262</ele>
        <time>2019-04-28T08:12:13Z</time>
      </trkpt>
      <trkpt lat="48.88856" lon="0.24071">
        <ele>264</ele>
        <time>2019-04-28T08:12:23Z</time>
      </trkpt>
      <trkpt lat="48.88849" lon="0.24054">
        <ele>266</ele>
        <time>2019-04-28T08:12:33Z</time>
      </trkpt>
      <trkpt lat="48.88843" lon="0.2404">
        <ele>267</ele>
        <time>2019-04-28T08:12:38Z</time>
      </trkpt>
      <trkpt lat="48.88837" lon="0.24023">
        <ele>270</ele>
        <time>2019-04-28T08:12:48Z</time>
      </trkpt>
      <trkpt lat="48.88835" lon="0.2401">
        <ele>269</ele>
        <time>2019-04-28T08:12:53Z</time>
      </trkpt>
      <trkpt lat="48.88833" lon="0.23992">
        <ele>269</ele>
        <time>2019-04-28T08:13:03Z</time>
      </trkpt>
      <trkpt lat="48.88833" lon="0.23973">
        <ele>270</ele>
        <time>2019-04-28T08:13:13Z</time>
      </trkpt>
      <trkpt lat="48.88832" lon="0.2396">
        <ele>270</ele>
        <time>2019-04-28T08:13:18Z</time>
      </trkpt>
      <trkpt lat="48.88831" lon="0.23945">
        <ele>268</ele>
        <time>2019-04-28T08:13:28Z</time>
      </trkpt>
      <trkpt lat="48.88828" lon="0.23929">
        <ele>269</ele>
        <time>2019-04-28T08:13:38Z</time>
      </trkpt>
      <trkpt lat="48.88826" lon="0.23915">
        <ele>269</ele>
        <time>2019-04-28T08:13:43Z</time>
      </trkpt>
      <trkpt lat="48.88823" lon="0.23903">
        <ele>270</ele>
        <time>2019-04-28T08:13:48Z</time>
      </trkpt>
      <trkpt lat="48.88821" lon="0.23887">
        <ele>269</ele>
        <time>2019-04-28T08:13:58Z</time>
      </trkpt>
      <trkpt lat="48.88819" lon="0.23871">
        <ele>269</ele>
        <time>2019-04-28T08:14:08Z</time>
      </trkpt>
      <trkpt lat="48.88816" lon="0.23858">
        <ele>269</ele>
        <time>2019-04-28T08:14:13Z</time>
      </trkpt>
      <trkpt lat="48.88814" lon="0.23842">
        <ele>268</ele>
        <time>2019-04-28T08:14:23Z</time>
      </trkpt>
      <trkpt lat="48.88811" lon="0.23829">
        <ele>268</ele>
        <time>2019-04-28T08:14:28Z</time>
      </trkpt>
      <trkpt lat="48.88809" lon="0.23811">
        <ele>269</ele>
        <time>2019-04-28T08:14:38Z</time>
      </trkpt>
      <trkpt lat="48.88807" lon="0.23798">
        <ele>269</ele>
        <time>2019-04-28T08:14:43Z</time>
      </trkpt>
      <trkpt lat="48.88805" lon="0.23786">
        <ele>269</ele>
        <time>2019-04-28T08:14:48Z</time>
      </trkpt>
      <trkpt lat="48.88804" lon="0.23775">
        <ele>269</ele>
        <time>2019-04-28T08:14:53Z</time>
      </trkpt>
      <trkpt lat="48.88803" lon="0.23757">
        <ele>269</ele>
        <time>2019-04-28T08:15:03Z</time>
      </trkpt>
      <trkpt lat="48.88802" lon="0.23742">
        <ele>269</ele>
        <time>2019-04-28T08:15:08Z</time>
      </trkpt>
      <trkpt lat="48.888" lon="0.23723">
        <ele>269</ele>
        <time>2019-04-28T08:15:18Z</time>
      </trkpt>
      <trkpt lat="48.88796" lon="0.23702">
        <ele>271</ele>
        <time>2019-04-28T08:15:28Z</time>
      </trkpt>
      <trkpt lat="48.88789" lon="0.23686">
        <ele>268</ele>
        <time>2019-04-28T08:15:38Z</time>
      </trkpt>
      <trkpt lat="48.88782" lon="0.23676">
        <ele>268</ele>
        <time>2019-04-28T08:15:43Z</time>
      </trkpt>
      <trkpt lat="48.88771" lon="0.23665">
        <ele>269</ele>
        <time>2019-04-28T08:15:53Z</time>
      </trkpt>
      <trkpt lat="48.8876" lon="0.23655">
        <ele>270</ele>
        <time>2019-04-28T08:16:03Z</time>
      </trkpt>
      <trkpt lat="48.88749" lon="0.23644">
        <ele>269</ele>
        <time>2019-04-28T08:16:13Z</time>
      </trkpt>
      <trkpt lat="48.88742" lon="0.23636">
        <ele>270</ele>
        <time>2019-04-28T08:16:18Z</time>
      </trkpt>
      <trkpt lat="48.88733" lon="0.23625">
        <ele>270</ele>
        <time>2019-04-28T08:16:28Z</time>
      </trkpt>
      <trkpt lat="48.88726" lon="0.23615">
        <ele>270</ele>
        <time>2019-04-28T08:16:33Z</time>
      </trkpt>
      <trkpt lat="48.88717" lon="0.236">
        <ele>270</ele>
        <time>2019-04-28T08:16:43Z</time>
      </trkpt>
      <trkpt lat="48.88711" lon="0.23589">
        <ele>271</ele>
        <time>2019-04-28T08:16:48Z</time>
      </trkpt>
      <trkpt lat="48.88703" lon="0.23574">
        <ele>269</ele>
        <time>2019-04-28T08:16:58Z</time>
      </trkpt>
      <trkpt lat="48.88696" lon="0.23558">
        <ele>267</ele>
        <time>2019-04-28T08:17:08Z</time>
      </trkpt>
      <trkpt lat="48.88687" lon="0.23541">
        <ele>268</ele>
        <time>2019-04-28T08:17:18Z</time>
      </trkpt>
      <trkpt lat="48.88681" lon="0.2353">
        <ele>269</ele>
        <time>2019-04-28T08:17:23Z</time>
      </trkpt>
      <trkpt lat="48.88673" lon="0.23512">
        <ele>272</ele>
        <time>2019-04-28T08:17:33Z</time>
      </trkpt>
      <trkpt lat="48.88667" lon="0.23494">
        <ele>273</ele>
        <time>2019-04-28T08:17:43Z</time>
      </trkpt>
      <trkpt lat="48.88663" lon="0.23478">
        <ele>273</ele>
        <time>2019-04-28T08:17:53Z</time>
      </trkpt>
      <trkpt lat="48.8866" lon="0.23466">
        <ele>272</ele>
        <time>2019-04-28T08:17:58Z</time>
      </trkpt>
      <trkpt lat="48.88659" lon="0.23448">
        <ele>268</ele>
        <time>2019-04-28T08:18:08Z</time>
      </trkpt>
      <trkpt lat="48.88657" lon="0.23435">
        <ele>268</ele>
        <time>2019-04-28T08:18:13Z</time>
      </trkpt>
      <trkpt lat="48.88654" lon="0.23414">
        <ele>267</ele>
        <time>2019-04-28T08:18:23Z</time>
      </trkpt>
      <trkpt lat="48.88654" lon="0.2339">
        <ele>267</ele>
        <time>2019-04-28T08:18:33Z</time>
      </trkpt>
      <trkpt lat="48.88654" lon="0.23374">
        <ele>268</ele>
        <time>2019-04-28T08:18:38Z</time>
      </trkpt>
      <trkpt lat="48.88654" lon="0.23357">
        <ele>268</ele>
        <time>2019-04-28T08:18:48Z</time>
      </trkpt>
      <trkpt lat="48.88655" lon="0.23336">
        <ele>267</ele>
        <time>2019-04-28T08:18:58Z</time>
      </trkpt>
      <trkpt lat="48.88656" lon="0.23321">
        <ele>267</ele>
        <time>2019-04-28T08:19:03Z</time>
      </trkpt>
      <trkpt lat="48.88655" lon="0.23299">
        <ele>265</ele>
        <time>2019-04-28T08:19:13Z</time>
      </trkpt>
      <trkpt lat="48.88653" lon="0.23284">
        <ele>265</ele>
        <time>2019-04-28T08:19:18Z</time>
      </trkpt>
      <trkpt lat="48.88652" lon="0.23271">
        <ele>266</ele>
        <time>2019-04-28T08:19:23Z</time>
      </trkpt>
      <trkpt lat="48.8865" lon="0.23259">
        <ele>264</ele>
        <time>2019-04-28T08:19:28Z</time>
      </trkpt>
      <trkpt lat="48.88648" lon="0.23247">
        <ele>264</ele>
        <time>2019-04-28T08:19:33Z</time>
      </trkpt>
      <trkpt lat="48.88647" lon="0.23235">
        <ele>263</ele>
        <time>2019-04-28T08:19:38Z</time>
      </trkpt>
      <trkpt lat="48.88647" lon="0.23215">
        <ele>264</ele>
        <time>2019-04-28T08:19:48Z</time>
      </trkpt>
      <trkpt lat="48.88647" lon="0.232">
        <ele>264</ele>
        <time>2019-04-28T08:19:53Z</time>
      </trkpt>
      <trkpt lat="48.88648" lon="0.2318">
        <ele>263</ele>
        <time>2019-04-28T08:20:03Z</time>
      </trkpt>
      <trkpt lat="48.88648" lon="0.23167">
        <ele>263</ele>
        <time>2019-04-28T08:20:08Z</time>
      </trkpt>
      <trkpt lat="48.88647" lon="0.23155">
        <ele>263</ele>
        <time>2019-04-28T08:20:13Z</time>
      </trkpt>
      <trkpt lat="48.88644" lon="0.23138">
        <ele>263</ele>
        <time>2019-04-28T08:20:23Z</time>
      </trkpt>
      <trkpt lat="48.8864" lon="0.23123">
        <ele>262</ele>
        <time>2019-04-28T08:20:33Z</time>
      </trkpt>
      <trkpt lat="48.88634" lon="0.23107">
        <ele>261</ele>
        <time>2019-04-28T08:20:43Z</time>
      </trkpt>
      <trkpt lat="48.88625" lon="0.23086">
        <ele>261</ele>
        <time>2019-04-28T08:20:53Z</time>
      </trkpt>
      <trkpt lat="48.88617" lon="0.23068">
        <ele>261</ele>
        <time>2019-04-28T08:21:03Z</time>
      </trkpt>
      <trkpt lat="48.88611" lon="0.23055">
        <ele>263</ele>
        <time>2019-04-28T08:21:13Z</time>
      </trkpt>
      <trkpt lat="48.88606" lon="0.23045">
        <ele>263</ele>
        <time>2019-04-28T08:21:18Z</time>
      </trkpt>
      <trkpt lat="48.886" lon="0.23033">
        <ele>262</ele>
        <time>2019-04-28T08:21:23Z</time>
      </trkpt>
      <trkpt lat="48.88591" lon="0.23023">
        <ele>261</ele>
        <time>2019-04-28T08:21:28Z</time>
      </trkpt>
      <trkpt lat="48.88583" lon="0.23015">
        <ele>261</ele>
        <time>2019-04-28T08:21:36Z</time>
      </trkpt>
      <trkpt lat="48.88579" lon="0.2301">
        <ele>261</ele>
        <time>2019-04-28T08:21:41Z</time>
      </trkpt>
      <trkpt lat="48.88574" lon="0.23005">
        <ele>262</ele>
        <time>2019-04-28T08:21:46Z</time>
      </trkpt>
      <trkpt lat="48.88565" lon="0.22996">
        <ele>262</ele>
        <time>2019-04-28T08:21:56Z</time>
      </trkpt>
      <trkpt lat="48.88558" lon="0.22988">
        <ele>261</ele>
        <time>2019-04-28T08:22:01Z</time>
      </trkpt>
      <trkpt lat="48.88548" lon="0.22979">
        <ele>261</ele>
        <time>2019-04-28T08:22:11Z</time>
      </trkpt>
      <trkpt lat="48.88536" lon="0.2297">
        <ele>260</ele>
        <time>2019-04-28T08:22:21Z</time>
      </trkpt>
      <trkpt lat="48.88522" lon="0.22961">
        <ele>260</ele>
        <time>2019-04-28T08:22:31Z</time>
      </trkpt>
      <trkpt lat="48.88513" lon="0.22956">
        <ele>261</ele>
        <time>2019-04-28T08:22:36Z</time>
      </trkpt>
      <trkpt lat="48.88505" lon="0.22954">
        <ele>261</ele>
        <time>2019-04-28T08:22:41Z</time>
      </trkpt>
      <trkpt lat="48.8849" lon="0.2295">
        <ele>263</ele>
        <time>2019-04-28T08:22:51Z</time>
      </trkpt>
      <trkpt lat="48.88478" lon="0.22949">
        <ele>263</ele>
        <time>2019-04-28T08:22:56Z</time>
      </trkpt>
      <trkpt lat="48.8847" lon="0.22949">
        <ele>262</ele>
        <time>2019-04-28T08:23:06Z</time>
      </trkpt>
      <trkpt lat="48.88458" lon="0.22951">
        <ele>262</ele>
        <time>2019-04-28T08:23:16Z</time>
      </trkpt>
      <trkpt lat="48.88448" lon="0.22952">
        <ele>263</ele>
        <time>2019-04-28T08:23:21Z</time>
      </trkpt>
      <trkpt lat="48.8844" lon="0.22954">
        <ele>263</ele>
        <time>2019-04-28T08:23:26Z</time>
      </trkpt>
      <trkpt lat="48.8843" lon="0.22957">
        <ele>263</ele>
        <time>2019-04-28T08:23:36Z</time>
      </trkpt>
      <trkpt lat="48.88419" lon="0.22959">
        <ele>262</ele>
        <time>2019-04-28T08:23:41Z</time>
      </trkpt>
      <trkpt lat="48.88412" lon="0.2296">
        <ele>261</ele>
        <time>2019-04-28T08:23:46Z</time>
      </trkpt>
      <trkpt lat="48.88404" lon="0.22957">
        <ele>259</ele>
        <time>2019-04-28T08:23:56Z</time>
      </trkpt>
      <trkpt lat="48.88399" lon="0.22953">
        <ele>257</ele>
        <time>2019-04-28T08:24:01Z</time>
      </trkpt>
      <trkpt lat="48.88394" lon="0.22941">
        <ele>258</ele>
        <time>2019-04-28T08:24:11Z</time>
      </trkpt>
      <trkpt lat="48.88392" lon="0.22924">
        <ele>258</ele>
        <time>2019-04-28T08:24:21Z</time>
      </trkpt>
      <trkpt lat="48.88391" lon="0.22903">
        <ele>257</ele>
        <time>2019-04-28T08:24:31Z</time>
      </trkpt>
      <trkpt lat="48.88391" lon="0.2289">
        <ele>257</ele>
        <time>2019-04-28T08:24:36Z</time>
      </trkpt>
      <trkpt lat="48.88392" lon="0.22867">
        <ele>255</ele>
        <time>2019-04-28T08:24:46Z</time>
      </trkpt>
      <trkpt lat="48.88393" lon="0.22853">
        <ele>255</ele>
        <time>2019-04-28T08:24:56Z</time>
      </trkpt>
      <trkpt lat="48.88393" lon="0.22845">
        <ele>254</ele>
        <time>2019-04-28T08:25:01Z</time>
      </trkpt>
      <trkpt lat="48.88393" lon="0.22835">
        <ele>252</ele>
        <time>2019-04-28T08:25:06Z</time>
      </trkpt>
      <trkpt lat="48.88391" lon="0.22813">
        <ele>248</ele>
        <time>2019-04-28T08:25:16Z</time>
      </trkpt>
      <trkpt lat="48.8839" lon="0.22801">
        <ele>248</ele>
        <time>2019-04-28T08:25:26Z</time>
      </trkpt>
      <trkpt lat="48.8839" lon="0.22784">
        <ele>246</ele>
        <time>2019-04-28T08:25:36Z</time>
      </trkpt>
      <trkpt lat="48.88389" lon="0.22774">
        <ele>245</ele>
        <time>2019-04-28T08:25:41Z</time>
      </trkpt>
      <trkpt lat="48.88389" lon="0.22752">
        <ele>244</ele>
        <time>2019-04-28T08:25:51Z</time>
      </trkpt>
      <trkpt lat="48.88389" lon="0.22741">
        <ele>244</ele>
        <time>2019-04-28T08:25:56Z</time>
      </trkpt>
      <trkpt lat="48.88389" lon="0.22728">
        <ele>242</ele>
        <time>2019-04-28T08:26:06Z</time>
      </trkpt>
      <trkpt lat="48.88387" lon="0.227">
        <ele>239</ele>
        <time>2019-04-28T08:26:16Z</time>
      </trkpt>
      <trkpt lat="48.88386" lon="0.2268">
        <ele>237</ele>
        <time>2019-04-28T08:26:26Z</time>
      </trkpt>
      <trkpt lat="48.88386" lon="0.22665">
        <ele>233</ele>
        <time>2019-04-28T08:26:36Z</time>
      </trkpt>
      <trkpt lat="48.88387" lon="0.22645">
        <ele>231</ele>
        <time>2019-04-28T08:26:46Z</time>
      </trkpt>
      <trkpt lat="48.88392" lon="0.22625">
        <ele>227</ele>
        <time>2019-04-28T08:26:56Z</time>
      </trkpt>
      <trkpt lat="48.88397" lon="0.2261">
        <ele>226</ele>
        <time>2019-04-28T08:27:01Z</time>
      </trkpt>
      <trkpt lat="48.88401" lon="0.22601">
        <ele>225</ele>
        <time>2019-04-28T08:27:06Z</time>
      </trkpt>
      <trkpt lat="48.88406" lon="0.22588">
        <ele>224</ele>
        <time>2019-04-28T08:27:16Z</time>
      </trkpt>
      <trkpt lat="48.8841" lon="0.22581">
        <ele>224</ele>
        <time>2019-04-28T08:27:21Z</time>
      </trkpt>
      <trkpt lat="48.88414" lon="0.2257">
        <ele>221</ele>
        <time>2019-04-28T08:27:31Z</time>
      </trkpt>
      <trkpt lat="48.88417" lon="0.22562">
        <ele>220</ele>
        <time>2019-04-28T08:27:36Z</time>
      </trkpt>
      <trkpt lat="48.88423" lon="0.22547">
        <ele>217</ele>
        <time>2019-04-28T08:27:46Z</time>
      </trkpt>
      <trkpt lat="48.88429" lon="0.22532">
        <ele>214</ele>
        <time>2019-04-28T08:27:56Z</time>
      </trkpt>
      <trkpt lat="48.88436" lon="0.22516">
        <ele>211</ele>
        <time>2019-04-28T08:28:06Z</time>
      </trkpt>
      <trkpt lat="48.88441" lon="0.22505">
        <ele>210</ele>
        <time>2019-04-28T08:28:11Z</time>
      </trkpt>
      <trkpt lat="48.88447" lon="0.2249">
        <ele>208</ele>
        <time>2019-04-28T08:28:21Z</time>
      </trkpt>
      <trkpt lat="48.88452" lon="0.22473">
        <ele>204</ele>
        <time>2019-04-28T08:28:31Z</time>
      </trkpt>
      <trkpt lat="48.88454" lon="0.22462">
        <ele>203</ele>
        <time>2019-04-28T08:28:36Z</time>
      </trkpt>
      <trkpt lat="48.88456" lon="0.22448">
        <ele>202</ele>
        <time>2019-04-28T08:28:46Z</time>
      </trkpt>
      <trkpt lat="48.88459" lon="0.22431">
        <ele>200</ele>
        <time>2019-04-28T08:28:56Z</time>
      </trkpt>
      <trkpt lat="48.88462" lon="0.22413">
        <ele>199</ele>
        <time>2019-04-28T08:29:06Z</time>
      </trkpt>
      <trkpt lat="48.88463" lon="0.224">
        <ele>199</ele>
        <time>2019-04-28T08:29:11Z</time>
      </trkpt>
      <trkpt lat="48.88462" lon="0.22387">
        <ele>196</ele>
        <time>2019-04-28T08:29:16Z</time>
      </trkpt>
      <trkpt lat="48.88461" lon="0.22373">
        <ele>194</ele>
        <time>2019-04-28T08:29:26Z</time>
      </trkpt>
      <trkpt lat="48.8846" lon="0.22356">
        <ele>192</ele>
        <time>2019-04-28T08:29:36Z</time>
      </trkpt>
      <trkpt lat="48.88459" lon="0.22338">
        <ele>188</ele>
        <time>2019-04-28T08:29:46Z</time>
      </trkpt>
      <trkpt lat="48.88459" lon="0.22319">
        <ele>184</ele>
        <time>2019-04-28T08:29:56Z</time>
      </trkpt>
      <trkpt lat="48.88459" lon="0.22305">
        <ele>183</ele>
        <time>2019-04-28T08:30:01Z</time>
      </trkpt>
      <trkpt lat="48.8846" lon="0.22288">
        <ele>182</ele>
        <time>2019-04-28T08:30:11Z</time>
      </trkpt>
      <trkpt lat="48.88463" lon="0.22269">
        <ele>182</ele>
        <time>2019-04-28T08:30:21Z</time>
      </trkpt>
      <trkpt lat="48.88466" lon="0.22258">
        <ele>183</ele>
        <time>2019-04-28T08:30:26Z</time>
      </trkpt>
      <trkpt lat="48.88473" lon="0.2225">
        <ele>188</ele>
        <time>2019-04-28T08:30:36Z</time>
      </trkpt>
      <trkpt lat="48.88484" lon="0.22247">
        <ele>191</ele>
        <time>2019-04-28T08:30:46Z</time>
      </trkpt>
      <trkpt lat="48.88491" lon="0.22247">
        <ele>192</ele>
        <time>2019-04-28T08:30:51Z</time>
      </trkpt>
      <trkpt lat="48.88499" lon="0.22244">
        <ele>191</ele>
        <time>2019-04-28T08:31:01Z</time>
      </trkpt>
      <trkpt lat="48.88505" lon="0.22239">
        <ele>189</ele>
        <time>2019-04-28T08:31:06Z</time>
      </trkpt>
      <trkpt lat="48.88512" lon="0.2223">
        <ele>188</ele>
        <time>2019-04-28T08:31:16Z</time>
      </trkpt>
      <trkpt lat="48.88521" lon="0.22219">
        <ele>188</ele>
        <time>2019-04-28T08:31:26Z</time>
      </trkpt>
      <trkpt lat="48.88531" lon="0.22208">
        <ele>188</ele>
        <time>2019-04-28T08:31:36Z</time>
      </trkpt>
      <trkpt lat="48.88539" lon="0.222">
        <ele>189</ele>
        <time>2019-04-28T08:31:41Z</time>
      </trkpt>
      <trkpt lat="48.88548" lon="0.22191">
        <ele>188</ele>
        <time>2019-04-28T08:31:51Z</time>
      </trkpt>
      <trkpt lat="48.88555" lon="0.22184">
        <ele>187</ele>
        <time>2019-04-28T08:31:56Z</time>
      </trkpt>
      <trkpt lat="48.8856" lon="0.22178">
        <ele>187</ele>
        <time>2019-04-28T08:32:01Z</time>
      </trkpt>
      <trkpt lat="48.88569" lon="0.22169">
        <ele>187</ele>
        <time>2019-04-28T08:32:11Z</time>
      </trkpt>
      <trkpt lat="48.88576" lon="0.22163">
        <ele>188</ele>
        <time>2019-04-28T08:32:16Z</time>
      </trkpt>
      <trkpt lat="48.88582" lon="0.22157">
        <ele>187</ele>
        <time>2019-04-28T08:32:21Z</time>
      </trkpt>
      <trkpt lat="48.88591" lon="0.2215">
        <ele>186</ele>
        <time>2019-04-28T08:32:31Z</time>
      </trkpt>
      <trkpt lat="48.88599" lon="0.22143">
        <ele>186</ele>
        <time>2019-04-28T08:32:36Z</time>
      </trkpt>
      <trkpt lat="48.88606" lon="0.22138">
        <ele>185</ele>
        <time>2019-04-28T08:32:41Z</time>
      </trkpt>
      <trkpt lat="48.88617" lon="0.22131">
        <ele>186</ele>
        <time>2019-04-28T08:32:51Z</time>
      </trkpt>
      <trkpt lat="48.88628" lon="0.22126">
        <ele>186</ele>
        <time>2019-04-28T08:33:01Z</time>
      </trkpt>
      <trkpt lat="48.88641" lon="0.2212">
        <ele>185</ele>
        <time>2019-04-28T08:33:11Z</time>
      </trkpt>
      <trkpt lat="48.88651" lon="0.22116">
        <ele>185</ele>
        <time>2019-04-28T08:33:16Z</time>
      </trkpt>
      <trkpt lat="48.88662" lon="0.22111">
        <ele>185</ele>
        <time>2019-04-28T08:33:21Z</time>
      </trkpt>
      <trkpt lat="48.88674" lon="0.22107">
        <ele>185</ele>
        <time>2019-04-28T08:33:31Z</time>
      </trkpt>
      <trkpt lat="48.88683" lon="0.22104">
        <ele>186</ele>
        <time>2019-04-28T08:33:36Z</time>
      </trkpt>
      <trkpt lat="48.88697" lon="0.22099">
        <ele>188</ele>
        <time>2019-04-28T08:33:46Z</time>
      </trkpt>
      <trkpt lat="48.88707" lon="0.22096">
        <ele>188</ele>
        <time>2019-04-28T08:33:51Z</time>
      </trkpt>
      <trkpt lat="48.88716" lon="0.22093">
        <ele>187</ele>
        <time>2019-04-28T08:33:56Z</time>
      </trkpt>
      <trkpt lat="48.88723" lon="0.2209">
        <ele>187</ele>
        <time>2019-04-28T08:34:01Z</time>
      </trkpt>
      <trkpt lat="48.88734" lon="0.22084">
        <ele>186</ele>
        <time>2019-04-28T08:34:11Z</time>
      </trkpt>
      <trkpt lat="48.88744" lon="0.22079">
        <ele>185</ele>
        <time>2019-04-28T08:34:21Z</time>
      </trkpt>
      <trkpt lat="48.8875" lon="0.22077">
        <ele>184</ele>
        <time>2019-04-28T08:34:26Z</time>
      </trkpt>
      <trkpt lat="48.88763" lon="0.22073">
        <ele>185</ele>
        <time>2019-04-28T08:34:36Z</time>
      </trkpt>
      <trkpt lat="48.88774" lon="0.22071">
        <ele>184</ele>
        <time>2019-04-28T08:34:46Z</time>
      </trkpt>
      <trkpt lat="48.88785" lon="0.22069">
        <ele>185</ele>
        <time>2019-04-28T08:34:51Z</time>
      </trkpt>
      <trkpt lat="48.88793" lon="0.22068">
        <ele>185</ele>
        <time>2019-04-28T08:34:56Z</time>
      </trkpt>
      <trkpt lat="48.88802" lon="0.22067">
        <ele>184</ele>
        <time>2019-04-28T08:35:01Z</time>
      </trkpt>
      <trkpt lat="48.88814" lon="0.22065">
        <ele>182</ele>
        <time>2019-04-28T08:35:11Z</time>
      </trkpt>
      <trkpt lat="48.88821" lon="0.22063">
        <ele>182</ele>
        <time>2019-04-28T08:35:16Z</time>
      </trkpt>
      <trkpt lat="48.88831" lon="0.22061">
        <ele>183</ele>
        <time>2019-04-28T08:35:26Z</time>
      </trkpt>
      <trkpt lat="48.88836" lon="0.2206">
        <ele>183</ele>
        <time>2019-04-28T08:35:31Z</time>
      </trkpt>
      <trkpt lat="48.88843" lon="0.22059">
        <ele>183</ele>
        <time>2019-04-28T08:35:41Z</time>
      </trkpt>
      <trkpt lat="48.88859" lon="0.22056">
        <ele>183</ele>
        <time>2019-04-28T08:35:51Z</time>
      </trkpt>
      <trkpt lat="48.88867" lon="0.22055">
        <ele>183</ele>
        <time>2019-04-28T08:35:56Z</time>
      </trkpt>
      <trkpt lat="48.88879" lon="0.22053">
        <ele>185</ele>
        <time>2019-04-28T08:36:06Z</time>
      </trkpt>
      <trkpt lat="48.8889" lon="0.2205">
        <ele>185</ele>
        <time>2019-04-28T08:36:11Z</time>
      </trkpt>
      <trkpt lat="48.889" lon="0.22049">
        <ele>185</ele>
        <time>2019-04-28T08:36:21Z</time>
      </trkpt>
      <trkpt lat="48.88908" lon="0.22047">
        <ele>184</ele>
        <time>2019-04-28T08:36:26Z</time>
      </trkpt>
      <trkpt lat="48.88915" lon="0.22045">
        <ele>184</ele>
        <time>2019-04-28T08:36:36Z</time>
      </trkpt>
      <trkpt lat="48.8892" lon="0.22042">
        <ele>184</ele>
        <time>2019-04-28T08:36:46Z</time>
      </trkpt>
      <trkpt lat="48.88923" lon="0.22039">
        <ele>183</ele>
        <time>2019-04-28T08:36:51Z</time>
      </trkpt>
      <trkpt lat="48.88925" lon="0.22035">
        <ele>183</ele>
        <time>2019-04-28T08:36:56Z</time>
      </trkpt>
      <trkpt lat="48.88927" lon="0.22028">
        <ele>182</ele>
        <time>2019-04-28T08:37:06Z</time>
      </trkpt>
      <trkpt lat="48.88928" lon="0.22018">
        <ele>181</ele>
        <time>2019-04-28T08:37:11Z</time>
      </trkpt>
      <trkpt lat="48.88928" lon="0.22011">
        <ele>181</ele>
        <time>2019-04-28T08:37:21Z</time>
      </trkpt>
      <trkpt lat="48.88928" lon="0.22007">
        <ele>181</ele>
        <time>2019-04-28T08:37:26Z</time>
      </trkpt>
      <trkpt lat="48.88927" lon="0.21999">
        <ele>181</ele>
        <time>2019-04-28T08:37:31Z</time>
      </trkpt>
      <trkpt lat="48.88926" lon="0.21989">
        <ele>182</ele>
        <time>2019-04-28T08:37:41Z</time>
      </trkpt>
      <trkpt lat="48.88924" lon="0.21981">
        <ele>179</ele>
        <time>2019-04-28T08:37:51Z</time>
      </trkpt>
      <trkpt lat="48.88923" lon="0.21975">
        <ele>179</ele>
        <time>2019-04-28T08:37:56Z</time>
      </trkpt>
      <trkpt lat="48.88917" lon="0.21964">
        <ele>178</ele>
        <time>2019-04-28T08:38:06Z</time>
      </trkpt>
      <trkpt lat="48.88912" lon="0.21957">
        <ele>178</ele>
        <time>2019-04-28T08:38:11Z</time>
      </trkpt>
      <trkpt lat="48.88909" lon="0.21952">
        <ele>176</ele>
        <time>2019-04-28T08:38:16Z</time>
      </trkpt>
      <trkpt lat="48.88906" lon="0.21948">
        <ele>176</ele>
        <time>2019-04-28T08:38:26Z</time>
      </trkpt>
      <trkpt lat="48.88902" lon="0.21943">
        <ele>176</ele>
        <time>2019-04-28T08:38:31Z</time>
      </trkpt>
      <trkpt lat="48.88896" lon="0.21936">
        <ele>176</ele>
        <time>2019-04-28T08:38:36Z</time>
      </trkpt>
      <trkpt lat="48.88888" lon="0.21927">
        <ele>175</ele>
        <time>2019-04-28T08:38:41Z</time>
      </trkpt>
      <trkpt lat="48.88875" lon="0.21916">
        <ele>171</ele>
        <time>2019-04-28T08:38:51Z</time>
      </trkpt>
      <trkpt lat="48.88868" lon="0.21909">
        <ele>170</ele>
        <time>2019-04-28T08:38:56Z</time>
      </trkpt>
      <trkpt lat="48.88858" lon="0.21901">
        <ele>167</ele>
        <time>2019-04-28T08:39:06Z</time>
      </trkpt>
      <trkpt lat="48.8885" lon="0.21893">
        <ele>168</ele>
        <time>2019-04-28T08:39:16Z</time>
      </trkpt>
      <trkpt lat="48.88839" lon="0.21881">
        <ele>168</ele>
        <time>2019-04-28T08:39:26Z</time>
      </trkpt>
      <trkpt lat="48.88827" lon="0.21867">
        <ele>169</ele>
        <time>2019-04-28T08:39:36Z</time>
      </trkpt>
      <trkpt lat="48.8882" lon="0.2186">
        <ele>168</ele>
        <time>2019-04-28T08:39:41Z</time>
      </trkpt>
      <trkpt lat="48.88814" lon="0.21854">
        <ele>168</ele>
        <time>2019-04-28T08:39:51Z</time>
      </trkpt>
      <trkpt lat="48.88812" lon="0.2185">
        <ele>168</ele>
        <time>2019-04-28T08:39:56Z</time>
      </trkpt>
      <trkpt lat="48.88805" lon="0.2183">
        <ele>169</ele>
        <time>2019-04-28T08:40:06Z</time>
      </trkpt>
      <trkpt lat="48.88802" lon="0.21811">
        <ele>166</ele>
        <time>2019-04-28T08:40:11Z</time>
      </trkpt>
      <trkpt lat="48.88802" lon="0.2179">
        <ele>165</ele>
        <time>2019-04-28T08:40:21Z</time>
      </trkpt>
      <trkpt lat="48.88804" lon="0.21778">
        <ele>165</ele>
        <time>2019-04-28T08:40:26Z</time>
      </trkpt>
      <trkpt lat="48.88807" lon="0.21765">
        <ele>165</ele>
        <time>2019-04-28T08:40:31Z</time>
      </trkpt>
      <trkpt lat="48.88812" lon="0.21749">
        <ele>165</ele>
        <time>2019-04-28T08:40:41Z</time>
      </trkpt>
      <trkpt lat="48.88816" lon="0.21733">
        <ele>164</ele>
        <time>2019-04-28T08:40:51Z</time>
      </trkpt>
      <trkpt lat="48.88818" lon="0.21721">
        <ele>164</ele>
        <time>2019-04-28T08:40:56Z</time>
      </trkpt>
      <trkpt lat="48.88822" lon="0.21705">
        <ele>163</ele>
        <time>2019-04-28T08:41:06Z</time>
      </trkpt>
      <trkpt lat="48.88825" lon="0.21695">
        <ele>163</ele>
        <time>2019-04-28T08:41:11Z</time>
      </trkpt>
      <trkpt lat="48.8883" lon="0.2168">
        <ele>164</ele>
        <time>2019-04-28T08:41:21Z</time>
      </trkpt>
      <trkpt lat="48.88835" lon="0.21663">
        <ele>166</ele>
        <time>2019-04-28T08:41:31Z</time>
      </trkpt>
      <trkpt lat="48.88839" lon="0.21651">
        <ele>164</ele>
        <time>2019-04-28T08:41:36Z</time>
      </trkpt>
      <trkpt lat="48.88842" lon="0.2164">
        <ele>163</ele>
        <time>2019-04-28T08:41:41Z</time>
      </trkpt>
      <trkpt lat="48.88846" lon="0.2163">
        <ele>162</ele>
        <time>2019-04-28T08:41:46Z</time>
      </trkpt>
      <trkpt lat="48.88849" lon="0.21621">
        <ele>162</ele>
        <time>2019-04-28T08:41:51Z</time>
      </trkpt>
      <trkpt lat="48.88853" lon="0.21608">
        <ele>164</ele>
        <time>2019-04-28T08:42:01Z</time>
      </trkpt>
      <trkpt lat="48.88857" lon="0.21597">
        <ele>165</ele>
        <time>2019-04-28T08:42:06Z</time>
      </trkpt>
      <trkpt lat="48.88859" lon="0.21586">
        <ele>166</ele>
        <time>2019-04-28T08:42:11Z</time>
      </trkpt>
      <trkpt lat="48.88861" lon="0.21573">
        <ele>166</ele>
        <time>2019-04-28T08:42:21Z</time>
      </trkpt>
      <trkpt lat="48.88862" lon="0.21564">
        <ele>166</ele>
        <time>2019-04-28T08:42:26Z</time>
      </trkpt>
      <trkpt lat="48.88862" lon="0.21554">
        <ele>166</ele>
        <time>2019-04-28T08:42:31Z</time>
      </trkpt>
      <trkpt lat="48.88861" lon="0.21543">
        <ele>166</ele>
        <time>2019-04-28T08:42:36Z</time>
      </trkpt>
      <trkpt lat="48.88858" lon="0.21521">
        <ele>167</ele>
        <time>2019-04-28T08:42:46Z</time>
      </trkpt>
      <trkpt lat="48.88856" lon="0.21506">
        <ele>166</ele>
        <time>2019-04-28T08:42:51Z</time>
      </trkpt>
      <trkpt lat="48.88853" lon="0.21489">
        <ele>166</ele>
        <time>2019-04-28T08:43:01Z</time>
      </trkpt>
      <trkpt lat="48.8885" lon="0.21476">
        <ele>166</ele>
        <time>2019-04-28T08:43:06Z</time>
      </trkpt>
      <trkpt lat="48.88846" lon="0.21459">
        <ele>167</ele>
        <time>2019-04-28T08:43:16Z</time>
      </trkpt>
      <trkpt lat="48.88842" lon="0.21442">
        <ele>168</ele>
        <time>2019-04-28T08:43:26Z</time>
      </trkpt>
      <trkpt lat="48.88838" lon="0.21427">
        <ele>169</ele>
        <time>2019-04-28T08:43:36Z</time>
      </trkpt>
      <trkpt lat="48.88835" lon="0.21409">
        <ele>169</ele>
        <time>2019-04-28T08:43:46Z</time>
      </trkpt>
      <trkpt lat="48.88831" lon="0.21395">
        <ele>171</ele>
        <time>2019-04-28T08:43:51Z</time>
      </trkpt>
      <trkpt lat="48.88826" lon="0.21378">
        <ele>172</ele>
        <time>2019-04-28T08:44:01Z</time>
      </trkpt>
      <trkpt lat="48.88822" lon="0.21366">
        <ele>172</ele>
        <time>2019-04-28T08:44:06Z</time>
      </trkpt>
      <trkpt lat="48.88816" lon="0.2135">
        <ele>175</ele>
        <time>2019-04-28T08:44:16Z</time>
      </trkpt>
      <trkpt lat="48.88809" lon="0.21333">
        <ele>176</ele>
        <time>2019-04-28T08:44:26Z</time>
      </trkpt>
      <trkpt lat="48.88806" lon="0.21314">
        <ele>177</ele>
        <time>2019-04-28T08:44:36Z</time>
      </trkpt>
      <trkpt lat="48.8881" lon="0.213">
        <ele>175</ele>
        <time>2019-04-28T08:44:46Z</time>
      </trkpt>
      <trkpt lat="48.88814" lon="0.21293">
        <ele>174</ele>
        <time>2019-04-28T08:44:51Z</time>
      </trkpt>
      <trkpt lat="48.88822" lon="0.21288">
        <ele>174</ele>
        <time>2019-04-28T08:45:01Z</time>
      </trkpt>
      <trkpt lat="48.88829" lon="0.21285">
        <ele>175</ele>
        <time>2019-04-28T08:45:06Z</time>
      </trkpt>
      <trkpt lat="48.88839" lon="0.21281">
        <ele>175</ele>
        <time>2019-04-28T08:45:16Z</time>
      </trkpt>
      <trkpt lat="48.88851" lon="0.21275">
        <ele>175</ele>
        <time>2019-04-28T08:45:26Z</time>
      </trkpt>
      <trkpt lat="48.88859" lon="0.2127">
        <ele>174</ele>
        <time>2019-04-28T08:45:31Z</time>
      </trkpt>
      <trkpt lat="48.88871" lon="0.21263">
        <ele>175</ele>
        <time>2019-04-28T08:45:41Z</time>
      </trkpt>
      <trkpt lat="48.8888" lon="0.21258">
        <ele>175</ele>
        <time>2019-04-28T08:45:46Z</time>
      </trkpt>
      <trkpt lat="48.88887" lon="0.21255">
        <ele>176</ele>
        <time>2019-04-28T08:45:51Z</time>
      </trkpt>
      <trkpt lat="48.88898" lon="0.21249">
        <ele>175</ele>
        <time>2019-04-28T08:46:01Z</time>
      </trkpt>
      <trkpt lat="48.88906" lon="0.21245">
        <ele>174</ele>
        <time>2019-04-28T08:46:06Z</time>
      </trkpt>
      <trkpt lat="48.88913" lon="0.21242">
        <ele>172</ele>
        <time>2019-04-28T08:46:11Z</time>
      </trkpt>
      <trkpt lat="48.88926" lon="0.21236">
        <ele>170</ele>
        <time>2019-04-28T08:46:21Z</time>
      </trkpt>
      <trkpt lat="48.88942" lon="0.21229">
        <ele>170</ele>
        <time>2019-04-28T08:46:31Z</time>
      </trkpt>
      <trkpt lat="48.88953" lon="0.21225">
        <ele>170</ele>
        <time>2019-04-28T08:46:36Z</time>
      </trkpt>
      <trkpt lat="48.88965" lon="0.2122">
        <ele>172</ele>
        <time>2019-04-28T08:46:46Z</time>
      </trkpt>
      <trkpt lat="48.88973" lon="0.21217">
        <ele>173</ele>
        <time>2019-04-28T08:46:51Z</time>
      </trkpt>
      <trkpt lat="48.88981" lon="0.21215">
        <ele>174</ele>
        <time>2019-04-28T08:46:56Z</time>
      </trkpt>
      <trkpt lat="48.88992" lon="0.21211">
        <ele>172</ele>
        <time>2019-04-28T08:47:06Z</time>
      </trkpt>
      <trkpt lat="48.89005" lon="0.21207">
        <ele>171</ele>
        <time>2019-04-28T08:47:16Z</time>
      </trkpt>
      <trkpt lat="48.89018" lon="0.21203">
        <ele>171</ele>
        <time>2019-04-28T08:47:26Z</time>
      </trkpt>
      <trkpt lat="48.89028" lon="0.21199">
        <ele>172</ele>
        <time>2019-04-28T08:47:31Z</time>
      </trkpt>
      <trkpt lat="48.8904" lon="0.21194">
        <ele>173</ele>
        <time>2019-04-28T08:47:41Z</time>
      </trkpt>
      <trkpt lat="48.89056" lon="0.21189">
        <ele>175</ele>
        <time>2019-04-28T08:47:51Z</time>
      </trkpt>
      <trkpt lat="48.89071" lon="0.21185">
        <ele>176</ele>
        <time>2019-04-28T08:48:01Z</time>
      </trkpt>
      <trkpt lat="48.89087" lon="0.21181">
        <ele>177</ele>
        <time>2019-04-28T08:48:11Z</time>
      </trkpt>
      <trkpt lat="48.89098" lon="0.21179">
        <ele>177</ele>
        <time>2019-04-28T08:48:16Z</time>
      </trkpt>
      <trkpt lat="48.89107" lon="0.21177">
        <ele>177</ele>
        <time>2019-04-28T08:48:21Z</time>
      </trkpt>
      <trkpt lat="48.89116" lon="0.21175">
        <ele>179</ele>
        <time>2019-04-28T08:48:26Z</time>
      </trkpt>
      <trkpt lat="48.89127" lon="0.21171">
        <ele>179</ele>
        <time>2019-04-28T08:48:36Z</time>
      </trkpt>
      <trkpt lat="48.89139" lon="0.21167">
        <ele>179</ele>
        <time>2019-04-28T08:48:46Z</time>
      </trkpt>
      <trkpt lat="48.89148" lon="0.21165">
        <ele>180</ele>
        <time>2019-04-28T08:48:51Z</time>
      </trkpt>
      <trkpt lat="48.8916" lon="0.21162">
        <ele>180</ele>
        <time>2019-04-28T08:49:01Z</time>
      </trkpt>
      <trkpt lat="48.89167" lon="0.21161">
        <ele>180</ele>
        <time>2019-04-28T08:49:06Z</time>
      </trkpt>
      <trkpt lat="48.8917" lon="0.2116">
        <ele>180</ele>
        <time>2019-04-28T08:49:16Z</time>
      </trkpt>
      <trkpt lat="48.89171" lon="0.21159">
        <ele>180</ele>
        <time>2019-04-28T08:49:21Z</time>
      </trkpt>
      <trkpt lat="48.89172" lon="0.21159">
        <ele>180</ele>
        <time>2019-04-28T08:49:31Z</time>
      </trkpt>
      <trkpt lat="48.89172" lon="0.21159">
        <ele>180</ele>
        <time>2019-04-28T08:49:36Z</time>
      </trkpt>
      <trkpt lat="48.89172" lon="0.21159">
        <ele>180</ele>
        <time>2019-04-28T08:49:46Z</time>
      </trkpt>
      <trkpt lat="48.89172" lon="0.21159">
        <ele>180</ele>
        <time>2019-04-28T08:49:56Z</time>
      </trkpt>
      <trkpt lat="48.89172" lon="0.21159">
        <ele>180</ele>
        <time>2019-04-28T08:50:01Z</time>
      </trkpt>
      <trkpt lat="48.89172" lon="0.21159">
        <ele>180</ele>
        <time>2019-04-28T08:50:11Z</time>
      </trkpt>
      <trkpt lat="48.89172" lon="0.21159">
        <ele>180</ele>
        <time>2019-04-28T08:50:21Z</time>
      </trkpt>
      <trkpt lat="48.89172" lon="0.21159">
        <ele>180</ele>
        <time>2019-04-28T08:50:26Z</time>
      </trkpt>
      <trkpt lat="48.89172" lon="0.21159">
        <ele>180</ele>
        <time>2019-04-28T08:50:36Z</time>
      </trkpt>
      <trkpt lat="48.89172" lon="0.21159">
        <ele>180</ele>
        <time>2019-04-28T08:50:41Z</time>
      </trkpt>
      <trkpt lat="48.89172" lon="0.21159">
        <ele>180</ele>
        <time>2019-04-28T08:50:51Z</time>
      </trkpt>
      <trkpt lat="48.89172" lon="0.21159">
        <ele>180</ele>
        <time>2019-04-28T08:51:01Z</time>
      </trkpt>
      <trkpt lat="48.89172" lon="0.21159">
        <ele>180</ele>
        <time>2019-04-28T08:51:06Z</time>
      </trkpt>
      <trkpt lat="48.89172" lon="0.21159">
        <ele>180</ele>
        <time>2019-04-28T08:51:16Z</time>
      </trkpt>
      <trkpt lat="48.89172" lon="0.21159">
        <ele>180</ele>
        <time>2019-04-28T08:51:21Z</time>
      </trkpt>
      <trkpt lat="48.89172" lon="0.21159">
        <ele>180</ele>
        <time>2019-04-28T08:51:26Z</time>
      </trkpt>
      <trkpt lat="48.89172" lon="0.21159">
        <ele>180</ele>
        <time>2019-04-28T08:51:36Z</time>
      </trkpt>
      <trkpt lat="48.89172" lon="0.21159">
        <ele>180</ele>
        <time>2019-04-28T08:51:41Z</time>
      </trkpt>
      <trkpt lat="48.89172" lon="0.21159">
        <ele>180</ele>
        <time>2019-04-28T08:51:51Z</time>
      </trkpt>
      <trkpt lat="48.89172" lon="0.21159">
        <ele>180</ele>
        <time>2019-04-28T08:52:01Z</time>
      </trkpt>
      <trkpt lat="48.89172" lon="0.21159">
        <ele>180</ele>
        <time>2019-04-28T08:52:11Z</time>
      </trkpt>
      <trkpt lat="48.89172" lon="0.21159">
        <ele>180</ele>
        <time>2019-04-28T08:52:16Z</time>
      </trkpt>
      <trkpt lat="48.89172" lon="0.21159">
        <ele>180</ele>
        <time>2019-04-28T08:52:21Z</time>
      </trkpt>
      <trkpt lat="48.89172" lon="0.21159">
        <ele>180</ele>
        <time>2019-04-28T08:52:31Z</time>
      </trkpt>
      <trkpt lat="48.89172" lon="0.21159">
        <ele>180</ele>
        <time>2019-04-28T08:52:36Z</time>
      </trkpt>
      <trkpt lat="48.89172" lon="0.21156">
        <ele>180</ele>
        <time>2019-04-28T08:52:46Z</time>
      </trkpt>
      <trkpt lat="48.8917" lon="0.21145">
        <ele>177</ele>
        <time>2019-04-28T08:52:51Z</time>
      </trkpt>
      <trkpt lat="48.89166" lon="0.2113">
        <ele>176</ele>
        <time>2019-04-28T08:53:01Z</time>
      </trkpt>
      <trkpt lat="48.89163" lon="0.21119">
        <ele>177</ele>
        <time>2019-04-28T08:53:06Z</time>
      </trkpt>
      <trkpt lat="48.89158" lon="0.21104">
        <ele>179</ele>
        <time>2019-04-28T08:53:16Z</time>
      </trkpt>
      <trkpt lat="48.89154" lon="0.21092">
        <ele>180</ele>
        <time>2019-04-28T08:53:21Z</time>
      </trkpt>
      <trkpt lat="48.89151" lon="0.21079">
        <ele>182</ele>
        <time>2019-04-28T08:53:31Z</time>
      </trkpt>
      <trkpt lat="48.89148" lon="0.21069">
        <ele>182</ele>
        <time>2019-04-28T08:53:36Z</time>
      </trkpt>
      <trkpt lat="48.89142" lon="0.21058">
        <ele>184</ele>
        <time>2019-04-28T08:53:46Z</time>
      </trkpt>
      <trkpt lat="48.89137" lon="0.21049">
        <ele>184</ele>
        <time>2019-04-28T08:53:51Z</time>
      </trkpt>
      <trkpt lat="48.89133" lon="0.21039">
        <ele>186</ele>
        <time>2019-04-28T08:53:56Z</time>
      </trkpt>
      <trkpt lat="48.89126" lon="0.21028">
        <ele>187</ele>
        <time>2019-04-28T08:54:06Z</time>
      </trkpt>
      <trkpt lat="48.89122" lon="0.21016">
        <ele>188</ele>
        <time>2019-04-28T08:54:16Z</time>
      </trkpt>
      <trkpt lat="48.89118" lon="0.21007">
        <ele>188</ele>
        <time>2019-04-28T08:54:21Z</time>
      </trkpt>
      <trkpt lat="48.89114" lon="0.21001">
        <ele>190</ele>
        <time>2019-04-28T08:54:26Z</time>
      </trkpt>
      <trkpt lat="48.89104" lon="0.20988">
        <ele>191</ele>
        <time>2019-04-28T08:54:36Z</time>
      </trkpt>
      <trkpt lat="48.89097" lon="0.20981">
        <ele>191</ele>
        <time>2019-04-28T08:54:41Z</time>
      </trkpt>
      <trkpt lat="48.89091" lon="0.20974">
        <ele>193</ele>
        <time>2019-04-28T08:54:46Z</time>
      </trkpt>
      <trkpt lat="48.89085" lon="0.20968">
        <ele>194</ele>
        <time>2019-04-28T08:54:51Z</time>
      </trkpt>
      <trkpt lat="48.89077" lon="0.20959">
        <ele>195</ele>
        <time>2019-04-28T08:55:01Z</time>
      </trkpt>
      <trkpt lat="48.89068" lon="0.20949">
        <ele>196</ele>
        <time>2019-04-28T08:55:06Z</time>
      </trkpt>
      <trkpt lat="48.89063" lon="0.20943">
        <ele>197</ele>
        <time>2019-04-28T08:55:16Z</time>
      </trkpt>
      <trkpt lat="48.89058" lon="0.20936">
        <ele>197</ele>
        <time>2019-04-28T08:55:21Z</time>
      </trkpt>
      <trkpt lat="48.89048" lon="0.20924">
        <ele>199</ele>
        <time>2019-04-28T08:55:31Z</time>
      </trkpt>
      <trkpt lat="48.89037" lon="0.20913">
        <ele>199</ele>
        <time>2019-04-28T08:55:41Z</time>
      </trkpt>
      <trkpt lat="48.89029" lon="0.2091">
        <ele>200</ele>
        <time>2019-04-28T08:55:46Z</time>
      </trkpt>
      <trkpt lat="48.89019" lon="0.20916">
        <ele>200</ele>
        <time>2019-04-28T08:55:56Z</time>
      </trkpt>
      <trkpt lat="48.89012" lon="0.20921">
        <ele>199</ele>
        <time>2019-04-28T08:56:01Z</time>
      </trkpt>
      <trkpt lat="48.89007" lon="0.20927">
        <ele>199</ele>
        <time>2019-04-28T08:56:06Z</time>
      </trkpt>
      <trkpt lat="48.88994" lon="0.20936">
        <ele>199</ele>
        <time>2019-04-28T08:56:16Z</time>
      </trkpt>
      <trkpt lat="48.88987" lon="0.2094">
        <ele>198</ele>
        <time>2019-04-28T08:56:21Z</time>
      </trkpt>
      <trkpt lat="48.88981" lon="0.20943">
        <ele>198</ele>
        <time>2019-04-28T08:56:26Z</time>
      </trkpt>
      <trkpt lat="48.88975" lon="0.20945">
        <ele>198</ele>
        <time>2019-04-28T08:56:31Z</time>
      </trkpt>
      <trkpt lat="48.88964" lon="0.20947">
        <ele>200</ele>
        <time>2019-04-28T08:56:41Z</time>
      </trkpt>
      <trkpt lat="48.88952" lon="0.2095">
        <ele>208</ele>
        <time>2019-04-28T08:56:51Z</time>
      </trkpt>
      <trkpt lat="48.88941" lon="0.20951">
        <ele>209</ele>
        <time>2019-04-28T08:56:56Z</time>
      </trkpt>
      <trkpt lat="48.88928" lon="0.20946">
        <ele>210</ele>
        <time>2019-04-28T08:57:06Z</time>
      </trkpt>
      <trkpt lat="48.88921" lon="0.2094">
        <ele>208</ele>
        <time>2019-04-28T08:57:11Z</time>
      </trkpt>
      <trkpt lat="48.88916" lon="0.20924">
        <ele>204</ele>
        <time>2019-04-28T08:57:21Z</time>
      </trkpt>
      <trkpt lat="48.88915" lon="0.20914">
        <ele>204</ele>
        <time>2019-04-28T08:57:26Z</time>
      </trkpt>
      <trkpt lat="48.88916" lon="0.20907">
        <ele>204</ele>
        <time>2019-04-28T08:57:31Z</time>
      </trkpt>
      <trkpt lat="48.88918" lon="0.20897">
        <ele>203</ele>
        <time>2019-04-28T08:57:41Z</time>
      </trkpt>
      <trkpt lat="48.88922" lon="0.20886">
        <ele>203</ele>
        <time>2019-04-28T08:57:51Z</time>
      </trkpt>
      <trkpt lat="48.88925" lon="0.20879">
        <ele>204</ele>
        <time>2019-04-28T08:57:56Z</time>
      </trkpt>
      <trkpt lat="48.88927" lon="0.2087">
        <ele>204</ele>
        <time>2019-04-28T08:58:06Z</time>
      </trkpt>
      <trkpt lat="48.88929" lon="0.20858">
        <ele>204</ele>
        <time>2019-04-28T08:58:11Z</time>
      </trkpt>
      <trkpt lat="48.88931" lon="0.20851">
        <ele>205</ele>
        <time>2019-04-28T08:58:21Z</time>
      </trkpt>
      <trkpt lat="48.88932" lon="0.20845">
        <ele>205</ele>
        <time>2019-04-28T08:58:26Z</time>
      </trkpt>
      <trkpt lat="48.88935" lon="0.20833">
        <ele>206</ele>
        <time>2019-04-28T08:58:36Z</time>
      </trkpt>
      <trkpt lat="48.88939" lon="0.20818">
        <ele>207</ele>
        <time>2019-04-28T08:58:46Z</time>
      </trkpt>
      <trkpt lat="48.88943" lon="0.20805">
        <ele>210</ele>
        <time>2019-04-28T08:58:56Z</time>
      </trkpt>
      <trkpt lat="48.88948" lon="0.20791">
        <ele>214</ele>
        <time>2019-04-28T08:59:06Z</time>
      </trkpt>
      <trkpt lat="48.88951" lon="0.20782">
        <ele>217</ele>
        <time>2019-04-28T08:59:11Z</time>
      </trkpt>
      <trkpt lat="48.88954" lon="0.20772">
        <ele>217</ele>
        <time>2019-04-28T08:59:16Z</time>
      </trkpt>
      <trkpt lat="48.88955" lon="0.20766">
        <ele>218</ele>
        <time>2019-04-28T08:59:26Z</time>
      </trkpt>
      <trkpt lat="48.88958" lon="0.20756">
        <ele>219</ele>
        <time>2019-04-28T08:59:31Z</time>
      </trkpt>
      <trkpt lat="48.8896" lon="0.20749">
        <ele>220</ele>
        <time>2019-04-28T08:59:41Z</time>
      </trkpt>
      <trkpt lat="48.88962" lon="0.20742">
        <ele>220</ele>
        <time>2019-04-28T08:59:46Z</time>
      </trkpt>
      <trkpt lat="48.88964" lon="0.20727">
        <ele>222</ele>
        <time>2019-04-28T08:59:56Z</time>
      </trkpt>
      <trkpt lat="48.88966" lon="0.20713">
        <ele>222</ele>
        <time>2019-04-28T09:00:06Z</time>
      </trkpt>
      <trkpt lat="48.88967" lon="0.20707">
        <ele>222</ele>
        <time>2019-04-28T09:00:11Z</time>
      </trkpt>
      <trkpt lat="48.88968" lon="0.207">
        <ele>224</ele>
        <time>2019-04-28T09:00:21Z</time>
      </trkpt>
      <trkpt lat="48.8897" lon="0.20685">
        <ele>229</ele>
        <time>2019-04-28T09:00:31Z</time>
      </trkpt>
      <trkpt lat="48.88971" lon="0.20674">
        <ele>229</ele>
        <time>2019-04-28T09:00:36Z</time>
      </trkpt>
      <trkpt lat="48.88972" lon="0.20658">
        <ele>230</ele>
        <time>2019-04-28T09:00:43Z</time>
      </trkpt>
      <trkpt lat="48.88972" lon="0.20651">
        <ele>231</ele>
        <time>2019-04-28T09:00:47Z</time>
      </trkpt>
      <trkpt lat="48.88974" lon="0.20633">
        <ele>233</ele>
        <time>2019-04-28T09:00:56Z</time>
      </trkpt>
      <trkpt lat="48.88974" lon="0.20622">
        <ele>234</ele>
        <time>2019-04-28T09:01:01Z</time>
      </trkpt>
      <trkpt lat="48.88974" lon="0.20614">
        <ele>234</ele>
        <time>2019-04-28T09:01:11Z</time>
      </trkpt>
      <trkpt lat="48.88975" lon="0.20608">
        <ele>234</ele>
        <time>2019-04-28T09:01:16Z</time>
      </trkpt>
      <trkpt lat="48.88975" lon="0.20601">
        <ele>235</ele>
        <time>2019-04-28T09:01:26Z</time>
      </trkpt>
      <trkpt lat="48.88975" lon="0.2059">
        <ele>236</ele>
        <time>2019-04-28T09:01:36Z</time>
      </trkpt>
      <trkpt lat="48.88973" lon="0.20577">
        <ele>237</ele>
        <time>2019-04-28T09:01:41Z</time>
      </trkpt>
      <trkpt lat="48.8897" lon="0.20564">
        <ele>239</ele>
        <time>2019-04-28T09:01:51Z</time>
      </trkpt>
      <trkpt lat="48.88968" lon="0.20558">
        <ele>239</ele>
        <time>2019-04-28T09:01:56Z</time>
      </trkpt>
      <trkpt lat="48.88964" lon="0.20551">
        <ele>240</ele>
        <time>2019-04-28T09:02:06Z</time>
      </trkpt>
      <trkpt lat="48.88959" lon="0.20543">
        <ele>239</ele>
        <time>2019-04-28T09:02:11Z</time>
      </trkpt>
      <trkpt lat="48.88951" lon="0.20529">
        <ele>240</ele>
        <time>2019-04-28T09:02:21Z</time>
      </trkpt>
      <trkpt lat="48.88947" lon="0.2052">
        <ele>240</ele>
        <time>2019-04-28T09:02:26Z</time>
      </trkpt>
      <trkpt lat="48.88944" lon="0.20507">
        <ele>242</ele>
        <time>2019-04-28T09:02:36Z</time>
      </trkpt>
      <trkpt lat="48.88939" lon="0.2049">
        <ele>244</ele>
        <time>2019-04-28T09:02:46Z</time>
      </trkpt>
      <trkpt lat="48.88936" lon="0.20479">
        <ele>244</ele>
        <time>2019-04-28T09:02:51Z</time>
      </trkpt>
      <trkpt lat="48.88934" lon="0.20466">
        <ele>244</ele>
        <time>2019-04-28T09:02:56Z</time>
      </trkpt>
      <trkpt lat="48.88933" lon="0.20457">
        <ele>244</ele>
        <time>2019-04-28T09:03:06Z</time>
      </trkpt>
      <trkpt lat="48.88932" lon="0.20441">
        <ele>246</ele>
        <time>2019-04-28T09:03:16Z</time>
      </trkpt>
      <trkpt lat="48.8893" lon="0.20428">
        <ele>246</ele>
        <time>2019-04-28T09:03:21Z</time>
      </trkpt>
      <trkpt lat="48.88929" lon="0.20418">
        <ele>248</ele>
        <time>2019-04-28T09:03:26Z</time>
      </trkpt>
      <trkpt lat="48.88928" lon="0.20408">
        <ele>250</ele>
        <time>2019-04-28T09:03:31Z</time>
      </trkpt>
      <trkpt lat="48.88926" lon="0.20394">
        <ele>251</ele>
        <time>2019-04-28T09:03:41Z</time>
      </trkpt>
      <trkpt lat="48.88926" lon="0.20385">
        <ele>252</ele>
        <time>2019-04-28T09:03:46Z</time>
      </trkpt>
      <trkpt lat="48.88925" lon="0.20371">
        <ele>253</ele>
        <time>2019-04-28T09:03:56Z</time>
      </trkpt>
      <trkpt lat="48.88926" lon="0.20354">
        <ele>254</ele>
        <time>2019-04-28T09:04:06Z</time>
      </trkpt>
      <trkpt lat="48.88927" lon="0.20331">
        <ele>254</ele>
        <time>2019-04-28T09:04:16Z</time>
      </trkpt>
      <trkpt lat="48.88927" lon="0.20317">
        <ele>254</ele>
        <time>2019-04-28T09:04:23Z</time>
      </trkpt>
      <trkpt lat="48.88927" lon="0.20303">
        <ele>251</ele>
        <time>2019-04-28T09:04:31Z</time>
      </trkpt>
      <trkpt lat="48.88926" lon="0.20292">
        <ele>252</ele>
        <time>2019-04-28T09:04:36Z</time>
      </trkpt>
      <trkpt lat="48.88924" lon="0.20283">
        <ele>253</ele>
        <time>2019-04-28T09:04:41Z</time>
      </trkpt>
      <trkpt lat="48.88921" lon="0.20277">
        <ele>251</ele>
        <time>2019-04-28T09:04:51Z</time>
      </trkpt>
      <trkpt lat="48.88912" lon="0.20269">
        <ele>252</ele>
        <time>2019-04-28T09:05:01Z</time>
      </trkpt>
      <trkpt lat="48.88907" lon="0.20264">
        <ele>253</ele>
        <time>2019-04-28T09:05:06Z</time>
      </trkpt>
      <trkpt lat="48.88895" lon="0.20253">
        <ele>252</ele>
        <time>2019-04-28T09:05:16Z</time>
      </trkpt>
      <trkpt lat="48.88889" lon="0.20248">
        <ele>252</ele>
        <time>2019-04-28T09:05:21Z</time>
      </trkpt>
      <trkpt lat="48.88883" lon="0.20244">
        <ele>253</ele>
        <time>2019-04-28T09:05:31Z</time>
      </trkpt>
      <trkpt lat="48.88874" lon="0.20236">
        <ele>253</ele>
        <time>2019-04-28T09:05:41Z</time>
      </trkpt>
      <trkpt lat="48.88863" lon="0.20227">
        <ele>252</ele>
        <time>2019-04-28T09:05:46Z</time>
      </trkpt>
      <trkpt lat="48.88851" lon="0.20211">
        <ele>250</ele>
        <time>2019-04-28T09:05:56Z</time>
      </trkpt>
      <trkpt lat="48.88842" lon="0.20197">
        <ele>254</ele>
        <time>2019-04-28T09:06:06Z</time>
      </trkpt>
      <trkpt lat="48.88835" lon="0.20186">
        <ele>256</ele>
        <time>2019-04-28T09:06:11Z</time>
      </trkpt>
      <trkpt lat="48.8883" lon="0.20176">
        <ele>258</ele>
        <time>2019-04-28T09:06:16Z</time>
      </trkpt>
      <trkpt lat="48.88822" lon="0.20161">
        <ele>260</ele>
        <time>2019-04-28T09:06:26Z</time>
      </trkpt>
      <trkpt lat="48.88817" lon="0.2015">
        <ele>261</ele>
        <time>2019-04-28T09:06:31Z</time>
      </trkpt>
      <trkpt lat="48.8881" lon="0.20135">
        <ele>261</ele>
        <time>2019-04-28T09:06:41Z</time>
      </trkpt>
      <trkpt lat="48.88806" lon="0.20125">
        <ele>261</ele>
        <time>2019-04-28T09:06:46Z</time>
      </trkpt>
      <trkpt lat="48.88803" lon="0.20117">
        <ele>262</ele>
        <time>2019-04-28T09:06:51Z</time>
      </trkpt>
      <trkpt lat="48.88801" lon="0.20109">
        <ele>262</ele>
        <time>2019-04-28T09:06:56Z</time>
      </trkpt>
      <trkpt lat="48.888" lon="0.201">
        <ele>262</ele>
        <time>2019-04-28T09:07:01Z</time>
      </trkpt>
      <trkpt lat="48.88798" lon="0.20083">
        <ele>263</ele>
        <time>2019-04-28T09:07:11Z</time>
      </trkpt>
      <trkpt lat="48.88794" lon="0.20062">
        <ele>265</ele>
        <time>2019-04-28T09:07:21Z</time>
      </trkpt>
      <trkpt lat="48.88791" lon="0.2004">
        <ele>263</ele>
        <time>2019-04-28T09:07:31Z</time>
      </trkpt>
      <trkpt lat="48.88789" lon="0.20027">
        <ele>262</ele>
        <time>2019-04-28T09:07:36Z</time>
      </trkpt>
      <trkpt lat="48.88788" lon="0.20017">
        <ele>262</ele>
        <time>2019-04-28T09:07:41Z</time>
      </trkpt>
      <trkpt lat="48.88787" lon="0.20004">
        <ele>262</ele>
        <time>2019-04-28T09:07:51Z</time>
      </trkpt>
      <trkpt lat="48.88784" lon="0.19986">
        <ele>261</ele>
        <time>2019-04-28T09:08:01Z</time>
      </trkpt>
      <trkpt lat="48.88783" lon="0.19966">
        <ele>262</ele>
        <time>2019-04-28T09:08:11Z</time>
      </trkpt>
      <trkpt lat="48.88782" lon="0.19951">
        <ele>266</ele>
        <time>2019-04-28T09:08:21Z</time>
      </trkpt>
      <trkpt lat="48.88782" lon="0.19939">
        <ele>268</ele>
        <time>2019-04-28T09:08:26Z</time>
      </trkpt>
      <trkpt lat="48.88787" lon="0.19923">
        <ele>269</ele>
        <time>2019-04-28T09:08:36Z</time>
      </trkpt>
      <trkpt lat="48.88794" lon="0.19913">
        <ele>271</ele>
        <time>2019-04-28T09:08:46Z</time>
      </trkpt>
      <trkpt lat="48.88807" lon="0.19905">
        <ele>271</ele>
        <time>2019-04-28T09:08:56Z</time>
      </trkpt>
      <trkpt lat="48.88815" lon="0.199">
        <ele>271</ele>
        <time>2019-04-28T09:09:06Z</time>
      </trkpt>
      <trkpt lat="48.88833" lon="0.1989">
        <ele>268</ele>
        <time>2019-04-28T09:09:16Z</time>
      </trkpt>
      <trkpt lat="48.88841" lon="0.19885">
        <ele>267</ele>
        <time>2019-04-28T09:09:21Z</time>
      </trkpt>
      <trkpt lat="48.88851" lon="0.19882">
        <ele>268</ele>
        <time>2019-04-28T09:09:31Z</time>
      </trkpt>
      <trkpt lat="48.88856" lon="0.1988">
        <ele>267</ele>
        <time>2019-04-28T09:09:36Z</time>
      </trkpt>
      <trkpt lat="48.88871" lon="0.19875">
        <ele>266</ele>
        <time>2019-04-28T09:09:46Z</time>
      </trkpt>
      <trkpt lat="48.88879" lon="0.19873">
        <ele>267</ele>
        <time>2019-04-28T09:09:56Z</time>
      </trkpt>
      <trkpt lat="48.88883" lon="0.19874">
        <ele>267</ele>
        <time>2019-04-28T09:10:01Z</time>
      </trkpt>
      <trkpt lat="48.88894" lon="0.19873">
        <ele>265</ele>
        <time>2019-04-28T09:10:11Z</time>
      </trkpt>
      <trkpt lat="48.8891" lon="0.19873">
        <ele>261</ele>
        <time>2019-04-28T09:10:21Z</time>
      </trkpt>
      <trkpt lat="48.88921" lon="0.19874">
        <ele>260</ele>
        <time>2019-04-28T09:10:26Z</time>
      </trkpt>
      <trkpt lat="48.88934" lon="0.1987">
        <ele>262</ele>
        <time>2019-04-28T09:10:36Z</time>
      </trkpt>
      <trkpt lat="48.88941" lon="0.19866">
        <ele>263</ele>
        <time>2019-04-28T09:10:41Z</time>
      </trkpt>
      <trkpt lat="48.88943" lon="0.19856">
        <ele>261</ele>
        <time>2019-04-28T09:10:51Z</time>
      </trkpt>
      <trkpt lat="48.88945" lon="0.19847">
        <ele>261</ele>
        <time>2019-04-28T09:10:56Z</time>
      </trkpt>
      <trkpt lat="48.88946" lon="0.19831">
        <ele>264</ele>
        <time>2019-04-28T09:11:06Z</time>
      </trkpt>
      <trkpt lat="48.88946" lon="0.19818">
        <ele>265</ele>
        <time>2019-04-28T09:11:11Z</time>
      </trkpt>
      <trkpt lat="48.88946" lon="0.19807">
        <ele>267</ele>
        <time>2019-04-28T09:11:16Z</time>
      </trkpt>
      <trkpt lat="48.88946" lon="0.19789">
        <ele>270</ele>
        <time>2019-04-28T09:11:26Z</time>
      </trkpt>
      <trkpt lat="48.88945" lon="0.19769">
        <ele>272</ele>
        <time>2019-04-28T09:11:36Z</time>
      </trkpt>
      <trkpt lat="48.88945" lon="0.19754">
        <ele>272</ele>
        <time>2019-04-28T09:11:41Z</time>
      </trkpt>
      <trkpt lat="48.88943" lon="0.19734">
        <ele>272</ele>
        <time>2019-04-28T09:11:51Z</time>
      </trkpt>
      <trkpt lat="48.88941" lon="0.19718">
        <ele>271</ele>
        <time>2019-04-28T09:11:56Z</time>
      </trkpt>
      <trkpt lat="48.88939" lon="0.19702">
        <ele>271</ele>
        <time>2019-04-28T09:12:06Z</time>
      </trkpt>
      <trkpt lat="48.88936" lon="0.19685">
        <ele>272</ele>
        <time>2019-04-28T09:12:16Z</time>
      </trkpt>
      <trkpt lat="48.88933" lon="0.19667">
        <ele>270</ele>
        <time>2019-04-28T09:12:26Z</time>
      </trkpt>
      <trkpt lat="48.88931" lon="0.19654">
        <ele>269</ele>
        <time>2019-04-28T09:12:31Z</time>
      </trkpt>
      <trkpt lat="48.88928" lon="0.19636">
        <ele>269</ele>
        <time>2019-04-28T09:12:41Z</time>
      </trkpt>
      <trkpt lat="48.88926" lon="0.19624">
        <ele>268</ele>
        <time>2019-04-28T09:12:46Z</time>
      </trkpt>
      <trkpt lat="48.88925" lon="0.19614">
        <ele>268</ele>
        <time>2019-04-28T09:12:51Z</time>
      </trkpt>
      <trkpt lat="48.88924" lon="0.19604">
        <ele>267</ele>
        <time>2019-04-28T09:12:56Z</time>
      </trkpt>
      <trkpt lat="48.88923" lon="0.19584">
        <ele>269</ele>
        <time>2019-04-28T09:13:06Z</time>
      </trkpt>
      <trkpt lat="48.88922" lon="0.19562">
        <ele>271</ele>
        <time>2019-04-28T09:13:16Z</time>
      </trkpt>
      <trkpt lat="48.88922" lon="0.19549">
        <ele>271</ele>
        <time>2019-04-28T09:13:21Z</time>
      </trkpt>
      <trkpt lat="48.88922" lon="0.19538">
        <ele>272</ele>
        <time>2019-04-28T09:13:26Z</time>
      </trkpt>
      <trkpt lat="48.8892" lon="0.19523">
        <ele>272</ele>
        <time>2019-04-28T09:13:36Z</time>
      </trkpt>
      <trkpt lat="48.88919" lon="0.19512">
        <ele>272</ele>
        <time>2019-04-28T09:13:41Z</time>
      </trkpt>
      <trkpt lat="48.88918" lon="0.19494">
        <ele>273</ele>
        <time>2019-04-28T09:13:51Z</time>
      </trkpt>
      <trkpt lat="48.88917" lon="0.19481">
        <ele>272</ele>
        <time>2019-04-28T09:13:56Z</time>
      </trkpt>
      <trkpt lat="48.88917" lon="0.19465">
        <ele>271</ele>
        <time>2019-04-28T09:14:06Z</time>
      </trkpt>
      <trkpt lat="48.88917" lon="0.19453">
        <ele>271</ele>
        <time>2019-04-28T09:14:11Z</time>
      </trkpt>
      <trkpt lat="48.88917" lon="0.19436">
        <ele>271</ele>
        <time>2019-04-28T09:14:21Z</time>
      </trkpt>
      <trkpt lat="48.88918" lon="0.19419">
        <ele>271</ele>
        <time>2019-04-28T09:14:31Z</time>
      </trkpt>
      <trkpt lat="48.88919" lon="0.19408">
        <ele>269</ele>
        <time>2019-04-28T09:14:36Z</time>
      </trkpt>
      <trkpt lat="48.8892" lon="0.19391">
        <ele>268</ele>
        <time>2019-04-28T09:14:46Z</time>
      </trkpt>
      <trkpt lat="48.88922" lon="0.19378">
        <ele>268</ele>
        <time>2019-04-28T09:14:51Z</time>
      </trkpt>
      <trkpt lat="48.88927" lon="0.19362">
        <ele>267</ele>
        <time>2019-04-28T09:15:01Z</time>
      </trkpt>
      <trkpt lat="48.88932" lon="0.19342">
        <ele>266</ele>
        <time>2019-04-28T09:15:11Z</time>
      </trkpt>
      <trkpt lat="48.88935" lon="0.19328">
        <ele>265</ele>
        <time>2019-04-28T09:15:16Z</time>
      </trkpt>
      <trkpt lat="48.88939" lon="0.19309">
        <ele>261</ele>
        <time>2019-04-28T09:15:26Z</time>
      </trkpt>
      <trkpt lat="48.88941" lon="0.19294">
        <ele>261</ele>
        <time>2019-04-28T09:15:31Z</time>
      </trkpt>
      <trkpt lat="48.88944" lon="0.19282">
        <ele>261</ele>
        <time>2019-04-28T09:15:36Z</time>
      </trkpt>
      <trkpt lat="48.88947" lon="0.19271">
        <ele>261</ele>
        <time>2019-04-28T09:15:41Z</time>
      </trkpt>
      <trkpt lat="48.88953" lon="0.19254">
        <ele>261</ele>
        <time>2019-04-28T09:15:51Z</time>
      </trkpt>
      <trkpt lat="48.88957" lon="0.19241">
        <ele>261</ele>
        <time>2019-04-28T09:15:56Z</time>
      </trkpt>
      <trkpt lat="48.8896" lon="0.19236">
        <ele>262</ele>
        <time>2019-04-28T09:16:03Z</time>
      </trkpt>
      <trkpt lat="48.88961" lon="0.19233">
        <ele>262</ele>
        <time>2019-04-28T09:16:13Z</time>
      </trkpt>
      <trkpt lat="48.88962" lon="0.19232">
        <ele>262</ele>
        <time>2019-04-28T09:16:24Z</time>
      </trkpt>
      <trkpt lat="48.88962" lon="0.19231">
        <ele>262</ele>
        <time>2019-04-28T09:16:34Z</time>
      </trkpt>
      <trkpt lat="48.88966" lon="0.19224">
        <ele>261</ele>
        <time>2019-04-28T09:16:44Z</time>
      </trkpt>
      <trkpt lat="48.8897" lon="0.19214">
        <ele>262</ele>
        <time>2019-04-28T09:16:54Z</time>
      </trkpt>
      <trkpt lat="48.88976" lon="0.19203">
        <ele>263</ele>
        <time>2019-04-28T09:16:59Z</time>
      </trkpt>
      <trkpt lat="48.88983" lon="0.19189">
        <ele>263</ele>
        <time>2019-04-28T09:17:09Z</time>
      </trkpt>
      <trkpt lat="48.88992" lon="0.19173">
        <ele>259</ele>
        <time>2019-04-28T09:17:19Z</time>
      </trkpt>
      <trkpt lat="48.89005" lon="0.19161">
        <ele>256</ele>
        <time>2019-04-28T09:17:29Z</time>
      </trkpt>
      <trkpt lat="48.89017" lon="0.19154">
        <ele>256</ele>
        <time>2019-04-28T09:17:39Z</time>
      </trkpt>
      <trkpt lat="48.89025" lon="0.1915">
        <ele>257</ele>
        <time>2019-04-28T09:17:44Z</time>
      </trkpt>
      <trkpt lat="48.89033" lon="0.19148">
        <ele>256</ele>
        <time>2019-04-28T09:17:49Z</time>
      </trkpt>
      <trkpt lat="48.8904" lon="0.19147">
        <ele>254</ele>
        <time>2019-04-28T09:17:54Z</time>
      </trkpt>
      <trkpt lat="48.89047" lon="0.19147">
        <ele>252</ele>
        <time>2019-04-28T09:17:59Z</time>
      </trkpt>
      <trkpt lat="48.89059" lon="0.19147">
        <ele>249</ele>
        <time>2019-04-28T09:18:09Z</time>
      </trkpt>
      <trkpt lat="48.89077" lon="0.19147">
        <ele>248</ele>
        <time>2019-04-28T09:18:19Z</time>
      </trkpt>
      <trkpt lat="48.8909" lon="0.19148">
        <ele>245</ele>
        <time>2019-04-28T09:18:29Z</time>
      </trkpt>
      <trkpt lat="48.89101" lon="0.1915">
        <ele>244</ele>
        <time>2019-04-28T09:18:39Z</time>
      </trkpt>
      <trkpt lat="48.89116" lon="0.19149">
        <ele>241</ele>
        <time>2019-04-28T09:18:49Z</time>
      </trkpt>
      <trkpt lat="48.89136" lon="0.19144">
        <ele>241</ele>
        <time>2019-04-28T09:18:59Z</time>
      </trkpt>
      <trkpt lat="48.89152" lon="0.19138">
        <ele>241</ele>
        <time>2019-04-28T09:19:09Z</time>
      </trkpt>
      <trkpt lat="48.89163" lon="0.19135">
        <ele>241</ele>
        <time>2019-04-28T09:19:14Z</time>
      </trkpt>
      <trkpt lat="48.89169" lon="0.19133">
        <ele>241</ele>
        <time>2019-04-28T09:19:19Z</time>
      </trkpt>
      <trkpt lat="48.8918" lon="0.19132">
        <ele>239</ele>
        <time>2019-04-28T09:19:29Z</time>
      </trkpt>
      <trkpt lat="48.89188" lon="0.1913">
        <ele>238</ele>
        <time>2019-04-28T09:19:34Z</time>
      </trkpt>
      <trkpt lat="48.89204" lon="0.19125">
        <ele>237</ele>
        <time>2019-04-28T09:19:44Z</time>
      </trkpt>
      <trkpt lat="48.89216" lon="0.19122">
        <ele>236</ele>
        <time>2019-04-28T09:19:49Z</time>
      </trkpt>
      <trkpt lat="48.89224" lon="0.1912">
        <ele>235</ele>
        <time>2019-04-28T09:19:54Z</time>
      </trkpt>
      <trkpt lat="48.89231" lon="0.1912">
        <ele>233</ele>
        <time>2019-04-28T09:20:04Z</time>
      </trkpt>
      <trkpt lat="48.89237" lon="0.1912">
        <ele>231</ele>
        <time>2019-04-28T09:20:09Z</time>
      </trkpt>
      <trkpt lat="48.89245" lon="0.19119">
        <ele>229</ele>
        <time>2019-04-28T09:20:19Z</time>
      </trkpt>
      <trkpt lat="48.8926" lon="0.19118">
        <ele>227</ele>
        <time>2019-04-28T09:20:29Z</time>
      </trkpt>
      <trkpt lat="48.89268" lon="0.19118">
        <ele>227</ele>
        <time>2019-04-28T09:20:34Z</time>
      </trkpt>
      <trkpt lat="48.89277" lon="0.19119">
        <ele>227</ele>
        <time>2019-04-28T09:20:39Z</time>
      </trkpt>
      <trkpt lat="48.89286" lon="0.1912">
        <ele>227</ele>
        <time>2019-04-28T09:20:44Z</time>
      </trkpt>
      <trkpt lat="48.89298" lon="0.19122">
        <ele>223</ele>
        <time>2019-04-28T09:20:54Z</time>
      </trkpt>
      <trkpt lat="48.89309" lon="0.19122">
        <ele>223</ele>
        <time>2019-04-28T09:21:04Z</time>
      </trkpt>
      <trkpt lat="48.89316" lon="0.19121">
        <ele>223</ele>
        <time>2019-04-28T09:21:09Z</time>
      </trkpt>
      <trkpt lat="48.89324" lon="0.19119">
        <ele>223</ele>
        <time>2019-04-28T09:21:19Z</time>
      </trkpt>
      <trkpt lat="48.89336" lon="0.19113">
        <ele>222</ele>
        <time>2019-04-28T09:21:29Z</time>
      </trkpt>
      <trkpt lat="48.89343" lon="0.19111">
        <ele>222</ele>
        <time>2019-04-28T09:21:34Z</time>
      </trkpt>
      <trkpt lat="48.8935" lon="0.19106">
        <ele>222</ele>
        <time>2019-04-28T09:21:44Z</time>
      </trkpt>
      <trkpt lat="48.8936" lon="0.19099">
        <ele>221</ele>
        <time>2019-04-28T09:21:54Z</time>
      </trkpt>
      <trkpt lat="48.89369" lon="0.19093">
        <ele>221</ele>
        <time>2019-04-28T09:21:59Z</time>
      </trkpt>
      <trkpt lat="48.89376" lon="0.19085">
        <ele>220</ele>
        <time>2019-04-28T09:22:04Z</time>
      </trkpt>
      <trkpt lat="48.89388" lon="0.19071">
        <ele>219</ele>
        <time>2019-04-28T09:22:14Z</time>
      </trkpt>
      <trkpt lat="48.89397" lon="0.19059">
        <ele>218</ele>
        <time>2019-04-28T09:22:19Z</time>
      </trkpt>
      <trkpt lat="48.89401" lon="0.19053">
        <ele>218</ele>
        <time>2019-04-28T09:22:24Z</time>
      </trkpt>
      <trkpt lat="48.89407" lon="0.19043">
        <ele>217</ele>
        <time>2019-04-28T09:22:34Z</time>
      </trkpt>
      <trkpt lat="48.89414" lon="0.1903">
        <ele>217</ele>
        <time>2019-04-28T09:22:39Z</time>
      </trkpt>
      <trkpt lat="48.89419" lon="0.19022">
        <ele>217</ele>
        <time>2019-04-28T09:22:49Z</time>
      </trkpt>
      <trkpt lat="48.89423" lon="0.1901">
        <ele>216</ele>
        <time>2019-04-28T09:22:59Z</time>
      </trkpt>
      <trkpt lat="48.89426" lon="0.19001">
        <ele>217</ele>
        <time>2019-04-28T09:23:04Z</time>
      </trkpt>
      <trkpt lat="48.89428" lon="0.18995">
        <ele>217</ele>
        <time>2019-04-28T09:23:14Z</time>
      </trkpt>
      <trkpt lat="48.89431" lon="0.18987">
        <ele>216</ele>
        <time>2019-04-28T09:23:19Z</time>
      </trkpt>
      <trkpt lat="48.89433" lon="0.18981">
        <ele>216</ele>
        <time>2019-04-28T09:23:29Z</time>
      </trkpt>
      <trkpt lat="48.89438" lon="0.18968">
        <ele>215</ele>
        <time>2019-04-28T09:23:39Z</time>
      </trkpt>
      <trkpt lat="48.89441" lon="0.18961">
        <ele>213</ele>
        <time>2019-04-28T09:23:44Z</time>
      </trkpt>
      <trkpt lat="48.89444" lon="0.18955">
        <ele>212</ele>
        <time>2019-04-28T09:23:49Z</time>
      </trkpt>
      <trkpt lat="48.89452" lon="0.18933">
        <ele>211</ele>
        <time>2019-04-28T09:23:59Z</time>
      </trkpt>
      <trkpt lat="48.8946" lon="0.18914">
        <ele>205</ele>
        <time>2019-04-28T09:24:09Z</time>
      </trkpt>
      <trkpt lat="48.8947" lon="0.18897">
        <ele>201</ele>
        <time>2019-04-28T09:24:19Z</time>
      </trkpt>
      <trkpt lat="48.8948" lon="0.18888">
        <ele>202</ele>
        <time>2019-04-28T09:24:29Z</time>
      </trkpt>
      <trkpt lat="48.89486" lon="0.18884">
        <ele>202</ele>
        <time>2019-04-28T09:24:34Z</time>
      </trkpt>
      <trkpt lat="48.89491" lon="0.18886">
        <ele>201</ele>
        <time>2019-04-28T09:24:39Z</time>
      </trkpt>
      <trkpt lat="48.89499" lon="0.18894">
        <ele>201</ele>
        <time>2019-04-28T09:24:49Z</time>
      </trkpt>
      <trkpt lat="48.89508" lon="0.18903">
        <ele>200</ele>
        <time>2019-04-28T09:24:59Z</time>
      </trkpt>
      <trkpt lat="48.89518" lon="0.18913">
        <ele>199</ele>
        <time>2019-04-28T09:25:09Z</time>
      </trkpt>
      <trkpt lat="48.89529" lon="0.18926">
        <ele>196</ele>
        <time>2019-04-28T09:25:19Z</time>
      </trkpt>
      <trkpt lat="48.89536" lon="0.18935">
        <ele>195</ele>
        <time>2019-04-28T09:25:24Z</time>
      </trkpt>
      <trkpt lat="48.89542" lon="0.18943">
        <ele>194</ele>
        <time>2019-04-28T09:25:29Z</time>
      </trkpt>
      <trkpt lat="48.89547" lon="0.18951">
        <ele>193</ele>
        <time>2019-04-28T09:25:34Z</time>
      </trkpt>
      <trkpt lat="48.89557" lon="0.18962">
        <ele>192</ele>
        <time>2019-04-28T09:25:44Z</time>
      </trkpt>
      <trkpt lat="48.89565" lon="0.18967">
        <ele>192</ele>
        <time>2019-04-28T09:25:49Z</time>
      </trkpt>
      <trkpt lat="48.89574" lon="0.18973">
        <ele>191</ele>
        <time>2019-04-28T09:25:59Z</time>
      </trkpt>
      <trkpt lat="48.89585" lon="0.18981">
        <ele>190</ele>
        <time>2019-04-28T09:26:09Z</time>
      </trkpt>
      <trkpt lat="48.896" lon="0.18991">
        <ele>186</ele>
        <time>2019-04-28T09:26:19Z</time>
      </trkpt>
      <trkpt lat="48.89615" lon="0.18988">
        <ele>185</ele>
        <time>2019-04-28T09:26:29Z</time>
      </trkpt>
      <trkpt lat="48.89623" lon="0.18981">
        <ele>184</ele>
        <time>2019-04-28T09:26:34Z</time>
      </trkpt>
      <trkpt lat="48.89629" lon="0.18972">
        <ele>184</ele>
        <time>2019-04-28T09:26:39Z</time>
      </trkpt>
      <trkpt lat="48.89637" lon="0.18955">
        <ele>184</ele>
        <time>2019-04-28T09:26:49Z</time>
      </trkpt>
      <trkpt lat="48.89645" lon="0.18934">
        <ele>186</ele>
        <time>2019-04-28T09:26:59Z</time>
      </trkpt>
      <trkpt lat="48.8965" lon="0.18913">
        <ele>187</ele>
        <time>2019-04-28T09:27:09Z</time>
      </trkpt>
      <trkpt lat="48.89652" lon="0.18892">
        <ele>187</ele>
        <time>2019-04-28T09:27:19Z</time>
      </trkpt>
      <trkpt lat="48.89653" lon="0.18872">
        <ele>187</ele>
        <time>2019-04-28T09:27:29Z</time>
      </trkpt>
      <trkpt lat="48.89651" lon="0.18851">
        <ele>188</ele>
        <time>2019-04-28T09:27:39Z</time>
      </trkpt>
      <trkpt lat="48.89647" lon="0.18834">
        <ele>187</ele>
        <time>2019-04-28T09:27:49Z</time>
      </trkpt>
      <trkpt lat="48.89644" lon="0.18821">
        <ele>186</ele>
        <time>2019-04-28T09:27:54Z</time>
      </trkpt>
      <trkpt lat="48.89641" lon="0.18808">
        <ele>186</ele>
        <time>2019-04-28T09:27:59Z</time>
      </trkpt>
      <trkpt lat="48.89638" lon="0.18797">
        <ele>185</ele>
        <time>2019-04-28T09:28:04Z</time>
      </trkpt>
      <trkpt lat="48.89635" lon="0.18786">
        <ele>185</ele>
        <time>2019-04-28T09:28:09Z</time>
      </trkpt>
      <trkpt lat="48.89629" lon="0.18768">
        <ele>185</ele>
        <time>2019-04-28T09:28:19Z</time>
      </trkpt>
      <trkpt lat="48.89626" lon="0.18752">
        <ele>183</ele>
        <time>2019-04-28T09:28:24Z</time>
      </trkpt>
      <trkpt lat="48.89624" lon="0.1874">
        <ele>183</ele>
        <time>2019-04-28T09:28:29Z</time>
      </trkpt>
      <trkpt lat="48.89618" lon="0.18721">
        <ele>185</ele>
        <time>2019-04-28T09:28:39Z</time>
      </trkpt>
      <trkpt lat="48.89612" lon="0.18709">
        <ele>185</ele>
        <time>2019-04-28T09:28:44Z</time>
      </trkpt>
      <trkpt lat="48.89607" lon="0.187">
        <ele>184</ele>
        <time>2019-04-28T09:28:49Z</time>
      </trkpt>
      <trkpt lat="48.896" lon="0.18687">
        <ele>182</ele>
        <time>2019-04-28T09:28:59Z</time>
      </trkpt>
      <trkpt lat="48.89596" lon="0.18675">
        <ele>181</ele>
        <time>2019-04-28T09:29:04Z</time>
      </trkpt>
      <trkpt lat="48.89595" lon="0.18665">
        <ele>181</ele>
        <time>2019-04-28T09:29:09Z</time>
      </trkpt>
      <trkpt lat="48.89599" lon="0.1865">
        <ele>180</ele>
        <time>2019-04-28T09:29:19Z</time>
      </trkpt>
      <trkpt lat="48.89605" lon="0.18635">
        <ele>180</ele>
        <time>2019-04-28T09:29:29Z</time>
      </trkpt>
      <trkpt lat="48.8961" lon="0.18624">
        <ele>179</ele>
        <time>2019-04-28T09:29:34Z</time>
      </trkpt>
      <trkpt lat="48.89614" lon="0.18614">
        <ele>179</ele>
        <time>2019-04-28T09:29:39Z</time>
      </trkpt>
      <trkpt lat="48.8962" lon="0.18599">
        <ele>177</ele>
        <time>2019-04-28T09:29:49Z</time>
      </trkpt>
      <trkpt lat="48.89625" lon="0.18589">
        <ele>176</ele>
        <time>2019-04-28T09:29:54Z</time>
      </trkpt>
      <trkpt lat="48.89629" lon="0.18579">
        <ele>176</ele>
        <time>2019-04-28T09:29:59Z</time>
      </trkpt>
      <trkpt lat="48.89633" lon="0.18569">
        <ele>175</ele>
        <time>2019-04-28T09:30:04Z</time>
      </trkpt>
      <trkpt lat="48.89637" lon="0.18559">
        <ele>174</ele>
        <time>2019-04-28T09:30:09Z</time>
      </trkpt>
      <trkpt lat="48.89643" lon="0.18544">
        <ele>174</ele>
        <time>2019-04-28T09:30:19Z</time>
      </trkpt>
      <trkpt lat="48.89647" lon="0.18527">
        <ele>171</ele>
        <time>2019-04-28T09:30:29Z</time>
      </trkpt>
      <trkpt lat="48.8965" lon="0.18514">
        <ele>171</ele>
        <time>2019-04-28T09:30:34Z</time>
      </trkpt>
      <trkpt lat="48.89653" lon="0.18503">
        <ele>170</ele>
        <time>2019-04-28T09:30:39Z</time>
      </trkpt>
      <trkpt lat="48.89657" lon="0.18487">
        <ele>171</ele>
        <time>2019-04-28T09:30:49Z</time>
      </trkpt>
      <trkpt lat="48.89662" lon="0.18475">
        <ele>170</ele>
        <time>2019-04-28T09:30:54Z</time>
      </trkpt>
      <trkpt lat="48.89666" lon="0.18465">
        <ele>170</ele>
        <time>2019-04-28T09:30:59Z</time>
      </trkpt>
      <trkpt lat="48.8967" lon="0.18456">
        <ele>170</ele>
        <time>2019-04-28T09:31:04Z</time>
      </trkpt>
      <trkpt lat="48.89674" lon="0.18446">
        <ele>169</ele>
        <time>2019-04-28T09:31:09Z</time>
      </trkpt>
      <trkpt lat="48.89679" lon="0.18431">
        <ele>168</ele>
        <time>2019-04-28T09:31:19Z</time>
      </trkpt>
      <trkpt lat="48.89684" lon="0.18417">
        <ele>167</ele>
        <time>2019-04-28T09:31:24Z</time>
      </trkpt>
      <trkpt lat="48.89685" lon="0.18405">
        <ele>168</ele>
        <time>2019-04-28T09:31:29Z</time>
      </trkpt>
      <trkpt lat="48.89681" lon="0.18391">
        <ele>169</ele>
        <time>2019-04-28T09:31:39Z</time>
      </trkpt>
      <trkpt lat="48.89672" lon="0.18377">
        <ele>170</ele>
        <time>2019-04-28T09:31:49Z</time>
      </trkpt>
      <trkpt lat="48.89665" lon="0.18367">
        <ele>170</ele>
        <time>2019-04-28T09:31:54Z</time>
      </trkpt>
      <trkpt lat="48.89656" lon="0.18357">
        <ele>169</ele>
        <time>2019-04-28T09:32:04Z</time>
      </trkpt>
      <trkpt lat="48.89651" lon="0.18349">
        <ele>169</ele>
        <time>2019-04-28T09:32:09Z</time>
      </trkpt>
      <trkpt lat="48.89642" lon="0.18339">
        <ele>167</ele>
        <time>2019-04-28T09:32:19Z</time>
      </trkpt>
      <trkpt lat="48.89632" lon="0.18327">
        <ele>168</ele>
        <time>2019-04-28T09:32:29Z</time>
      </trkpt>
      <trkpt lat="48.89624" lon="0.18318">
        <ele>169</ele>
        <time>2019-04-28T09:32:34Z</time>
      </trkpt>
      <trkpt lat="48.89613" lon="0.18305">
        <ele>168</ele>
        <time>2019-04-28T09:32:44Z</time>
      </trkpt>
      <trkpt lat="48.89601" lon="0.18292">
        <ele>169</ele>
        <time>2019-04-28T09:32:54Z</time>
      </trkpt>
      <trkpt lat="48.89594" lon="0.18283">
        <ele>167</ele>
        <time>2019-04-28T09:32:59Z</time>
      </trkpt>
      <trkpt lat="48.89584" lon="0.18271">
        <ele>167</ele>
        <time>2019-04-28T09:33:09Z</time>
      </trkpt>
      <trkpt lat="48.89576" lon="0.18262">
        <ele>167</ele>
        <time>2019-04-28T09:33:14Z</time>
      </trkpt>
      <trkpt lat="48.8957" lon="0.18254">
        <ele>167</ele>
        <time>2019-04-28T09:33:19Z</time>
      </trkpt>
      <trkpt lat="48.89559" lon="0.18242">
        <ele>169</ele>
        <time>2019-04-28T09:33:29Z</time>
      </trkpt>
      <trkpt lat="48.89552" lon="0.18233">
        <ele>169</ele>
        <time>2019-04-28T09:33:34Z</time>
      </trkpt>
      <trkpt lat="48.89542" lon="0.18222">
        <ele>169</ele>
        <time>2019-04-28T09:33:44Z</time>
      </trkpt>
      <trkpt lat="48.89535" lon="0.18213">
        <ele>169</ele>
        <time>2019-04-28T09:33:49Z</time>
      </trkpt>
      <trkpt lat="48.89528" lon="0.18206">
        <ele>169</ele>
        <time>2019-04-28T09:33:54Z</time>
      </trkpt>
      <trkpt lat="48.89519" lon="0.18195">
        <ele>169</ele>
        <time>2019-04-28T09:34:04Z</time>
      </trkpt>
      <trkpt lat="48.89511" lon="0.18187">
        <ele>169</ele>
        <time>2019-04-28T09:34:09Z</time>
      </trkpt>
      <trkpt lat="48.89501" lon="0.18177">
        <ele>168</ele>
        <time>2019-04-28T09:34:19Z</time>
      </trkpt>
      <trkpt lat="48.8949" lon="0.18164">
        <ele>168</ele>
        <time>2019-04-28T09:34:29Z</time>
      </trkpt>
      <trkpt lat="48.89482" lon="0.18156">
        <ele>168</ele>
        <time>2019-04-28T09:34:34Z</time>
      </trkpt>
      <trkpt lat="48.89475" lon="0.18148">
        <ele>169</ele>
        <time>2019-04-28T09:34:39Z</time>
      </trkpt>
      <trkpt lat="48.89465" lon="0.18138">
        <ele>167</ele>
        <time>2019-04-28T09:34:49Z</time>
      </trkpt>
      <trkpt lat="48.89454" lon="0.18128">
        <ele>166</ele>
        <time>2019-04-28T09:34:59Z</time>
      </trkpt>
      <trkpt lat="48.89441" lon="0.18118">
        <ele>167</ele>
        <time>2019-04-28T09:35:09Z</time>
      </trkpt>
      <trkpt lat="48.89428" lon="0.18108">
        <ele>167</ele>
        <time>2019-04-28T09:35:19Z</time>
      </trkpt>
      <trkpt lat="48.89419" lon="0.18102">
        <ele>168</ele>
        <time>2019-04-28T09:35:24Z</time>
      </trkpt>
      <trkpt lat="48.89409" lon="0.18095">
        <ele>168</ele>
        <time>2019-04-28T09:35:34Z</time>
      </trkpt>
      <trkpt lat="48.89398" lon="0.18088">
        <ele>168</ele>
        <time>2019-04-28T09:35:44Z</time>
      </trkpt>
      <trkpt lat="48.89389" lon="0.18084">
        <ele>168</ele>
        <time>2019-04-28T09:35:49Z</time>
      </trkpt>
      <trkpt lat="48.89377" lon="0.18078">
        <ele>168</ele>
        <time>2019-04-28T09:35:59Z</time>
      </trkpt>
      <trkpt lat="48.89367" lon="0.18072">
        <ele>169</ele>
        <time>2019-04-28T09:36:04Z</time>
      </trkpt>
      <trkpt lat="48.89355" lon="0.18066">
        <ele>169</ele>
        <time>2019-04-28T09:36:14Z</time>
      </trkpt>
      <trkpt lat="48.89346" lon="0.18062">
        <ele>170</ele>
        <time>2019-04-28T09:36:19Z</time>
      </trkpt>
      <trkpt lat="48.89339" lon="0.18058">
        <ele>170</ele>
        <time>2019-04-28T09:36:24Z</time>
      </trkpt>
      <trkpt lat="48.89328" lon="0.18053">
        <ele>170</ele>
        <time>2019-04-28T09:36:34Z</time>
      </trkpt>
      <trkpt lat="48.89316" lon="0.18047">
        <ele>171</ele>
        <time>2019-04-28T09:36:44Z</time>
      </trkpt>
      <trkpt lat="48.89306" lon="0.18043">
        <ele>171</ele>
        <time>2019-04-28T09:36:49Z</time>
      </trkpt>
      <trkpt lat="48.89295" lon="0.18037">
        <ele>173</ele>
        <time>2019-04-28T09:36:59Z</time>
      </trkpt>
      <trkpt lat="48.89286" lon="0.18031">
        <ele>173</ele>
        <time>2019-04-28T09:37:04Z</time>
      </trkpt>
      <trkpt lat="48.89275" lon="0.18023">
        <ele>174</ele>
        <time>2019-04-28T09:37:14Z</time>
      </trkpt>
      <trkpt lat="48.89263" lon="0.18012">
        <ele>174</ele>
        <time>2019-04-28T09:37:24Z</time>
      </trkpt>
      <trkpt lat="48.89255" lon="0.18004">
        <ele>174</ele>
        <time>2019-04-28T09:37:29Z</time>
      </trkpt>
      <trkpt lat="48.89244" lon="0.17993">
        <ele>175</ele>
        <time>2019-04-28T09:37:39Z</time>
      </trkpt>
      <trkpt lat="48.89233" lon="0.17982">
        <ele>177</ele>
        <time>2019-04-28T09:37:49Z</time>
      </trkpt>
      <trkpt lat="48.89225" lon="0.17974">
        <ele>177</ele>
        <time>2019-04-28T09:37:54Z</time>
      </trkpt>
      <trkpt lat="48.89219" lon="0.17968">
        <ele>177</ele>
        <time>2019-04-28T09:37:59Z</time>
      </trkpt>
      <trkpt lat="48.89211" lon="0.17959">
        <ele>177</ele>
        <time>2019-04-28T09:38:09Z</time>
      </trkpt>
      <trkpt lat="48.89202" lon="0.17949">
        <ele>176</ele>
        <time>2019-04-28T09:38:19Z</time>
      </trkpt>
      <trkpt lat="48.89194" lon="0.17942">
        <ele>176</ele>
        <time>2019-04-28T09:38:24Z</time>
      </trkpt>
      <trkpt lat="48.89183" lon="0.17932">
        <ele>174</ele>
        <time>2019-04-28T09:38:34Z</time>
      </trkpt>
      <trkpt lat="48.89176" lon="0.17925">
        <ele>173</ele>
        <time>2019-04-28T09:38:39Z</time>
      </trkpt>
      <trkpt lat="48.89169" lon="0.17917">
        <ele>173</ele>
        <time>2019-04-28T09:38:44Z</time>
      </trkpt>
      <trkpt lat="48.89163" lon="0.1791">
        <ele>174</ele>
        <time>2019-04-28T09:38:49Z</time>
      </trkpt>
      <trkpt lat="48.89154" lon="0.17895">
        <ele>174</ele>
        <time>2019-04-28T09:38:59Z</time>
      </trkpt>
      <trkpt lat="48.89149" lon="0.17884">
        <ele>173</ele>
        <time>2019-04-28T09:39:04Z</time>
      </trkpt>
      <trkpt lat="48.8915" lon="0.17869">
        <ele>172</ele>
        <time>2019-04-28T09:39:14Z</time>
      </trkpt>
      <trkpt lat="48.89157" lon="0.17855">
        <ele>171</ele>
        <time>2019-04-28T09:39:24Z</time>
      </trkpt>
      <trkpt lat="48.89164" lon="0.17847">
        <ele>171</ele>
        <time>2019-04-28T09:39:29Z</time>
      </trkpt>
      <trkpt lat="48.89173" lon="0.17839">
        <ele>168</ele>
        <time>2019-04-28T09:39:39Z</time>
      </trkpt>
      <trkpt lat="48.89183" lon="0.17832">
        <ele>168</ele>
        <time>2019-04-28T09:39:49Z</time>
      </trkpt>
      <trkpt lat="48.8919" lon="0.17828">
        <ele>167</ele>
        <time>2019-04-28T09:39:54Z</time>
      </trkpt>
      <trkpt lat="48.89201" lon="0.17823">
        <ele>168</ele>
        <time>2019-04-28T09:40:04Z</time>
      </trkpt>
      <trkpt lat="48.89209" lon="0.1782">
        <ele>169</ele>
        <time>2019-04-28T09:40:09Z</time>
      </trkpt>
      <trkpt lat="48.89218" lon="0.17815">
        <ele>170</ele>
        <time>2019-04-28T09:40:19Z</time>
      </trkpt>
      <trkpt lat="48.89224" lon="0.17812">
        <ele>170</ele>
        <time>2019-04-28T09:40:24Z</time>
      </trkpt>
      <trkpt lat="48.89226" lon="0.17811">
        <ele>170</ele>
        <time>2019-04-28T09:40:34Z</time>
      </trkpt>
      <trkpt lat="48.89227" lon="0.1781">
        <ele>170</ele>
        <time>2019-04-28T09:40:44Z</time>
      </trkpt>
      <trkpt lat="48.89228" lon="0.1781">
        <ele>170</ele>
        <time>2019-04-28T09:40:49Z</time>
      </trkpt>
      <trkpt lat="48.89228" lon="0.17809">
        <ele>170</ele>
        <time>2019-04-28T09:40:59Z</time>
      </trkpt>
      <trkpt lat="48.89232" lon="0.17805">
        <ele>169</ele>
        <time>2019-04-28T09:41:09Z</time>
      </trkpt>
      <trkpt lat="48.89238" lon="0.17799">
        <ele>169</ele>
        <time>2019-04-28T09:41:19Z</time>
      </trkpt>
      <trkpt lat="48.89243" lon="0.17794">
        <ele>169</ele>
        <time>2019-04-28T09:41:24Z</time>
      </trkpt>
      <trkpt lat="48.89248" lon="0.17789">
        <ele>169</ele>
        <time>2019-04-28T09:41:29Z</time>
      </trkpt>
      <trkpt lat="48.89252" lon="0.17785">
        <ele>171</ele>
        <time>2019-04-28T09:41:34Z</time>
      </trkpt>
      <trkpt lat="48.89259" lon="0.17779">
        <ele>175</ele>
        <time>2019-04-28T09:41:44Z</time>
      </trkpt>
      <trkpt lat="48.89265" lon="0.17773">
        <ele>176</ele>
        <time>2019-04-28T09:41:49Z</time>
      </trkpt>
      <trkpt lat="48.89272" lon="0.17768">
        <ele>177</ele>
        <time>2019-04-28T09:41:59Z</time>
      </trkpt>
      <trkpt lat="48.89285" lon="0.17761">
        <ele>180</ele>
        <time>2019-04-28T09:42:10Z</time>
      </trkpt>
      <trkpt lat="48.89297" lon="0.17756">
        <ele>182</ele>
        <time>2019-04-28T09:42:19Z</time>
      </trkpt>
      <trkpt lat="48.89302" lon="0.17754">
        <ele>185</ele>
        <time>2019-04-28T09:42:24Z</time>
      </trkpt>
      <trkpt lat="48.89305" lon="0.17753">
        <ele>185</ele>
        <time>2019-04-28T09:42:29Z</time>
      </trkpt>
      <trkpt lat="48.89307" lon="0.17753">
        <ele>186</ele>
        <time>2019-04-28T09:42:34Z</time>
      </trkpt>
      <trkpt lat="48.89313" lon="0.1775">
        <ele>188</ele>
        <time>2019-04-28T09:42:44Z</time>
      </trkpt>
      <trkpt lat="48.89318" lon="0.17748">
        <ele>190</ele>
        <time>2019-04-28T09:42:49Z</time>
      </trkpt>
      <trkpt lat="48.89323" lon="0.17747">
        <ele>189</ele>
        <time>2019-04-28T09:42:54Z</time>
      </trkpt>
      <trkpt lat="48.89329" lon="0.17752">
        <ele>187</ele>
        <time>2019-04-28T09:43:04Z</time>
      </trkpt>
      <trkpt lat="48.89333" lon="0.17755">
        <ele>187</ele>
        <time>2019-04-28T09:43:14Z</time>
      </trkpt>
      <trkpt lat="48.89335" lon="0.17756">
        <ele>187</ele>
        <time>2019-04-28T09:43:19Z</time>
      </trkpt>
      <trkpt lat="48.89336" lon="0.17756">
        <ele>187</ele>
        <time>2019-04-28T09:43:29Z</time>
      </trkpt>
      <trkpt lat="48.89336" lon="0.17757">
        <ele>187</ele>
        <time>2019-04-28T09:43:39Z</time>
      </trkpt>
      <trkpt lat="48.89336" lon="0.17757">
        <ele>187</ele>
        <time>2019-04-28T09:43:44Z</time>
      </trkpt>
      <trkpt lat="48.89336" lon="0.17757">
        <ele>187</ele>
        <time>2019-04-28T09:43:49Z</time>
      </trkpt>
      <trkpt lat="48.89337" lon="0.17754">
        <ele>186</ele>
        <time>2019-04-28T09:43:59Z</time>
      </trkpt>
      <trkpt lat="48.89338" lon="0.17753">
        <ele>186</ele>
        <time>2019-04-28T09:44:04Z</time>
      </trkpt>
      <trkpt lat="48.89338" lon="0.17753">
        <ele>186</ele>
        <time>2019-04-28T09:44:14Z</time>
      </trkpt>
      <trkpt lat="48.89338" lon="0.17753">
        <ele>186</ele>
        <time>2019-04-28T09:44:19Z</time>
      </trkpt>
      <trkpt lat="48.89341" lon="0.1775">
        <ele>186</ele>
        <time>2019-04-28T09:44:29Z</time>
      </trkpt>
      <trkpt lat="48.89342" lon="0.17749">
        <ele>186</ele>
        <time>2019-04-28T09:44:34Z</time>
      </trkpt>
      <trkpt lat="48.89345" lon="0.17745">
        <ele>188</ele>
        <time>2019-04-28T09:44:44Z</time>
      </trkpt>
      <trkpt lat="48.89345" lon="0.17742">
        <ele>188</ele>
        <time>2019-04-28T09:44:49Z</time>
      </trkpt>
      <trkpt lat="48.89347" lon="0.17742">
        <ele>189</ele>
        <time>2019-04-28T09:44:59Z</time>
      </trkpt>
      <trkpt lat="48.89348" lon="0.17741">
        <ele>189</ele>
        <time>2019-04-28T09:45:09Z</time>
      </trkpt>
      <trkpt lat="48.89348" lon="0.17741">
        <ele>189</ele>
        <time>2019-04-28T09:45:14Z</time>
      </trkpt>
      <trkpt lat="48.89349" lon="0.17741">
        <ele>189</ele>
        <time>2019-04-28T09:45:24Z</time>
      </trkpt>
      <trkpt lat="48.89351" lon="0.17739">
        <ele>189</ele>
        <time>2019-04-28T09:45:29Z</time>
      </trkpt>
      <trkpt lat="48.89351" lon="0.17739">
        <ele>189</ele>
        <time>2019-04-28T09:45:34Z</time>
      </trkpt>
      <trkpt lat="48.89352" lon="0.17738">
        <ele>189</ele>
        <time>2019-04-28T09:45:44Z</time>
      </trkpt>
      <trkpt lat="48.89352" lon="0.17738">
        <ele>189</ele>
        <time>2019-04-28T09:45:54Z</time>
      </trkpt>
      <trkpt lat="48.89352" lon="0.17738">
        <ele>189</ele>
        <time>2019-04-28T09:45:59Z</time>
      </trkpt>
      <trkpt lat="48.89352" lon="0.17738">
        <ele>189</ele>
        <time>2019-04-28T09:46:09Z</time>
      </trkpt>
      <trkpt lat="48.89352" lon="0.17738">
        <ele>189</ele>
        <time>2019-04-28T09:46:19Z</time>
      </trkpt>
      <trkpt lat="48.89352" lon="0.17738">
        <ele>189</ele>
        <time>2019-04-28T09:46:24Z</time>
      </trkpt>
      <trkpt lat="48.89352" lon="0.17738">
        <ele>189</ele>
        <time>2019-04-28T09:46:34Z</time>
      </trkpt>
      <trkpt lat="48.89352" lon="0.17738">
        <ele>189</ele>
        <time>2019-04-28T09:46:39Z</time>
      </trkpt>
      <trkpt lat="48.89352" lon="0.17738">
        <ele>189</ele>
        <time>2019-04-28T09:46:44Z</time>
      </trkpt>
      <trkpt lat="48.89352" lon="0.17738">
        <ele>189</ele>
        <time>2019-04-28T09:46:54Z</time>
      </trkpt>
      <trkpt lat="48.89352" lon="0.17738">
        <ele>189</ele>
        <time>2019-04-28T09:47:04Z</time>
      </trkpt>
      <trkpt lat="48.89352" lon="0.17738">
        <ele>189</ele>
        <time>2019-04-28T09:47:09Z</time>
      </trkpt>
      <trkpt lat="48.89352" lon="0.17738">
        <ele>189</ele>
        <time>2019-04-28T09:47:14Z</time>
      </trkpt>
      <trkpt lat="48.89352" lon="0.17736">
        <ele>189</ele>
        <time>2019-04-28T09:47:23Z</time>
      </trkpt>
      <trkpt lat="48.89352" lon="0.17735">
        <ele>189</ele>
        <time>2019-04-28T09:47:28Z</time>
      </trkpt>
      <trkpt lat="48.89351" lon="0.17735">
        <ele>189</ele>
        <time>2019-04-28T09:47:33Z</time>
      </trkpt>
      <trkpt lat="48.89351" lon="0.17735">
        <ele>189</ele>
        <time>2019-04-28T09:47:38Z</time>
      </trkpt>
      <trkpt lat="48.89351" lon="0.17735">
        <ele>189</ele>
        <time>2019-04-28T09:47:48Z</time>
      </trkpt>
      <trkpt lat="48.89351" lon="0.17735">
        <ele>189</ele>
        <time>2019-04-28T09:47:53Z</time>
      </trkpt>
      <trkpt lat="48.89351" lon="0.17734">
        <ele>189</ele>
        <time>2019-04-28T09:48:03Z</time>
      </trkpt>
      <trkpt lat="48.89351" lon="0.17734">
        <ele>189</ele>
        <time>2019-04-28T09:48:13Z</time>
      </trkpt>
      <trkpt lat="48.89351" lon="0.17734">
        <ele>189</ele>
        <time>2019-04-28T09:48:18Z</time>
      </trkpt>
      <trkpt lat="48.89351" lon="0.17734">
        <ele>189</ele>
        <time>2019-04-28T09:48:28Z</time>
      </trkpt>
      <trkpt lat="48.89351" lon="0.17734">
        <ele>189</ele>
        <time>2019-04-28T09:48:33Z</time>
      </trkpt>
      <trkpt lat="48.89351" lon="0.17734">
        <ele>189</ele>
        <time>2019-04-28T09:48:38Z</time>
      </trkpt>
      <trkpt lat="48.89351" lon="0.17734">
        <ele>189</ele>
        <time>2019-04-28T09:48:43Z</time>
      </trkpt>
      <trkpt lat="48.89351" lon="0.17734">
        <ele>189</ele>
        <time>2019-04-28T09:48:53Z</time>
      </trkpt>
      <trkpt lat="48.89351" lon="0.17734">
        <ele>189</ele>
        <time>2019-04-28T09:49:03Z</time>
      </trkpt>
      <trkpt lat="48.89351" lon="0.17734">
        <ele>189</ele>
        <time>2019-04-28T09:49:13Z</time>
      </trkpt>
      <trkpt lat="48.89351" lon="0.17734">
        <ele>189</ele>
        <time>2019-04-28T09:49:18Z</time>
      </trkpt>
      <trkpt lat="48.89351" lon="0.17734">
        <ele>189</ele>
        <time>2019-04-28T09:49:23Z</time>
      </trkpt>
      <trkpt lat="48.89351" lon="0.17734">
        <ele>189</ele>
        <time>2019-04-28T09:49:33Z</time>
      </trkpt>
      <trkpt lat="48.89351" lon="0.17734">
        <ele>189</ele>
        <time>2019-04-28T09:49:38Z</time>
      </trkpt>
      <trkpt lat="48.89351" lon="0.17734">
        <ele>189</ele>
        <time>2019-04-28T09:49:48Z</time>
      </trkpt>
      <trkpt lat="48.89351" lon="0.17734">
        <ele>189</ele>
        <time>2019-04-28T09:49:53Z</time>
      </trkpt>
      <trkpt lat="48.89351" lon="0.17734">
        <ele>189</ele>
        <time>2019-04-28T09:50:03Z</time>
      </trkpt>
      <trkpt lat="48.89351" lon="0.17734">
        <ele>189</ele>
        <time>2019-04-28T09:50:08Z</time>
      </trkpt>
      <trkpt lat="48.89351" lon="0.17734">
        <ele>189</ele>
        <time>2019-04-28T09:50:18Z</time>
      </trkpt>
      <trkpt lat="48.89351" lon="0.17734">
        <ele>189</ele>
        <time>2019-04-28T09:50:28Z</time>
      </trkpt>
      <trkpt lat="48.89351" lon="0.17734">
        <ele>189</ele>
        <time>2019-04-28T09:50:33Z</time>
      </trkpt>
      <trkpt lat="48.89351" lon="0.17734">
        <ele>189</ele>
        <time>2019-04-28T09:50:43Z</time>
      </trkpt>
      <trkpt lat="48.89351" lon="0.17734">
        <ele>189</ele>
        <time>2019-04-28T09:50:48Z</time>
      </trkpt>
      <trkpt lat="48.89351" lon="0.17734">
        <ele>189</ele>
        <time>2019-04-28T09:50:58Z</time>
      </trkpt>
      <trkpt lat="48.89351" lon="0.17734">
        <ele>189</ele>
        <time>2019-04-28T09:51:03Z</time>
      </trkpt>
      <trkpt lat="48.89351" lon="0.17734">
        <ele>189</ele>
        <time>2019-04-28T09:51:13Z</time>
      </trkpt>
      <trkpt lat="48.89351" lon="0.17734">
        <ele>189</ele>
        <time>2019-04-28T09:51:23Z</time>
      </trkpt>
      <trkpt lat="48.89351" lon="0.17734">
        <ele>189</ele>
        <time>2019-04-28T09:51:33Z</time>
      </trkpt>
      <trkpt lat="48.89351" lon="0.17734">
        <ele>189</ele>
        <time>2019-04-28T09:51:38Z</time>
      </trkpt>
      <trkpt lat="48.89351" lon="0.17734">
        <ele>189</ele>
        <time>2019-04-28T09:51:43Z</time>
      </trkpt>
      <trkpt lat="48.89351" lon="0.17734">
        <ele>189</ele>
        <time>2019-04-28T09:51:48Z</time>
      </trkpt>
      <trkpt lat="48.89351" lon="0.17734">
        <ele>189</ele>
        <time>2019-04-28T09:51:58Z</time>
      </trkpt>
      <trkpt lat="48.89351" lon="0.17734">
        <ele>189</ele>
        <time>2019-04-28T09:52:03Z</time>
      </trkpt>
      <trkpt lat="48.89351" lon="0.17733">
        <ele>189</ele>
        <time>2019-04-28T09:52:13Z</time>
      </trkpt>
      <trkpt lat="48.89351" lon="0.17733">
        <ele>189</ele>
        <time>2019-04-28T09:52:18Z</time>
      </trkpt>
      <trkpt lat="48.89351" lon="0.17732">
        <ele>189</ele>
        <time>2019-04-28T09:52:28Z</time>
      </trkpt>
      <trkpt lat="48.89352" lon="0.17731">
        <ele>189</ele>
        <time>2019-04-28T09:52:33Z</time>
      </trkpt>
      <trkpt lat="48.89357" lon="0.17726">
        <ele>190</ele>
        <time>2019-04-28T09:52:38Z</time>
      </trkpt>
      <trkpt lat="48.89365" lon="0.17715">
        <ele>190</ele>
        <time>2019-04-28T09:52:48Z</time>
      </trkpt>
      <trkpt lat="48.89373" lon="0.17705">
        <ele>192</ele>
        <time>2019-04-28T09:52:58Z</time>
      </trkpt>
      <trkpt lat="48.8938" lon="0.17697">
        <ele>193</ele>
        <time>2019-04-28T09:53:03Z</time>
      </trkpt>
      <trkpt lat="48.89385" lon="0.17688">
        <ele>194</ele>
        <time>2019-04-28T09:53:08Z</time>
      </trkpt>
      <trkpt lat="48.89392" lon="0.17678">
        <ele>196</ele>
        <time>2019-04-28T09:53:18Z</time>
      </trkpt>
      <trkpt lat="48.89401" lon="0.17667">
        <ele>200</ele>
        <time>2019-04-28T09:53:28Z</time>
      </trkpt>
      <trkpt lat="48.8941" lon="0.17657">
        <ele>202</ele>
        <time>2019-04-28T09:53:38Z</time>
      </trkpt>
      <trkpt lat="48.8942" lon="0.17648">
        <ele>204</ele>
        <time>2019-04-28T09:53:48Z</time>
      </trkpt>
      <trkpt lat="48.89427" lon="0.17641">
        <ele>203</ele>
        <time>2019-04-28T09:53:53Z</time>
      </trkpt>
      <trkpt lat="48.89434" lon="0.1763">
        <ele>203</ele>
        <time>2019-04-28T09:54:03Z</time>
      </trkpt>
      <trkpt lat="48.89436" lon="0.17621">
        <ele>203</ele>
        <time>2019-04-28T09:54:08Z</time>
      </trkpt>
      <trkpt lat="48.89435" lon="0.17608">
        <ele>206</ele>
        <time>2019-04-28T09:54:18Z</time>
      </trkpt>
      <trkpt lat="48.89431" lon="0.17593">
        <ele>207</ele>
        <time>2019-04-28T09:54:28Z</time>
      </trkpt>
      <trkpt lat="48.89427" lon="0.17579">
        <ele>208</ele>
        <time>2019-04-28T09:54:38Z</time>
      </trkpt>
      <trkpt lat="48.89424" lon="0.1757">
        <ele>209</ele>
        <time>2019-04-28T09:54:43Z</time>
      </trkpt>
      <trkpt lat="48.89421" lon="0.17561">
        <ele>210</ele>
        <time>2019-04-28T09:54:48Z</time>
      </trkpt>
      <trkpt lat="48.89417" lon="0.1755">
        <ele>211</ele>
        <time>2019-04-28T09:54:58Z</time>
      </trkpt>
      <trkpt lat="48.8941" lon="0.17536">
        <ele>212</ele>
        <time>2019-04-28T09:55:08Z</time>
      </trkpt>
      <trkpt lat="48.89402" lon="0.17522">
        <ele>213</ele>
        <time>2019-04-28T09:55:18Z</time>
      </trkpt>
      <trkpt lat="48.89398" lon="0.17513">
        <ele>214</ele>
        <time>2019-04-28T09:55:23Z</time>
      </trkpt>
      <trkpt lat="48.89391" lon="0.175">
        <ele>217</ele>
        <time>2019-04-28T09:55:33Z</time>
      </trkpt>
      <trkpt lat="48.89383" lon="0.17485">
        <ele>220</ele>
        <time>2019-04-28T09:55:43Z</time>
      </trkpt>
      <trkpt lat="48.89377" lon="0.17477">
        <ele>221</ele>
        <time>2019-04-28T09:55:48Z</time>
      </trkpt>
      <trkpt lat="48.89371" lon="0.17472">
        <ele>221</ele>
        <time>2019-04-28T09:55:53Z</time>
      </trkpt>
      <trkpt lat="48.89368" lon="0.1747">
        <ele>221</ele>
        <time>2019-04-28T09:56:03Z</time>
      </trkpt>
      <trkpt lat="48.89366" lon="0.17469">
        <ele>221</ele>
        <time>2019-04-28T09:56:08Z</time>
      </trkpt>
      <trkpt lat="48.89366" lon="0.17468">
        <ele>221</ele>
        <time>2019-04-28T09:56:18Z</time>
      </trkpt>
      <trkpt lat="48.89365" lon="0.17467">
        <ele>221</ele>
        <time>2019-04-28T09:56:28Z</time>
      </trkpt>
      <trkpt lat="48.89365" lon="0.17467">
        <ele>221</ele>
        <time>2019-04-28T09:56:33Z</time>
      </trkpt>
      <trkpt lat="48.89365" lon="0.17467">
        <ele>221</ele>
        <time>2019-04-28T09:56:43Z</time>
      </trkpt>
      <trkpt lat="48.89365" lon="0.17467">
        <ele>221</ele>
        <time>2019-04-28T09:56:48Z</time>
      </trkpt>
      <trkpt lat="48.89365" lon="0.17467">
        <ele>221</ele>
        <time>2019-04-28T09:56:58Z</time>
      </trkpt>
      <trkpt lat="48.89365" lon="0.17467">
        <ele>221</ele>
        <time>2019-04-28T09:57:03Z</time>
      </trkpt>
      <trkpt lat="48.89365" lon="0.17467">
        <ele>221</ele>
        <time>2019-04-28T09:57:13Z</time>
      </trkpt>
      <trkpt lat="48.89366" lon="0.17469">
        <ele>219</ele>
        <time>2019-04-28T09:57:23Z</time>
      </trkpt>
      <trkpt lat="48.89366" lon="0.17472">
        <ele>220</ele>
        <time>2019-04-28T09:57:28Z</time>
      </trkpt>
      <trkpt lat="48.89366" lon="0.17474">
        <ele>220</ele>
        <time>2019-04-28T09:57:38Z</time>
      </trkpt>
      <trkpt lat="48.89366" lon="0.17474">
        <ele>220</ele>
        <time>2019-04-28T09:57:48Z</time>
      </trkpt>
      <trkpt lat="48.89366" lon="0.17475">
        <ele>220</ele>
        <time>2019-04-28T09:57:53Z</time>
      </trkpt>
      <trkpt lat="48.89367" lon="0.17478">
        <ele>220</ele>
        <time>2019-04-28T09:58:03Z</time>
      </trkpt>
      <trkpt lat="48.89367" lon="0.1748">
        <ele>220</ele>
        <time>2019-04-28T09:58:08Z</time>
      </trkpt>
      <trkpt lat="48.89367" lon="0.17482">
        <ele>220</ele>
        <time>2019-04-28T09:58:18Z</time>
      </trkpt>
      <trkpt lat="48.89367" lon="0.17483">
        <ele>220</ele>
        <time>2019-04-28T09:58:28Z</time>
      </trkpt>
      <trkpt lat="48.89367" lon="0.17484">
        <ele>220</ele>
        <time>2019-04-28T09:58:38Z</time>
      </trkpt>
      <trkpt lat="48.89367" lon="0.17483">
        <ele>220</ele>
        <time>2019-04-28T09:58:43Z</time>
      </trkpt>
      <trkpt lat="48.89369" lon="0.17479">
        <ele>219</ele>
        <time>2019-04-28T09:58:48Z</time>
      </trkpt>
      <trkpt lat="48.8937" lon="0.17473">
        <ele>219</ele>
        <time>2019-04-28T09:58:53Z</time>
      </trkpt>
      <trkpt lat="48.8937" lon="0.17467">
        <ele>218</ele>
        <time>2019-04-28T09:58:58Z</time>
      </trkpt>
      <trkpt lat="48.89368" lon="0.17456">
        <ele>218</ele>
        <time>2019-04-28T09:59:08Z</time>
      </trkpt>
      <trkpt lat="48.89366" lon="0.17444">
        <ele>219</ele>
        <time>2019-04-28T09:59:18Z</time>
      </trkpt>
      <trkpt lat="48.89363" lon="0.1743">
        <ele>220</ele>
        <time>2019-04-28T09:59:28Z</time>
      </trkpt>
      <trkpt lat="48.8936" lon="0.17412">
        <ele>221</ele>
        <time>2019-04-28T09:59:38Z</time>
      </trkpt>
      <trkpt lat="48.89357" lon="0.17396">
        <ele>222</ele>
        <time>2019-04-28T09:59:48Z</time>
      </trkpt>
      <trkpt lat="48.89356" lon="0.17381">
        <ele>222</ele>
        <time>2019-04-28T09:59:58Z</time>
      </trkpt>
      <trkpt lat="48.89355" lon="0.17369">
        <ele>222</ele>
        <time>2019-04-28T10:00:03Z</time>
      </trkpt>
      <trkpt lat="48.89355" lon="0.17361">
        <ele>222</ele>
        <time>2019-04-28T10:01:29Z</time>
      </trkpt>
      <trkpt lat="48.89353" lon="0.17348">
        <ele>222</ele>
        <time>2019-04-28T10:01:29Z</time>
      </trkpt>
      <trkpt lat="48.89351" lon="0.17331">
        <ele>222</ele>
        <time>2019-04-28T10:01:29Z</time>
      </trkpt>
      <trkpt lat="48.89347" lon="0.17314">
        <ele>222</ele>
        <time>2019-04-28T10:01:29Z</time>
      </trkpt>
      <trkpt lat="48.89346" lon="0.17297">
        <ele>222</ele>
        <time>2019-04-28T10:01:29Z</time>
      </trkpt>
      <trkpt lat="48.89345" lon="0.17286">
        <ele>222</ele>
        <time>2019-04-28T10:01:29Z</time>
      </trkpt>
      <trkpt lat="48.89345" lon="0.17277">
        <ele>222</ele>
        <time>2019-04-28T10:01:29Z</time>
      </trkpt>
      <trkpt lat="48.89345" lon="0.17263">
        <ele>222</ele>
        <time>2019-04-28T10:01:29Z</time>
      </trkpt>
      <trkpt lat="48.89345" lon="0.17253">
        <ele>222</ele>
        <time>2019-04-28T10:01:29Z</time>
      </trkpt>
      <trkpt lat="48.89343" lon="0.17238">
        <ele>222</ele>
        <time>2019-04-28T10:01:29Z</time>
      </trkpt>
      <trkpt lat="48.89342" lon="0.17227">
        <ele>222</ele>
        <time>2019-04-28T10:01:29Z</time>
      </trkpt>
      <trkpt lat="48.8934" lon="0.17212">
        <ele>241</ele>
        <time>2019-04-28T10:01:38Z</time>
      </trkpt>
      <trkpt lat="48.89338" lon="0.17201">
        <ele>241</ele>
        <time>2019-04-28T10:01:43Z</time>
      </trkpt>
      <trkpt lat="48.89337" lon="0.17186">
        <ele>242</ele>
        <time>2019-04-28T10:01:53Z</time>
      </trkpt>
      <trkpt lat="48.89336" lon="0.17174">
        <ele>241</ele>
        <time>2019-04-28T10:01:58Z</time>
      </trkpt>
      <trkpt lat="48.89335" lon="0.17163">
        <ele>241</ele>
        <time>2019-04-28T10:02:03Z</time>
      </trkpt>
      <trkpt lat="48.89333" lon="0.17146">
        <ele>243</ele>
        <time>2019-04-28T10:02:13Z</time>
      </trkpt>
      <trkpt lat="48.8933" lon="0.17127">
        <ele>244</ele>
        <time>2019-04-28T10:02:23Z</time>
      </trkpt>
      <trkpt lat="48.89327" lon="0.17114">
        <ele>244</ele>
        <time>2019-04-28T10:02:28Z</time>
      </trkpt>
      <trkpt lat="48.89325" lon="0.17097">
        <ele>247</ele>
        <time>2019-04-28T10:02:38Z</time>
      </trkpt>
      <trkpt lat="48.89322" lon="0.17078">
        <ele>248</ele>
        <time>2019-04-28T10:02:48Z</time>
      </trkpt>
      <trkpt lat="48.89321" lon="0.17066">
        <ele>247</ele>
        <time>2019-04-28T10:02:53Z</time>
      </trkpt>
      <trkpt lat="48.89317" lon="0.1705">
        <ele>246</ele>
        <time>2019-04-28T10:03:03Z</time>
      </trkpt>
      <trkpt lat="48.89315" lon="0.17038">
        <ele>247</ele>
        <time>2019-04-28T10:03:08Z</time>
      </trkpt>
      <trkpt lat="48.89313" lon="0.17028">
        <ele>247</ele>
        <time>2019-04-28T10:03:13Z</time>
      </trkpt>
      <trkpt lat="48.89311" lon="0.17012">
        <ele>248</ele>
        <time>2019-04-28T10:03:23Z</time>
      </trkpt>
      <trkpt lat="48.8931" lon="0.17">
        <ele>249</ele>
        <time>2019-04-28T10:03:28Z</time>
      </trkpt>
      <trkpt lat="48.89307" lon="0.16983">
        <ele>249</ele>
        <time>2019-04-28T10:03:38Z</time>
      </trkpt>
      <trkpt lat="48.89305" lon="0.16966">
        <ele>250</ele>
        <time>2019-04-28T10:03:48Z</time>
      </trkpt>
      <trkpt lat="48.89303" lon="0.16953">
        <ele>251</ele>
        <time>2019-04-28T10:03:53Z</time>
      </trkpt>
      <trkpt lat="48.89301" lon="0.16942">
        <ele>251</ele>
        <time>2019-04-28T10:03:58Z</time>
      </trkpt>
      <trkpt lat="48.89299" lon="0.16924">
        <ele>252</ele>
        <time>2019-04-28T10:04:08Z</time>
      </trkpt>
      <trkpt lat="48.89296" lon="0.16908">
        <ele>254</ele>
        <time>2019-04-28T10:04:18Z</time>
      </trkpt>
      <trkpt lat="48.89294" lon="0.16897">
        <ele>254</ele>
        <time>2019-04-28T10:04:23Z</time>
      </trkpt>
      <trkpt lat="48.89291" lon="0.16888">
        <ele>254</ele>
        <time>2019-04-28T10:04:28Z</time>
      </trkpt>
      <trkpt lat="48.89287" lon="0.16874">
        <ele>254</ele>
        <time>2019-04-28T10:04:38Z</time>
      </trkpt>
      <trkpt lat="48.89285" lon="0.16864">
        <ele>254</ele>
        <time>2019-04-28T10:04:43Z</time>
      </trkpt>
      <trkpt lat="48.89282" lon="0.16849">
        <ele>255</ele>
        <time>2019-04-28T10:04:53Z</time>
      </trkpt>
      <trkpt lat="48.89278" lon="0.16832">
        <ele>257</ele>
        <time>2019-04-28T10:05:03Z</time>
      </trkpt>
      <trkpt lat="48.89276" lon="0.16819">
        <ele>258</ele>
        <time>2019-04-28T10:05:08Z</time>
      </trkpt>
      <trkpt lat="48.89274" lon="0.16808">
        <ele>258</ele>
        <time>2019-04-28T10:05:13Z</time>
      </trkpt>
      <trkpt lat="48.89271" lon="0.16792">
        <ele>259</ele>
        <time>2019-04-28T10:05:23Z</time>
      </trkpt>
      <trkpt lat="48.89268" lon="0.1678">
        <ele>259</ele>
        <time>2019-04-28T10:05:28Z</time>
      </trkpt>
      <trkpt lat="48.89266" lon="0.1677">
        <ele>260</ele>
        <time>2019-04-28T10:05:33Z</time>
      </trkpt>
      <trkpt lat="48.89264" lon="0.16761">
        <ele>260</ele>
        <time>2019-04-28T10:05:38Z</time>
      </trkpt>
      <trkpt lat="48.8926" lon="0.16747">
        <ele>260</ele>
        <time>2019-04-28T10:05:48Z</time>
      </trkpt>
      <trkpt lat="48.89258" lon="0.16736">
        <ele>260</ele>
        <time>2019-04-28T10:05:53Z</time>
      </trkpt>
      <trkpt lat="48.89257" lon="0.16726">
        <ele>258</ele>
        <time>2019-04-28T10:05:58Z</time>
      </trkpt>
      <trkpt lat="48.89252" lon="0.16711">
        <ele>257</ele>
        <time>2019-04-28T10:06:08Z</time>
      </trkpt>
      <trkpt lat="48.89249" lon="0.16701">
        <ele>257</ele>
        <time>2019-04-28T10:06:13Z</time>
      </trkpt>
      <trkpt lat="48.89248" lon="0.16692">
        <ele>259</ele>
        <time>2019-04-28T10:06:18Z</time>
      </trkpt>
      <trkpt lat="48.89247" lon="0.16682">
        <ele>260</ele>
        <time>2019-04-28T10:06:23Z</time>
      </trkpt>
      <trkpt lat="48.89244" lon="0.16669">
        <ele>262</ele>
        <time>2019-04-28T10:06:33Z</time>
      </trkpt>
      <trkpt lat="48.89242" lon="0.16658">
        <ele>262</ele>
        <time>2019-04-28T10:06:38Z</time>
      </trkpt>
      <trkpt lat="48.8924" lon="0.16648">
        <ele>262</ele>
        <time>2019-04-28T10:06:43Z</time>
      </trkpt>
      <trkpt lat="48.89238" lon="0.16639">
        <ele>262</ele>
        <time>2019-04-28T10:06:48Z</time>
      </trkpt>
      <trkpt lat="48.89236" lon="0.16629">
        <ele>263</ele>
        <time>2019-04-28T10:06:53Z</time>
      </trkpt>
      <trkpt lat="48.89233" lon="0.16613">
        <ele>263</ele>
        <time>2019-04-28T10:07:03Z</time>
      </trkpt>
      <trkpt lat="48.89229" lon="0.16595">
        <ele>263</ele>
        <time>2019-04-28T10:07:13Z</time>
      </trkpt>
      <trkpt lat="48.89226" lon="0.16582">
        <ele>263</ele>
        <time>2019-04-28T10:07:18Z</time>
      </trkpt>
      <trkpt lat="48.89224" lon="0.16571">
        <ele>263</ele>
        <time>2019-04-28T10:07:23Z</time>
      </trkpt>
      <trkpt lat="48.8922" lon="0.16556">
        <ele>265</ele>
        <time>2019-04-28T10:07:33Z</time>
      </trkpt>
      <trkpt lat="48.89218" lon="0.16537">
        <ele>266</ele>
        <time>2019-04-28T10:07:43Z</time>
      </trkpt>
      <trkpt lat="48.89217" lon="0.16523">
        <ele>267</ele>
        <time>2019-04-28T10:07:48Z</time>
      </trkpt>
      <trkpt lat="48.89217" lon="0.16505">
        <ele>267</ele>
        <time>2019-04-28T10:07:58Z</time>
      </trkpt>
      <trkpt lat="48.89218" lon="0.16492">
        <ele>267</ele>
        <time>2019-04-28T10:08:03Z</time>
      </trkpt>
      <trkpt lat="48.89219" lon="0.16481">
        <ele>268</ele>
        <time>2019-04-28T10:08:08Z</time>
      </trkpt>
      <trkpt lat="48.8922" lon="0.16464">
        <ele>268</ele>
        <time>2019-04-28T10:08:18Z</time>
      </trkpt>
      <trkpt lat="48.8922" lon="0.16451">
        <ele>268</ele>
        <time>2019-04-28T10:08:23Z</time>
      </trkpt>
      <trkpt lat="48.89221" lon="0.1644">
        <ele>268</ele>
        <time>2019-04-28T10:08:28Z</time>
      </trkpt>
      <trkpt lat="48.89222" lon="0.1643">
        <ele>268</ele>
        <time>2019-04-28T10:08:33Z</time>
      </trkpt>
      <trkpt lat="48.89224" lon="0.16415">
        <ele>268</ele>
        <time>2019-04-28T10:08:43Z</time>
      </trkpt>
      <trkpt lat="48.89225" lon="0.16402">
        <ele>268</ele>
        <time>2019-04-28T10:08:48Z</time>
      </trkpt>
      <trkpt lat="48.89227" lon="0.1639">
        <ele>268</ele>
        <time>2019-04-28T10:08:53Z</time>
      </trkpt>
      <trkpt lat="48.89228" lon="0.16375">
        <ele>267</ele>
        <time>2019-04-28T10:09:03Z</time>
      </trkpt>
      <trkpt lat="48.89229" lon="0.16358">
        <ele>267</ele>
        <time>2019-04-28T10:09:13Z</time>
      </trkpt>
      <trkpt lat="48.8923" lon="0.16345">
        <ele>267</ele>
        <time>2019-04-28T10:09:18Z</time>
      </trkpt>
      <trkpt lat="48.8923" lon="0.16334">
        <ele>268</ele>
        <time>2019-04-28T10:09:23Z</time>
      </trkpt>
      <trkpt lat="48.8923" lon="0.16315">
        <ele>269</ele>
        <time>2019-04-28T10:09:33Z</time>
      </trkpt>
      <trkpt lat="48.8923" lon="0.16299">
        <ele>270</ele>
        <time>2019-04-28T10:09:38Z</time>
      </trkpt>
      <trkpt lat="48.8923" lon="0.16287">
        <ele>269</ele>
        <time>2019-04-28T10:09:43Z</time>
      </trkpt>
      <trkpt lat="48.8923" lon="0.16271">
        <ele>268</ele>
        <time>2019-04-28T10:09:53Z</time>
      </trkpt>
      <trkpt lat="48.89231" lon="0.16258">
        <ele>269</ele>
        <time>2019-04-28T10:09:58Z</time>
      </trkpt>
      <trkpt lat="48.89236" lon="0.16249">
        <ele>266</ele>
        <time>2019-04-28T10:10:08Z</time>
      </trkpt>
      <trkpt lat="48.8924" lon="0.16246">
        <ele>266</ele>
        <time>2019-04-28T10:10:13Z</time>
      </trkpt>
      <trkpt lat="48.89246" lon="0.16252">
        <ele>267</ele>
        <time>2019-04-28T10:10:23Z</time>
      </trkpt>
      <trkpt lat="48.8925" lon="0.16256">
        <ele>267</ele>
        <time>2019-04-28T10:10:28Z</time>
      </trkpt>
      <trkpt lat="48.89259" lon="0.16267">
        <ele>268</ele>
        <time>2019-04-28T10:10:38Z</time>
      </trkpt>
      <trkpt lat="48.89267" lon="0.16277">
        <ele>268</ele>
        <time>2019-04-28T10:10:43Z</time>
      </trkpt>
      <trkpt lat="48.89276" lon="0.16288">
        <ele>269</ele>
        <time>2019-04-28T10:10:53Z</time>
      </trkpt>
      <trkpt lat="48.89282" lon="0.16298">
        <ele>270</ele>
        <time>2019-04-28T10:10:58Z</time>
      </trkpt>
      <trkpt lat="48.89292" lon="0.1631">
        <ele>270</ele>
        <time>2019-04-28T10:11:08Z</time>
      </trkpt>
      <trkpt lat="48.89301" lon="0.16318">
        <ele>269</ele>
        <time>2019-04-28T10:11:13Z</time>
      </trkpt>
      <trkpt lat="48.89311" lon="0.16327">
        <ele>265</ele>
        <time>2019-04-28T10:11:23Z</time>
      </trkpt>
      <trkpt lat="48.89319" lon="0.16334">
        <ele>264</ele>
        <time>2019-04-28T10:11:28Z</time>
      </trkpt>
      <trkpt lat="48.89328" lon="0.16343">
        <ele>263</ele>
        <time>2019-04-28T10:11:38Z</time>
      </trkpt>
      <trkpt lat="48.89337" lon="0.16352">
        <ele>262</ele>
        <time>2019-04-28T10:11:48Z</time>
      </trkpt>
      <trkpt lat="48.89348" lon="0.16361">
        <ele>260</ele>
        <time>2019-04-28T10:11:58Z</time>
      </trkpt>
      <trkpt lat="48.89359" lon="0.16369">
        <ele>262</ele>
        <time>2019-04-28T10:12:08Z</time>
      </trkpt>
      <trkpt lat="48.89371" lon="0.16375">
        <ele>262</ele>
        <time>2019-04-28T10:12:18Z</time>
      </trkpt>
      <trkpt lat="48.8938" lon="0.16379">
        <ele>262</ele>
        <time>2019-04-28T10:12:23Z</time>
      </trkpt>
      <trkpt lat="48.89392" lon="0.16383">
        <ele>261</ele>
        <time>2019-04-28T10:12:33Z</time>
      </trkpt>
      <trkpt lat="48.89399" lon="0.16385">
        <ele>261</ele>
        <time>2019-04-28T10:12:38Z</time>
      </trkpt>
      <trkpt lat="48.8941" lon="0.16387">
        <ele>262</ele>
        <time>2019-04-28T10:12:48Z</time>
      </trkpt>
      <trkpt lat="48.89421" lon="0.16389">
        <ele>262</ele>
        <time>2019-04-28T10:12:58Z</time>
      </trkpt>
      <trkpt lat="48.89431" lon="0.16394">
        <ele>263</ele>
        <time>2019-04-28T10:13:03Z</time>
      </trkpt>
      <trkpt lat="48.89438" lon="0.16396">
        <ele>265</ele>
        <time>2019-04-28T10:13:13Z</time>
      </trkpt>
      <trkpt lat="48.89443" lon="0.16398">
        <ele>267</ele>
        <time>2019-04-28T10:13:18Z</time>
      </trkpt>
      <trkpt lat="48.89459" lon="0.16402">
        <ele>266</ele>
        <time>2019-04-28T10:13:28Z</time>
      </trkpt>
      <trkpt lat="48.89476" lon="0.16403">
        <ele>265</ele>
        <time>2019-04-28T10:13:38Z</time>
      </trkpt>
      <trkpt lat="48.89486" lon="0.16405">
        <ele>264</ele>
        <time>2019-04-28T10:13:43Z</time>
      </trkpt>
      <trkpt lat="48.89498" lon="0.16407">
        <ele>261</ele>
        <time>2019-04-28T10:13:53Z</time>
      </trkpt>
      <trkpt lat="48.89509" lon="0.1641">
        <ele>263</ele>
        <time>2019-04-28T10:13:58Z</time>
      </trkpt>
      <trkpt lat="48.89521" lon="0.16412">
        <ele>266</ele>
        <time>2019-04-28T10:14:08Z</time>
      </trkpt>
      <trkpt lat="48.89531" lon="0.16413">
        <ele>268</ele>
        <time>2019-04-28T10:14:18Z</time>
      </trkpt>
      <trkpt lat="48.89544" lon="0.16413">
        <ele>268</ele>
        <time>2019-04-28T10:14:28Z</time>
      </trkpt>
      <trkpt lat="48.89557" lon="0.16414">
        <ele>269</ele>
        <time>2019-04-28T10:14:33Z</time>
      </trkpt>
      <trkpt lat="48.89563" lon="0.16415">
        <ele>270</ele>
        <time>2019-04-28T10:14:38Z</time>
      </trkpt>
      <trkpt lat="48.89568" lon="0.16416">
        <ele>270</ele>
        <time>2019-04-28T10:14:43Z</time>
      </trkpt>
      <trkpt lat="48.89579" lon="0.1642">
        <ele>271</ele>
        <time>2019-04-28T10:14:53Z</time>
      </trkpt>
      <trkpt lat="48.89592" lon="0.16423">
        <ele>273</ele>
        <time>2019-04-28T10:15:03Z</time>
      </trkpt>
      <trkpt lat="48.89604" lon="0.16426">
        <ele>273</ele>
        <time>2019-04-28T10:15:08Z</time>
      </trkpt>
      <trkpt lat="48.89615" lon="0.1643">
        <ele>273</ele>
        <time>2019-04-28T10:15:18Z</time>
      </trkpt>
      <trkpt lat="48.89625" lon="0.1643">
        <ele>274</ele>
        <time>2019-04-28T10:15:23Z</time>
      </trkpt>
      <trkpt lat="48.89634" lon="0.16429">
        <ele>273</ele>
        <time>2019-04-28T10:15:33Z</time>
      </trkpt>
      <trkpt lat="48.89643" lon="0.16425">
        <ele>271</ele>
        <time>2019-04-28T10:15:43Z</time>
      </trkpt>
      <trkpt lat="48.89649" lon="0.16422">
        <ele>271</ele>
        <time>2019-04-28T10:15:48Z</time>
      </trkpt>
      <trkpt lat="48.89658" lon="0.16417">
        <ele>268</ele>
        <time>2019-04-28T10:15:58Z</time>
      </trkpt>
      <trkpt lat="48.89665" lon="0.16413">
        <ele>268</ele>
        <time>2019-04-28T10:16:03Z</time>
      </trkpt>
      <trkpt lat="48.89668" lon="0.16411">
        <ele>268</ele>
        <time>2019-04-28T10:16:08Z</time>
      </trkpt>
      <trkpt lat="48.89672" lon="0.16409">
        <ele>269</ele>
        <time>2019-04-28T10:16:13Z</time>
      </trkpt>
      <trkpt lat="48.8968" lon="0.16405">
        <ele>268</ele>
        <time>2019-04-28T10:16:18Z</time>
      </trkpt>
      <trkpt lat="48.89686" lon="0.16402">
        <ele>267</ele>
        <time>2019-04-28T10:16:23Z</time>
      </trkpt>
      <trkpt lat="48.89695" lon="0.16398">
        <ele>267</ele>
        <time>2019-04-28T10:16:33Z</time>
      </trkpt>
      <trkpt lat="48.89701" lon="0.16395">
        <ele>267</ele>
        <time>2019-04-28T10:16:43Z</time>
      </trkpt>
      <trkpt lat="48.89708" lon="0.16392">
        <ele>267</ele>
        <time>2019-04-28T10:16:48Z</time>
      </trkpt>
      <trkpt lat="48.89725" lon="0.16382">
        <ele>267</ele>
        <time>2019-04-28T10:16:58Z</time>
      </trkpt>
      <trkpt lat="48.89736" lon="0.16375">
        <ele>266</ele>
        <time>2019-04-28T10:17:03Z</time>
      </trkpt>
      <trkpt lat="48.89743" lon="0.16371">
        <ele>264</ele>
        <time>2019-04-28T10:17:08Z</time>
      </trkpt>
      <trkpt lat="48.89752" lon="0.16366">
        <ele>263</ele>
        <time>2019-04-28T10:17:13Z</time>
      </trkpt>
      <trkpt lat="48.89757" lon="0.16363">
        <ele>264</ele>
        <time>2019-04-28T10:17:18Z</time>
      </trkpt>
      <trkpt lat="48.8976" lon="0.16361">
        <ele>263</ele>
        <time>2019-04-28T10:17:28Z</time>
      </trkpt>
      <trkpt lat="48.89764" lon="0.16359">
        <ele>261</ele>
        <time>2019-04-28T10:17:33Z</time>
      </trkpt>
      <trkpt lat="48.89775" lon="0.16356">
        <ele>261</ele>
        <time>2019-04-28T10:17:38Z</time>
      </trkpt>
      <trkpt lat="48.89782" lon="0.16354">
        <ele>261</ele>
        <time>2019-04-28T10:17:48Z</time>
      </trkpt>
      <trkpt lat="48.89789" lon="0.1635">
        <ele>261</ele>
        <time>2019-04-28T10:17:58Z</time>
      </trkpt>
      <trkpt lat="48.89795" lon="0.16346">
        <ele>260</ele>
        <time>2019-04-28T10:18:03Z</time>
      </trkpt>
      <trkpt lat="48.89802" lon="0.1634">
        <ele>260</ele>
        <time>2019-04-28T10:18:08Z</time>
      </trkpt>
      <trkpt lat="48.89808" lon="0.16334">
        <ele>260</ele>
        <time>2019-04-28T10:18:18Z</time>
      </trkpt>
      <trkpt lat="48.8982" lon="0.16321">
        <ele>260</ele>
        <time>2019-04-28T10:18:28Z</time>
      </trkpt>
      <trkpt lat="48.89827" lon="0.16312">
        <ele>260</ele>
        <time>2019-04-28T10:18:38Z</time>
      </trkpt>
      <trkpt lat="48.8983" lon="0.16309">
        <ele>260</ele>
        <time>2019-04-28T10:18:43Z</time>
      </trkpt>
      <trkpt lat="48.89833" lon="0.16305">
        <ele>258</ele>
        <time>2019-04-28T10:18:53Z</time>
      </trkpt>
      <trkpt lat="48.89836" lon="0.16301">
        <ele>256</ele>
        <time>2019-04-28T10:18:58Z</time>
      </trkpt>
      <trkpt lat="48.8984" lon="0.16296">
        <ele>256</ele>
        <time>2019-04-28T10:19:03Z</time>
      </trkpt>
      <trkpt lat="48.89845" lon="0.16292">
        <ele>254</ele>
        <time>2019-04-28T10:19:13Z</time>
      </trkpt>
      <trkpt lat="48.89851" lon="0.16287">
        <ele>251</ele>
        <time>2019-04-28T10:19:23Z</time>
      </trkpt>
      <trkpt lat="48.89863" lon="0.1628">
        <ele>249</ele>
        <time>2019-04-28T10:19:33Z</time>
      </trkpt>
      <trkpt lat="48.89868" lon="0.16277">
        <ele>247</ele>
        <time>2019-04-28T10:19:38Z</time>
      </trkpt>
      <trkpt lat="48.89875" lon="0.16271">
        <ele>241</ele>
        <time>2019-04-28T10:19:48Z</time>
      </trkpt>
      <trkpt lat="48.89879" lon="0.16267">
        <ele>239</ele>
        <time>2019-04-28T10:19:53Z</time>
      </trkpt>
      <trkpt lat="48.89884" lon="0.16262">
        <ele>236</ele>
        <time>2019-04-28T10:20:03Z</time>
      </trkpt>
      <trkpt lat="48.89888" lon="0.1626">
        <ele>234</ele>
        <time>2019-04-28T10:20:08Z</time>
      </trkpt>
      <trkpt lat="48.89894" lon="0.16258">
        <ele>232</ele>
        <time>2019-04-28T10:20:13Z</time>
      </trkpt>
      <trkpt lat="48.89901" lon="0.16254">
        <ele>230</ele>
        <time>2019-04-28T10:20:18Z</time>
      </trkpt>
      <trkpt lat="48.8991" lon="0.16251">
        <ele>227</ele>
        <time>2019-04-28T10:20:23Z</time>
      </trkpt>
      <trkpt lat="48.89917" lon="0.16248">
        <ele>225</ele>
        <time>2019-04-28T10:20:28Z</time>
      </trkpt>
      <trkpt lat="48.89927" lon="0.16243">
        <ele>221</ele>
        <time>2019-04-28T10:20:38Z</time>
      </trkpt>
      <trkpt lat="48.89934" lon="0.16239">
        <ele>220</ele>
        <time>2019-04-28T10:20:43Z</time>
      </trkpt>
      <trkpt lat="48.89944" lon="0.16234">
        <ele>217</ele>
        <time>2019-04-28T10:20:53Z</time>
      </trkpt>
      <trkpt lat="48.89953" lon="0.1623">
        <ele>218</ele>
        <time>2019-04-28T10:20:58Z</time>
      </trkpt>
      <trkpt lat="48.89961" lon="0.16227">
        <ele>217</ele>
        <time>2019-04-28T10:21:03Z</time>
      </trkpt>
      <trkpt lat="48.89975" lon="0.16225">
        <ele>216</ele>
        <time>2019-04-28T10:21:13Z</time>
      </trkpt>
      <trkpt lat="48.89986" lon="0.16229">
        <ele>210</ele>
        <time>2019-04-28T10:21:23Z</time>
      </trkpt>
      <trkpt lat="48.89995" lon="0.1624">
        <ele>203</ele>
        <time>2019-04-28T10:21:33Z</time>
      </trkpt>
      <trkpt lat="48.90005" lon="0.16253">
        <ele>199</ele>
        <time>2019-04-28T10:21:43Z</time>
      </trkpt>
      <trkpt lat="48.90012" lon="0.16262">
        <ele>198</ele>
        <time>2019-04-28T10:21:48Z</time>
      </trkpt>
      <trkpt lat="48.9002" lon="0.16271">
        <ele>196</ele>
        <time>2019-04-28T10:21:58Z</time>
      </trkpt>
      <trkpt lat="48.90027" lon="0.16277">
        <ele>196</ele>
        <time>2019-04-28T10:22:03Z</time>
      </trkpt>
      <trkpt lat="48.90038" lon="0.16289">
        <ele>196</ele>
        <time>2019-04-28T10:22:13Z</time>
      </trkpt>
      <trkpt lat="48.90047" lon="0.16295">
        <ele>195</ele>
        <time>2019-04-28T10:22:18Z</time>
      </trkpt>
      <trkpt lat="48.90053" lon="0.16298">
        <ele>195</ele>
        <time>2019-04-28T10:22:23Z</time>
      </trkpt>
      <trkpt lat="48.90061" lon="0.16287">
        <ele>199</ele>
        <time>2019-04-28T10:22:33Z</time>
      </trkpt>
      <trkpt lat="48.90066" lon="0.16277">
        <ele>199</ele>
        <time>2019-04-28T10:22:38Z</time>
      </trkpt>
      <trkpt lat="48.9007" lon="0.16263">
        <ele>199</ele>
        <time>2019-04-28T10:22:48Z</time>
      </trkpt>
      <trkpt lat="48.90073" lon="0.1625">
        <ele>199</ele>
        <time>2019-04-28T10:22:53Z</time>
      </trkpt>
      <trkpt lat="48.90079" lon="0.16236">
        <ele>199</ele>
        <time>2019-04-28T10:23:03Z</time>
      </trkpt>
      <trkpt lat="48.90086" lon="0.16221">
        <ele>198</ele>
        <time>2019-04-28T10:23:13Z</time>
      </trkpt>
      <trkpt lat="48.90091" lon="0.16206">
        <ele>198</ele>
        <time>2019-04-28T10:23:18Z</time>
      </trkpt>
      <trkpt lat="48.90096" lon="0.16188">
        <ele>200</ele>
        <time>2019-04-28T10:23:28Z</time>
      </trkpt>
      <trkpt lat="48.901" lon="0.16175">
        <ele>201</ele>
        <time>2019-04-28T10:23:33Z</time>
      </trkpt>
      <trkpt lat="48.90106" lon="0.16159">
        <ele>203</ele>
        <time>2019-04-28T10:23:43Z</time>
      </trkpt>
      <trkpt lat="48.90117" lon="0.16151">
        <ele>202</ele>
        <time>2019-04-28T10:23:53Z</time>
      </trkpt>
      <trkpt lat="48.90125" lon="0.16147">
        <ele>200</ele>
        <time>2019-04-28T10:23:58Z</time>
      </trkpt>
      <trkpt lat="48.90132" lon="0.16146">
        <ele>199</ele>
        <time>2019-04-28T10:24:03Z</time>
      </trkpt>
      <trkpt lat="48.90143" lon="0.16145">
        <ele>198</ele>
        <time>2019-04-28T10:24:13Z</time>
      </trkpt>
      <trkpt lat="48.90152" lon="0.16144">
        <ele>196</ele>
        <time>2019-04-28T10:24:18Z</time>
      </trkpt>
      <trkpt lat="48.90164" lon="0.16147">
        <ele>197</ele>
        <time>2019-04-28T10:24:28Z</time>
      </trkpt>
      <trkpt lat="48.90173" lon="0.16153">
        <ele>194</ele>
        <time>2019-04-28T10:24:38Z</time>
      </trkpt>
      <trkpt lat="48.9018" lon="0.1616">
        <ele>194</ele>
        <time>2019-04-28T10:24:43Z</time>
      </trkpt>
      <trkpt lat="48.90185" lon="0.16167">
        <ele>193</ele>
        <time>2019-04-28T10:24:48Z</time>
      </trkpt>
      <trkpt lat="48.90191" lon="0.16181">
        <ele>192</ele>
        <time>2019-04-28T10:24:58Z</time>
      </trkpt>
      <trkpt lat="48.90194" lon="0.1619">
        <ele>192</ele>
        <time>2019-04-28T10:25:03Z</time>
      </trkpt>
      <trkpt lat="48.90199" lon="0.16205">
        <ele>195</ele>
        <time>2019-04-28T10:25:13Z</time>
      </trkpt>
      <trkpt lat="48.90202" lon="0.16217">
        <ele>196</ele>
        <time>2019-04-28T10:25:18Z</time>
      </trkpt>
      <trkpt lat="48.90206" lon="0.16227">
        <ele>196</ele>
        <time>2019-04-28T10:25:23Z</time>
      </trkpt>
      <trkpt lat="48.9021" lon="0.16236">
        <ele>197</ele>
        <time>2019-04-28T10:25:28Z</time>
      </trkpt>
      <trkpt lat="48.90213" lon="0.16245">
        <ele>198</ele>
        <time>2019-04-28T10:25:33Z</time>
      </trkpt>
      <trkpt lat="48.90216" lon="0.16253">
        <ele>201</ele>
        <time>2019-04-28T10:25:38Z</time>
      </trkpt>
      <trkpt lat="48.90223" lon="0.16267">
        <ele>205</ele>
        <time>2019-04-28T10:25:48Z</time>
      </trkpt>
      <trkpt lat="48.90231" lon="0.16281">
        <ele>205</ele>
        <time>2019-04-28T10:25:58Z</time>
      </trkpt>
      <trkpt lat="48.90241" lon="0.16293">
        <ele>203</ele>
        <time>2019-04-28T10:26:08Z</time>
      </trkpt>
      <trkpt lat="48.90252" lon="0.16306">
        <ele>203</ele>
        <time>2019-04-28T10:26:18Z</time>
      </trkpt>
      <trkpt lat="48.90259" lon="0.16312">
        <ele>204</ele>
        <time>2019-04-28T10:26:23Z</time>
      </trkpt>
      <trkpt lat="48.90267" lon="0.16316">
        <ele>205</ele>
        <time>2019-04-28T10:26:28Z</time>
      </trkpt>
      <trkpt lat="48.90278" lon="0.16318">
        <ele>207</ele>
        <time>2019-04-28T10:26:38Z</time>
      </trkpt>
      <trkpt lat="48.90285" lon="0.16319">
        <ele>209</ele>
        <time>2019-04-28T10:26:43Z</time>
      </trkpt>
      <trkpt lat="48.90295" lon="0.16321">
        <ele>210</ele>
        <time>2019-04-28T10:26:53Z</time>
      </trkpt>
      <trkpt lat="48.90306" lon="0.16324">
        <ele>210</ele>
        <time>2019-04-28T10:27:03Z</time>
      </trkpt>
      <trkpt lat="48.90314" lon="0.16325">
        <ele>210</ele>
        <time>2019-04-28T10:27:08Z</time>
      </trkpt>
      <trkpt lat="48.90326" lon="0.16324">
        <ele>212</ele>
        <time>2019-04-28T10:27:18Z</time>
      </trkpt>
      <trkpt lat="48.90338" lon="0.16324">
        <ele>215</ele>
        <time>2019-04-28T10:27:28Z</time>
      </trkpt>
      <trkpt lat="48.90351" lon="0.16325">
        <ele>216</ele>
        <time>2019-04-28T10:27:38Z</time>
      </trkpt>
      <trkpt lat="48.9036" lon="0.16325">
        <ele>215</ele>
        <time>2019-04-28T10:27:43Z</time>
      </trkpt>
      <trkpt lat="48.90372" lon="0.16325">
        <ele>214</ele>
        <time>2019-04-28T10:27:53Z</time>
      </trkpt>
      <trkpt lat="48.90381" lon="0.16326">
        <ele>215</ele>
        <time>2019-04-28T10:27:58Z</time>
      </trkpt>
      <trkpt lat="48.90389" lon="0.16325">
        <ele>216</ele>
        <time>2019-04-28T10:28:03Z</time>
      </trkpt>
      <trkpt lat="48.90396" lon="0.16325">
        <ele>216</ele>
        <time>2019-04-28T10:28:08Z</time>
      </trkpt>
      <trkpt lat="48.90403" lon="0.16325">
        <ele>216</ele>
        <time>2019-04-28T10:28:13Z</time>
      </trkpt>
      <trkpt lat="48.90413" lon="0.16324">
        <ele>217</ele>
        <time>2019-04-28T10:28:23Z</time>
      </trkpt>
      <trkpt lat="48.9042" lon="0.16324">
        <ele>217</ele>
        <time>2019-04-28T10:28:28Z</time>
      </trkpt>
      <trkpt lat="48.90431" lon="0.16324">
        <ele>219</ele>
        <time>2019-04-28T10:28:38Z</time>
      </trkpt>
      <trkpt lat="48.90439" lon="0.16324">
        <ele>219</ele>
        <time>2019-04-28T10:28:43Z</time>
      </trkpt>
      <trkpt lat="48.9045" lon="0.16324">
        <ele>221</ele>
        <time>2019-04-28T10:28:53Z</time>
      </trkpt>
      <trkpt lat="48.90459" lon="0.16324">
        <ele>221</ele>
        <time>2019-04-28T10:28:58Z</time>
      </trkpt>
      <trkpt lat="48.9047" lon="0.16324">
        <ele>223</ele>
        <time>2019-04-28T10:29:08Z</time>
      </trkpt>
      <trkpt lat="48.90478" lon="0.16323">
        <ele>223</ele>
        <time>2019-04-28T10:29:13Z</time>
      </trkpt>
      <trkpt lat="48.90489" lon="0.16321">
        <ele>224</ele>
        <time>2019-04-28T10:29:23Z</time>
      </trkpt>
      <trkpt lat="48.90498" lon="0.16319">
        <ele>226</ele>
        <time>2019-04-28T10:29:28Z</time>
      </trkpt>
      <trkpt lat="48.90509" lon="0.16311">
        <ele>230</ele>
        <time>2019-04-28T10:29:38Z</time>
      </trkpt>
      <trkpt lat="48.90516" lon="0.16303">
        <ele>231</ele>
        <time>2019-04-28T10:29:43Z</time>
      </trkpt>
      <trkpt lat="48.90524" lon="0.16291">
        <ele>232</ele>
        <time>2019-04-28T10:29:53Z</time>
      </trkpt>
      <trkpt lat="48.90529" lon="0.16284">
        <ele>232</ele>
        <time>2019-04-28T10:30:03Z</time>
      </trkpt>
      <trkpt lat="48.90531" lon="0.1628">
        <ele>232</ele>
        <time>2019-04-28T10:30:08Z</time>
      </trkpt>
      <trkpt lat="48.90531" lon="0.16279">
        <ele>232</ele>
        <time>2019-04-28T10:30:13Z</time>
      </trkpt>
      <trkpt lat="48.90532" lon="0.16278">
        <ele>232</ele>
        <time>2019-04-28T10:30:23Z</time>
      </trkpt>
      <trkpt lat="48.90532" lon="0.16278">
        <ele>232</ele>
        <time>2019-04-28T10:30:28Z</time>
      </trkpt>
      <trkpt lat="48.90532" lon="0.16278">
        <ele>231</ele>
        <time>2019-04-28T10:30:38Z</time>
      </trkpt>
      <trkpt lat="48.90533" lon="0.16279">
        <ele>231</ele>
        <time>2019-04-28T10:30:48Z</time>
      </trkpt>
      <trkpt lat="48.90533" lon="0.16279">
        <ele>231</ele>
        <time>2019-04-28T10:30:58Z</time>
      </trkpt>
      <trkpt lat="48.90534" lon="0.1628">
        <ele>231</ele>
        <time>2019-04-28T10:31:08Z</time>
      </trkpt>
      <trkpt lat="48.90541" lon="0.16294">
        <ele>230</ele>
        <time>2019-04-28T10:31:18Z</time>
      </trkpt>
      <trkpt lat="48.90547" lon="0.16304">
        <ele>231</ele>
        <time>2019-04-28T10:31:23Z</time>
      </trkpt>
      <trkpt lat="48.90555" lon="0.16317">
        <ele>229</ele>
        <time>2019-04-28T10:31:33Z</time>
      </trkpt>
      <trkpt lat="48.90562" lon="0.1633">
        <ele>226</ele>
        <time>2019-04-28T10:31:43Z</time>
      </trkpt>
      <trkpt lat="48.90568" lon="0.1634">
        <ele>226</ele>
        <time>2019-04-28T10:31:48Z</time>
      </trkpt>
      <trkpt lat="48.90575" lon="0.16356">
        <ele>225</ele>
        <time>2019-04-28T10:31:58Z</time>
      </trkpt>
      <trkpt lat="48.9058" lon="0.16365">
        <ele>224</ele>
        <time>2019-04-28T10:32:03Z</time>
      </trkpt>
      <trkpt lat="48.90585" lon="0.16376">
        <ele>224</ele>
        <time>2019-04-28T10:32:08Z</time>
      </trkpt>
      <trkpt lat="48.90594" lon="0.16391">
        <ele>222</ele>
        <time>2019-04-28T10:32:18Z</time>
      </trkpt>
      <trkpt lat="48.90606" lon="0.16404">
        <ele>220</ele>
        <time>2019-04-28T10:32:28Z</time>
      </trkpt>
      <trkpt lat="48.90616" lon="0.16409">
        <ele>219</ele>
        <time>2019-04-28T10:32:38Z</time>
      </trkpt>
      <trkpt lat="48.90623" lon="0.1641">
        <ele>218</ele>
        <time>2019-04-28T10:32:43Z</time>
      </trkpt>
      <trkpt lat="48.90629" lon="0.1641">
        <ele>218</ele>
        <time>2019-04-28T10:32:48Z</time>
      </trkpt>
      <trkpt lat="48.90632" lon="0.1641">
        <ele>218</ele>
        <time>2019-04-28T10:32:58Z</time>
      </trkpt>
      <trkpt lat="48.90634" lon="0.16409">
        <ele>218</ele>
        <time>2019-04-28T10:33:03Z</time>
      </trkpt>
      <trkpt lat="48.90635" lon="0.16409">
        <ele>218</ele>
        <time>2019-04-28T10:33:08Z</time>
      </trkpt>
      <trkpt lat="48.90635" lon="0.16409">
        <ele>218</ele>
        <time>2019-04-28T10:33:18Z</time>
      </trkpt>
      <trkpt lat="48.9064" lon="0.16402">
        <ele>217</ele>
        <time>2019-04-28T10:33:28Z</time>
      </trkpt>
      <trkpt lat="48.90647" lon="0.1639">
        <ele>213</ele>
        <time>2019-04-28T10:33:38Z</time>
      </trkpt>
      <trkpt lat="48.90651" lon="0.16384">
        <ele>211</ele>
        <time>2019-04-28T10:33:43Z</time>
      </trkpt>
      <trkpt lat="48.90654" lon="0.16376">
        <ele>211</ele>
        <time>2019-04-28T10:33:48Z</time>
      </trkpt>
      <trkpt lat="48.90658" lon="0.16368">
        <ele>211</ele>
        <time>2019-04-28T10:33:57Z</time>
      </trkpt>
      <trkpt lat="48.90671" lon="0.16356">
        <ele>210</ele>
        <time>2019-04-28T10:34:07Z</time>
      </trkpt>
      <trkpt lat="48.90681" lon="0.16349">
        <ele>209</ele>
        <time>2019-04-28T10:34:12Z</time>
      </trkpt>
      <trkpt lat="48.90689" lon="0.16346">
        <ele>210</ele>
        <time>2019-04-28T10:34:17Z</time>
      </trkpt>
      <trkpt lat="48.90699" lon="0.16342">
        <ele>209</ele>
        <time>2019-04-28T10:34:27Z</time>
      </trkpt>
      <trkpt lat="48.90706" lon="0.1634">
        <ele>208</ele>
        <time>2019-04-28T10:34:38Z</time>
      </trkpt>
      <trkpt lat="48.90716" lon="0.16338">
        <ele>207</ele>
        <time>2019-04-28T10:34:42Z</time>
      </trkpt>
      <trkpt lat="48.90724" lon="0.16336">
        <ele>207</ele>
        <time>2019-04-28T10:34:52Z</time>
      </trkpt>
      <trkpt lat="48.90743" lon="0.16327">
        <ele>208</ele>
        <time>2019-04-28T10:35:02Z</time>
      </trkpt>
      <trkpt lat="48.90751" lon="0.16324">
        <ele>209</ele>
        <time>2019-04-28T10:35:07Z</time>
      </trkpt>
      <trkpt lat="48.90758" lon="0.16315">
        <ele>212</ele>
        <time>2019-04-28T10:35:17Z</time>
      </trkpt>
      <trkpt lat="48.90765" lon="0.16302">
        <ele>211</ele>
        <time>2019-04-28T10:35:27Z</time>
      </trkpt>
      <trkpt lat="48.90771" lon="0.16283">
        <ele>211</ele>
        <time>2019-04-28T10:35:37Z</time>
      </trkpt>
      <trkpt lat="48.90778" lon="0.16267">
        <ele>210</ele>
        <time>2019-04-28T10:35:47Z</time>
      </trkpt>
      <trkpt lat="48.90785" lon="0.16266">
        <ele>210</ele>
        <time>2019-04-28T10:35:57Z</time>
      </trkpt>
      <trkpt lat="48.90794" lon="0.1628">
        <ele>213</ele>
        <time>2019-04-28T10:36:02Z</time>
      </trkpt>
      <trkpt lat="48.908" lon="0.16289">
        <ele>213</ele>
        <time>2019-04-28T10:36:12Z</time>
      </trkpt>
      <trkpt lat="48.90803" lon="0.16296">
        <ele>213</ele>
        <time>2019-04-28T10:36:17Z</time>
      </trkpt>
      <trkpt lat="48.90807" lon="0.16306">
        <ele>214</ele>
        <time>2019-04-28T10:36:27Z</time>
      </trkpt>
      <trkpt lat="48.90809" lon="0.16321">
        <ele>216</ele>
        <time>2019-04-28T10:36:37Z</time>
      </trkpt>
      <trkpt lat="48.90809" lon="0.16332">
        <ele>218</ele>
        <time>2019-04-28T10:36:47Z</time>
      </trkpt>
      <trkpt lat="48.90804" lon="0.16359">
        <ele>220</ele>
        <time>2019-04-28T10:36:57Z</time>
      </trkpt>
      <trkpt lat="48.90799" lon="0.1638">
        <ele>220</ele>
        <time>2019-04-28T10:37:07Z</time>
      </trkpt>
      <trkpt lat="48.90797" lon="0.1639">
        <ele>217</ele>
        <time>2019-04-28T10:37:12Z</time>
      </trkpt>
      <trkpt lat="48.90794" lon="0.16402">
        <ele>218</ele>
        <time>2019-04-28T10:37:22Z</time>
      </trkpt>
      <trkpt lat="48.90792" lon="0.16413">
        <ele>218</ele>
        <time>2019-04-28T10:37:27Z</time>
      </trkpt>
      <trkpt lat="48.9079" lon="0.1643">
        <ele>218</ele>
        <time>2019-04-28T10:37:37Z</time>
      </trkpt>
      <trkpt lat="48.9079" lon="0.16443">
        <ele>219</ele>
        <time>2019-04-28T10:37:42Z</time>
      </trkpt>
      <trkpt lat="48.90791" lon="0.16457">
        <ele>219</ele>
        <time>2019-04-28T10:37:47Z</time>
      </trkpt>
      <trkpt lat="48.90795" lon="0.16469">
        <ele>220</ele>
        <time>2019-04-28T10:37:57Z</time>
      </trkpt>
      <trkpt lat="48.90798" lon="0.16476">
        <ele>220</ele>
        <time>2019-04-28T10:38:02Z</time>
      </trkpt>
      <trkpt lat="48.90803" lon="0.16484">
        <ele>222</ele>
        <time>2019-04-28T10:38:12Z</time>
      </trkpt>
      <trkpt lat="48.90811" lon="0.16492">
        <ele>223</ele>
        <time>2019-04-28T10:38:22Z</time>
      </trkpt>
      <trkpt lat="48.90818" lon="0.16498">
        <ele>223</ele>
        <time>2019-04-28T10:38:27Z</time>
      </trkpt>
      <trkpt lat="48.90825" lon="0.16504">
        <ele>223</ele>
        <time>2019-04-28T10:38:32Z</time>
      </trkpt>
      <trkpt lat="48.90836" lon="0.16514">
        <ele>225</ele>
        <time>2019-04-28T10:38:42Z</time>
      </trkpt>
      <trkpt lat="48.90844" lon="0.16522">
        <ele>225</ele>
        <time>2019-04-28T10:38:52Z</time>
      </trkpt>
      <trkpt lat="48.9085" lon="0.16527">
        <ele>226</ele>
        <time>2019-04-28T10:38:57Z</time>
      </trkpt>
      <trkpt lat="48.90858" lon="0.16535">
        <ele>226</ele>
        <time>2019-04-28T10:39:02Z</time>
      </trkpt>
      <trkpt lat="48.90868" lon="0.16549">
        <ele>230</ele>
        <time>2019-04-28T10:39:12Z</time>
      </trkpt>
      <trkpt lat="48.90876" lon="0.16564">
        <ele>233</ele>
        <time>2019-04-28T10:39:22Z</time>
      </trkpt>
      <trkpt lat="48.90882" lon="0.16575">
        <ele>234</ele>
        <time>2019-04-28T10:39:27Z</time>
      </trkpt>
      <trkpt lat="48.90887" lon="0.16588">
        <ele>234</ele>
        <time>2019-04-28T10:39:37Z</time>
      </trkpt>
      <trkpt lat="48.9089" lon="0.16597">
        <ele>233</ele>
        <time>2019-04-28T10:39:42Z</time>
      </trkpt>
      <trkpt lat="48.90893" lon="0.16613">
        <ele>232</ele>
        <time>2019-04-28T10:39:52Z</time>
      </trkpt>
      <trkpt lat="48.90896" lon="0.16625">
        <ele>233</ele>
        <time>2019-04-28T10:39:57Z</time>
      </trkpt>
      <trkpt lat="48.90899" lon="0.16637">
        <ele>232</ele>
        <time>2019-04-28T10:40:02Z</time>
      </trkpt>
      <trkpt lat="48.90904" lon="0.16648">
        <ele>235</ele>
        <time>2019-04-28T10:40:12Z</time>
      </trkpt>
      <trkpt lat="48.90907" lon="0.16654">
        <ele>235</ele>
        <time>2019-04-28T10:40:17Z</time>
      </trkpt>
      <trkpt lat="48.90911" lon="0.16658">
        <ele>236</ele>
        <time>2019-04-28T10:40:22Z</time>
      </trkpt>
      <trkpt lat="48.90919" lon="0.16661">
        <ele>236</ele>
        <time>2019-04-28T10:40:32Z</time>
      </trkpt>
      <trkpt lat="48.90929" lon="0.16661">
        <ele>236</ele>
        <time>2019-04-28T10:40:42Z</time>
      </trkpt>
      <trkpt lat="48.90936" lon="0.16658">
        <ele>237</ele>
        <time>2019-04-28T10:40:47Z</time>
      </trkpt>
      <trkpt lat="48.90941" lon="0.16654">
        <ele>239</ele>
        <time>2019-04-28T10:40:52Z</time>
      </trkpt>
      <trkpt lat="48.90946" lon="0.16649">
        <ele>241</ele>
        <time>2019-04-28T10:40:57Z</time>
      </trkpt>
      <trkpt lat="48.90955" lon="0.16638">
        <ele>243</ele>
        <time>2019-04-28T10:41:07Z</time>
      </trkpt>
      <trkpt lat="48.90964" lon="0.16625">
        <ele>246</ele>
        <time>2019-04-28T10:41:17Z</time>
      </trkpt>
      <trkpt lat="48.90974" lon="0.16614">
        <ele>248</ele>
        <time>2019-04-28T10:41:27Z</time>
      </trkpt>
      <trkpt lat="48.90979" lon="0.16608">
        <ele>247</ele>
        <time>2019-04-28T10:41:32Z</time>
      </trkpt>
      <trkpt lat="48.90983" lon="0.16602">
        <ele>248</ele>
        <time>2019-04-28T10:41:37Z</time>
      </trkpt>
      <trkpt lat="48.90989" lon="0.16588">
        <ele>252</ele>
        <time>2019-04-28T10:41:47Z</time>
      </trkpt>
      <trkpt lat="48.90993" lon="0.16578">
        <ele>252</ele>
        <time>2019-04-28T10:41:52Z</time>
      </trkpt>
      <trkpt lat="48.90996" lon="0.16568">
        <ele>253</ele>
        <time>2019-04-28T10:41:57Z</time>
      </trkpt>
      <trkpt lat="48.91002" lon="0.16555">
        <ele>252</ele>
        <time>2019-04-28T10:42:07Z</time>
      </trkpt>
      <trkpt lat="48.91008" lon="0.16538">
        <ele>254</ele>
        <time>2019-04-28T10:42:17Z</time>
      </trkpt>
      <trkpt lat="48.91017" lon="0.16519">
        <ele>260</ele>
        <time>2019-04-28T10:42:27Z</time>
      </trkpt>
      <trkpt lat="48.91022" lon="0.16506">
        <ele>261</ele>
        <time>2019-04-28T10:42:32Z</time>
      </trkpt>
      <trkpt lat="48.91026" lon="0.16497">
        <ele>261</ele>
        <time>2019-04-28T10:42:37Z</time>
      </trkpt>
      <trkpt lat="48.91032" lon="0.16483">
        <ele>267</ele>
        <time>2019-04-28T10:42:47Z</time>
      </trkpt>
      <trkpt lat="48.91036" lon="0.16473">
        <ele>268</ele>
        <time>2019-04-28T10:42:52Z</time>
      </trkpt>
      <trkpt lat="48.9104" lon="0.16461">
        <ele>266</ele>
        <time>2019-04-28T10:43:02Z</time>
      </trkpt>
      <trkpt lat="48.91043" lon="0.16444">
        <ele>265</ele>
        <time>2019-04-28T10:43:12Z</time>
      </trkpt>
      <trkpt lat="48.91045" lon="0.16433">
        <ele>265</ele>
        <time>2019-04-28T10:43:17Z</time>
      </trkpt>
      <trkpt lat="48.91049" lon="0.16419">
        <ele>269</ele>
        <time>2019-04-28T10:43:27Z</time>
      </trkpt>
      <trkpt lat="48.91052" lon="0.16406">
        <ele>269</ele>
        <time>2019-04-28T10:43:32Z</time>
      </trkpt>
      <trkpt lat="48.91055" lon="0.16394">
        <ele>269</ele>
        <time>2019-04-28T10:43:42Z</time>
      </trkpt>
      <trkpt lat="48.91058" lon="0.16383">
        <ele>269</ele>
        <time>2019-04-28T10:43:47Z</time>
      </trkpt>
      <trkpt lat="48.91059" lon="0.16374">
        <ele>268</ele>
        <time>2019-04-28T10:43:52Z</time>
      </trkpt>
      <trkpt lat="48.91062" lon="0.16355">
        <ele>266</ele>
        <time>2019-04-28T10:44:02Z</time>
      </trkpt>
      <trkpt lat="48.91064" lon="0.16341">
        <ele>265</ele>
        <time>2019-04-28T10:44:07Z</time>
      </trkpt>
      <trkpt lat="48.91065" lon="0.1633">
        <ele>266</ele>
        <time>2019-04-28T10:44:12Z</time>
      </trkpt>
      <trkpt lat="48.91068" lon="0.16316">
        <ele>266</ele>
        <time>2019-04-28T10:44:22Z</time>
      </trkpt>
      <trkpt lat="48.91071" lon="0.16299">
        <ele>265</ele>
        <time>2019-04-28T10:44:32Z</time>
      </trkpt>
      <trkpt lat="48.91072" lon="0.16288">
        <ele>264</ele>
        <time>2019-04-28T10:44:37Z</time>
      </trkpt>
      <trkpt lat="48.91074" lon="0.16273">
        <ele>264</ele>
        <time>2019-04-28T10:44:47Z</time>
      </trkpt>
      <trkpt lat="48.91076" lon="0.16256">
        <ele>264</ele>
        <time>2019-04-28T10:44:57Z</time>
      </trkpt>
      <trkpt lat="48.91078" lon="0.16243">
        <ele>265</ele>
        <time>2019-04-28T10:45:02Z</time>
      </trkpt>
      <trkpt lat="48.91082" lon="0.1623">
        <ele>264</ele>
        <time>2019-04-28T10:45:07Z</time>
      </trkpt>
      <trkpt lat="48.91085" lon="0.1622">
        <ele>265</ele>
        <time>2019-04-28T10:45:12Z</time>
      </trkpt>
      <trkpt lat="48.91092" lon="0.16204">
        <ele>267</ele>
        <time>2019-04-28T10:45:22Z</time>
      </trkpt>
      <trkpt lat="48.91097" lon="0.16191">
        <ele>269</ele>
        <time>2019-04-28T10:45:27Z</time>
      </trkpt>
      <trkpt lat="48.91099" lon="0.16181">
        <ele>271</ele>
        <time>2019-04-28T10:45:32Z</time>
      </trkpt>
      <trkpt lat="48.91102" lon="0.16173">
        <ele>272</ele>
        <time>2019-04-28T10:45:37Z</time>
      </trkpt>
      <trkpt lat="48.91106" lon="0.16161">
        <ele>274</ele>
        <time>2019-04-28T10:45:47Z</time>
      </trkpt>
      <trkpt lat="48.91109" lon="0.16151">
        <ele>274</ele>
        <time>2019-04-28T10:45:52Z</time>
      </trkpt>
      <trkpt lat="48.91114" lon="0.16139">
        <ele>275</ele>
        <time>2019-04-28T10:46:02Z</time>
      </trkpt>
      <trkpt lat="48.91117" lon="0.1613">
        <ele>275</ele>
        <time>2019-04-28T10:46:07Z</time>
      </trkpt>
      <trkpt lat="48.91122" lon="0.16117">
        <ele>273</ele>
        <time>2019-04-28T10:46:17Z</time>
      </trkpt>
      <trkpt lat="48.91125" lon="0.16105">
        <ele>271</ele>
        <time>2019-04-28T10:46:22Z</time>
      </trkpt>
      <trkpt lat="48.91129" lon="0.16096">
        <ele>269</ele>
        <time>2019-04-28T10:46:27Z</time>
      </trkpt>
      <trkpt lat="48.91132" lon="0.16087">
        <ele>270</ele>
        <time>2019-04-28T10:46:32Z</time>
      </trkpt>
      <trkpt lat="48.91136" lon="0.16076">
        <ele>269</ele>
        <time>2019-04-28T10:46:42Z</time>
      </trkpt>
      <trkpt lat="48.91139" lon="0.16065">
        <ele>269</ele>
        <time>2019-04-28T10:46:47Z</time>
      </trkpt>
      <trkpt lat="48.91142" lon="0.16047">
        <ele>268</ele>
        <time>2019-04-28T10:46:57Z</time>
      </trkpt>
      <trkpt lat="48.91145" lon="0.16035">
        <ele>268</ele>
        <time>2019-04-28T10:47:02Z</time>
      </trkpt>
      <trkpt lat="48.91147" lon="0.16015">
        <ele>266</ele>
        <time>2019-04-28T10:47:12Z</time>
      </trkpt>
      <trkpt lat="48.91148" lon="0.16">
        <ele>267</ele>
        <time>2019-04-28T10:47:17Z</time>
      </trkpt>
      <trkpt lat="48.9115" lon="0.15982">
        <ele>266</ele>
        <time>2019-04-28T10:47:27Z</time>
      </trkpt>
      <trkpt lat="48.91152" lon="0.1597">
        <ele>267</ele>
        <time>2019-04-28T10:47:32Z</time>
      </trkpt>
      <trkpt lat="48.91153" lon="0.15961">
        <ele>268</ele>
        <time>2019-04-28T10:47:37Z</time>
      </trkpt>
      <trkpt lat="48.91156" lon="0.15949">
        <ele>269</ele>
        <time>2019-04-28T10:47:47Z</time>
      </trkpt>
      <trkpt lat="48.91157" lon="0.15939">
        <ele>270</ele>
        <time>2019-04-28T10:47:52Z</time>
      </trkpt>
      <trkpt lat="48.91159" lon="0.15923">
        <ele>272</ele>
        <time>2019-04-28T10:48:02Z</time>
      </trkpt>
      <trkpt lat="48.91163" lon="0.15903">
        <ele>273</ele>
        <time>2019-04-28T10:48:12Z</time>
      </trkpt>
      <trkpt lat="48.91167" lon="0.15887">
        <ele>273</ele>
        <time>2019-04-28T10:48:17Z</time>
      </trkpt>
      <trkpt lat="48.91171" lon="0.15868">
        <ele>272</ele>
        <time>2019-04-28T10:48:27Z</time>
      </trkpt>
      <trkpt lat="48.91177" lon="0.15845">
        <ele>271</ele>
        <time>2019-04-28T10:48:37Z</time>
      </trkpt>
      <trkpt lat="48.91181" lon="0.15828">
        <ele>270</ele>
        <time>2019-04-28T10:48:47Z</time>
      </trkpt>
      <trkpt lat="48.91184" lon="0.15814">
        <ele>271</ele>
        <time>2019-04-28T10:48:52Z</time>
      </trkpt>
      <trkpt lat="48.91188" lon="0.15794">
        <ele>272</ele>
        <time>2019-04-28T10:49:02Z</time>
      </trkpt>
      <trkpt lat="48.91191" lon="0.15781">
        <ele>272</ele>
        <time>2019-04-28T10:49:07Z</time>
      </trkpt>
      <trkpt lat="48.91195" lon="0.15763">
        <ele>271</ele>
        <time>2019-04-28T10:49:17Z</time>
      </trkpt>
      <trkpt lat="48.91198" lon="0.15749">
        <ele>273</ele>
        <time>2019-04-28T10:49:22Z</time>
      </trkpt>
      <trkpt lat="48.91202" lon="0.15738">
        <ele>273</ele>
        <time>2019-04-28T10:49:27Z</time>
      </trkpt>
      <trkpt lat="48.91207" lon="0.15722">
        <ele>272</ele>
        <time>2019-04-28T10:49:37Z</time>
      </trkpt>
      <trkpt lat="48.91215" lon="0.1571">
        <ele>271</ele>
        <time>2019-04-28T10:49:47Z</time>
      </trkpt>
      <trkpt lat="48.91223" lon="0.15704">
        <ele>271</ele>
        <time>2019-04-28T10:49:57Z</time>
      </trkpt>
      <trkpt lat="48.91234" lon="0.15701">
        <ele>271</ele>
        <time>2019-04-28T10:50:07Z</time>
      </trkpt>
      <trkpt lat="48.91246" lon="0.157">
        <ele>272</ele>
        <time>2019-04-28T10:50:12Z</time>
      </trkpt>
      <trkpt lat="48.91259" lon="0.157">
        <ele>274</ele>
        <time>2019-04-28T10:50:18Z</time>
      </trkpt>
      <trkpt lat="48.91264" lon="0.157">
        <ele>274</ele>
        <time>2019-04-28T10:50:23Z</time>
      </trkpt>
      <trkpt lat="48.9127" lon="0.15699">
        <ele>273</ele>
        <time>2019-04-28T10:50:33Z</time>
      </trkpt>
      <trkpt lat="48.91281" lon="0.15698">
        <ele>273</ele>
        <time>2019-04-28T10:50:43Z</time>
      </trkpt>
      <trkpt lat="48.91291" lon="0.15696">
        <ele>273</ele>
        <time>2019-04-28T10:50:53Z</time>
      </trkpt>
      <trkpt lat="48.91297" lon="0.15696">
        <ele>274</ele>
        <time>2019-04-28T10:50:58Z</time>
      </trkpt>
      <trkpt lat="48.91301" lon="0.15694">
        <ele>272</ele>
        <time>2019-04-28T10:51:06Z</time>
      </trkpt>
      <trkpt lat="48.91308" lon="0.15692">
        <ele>270</ele>
        <time>2019-04-28T10:51:16Z</time>
      </trkpt>
      <trkpt lat="48.91319" lon="0.15688">
        <ele>267</ele>
        <time>2019-04-28T10:51:26Z</time>
      </trkpt>
      <trkpt lat="48.9133" lon="0.15686">
        <ele>265</ele>
        <time>2019-04-28T10:51:32Z</time>
      </trkpt>
      <trkpt lat="48.91339" lon="0.15684">
        <ele>264</ele>
        <time>2019-04-28T10:51:39Z</time>
      </trkpt>
      <trkpt lat="48.91349" lon="0.15681">
        <ele>265</ele>
        <time>2019-04-28T10:51:46Z</time>
      </trkpt>
      <trkpt lat="48.91355" lon="0.1568">
        <ele>266</ele>
        <time>2019-04-28T10:51:51Z</time>
      </trkpt>
      <trkpt lat="48.91361" lon="0.15678">
        <ele>267</ele>
        <time>2019-04-28T10:51:57Z</time>
      </trkpt>
      <trkpt lat="48.9137" lon="0.15675">
        <ele>267</ele>
        <time>2019-04-28T10:52:06Z</time>
      </trkpt>
      <trkpt lat="48.91378" lon="0.15673">
        <ele>267</ele>
        <time>2019-04-28T10:52:11Z</time>
      </trkpt>
      <trkpt lat="48.91385" lon="0.15671">
        <ele>267</ele>
        <time>2019-04-28T10:52:19Z</time>
      </trkpt>
      <trkpt lat="48.91397" lon="0.15669">
        <ele>266</ele>
        <time>2019-04-28T10:52:26Z</time>
      </trkpt>
      <trkpt lat="48.91405" lon="0.15667">
        <ele>265</ele>
        <time>2019-04-28T10:52:31Z</time>
      </trkpt>
      <trkpt lat="48.91419" lon="0.15665">
        <ele>266</ele>
        <time>2019-04-28T10:52:41Z</time>
      </trkpt>
      <trkpt lat="48.91427" lon="0.15664">
        <ele>266</ele>
        <time>2019-04-28T10:52:46Z</time>
      </trkpt>
      <trkpt lat="48.91437" lon="0.15659">
        <ele>266</ele>
        <time>2019-04-28T10:52:56Z</time>
      </trkpt>
      <trkpt lat="48.91445" lon="0.15653">
        <ele>267</ele>
        <time>2019-04-28T10:53:01Z</time>
      </trkpt>
      <trkpt lat="48.9145" lon="0.15645">
        <ele>269</ele>
        <time>2019-04-28T10:53:06Z</time>
      </trkpt>
      <trkpt lat="48.91455" lon="0.15636">
        <ele>270</ele>
        <time>2019-04-28T10:53:11Z</time>
      </trkpt>
      <trkpt lat="48.91462" lon="0.15619">
        <ele>271</ele>
        <time>2019-04-28T10:53:21Z</time>
      </trkpt>
      <trkpt lat="48.91468" lon="0.15601">
        <ele>271</ele>
        <time>2019-04-28T10:53:31Z</time>
      </trkpt>
      <trkpt lat="48.91471" lon="0.15588">
        <ele>271</ele>
        <time>2019-04-28T10:53:36Z</time>
      </trkpt>
      <trkpt lat="48.91473" lon="0.15573">
        <ele>271</ele>
        <time>2019-04-28T10:53:46Z</time>
      </trkpt>
      <trkpt lat="48.91474" lon="0.15554">
        <ele>271</ele>
        <time>2019-04-28T10:53:56Z</time>
      </trkpt>
      <trkpt lat="48.91476" lon="0.15533">
        <ele>271</ele>
        <time>2019-04-28T10:54:06Z</time>
      </trkpt>
      <trkpt lat="48.91479" lon="0.15511">
        <ele>271</ele>
        <time>2019-04-28T10:54:16Z</time>
      </trkpt>
      <trkpt lat="48.91482" lon="0.15498">
        <ele>272</ele>
        <time>2019-04-28T10:54:21Z</time>
      </trkpt>
      <trkpt lat="48.91485" lon="0.1548">
        <ele>275</ele>
        <time>2019-04-28T10:54:31Z</time>
      </trkpt>
      <trkpt lat="48.91489" lon="0.15459">
        <ele>276</ele>
        <time>2019-04-28T10:54:41Z</time>
      </trkpt>
      <trkpt lat="48.91492" lon="0.15444">
        <ele>275</ele>
        <time>2019-04-28T10:54:46Z</time>
      </trkpt>
      <trkpt lat="48.91495" lon="0.15432">
        <ele>275</ele>
        <time>2019-04-28T10:54:51Z</time>
      </trkpt>
      <trkpt lat="48.91497" lon="0.15421">
        <ele>273</ele>
        <time>2019-04-28T10:54:56Z</time>
      </trkpt>
      <trkpt lat="48.91499" lon="0.15403">
        <ele>272</ele>
        <time>2019-04-28T10:55:06Z</time>
      </trkpt>
      <trkpt lat="48.91501" lon="0.15385">
        <ele>272</ele>
        <time>2019-04-28T10:55:16Z</time>
      </trkpt>
      <trkpt lat="48.91501" lon="0.15372">
        <ele>272</ele>
        <time>2019-04-28T10:55:21Z</time>
      </trkpt>
      <trkpt lat="48.91503" lon="0.1536">
        <ele>273</ele>
        <time>2019-04-28T10:55:26Z</time>
      </trkpt>
      <trkpt lat="48.91506" lon="0.15344">
        <ele>271</ele>
        <time>2019-04-28T10:55:36Z</time>
      </trkpt>
      <trkpt lat="48.91508" lon="0.15332">
        <ele>272</ele>
        <time>2019-04-28T10:55:41Z</time>
      </trkpt>
      <trkpt lat="48.91511" lon="0.15311">
        <ele>272</ele>
        <time>2019-04-28T10:55:51Z</time>
      </trkpt>
      <trkpt lat="48.91514" lon="0.15291">
        <ele>273</ele>
        <time>2019-04-28T10:56:01Z</time>
      </trkpt>
      <trkpt lat="48.91515" lon="0.15278">
        <ele>272</ele>
        <time>2019-04-28T10:56:06Z</time>
      </trkpt>
      <trkpt lat="48.91517" lon="0.1526">
        <ele>273</ele>
        <time>2019-04-28T10:56:16Z</time>
      </trkpt>
      <trkpt lat="48.91521" lon="0.15239">
        <ele>274</ele>
        <time>2019-04-28T10:56:26Z</time>
      </trkpt>
      <trkpt lat="48.91524" lon="0.15225">
        <ele>276</ele>
        <time>2019-04-28T10:56:31Z</time>
      </trkpt>
      <trkpt lat="48.91527" lon="0.1521">
        <ele>277</ele>
        <time>2019-04-28T10:56:41Z</time>
      </trkpt>
      <trkpt lat="48.91531" lon="0.15197">
        <ele>283</ele>
        <time>2019-04-28T10:56:46Z</time>
      </trkpt>
      <trkpt lat="48.91535" lon="0.15184">
        <ele>285</ele>
        <time>2019-04-28T10:56:51Z</time>
      </trkpt>
      <trkpt lat="48.9154" lon="0.1517">
        <ele>287</ele>
        <time>2019-04-28T10:56:56Z</time>
      </trkpt>
      <trkpt lat="48.91544" lon="0.15158">
        <ele>287</ele>
        <time>2019-04-28T10:57:06Z</time>
      </trkpt>
      <trkpt lat="48.91548" lon="0.15142">
        <ele>287</ele>
        <time>2019-04-28T10:57:16Z</time>
      </trkpt>
      <trkpt lat="48.9155" lon="0.1513">
        <ele>287</ele>
        <time>2019-04-28T10:57:21Z</time>
      </trkpt>
      <trkpt lat="48.91552" lon="0.15113">
        <ele>285</ele>
        <time>2019-04-28T10:57:31Z</time>
      </trkpt>
      <trkpt lat="48.91553" lon="0.15099">
        <ele>285</ele>
        <time>2019-04-28T10:57:36Z</time>
      </trkpt>
      <trkpt lat="48.91556" lon="0.1508">
        <ele>284</ele>
        <time>2019-04-28T10:57:46Z</time>
      </trkpt>
      <trkpt lat="48.91559" lon="0.15062">
        <ele>284</ele>
        <time>2019-04-28T10:57:57Z</time>
      </trkpt>
      <trkpt lat="48.9156" lon="0.15042">
        <ele>283</ele>
        <time>2019-04-28T10:58:02Z</time>
      </trkpt>
      <trkpt lat="48.91565" lon="0.1502">
        <ele>283</ele>
        <time>2019-04-28T10:58:12Z</time>
      </trkpt>
      <trkpt lat="48.91567" lon="0.15008">
        <ele>283</ele>
        <time>2019-04-28T10:58:17Z</time>
      </trkpt>
      <trkpt lat="48.9157" lon="0.15">
        <ele>283</ele>
        <time>2019-04-28T10:58:27Z</time>
      </trkpt>
      <trkpt lat="48.91572" lon="0.14993">
        <ele>284</ele>
        <time>2019-04-28T10:58:32Z</time>
      </trkpt>
      <trkpt lat="48.91574" lon="0.14983">
        <ele>286</ele>
        <time>2019-04-28T10:58:37Z</time>
      </trkpt>
      <trkpt lat="48.91578" lon="0.14971">
        <ele>288</ele>
        <time>2019-04-28T10:58:47Z</time>
      </trkpt>
      <trkpt lat="48.91583" lon="0.14961">
        <ele>289</ele>
        <time>2019-04-28T10:58:52Z</time>
      </trkpt>
      <trkpt lat="48.91587" lon="0.14951">
        <ele>291</ele>
        <time>2019-04-28T10:58:57Z</time>
      </trkpt>
      <trkpt lat="48.9159" lon="0.14944">
        <ele>291</ele>
        <time>2019-04-28T10:59:02Z</time>
      </trkpt>
      <trkpt lat="48.91597" lon="0.1493">
        <ele>291</ele>
        <time>2019-04-28T10:59:12Z</time>
      </trkpt>
      <trkpt lat="48.916" lon="0.1492">
        <ele>290</ele>
        <time>2019-04-28T10:59:17Z</time>
      </trkpt>
      <trkpt lat="48.91604" lon="0.14911">
        <ele>290</ele>
        <time>2019-04-28T10:59:22Z</time>
      </trkpt>
      <trkpt lat="48.91607" lon="0.14901">
        <ele>290</ele>
        <time>2019-04-28T10:59:27Z</time>
      </trkpt>
      <trkpt lat="48.91615" lon="0.14884">
        <ele>293</ele>
        <time>2019-04-28T10:59:37Z</time>
      </trkpt>
      <trkpt lat="48.91622" lon="0.14867">
        <ele>294</ele>
        <time>2019-04-28T10:59:47Z</time>
      </trkpt>
      <trkpt lat="48.91626" lon="0.14857">
        <ele>293</ele>
        <time>2019-04-28T10:59:52Z</time>
      </trkpt>
      <trkpt lat="48.91633" lon="0.14842">
        <ele>292</ele>
        <time>2019-04-28T11:00:02Z</time>
      </trkpt>
      <trkpt lat="48.91638" lon="0.1483">
        <ele>291</ele>
        <time>2019-04-28T11:00:07Z</time>
      </trkpt>
      <trkpt lat="48.91646" lon="0.14813">
        <ele>290</ele>
        <time>2019-04-28T11:00:17Z</time>
      </trkpt>
      <trkpt lat="48.91651" lon="0.14801">
        <ele>289</ele>
        <time>2019-04-28T11:00:22Z</time>
      </trkpt>
      <trkpt lat="48.91657" lon="0.14785">
        <ele>288</ele>
        <time>2019-04-28T11:00:32Z</time>
      </trkpt>
      <trkpt lat="48.91665" lon="0.14769">
        <ele>289</ele>
        <time>2019-04-28T11:00:42Z</time>
      </trkpt>
      <trkpt lat="48.91671" lon="0.14759">
        <ele>288</ele>
        <time>2019-04-28T11:00:47Z</time>
      </trkpt>
      <trkpt lat="48.91675" lon="0.14751">
        <ele>288</ele>
        <time>2019-04-28T11:00:52Z</time>
      </trkpt>
      <trkpt lat="48.91679" lon="0.14743">
        <ele>288</ele>
        <time>2019-04-28T11:00:57Z</time>
      </trkpt>
      <trkpt lat="48.91686" lon="0.14731">
        <ele>288</ele>
        <time>2019-04-28T11:01:07Z</time>
      </trkpt>
      <trkpt lat="48.91692" lon="0.14721">
        <ele>288</ele>
        <time>2019-04-28T11:01:12Z</time>
      </trkpt>
      <trkpt lat="48.917" lon="0.14709">
        <ele>286</ele>
        <time>2019-04-28T11:01:22Z</time>
      </trkpt>
      <trkpt lat="48.91707" lon="0.14699">
        <ele>285</ele>
        <time>2019-04-28T11:01:27Z</time>
      </trkpt>
      <trkpt lat="48.91713" lon="0.1469">
        <ele>283</ele>
        <time>2019-04-28T11:01:32Z</time>
      </trkpt>
      <trkpt lat="48.91721" lon="0.14676">
        <ele>283</ele>
        <time>2019-04-28T11:01:42Z</time>
      </trkpt>
      <trkpt lat="48.91729" lon="0.14663">
        <ele>281</ele>
        <time>2019-04-28T11:01:52Z</time>
      </trkpt>
      <trkpt lat="48.91738" lon="0.14644">
        <ele>280</ele>
        <time>2019-04-28T11:02:02Z</time>
      </trkpt>
      <trkpt lat="48.91748" lon="0.14627">
        <ele>278</ele>
        <time>2019-04-28T11:02:12Z</time>
      </trkpt>
      <trkpt lat="48.91757" lon="0.1461">
        <ele>277</ele>
        <time>2019-04-28T11:02:22Z</time>
      </trkpt>
      <trkpt lat="48.91763" lon="0.14599">
        <ele>277</ele>
        <time>2019-04-28T11:02:28Z</time>
      </trkpt>
      <trkpt lat="48.9177" lon="0.14588">
        <ele>276</ele>
        <time>2019-04-28T11:02:37Z</time>
      </trkpt>
      <trkpt lat="48.91779" lon="0.14574">
        <ele>277</ele>
        <time>2019-04-28T11:02:47Z</time>
      </trkpt>
      <trkpt lat="48.91785" lon="0.14564">
        <ele>277</ele>
        <time>2019-04-28T11:02:52Z</time>
      </trkpt>
      <trkpt lat="48.9179" lon="0.14556">
        <ele>278</ele>
        <time>2019-04-28T11:02:57Z</time>
      </trkpt>
      <trkpt lat="48.91799" lon="0.14541">
        <ele>279</ele>
        <time>2019-04-28T11:03:07Z</time>
      </trkpt>
      <trkpt lat="48.91809" lon="0.14525">
        <ele>279</ele>
        <time>2019-04-28T11:03:17Z</time>
      </trkpt>
      <trkpt lat="48.91818" lon="0.14509">
        <ele>280</ele>
        <time>2019-04-28T11:03:27Z</time>
      </trkpt>
      <trkpt lat="48.91828" lon="0.14492">
        <ele>281</ele>
        <time>2019-04-28T11:03:37Z</time>
      </trkpt>
      <trkpt lat="48.9184" lon="0.14476">
        <ele>280</ele>
        <time>2019-04-28T11:03:47Z</time>
      </trkpt>
      <trkpt lat="48.91851" lon="0.14461">
        <ele>280</ele>
        <time>2019-04-28T11:03:57Z</time>
      </trkpt>
      <trkpt lat="48.91859" lon="0.1445">
        <ele>280</ele>
        <time>2019-04-28T11:04:02Z</time>
      </trkpt>
      <trkpt lat="48.91869" lon="0.14436">
        <ele>280</ele>
        <time>2019-04-28T11:04:12Z</time>
      </trkpt>
      <trkpt lat="48.91875" lon="0.14426">
        <ele>279</ele>
        <time>2019-04-28T11:04:17Z</time>
      </trkpt>
      <trkpt lat="48.9188" lon="0.14418">
        <ele>278</ele>
        <time>2019-04-28T11:04:22Z</time>
      </trkpt>
      <trkpt lat="48.91888" lon="0.1441">
        <ele>277</ele>
        <time>2019-04-28T11:04:32Z</time>
      </trkpt>
      <trkpt lat="48.91897" lon="0.14401">
        <ele>275</ele>
        <time>2019-04-28T11:04:42Z</time>
      </trkpt>
      <trkpt lat="48.91909" lon="0.14389">
        <ele>274</ele>
        <time>2019-04-28T11:04:52Z</time>
      </trkpt>
      <trkpt lat="48.91919" lon="0.14379">
        <ele>273</ele>
        <time>2019-04-28T11:04:57Z</time>
      </trkpt>
      <trkpt lat="48.91925" lon="0.14372">
        <ele>272</ele>
        <time>2019-04-28T11:05:02Z</time>
      </trkpt>
      <trkpt lat="48.91933" lon="0.1436">
        <ele>271</ele>
        <time>2019-04-28T11:05:12Z</time>
      </trkpt>
      <trkpt lat="48.91944" lon="0.14344">
        <ele>269</ele>
        <time>2019-04-28T11:05:22Z</time>
      </trkpt>
      <trkpt lat="48.9195" lon="0.14333">
        <ele>267</ele>
        <time>2019-04-28T11:05:27Z</time>
      </trkpt>
      <trkpt lat="48.9196" lon="0.1432">
        <ele>267</ele>
        <time>2019-04-28T11:05:37Z</time>
      </trkpt>
      <trkpt lat="48.91971" lon="0.14307">
        <ele>267</ele>
        <time>2019-04-28T11:05:47Z</time>
      </trkpt>
      <trkpt lat="48.91982" lon="0.14294">
        <ele>267</ele>
        <time>2019-04-28T11:05:57Z</time>
      </trkpt>
      <trkpt lat="48.91989" lon="0.14285">
        <ele>267</ele>
        <time>2019-04-28T11:06:02Z</time>
      </trkpt>
      <trkpt lat="48.91999" lon="0.14272">
        <ele>266</ele>
        <time>2019-04-28T11:06:12Z</time>
      </trkpt>
      <trkpt lat="48.92007" lon="0.14262">
        <ele>267</ele>
        <time>2019-04-28T11:06:17Z</time>
      </trkpt>
      <trkpt lat="48.92017" lon="0.14249">
        <ele>268</ele>
        <time>2019-04-28T11:06:27Z</time>
      </trkpt>
      <trkpt lat="48.92028" lon="0.14235">
        <ele>268</ele>
        <time>2019-04-28T11:06:37Z</time>
      </trkpt>
      <trkpt lat="48.92037" lon="0.14224">
        <ele>268</ele>
        <time>2019-04-28T11:06:42Z</time>
      </trkpt>
      <trkpt lat="48.92042" lon="0.14218">
        <ele>267</ele>
        <time>2019-04-28T11:06:47Z</time>
      </trkpt>
      <trkpt lat="48.9205" lon="0.14208">
        <ele>266</ele>
        <time>2019-04-28T11:06:57Z</time>
      </trkpt>
      <trkpt lat="48.92057" lon="0.14197">
        <ele>266</ele>
        <time>2019-04-28T11:07:02Z</time>
      </trkpt>
      <trkpt lat="48.92063" lon="0.14188">
        <ele>265</ele>
        <time>2019-04-28T11:07:12Z</time>
      </trkpt>
      <trkpt lat="48.92074" lon="0.14175">
        <ele>264</ele>
        <time>2019-04-28T11:07:22Z</time>
      </trkpt>
      <trkpt lat="48.92082" lon="0.14166">
        <ele>263</ele>
        <time>2019-04-28T11:07:27Z</time>
      </trkpt>
      <trkpt lat="48.92089" lon="0.14159">
        <ele>264</ele>
        <time>2019-04-28T11:07:32Z</time>
      </trkpt>
      <trkpt lat="48.92096" lon="0.14152">
        <ele>263</ele>
        <time>2019-04-28T11:07:37Z</time>
      </trkpt>
      <trkpt lat="48.92107" lon="0.14141">
        <ele>264</ele>
        <time>2019-04-28T11:07:47Z</time>
      </trkpt>
      <trkpt lat="48.92118" lon="0.14128">
        <ele>267</ele>
        <time>2019-04-28T11:07:57Z</time>
      </trkpt>
      <trkpt lat="48.92125" lon="0.14119">
        <ele>268</ele>
        <time>2019-04-28T11:08:02Z</time>
      </trkpt>
      <trkpt lat="48.92135" lon="0.14107">
        <ele>267</ele>
        <time>2019-04-28T11:08:12Z</time>
      </trkpt>
      <trkpt lat="48.92141" lon="0.14098">
        <ele>266</ele>
        <time>2019-04-28T11:08:17Z</time>
      </trkpt>
      <trkpt lat="48.92147" lon="0.14091">
        <ele>266</ele>
        <time>2019-04-28T11:08:22Z</time>
      </trkpt>
      <trkpt lat="48.92156" lon="0.14082">
        <ele>265</ele>
        <time>2019-04-28T11:08:32Z</time>
      </trkpt>
      <trkpt lat="48.92164" lon="0.14075">
        <ele>264</ele>
        <time>2019-04-28T11:08:37Z</time>
      </trkpt>
      <trkpt lat="48.92171" lon="0.14071">
        <ele>263</ele>
        <time>2019-04-28T11:08:42Z</time>
      </trkpt>
      <trkpt lat="48.92178" lon="0.14067">
        <ele>263</ele>
        <time>2019-04-28T11:08:47Z</time>
      </trkpt>
      <trkpt lat="48.92184" lon="0.14062">
        <ele>264</ele>
        <time>2019-04-28T11:08:57Z</time>
      </trkpt>
      <trkpt lat="48.92185" lon="0.14058">
        <ele>262</ele>
        <time>2019-04-28T11:09:07Z</time>
      </trkpt>
      <trkpt lat="48.92184" lon="0.14056">
        <ele>262</ele>
        <time>2019-04-28T11:09:17Z</time>
      </trkpt>
      <trkpt lat="48.92184" lon="0.14054">
        <ele>262</ele>
        <time>2019-04-28T11:09:22Z</time>
      </trkpt>
      <trkpt lat="48.92184" lon="0.14053">
        <ele>262</ele>
        <time>2019-04-28T11:09:32Z</time>
      </trkpt>
      <trkpt lat="48.92184" lon="0.14052">
        <ele>262</ele>
        <time>2019-04-28T11:09:42Z</time>
      </trkpt>
      <trkpt lat="48.92185" lon="0.14051">
        <ele>262</ele>
        <time>2019-04-28T11:09:47Z</time>
      </trkpt>
      <trkpt lat="48.92185" lon="0.14051">
        <ele>262</ele>
        <time>2019-04-28T11:09:57Z</time>
      </trkpt>
      <trkpt lat="48.92185" lon="0.14051">
        <ele>262</ele>
        <time>2019-04-28T11:10:07Z</time>
      </trkpt>
      <trkpt lat="48.92185" lon="0.14051">
        <ele>262</ele>
        <time>2019-04-28T11:10:17Z</time>
      </trkpt>
      <trkpt lat="48.92185" lon="0.1405">
        <ele>262</ele>
        <time>2019-04-28T11:10:22Z</time>
      </trkpt>
      <trkpt lat="48.92185" lon="0.1405">
        <ele>262</ele>
        <time>2019-04-28T11:10:32Z</time>
      </trkpt>
      <trkpt lat="48.92185" lon="0.1405">
        <ele>262</ele>
        <time>2019-04-28T11:10:42Z</time>
      </trkpt>
      <trkpt lat="48.92185" lon="0.1405">
        <ele>262</ele>
        <time>2019-04-28T11:10:47Z</time>
      </trkpt>
      <trkpt lat="48.92185" lon="0.1405">
        <ele>262</ele>
        <time>2019-04-28T11:10:52Z</time>
      </trkpt>
      <trkpt lat="48.92185" lon="0.1405">
        <ele>262</ele>
        <time>2019-04-28T11:11:02Z</time>
      </trkpt>
      <trkpt lat="48.92185" lon="0.1405">
        <ele>262</ele>
        <time>2019-04-28T11:11:12Z</time>
      </trkpt>
      <trkpt lat="48.92185" lon="0.1405">
        <ele>262</ele>
        <time>2019-04-28T11:11:17Z</time>
      </trkpt>
      <trkpt lat="48.92185" lon="0.14049">
        <ele>263</ele>
        <time>2019-04-28T11:11:22Z</time>
      </trkpt>
      <trkpt lat="48.92185" lon="0.1405">
        <ele>261</ele>
        <time>2019-04-28T11:11:32Z</time>
      </trkpt>
      <trkpt lat="48.9219" lon="0.14051">
        <ele>258</ele>
        <time>2019-04-28T11:11:42Z</time>
      </trkpt>
      <trkpt lat="48.92195" lon="0.14051">
        <ele>257</ele>
        <time>2019-04-28T11:11:47Z</time>
      </trkpt>
      <trkpt lat="48.92201" lon="0.14049">
        <ele>258</ele>
        <time>2019-04-28T11:11:52Z</time>
      </trkpt>
      <trkpt lat="48.92207" lon="0.14047">
        <ele>258</ele>
        <time>2019-04-28T11:11:57Z</time>
      </trkpt>
      <trkpt lat="48.92217" lon="0.14043">
        <ele>259</ele>
        <time>2019-04-28T11:12:07Z</time>
      </trkpt>
      <trkpt lat="48.92226" lon="0.14039">
        <ele>260</ele>
        <time>2019-04-28T11:12:12Z</time>
      </trkpt>
      <trkpt lat="48.92235" lon="0.14035">
        <ele>259</ele>
        <time>2019-04-28T11:12:22Z</time>
      </trkpt>
      <trkpt lat="48.92247" lon="0.14029">
        <ele>258</ele>
        <time>2019-04-28T11:12:32Z</time>
      </trkpt>
      <trkpt lat="48.92259" lon="0.14024">
        <ele>258</ele>
        <time>2019-04-28T11:12:42Z</time>
      </trkpt>
      <trkpt lat="48.92269" lon="0.14021">
        <ele>259</ele>
        <time>2019-04-28T11:12:47Z</time>
      </trkpt>
      <trkpt lat="48.92281" lon="0.14016">
        <ele>259</ele>
        <time>2019-04-28T11:12:57Z</time>
      </trkpt>
      <trkpt lat="48.9229" lon="0.14013">
        <ele>260</ele>
        <time>2019-04-28T11:13:02Z</time>
      </trkpt>
      <trkpt lat="48.92302" lon="0.14008">
        <ele>263</ele>
        <time>2019-04-28T11:13:12Z</time>
      </trkpt>
      <trkpt lat="48.92312" lon="0.14004">
        <ele>265</ele>
        <time>2019-04-28T11:13:17Z</time>
      </trkpt>
      <trkpt lat="48.92324" lon="0.13996">
        <ele>264</ele>
        <time>2019-04-28T11:13:27Z</time>
      </trkpt>
      <trkpt lat="48.92332" lon="0.13989">
        <ele>265</ele>
        <time>2019-04-28T11:13:32Z</time>
      </trkpt>
      <trkpt lat="48.9234" lon="0.13982">
        <ele>266</ele>
        <time>2019-04-28T11:13:37Z</time>
      </trkpt>
      <trkpt lat="48.92345" lon="0.13975">
        <ele>266</ele>
        <time>2019-04-28T11:13:42Z</time>
      </trkpt>
      <trkpt lat="48.92355" lon="0.13963">
        <ele>266</ele>
        <time>2019-04-28T11:13:52Z</time>
      </trkpt>
      <trkpt lat="48.92365" lon="0.13948">
        <ele>265</ele>
        <time>2019-04-28T11:14:02Z</time>
      </trkpt>
      <trkpt lat="48.9237" lon="0.13938">
        <ele>265</ele>
        <time>2019-04-28T11:14:07Z</time>
      </trkpt>
      <trkpt lat="48.92375" lon="0.1393">
        <ele>262</ele>
        <time>2019-04-28T11:14:12Z</time>
      </trkpt>
      <trkpt lat="48.92383" lon="0.13917">
        <ele>261</ele>
        <time>2019-04-28T11:14:22Z</time>
      </trkpt>
      <trkpt lat="48.92393" lon="0.13902">
        <ele>262</ele>
        <time>2019-04-28T11:14:32Z</time>
      </trkpt>
      <trkpt lat="48.92403" lon="0.13886">
        <ele>262</ele>
        <time>2019-04-28T11:14:42Z</time>
      </trkpt>
      <trkpt lat="48.92412" lon="0.1387">
        <ele>263</ele>
        <time>2019-04-28T11:14:52Z</time>
      </trkpt>
      <trkpt lat="48.92418" lon="0.13859">
        <ele>263</ele>
        <time>2019-04-28T11:14:57Z</time>
      </trkpt>
      <trkpt lat="48.92426" lon="0.13845">
        <ele>265</ele>
        <time>2019-04-28T11:15:07Z</time>
      </trkpt>
      <trkpt lat="48.92433" lon="0.13835">
        <ele>266</ele>
        <time>2019-04-28T11:15:12Z</time>
      </trkpt>
      <trkpt lat="48.9244" lon="0.13827">
        <ele>267</ele>
        <time>2019-04-28T11:15:17Z</time>
      </trkpt>
      <trkpt lat="48.92449" lon="0.13814">
        <ele>266</ele>
        <time>2019-04-28T11:15:27Z</time>
      </trkpt>
      <trkpt lat="48.92455" lon="0.13806">
        <ele>267</ele>
        <time>2019-04-28T11:15:32Z</time>
      </trkpt>
      <trkpt lat="48.92462" lon="0.138">
        <ele>267</ele>
        <time>2019-04-28T11:15:37Z</time>
      </trkpt>
      <trkpt lat="48.92472" lon="0.13799">
        <ele>266</ele>
        <time>2019-04-28T11:15:47Z</time>
      </trkpt>
      <trkpt lat="48.92481" lon="0.13802">
        <ele>266</ele>
        <time>2019-04-28T11:15:52Z</time>
      </trkpt>
      <trkpt lat="48.92487" lon="0.13807">
        <ele>262</ele>
        <time>2019-04-28T11:15:57Z</time>
      </trkpt>
      <trkpt lat="48.92491" lon="0.1381">
        <ele>262</ele>
        <time>2019-04-28T11:16:02Z</time>
      </trkpt>
      <trkpt lat="48.925" lon="0.13812">
        <ele>259</ele>
        <time>2019-04-28T11:16:12Z</time>
      </trkpt>
      <trkpt lat="48.92507" lon="0.13816">
        <ele>257</ele>
        <time>2019-04-28T11:16:17Z</time>
      </trkpt>
      <trkpt lat="48.92511" lon="0.1382">
        <ele>255</ele>
        <time>2019-04-28T11:16:22Z</time>
      </trkpt>
      <trkpt lat="48.92516" lon="0.13831">
        <ele>253</ele>
        <time>2019-04-28T11:16:32Z</time>
      </trkpt>
      <trkpt lat="48.92522" lon="0.13843">
        <ele>249</ele>
        <time>2019-04-28T11:16:42Z</time>
      </trkpt>
      <trkpt lat="48.92529" lon="0.13859">
        <ele>249</ele>
        <time>2019-04-28T11:16:52Z</time>
      </trkpt>
      <trkpt lat="48.92532" lon="0.13868">
        <ele>249</ele>
        <time>2019-04-28T11:16:57Z</time>
      </trkpt>
      <trkpt lat="48.92535" lon="0.13873">
        <ele>249</ele>
        <time>2019-04-28T11:17:07Z</time>
      </trkpt>
      <trkpt lat="48.92539" lon="0.13883">
        <ele>250</ele>
        <time>2019-04-28T11:17:17Z</time>
      </trkpt>
      <trkpt lat="48.9254" lon="0.13887">
        <ele>250</ele>
        <time>2019-04-28T11:17:22Z</time>
      </trkpt>
      <trkpt lat="48.92543" lon="0.13893">
        <ele>248</ele>
        <time>2019-04-28T11:17:32Z</time>
      </trkpt>
      <trkpt lat="48.92547" lon="0.13905">
        <ele>245</ele>
        <time>2019-04-28T11:17:42Z</time>
      </trkpt>
      <trkpt lat="48.92551" lon="0.13916">
        <ele>245</ele>
        <time>2019-04-28T11:17:47Z</time>
      </trkpt>
      <trkpt lat="48.92557" lon="0.1393">
        <ele>244</ele>
        <time>2019-04-28T11:17:57Z</time>
      </trkpt>
      <trkpt lat="48.92564" lon="0.13947">
        <ele>243</ele>
        <time>2019-04-28T11:18:07Z</time>
      </trkpt>
      <trkpt lat="48.9257" lon="0.1396">
        <ele>242</ele>
        <time>2019-04-28T11:18:12Z</time>
      </trkpt>
      <trkpt lat="48.92578" lon="0.13978">
        <ele>243</ele>
        <time>2019-04-28T11:18:22Z</time>
      </trkpt>
      <trkpt lat="48.92585" lon="0.13995">
        <ele>243</ele>
        <time>2019-04-28T11:18:32Z</time>
      </trkpt>
      <trkpt lat="48.92589" lon="0.14005">
        <ele>243</ele>
        <time>2019-04-28T11:18:37Z</time>
      </trkpt>
      <trkpt lat="48.92601" lon="0.14018">
        <ele>245</ele>
        <time>2019-04-28T11:18:47Z</time>
      </trkpt>
      <trkpt lat="48.92611" lon="0.14023">
        <ele>246</ele>
        <time>2019-04-28T11:18:52Z</time>
      </trkpt>
      <trkpt lat="48.92619" lon="0.14024">
        <ele>246</ele>
        <time>2019-04-28T11:18:57Z</time>
      </trkpt>
      <trkpt lat="48.92626" lon="0.14022">
        <ele>246</ele>
        <time>2019-04-28T11:19:02Z</time>
      </trkpt>
      <trkpt lat="48.92638" lon="0.14015">
        <ele>246</ele>
        <time>2019-04-28T11:19:12Z</time>
      </trkpt>
      <trkpt lat="48.92646" lon="0.1401">
        <ele>247</ele>
        <time>2019-04-28T11:19:17Z</time>
      </trkpt>
      <trkpt lat="48.92653" lon="0.14004">
        <ele>249</ele>
        <time>2019-04-28T11:19:22Z</time>
      </trkpt>
      <trkpt lat="48.92663" lon="0.13998">
        <ele>250</ele>
        <time>2019-04-28T11:19:32Z</time>
      </trkpt>
      <trkpt lat="48.92676" lon="0.13991">
        <ele>250</ele>
        <time>2019-04-28T11:19:42Z</time>
      </trkpt>
      <trkpt lat="48.92685" lon="0.13987">
        <ele>249</ele>
        <time>2019-04-28T11:19:47Z</time>
      </trkpt>
      <trkpt lat="48.92693" lon="0.13983">
        <ele>248</ele>
        <time>2019-04-28T11:19:52Z</time>
      </trkpt>
      <trkpt lat="48.92706" lon="0.13979">
        <ele>248</ele>
        <time>2019-04-28T11:20:02Z</time>
      </trkpt>
      <trkpt lat="48.92714" lon="0.13977">
        <ele>247</ele>
        <time>2019-04-28T11:20:07Z</time>
      </trkpt>
      <trkpt lat="48.92725" lon="0.13979">
        <ele>245</ele>
        <time>2019-04-28T11:20:17Z</time>
      </trkpt>
      <trkpt lat="48.92732" lon="0.13983">
        <ele>243</ele>
        <time>2019-04-28T11:20:22Z</time>
      </trkpt>
      <trkpt lat="48.92742" lon="0.13992">
        <ele>240</ele>
        <time>2019-04-28T11:20:32Z</time>
      </trkpt>
      <trkpt lat="48.92749" lon="0.14">
        <ele>239</ele>
        <time>2019-04-28T11:20:37Z</time>
      </trkpt>
      <trkpt lat="48.92757" lon="0.14011">
        <ele>237</ele>
        <time>2019-04-28T11:20:47Z</time>
      </trkpt>
      <trkpt lat="48.92763" lon="0.1402">
        <ele>235</ele>
        <time>2019-04-28T11:20:52Z</time>
      </trkpt>
      <trkpt lat="48.9277" lon="0.14035">
        <ele>234</ele>
        <time>2019-04-28T11:21:02Z</time>
      </trkpt>
      <trkpt lat="48.92775" lon="0.14045">
        <ele>234</ele>
        <time>2019-04-28T11:21:07Z</time>
      </trkpt>
      <trkpt lat="48.92779" lon="0.14056">
        <ele>232</ele>
        <time>2019-04-28T11:21:12Z</time>
      </trkpt>
      <trkpt lat="48.92786" lon="0.14069">
        <ele>231</ele>
        <time>2019-04-28T11:21:22Z</time>
      </trkpt>
      <trkpt lat="48.9279" lon="0.1408">
        <ele>229</ele>
        <time>2019-04-28T11:21:27Z</time>
      </trkpt>
      <trkpt lat="48.92794" lon="0.1409">
        <ele>227</ele>
        <time>2019-04-28T11:21:32Z</time>
      </trkpt>
      <trkpt lat="48.92797" lon="0.141">
        <ele>226</ele>
        <time>2019-04-28T11:21:37Z</time>
      </trkpt>
      <trkpt lat="48.92802" lon="0.14116">
        <ele>223</ele>
        <time>2019-04-28T11:21:47Z</time>
      </trkpt>
      <trkpt lat="48.92805" lon="0.14127">
        <ele>223</ele>
        <time>2019-04-28T11:21:52Z</time>
      </trkpt>
      <trkpt lat="48.92808" lon="0.14137">
        <ele>222</ele>
        <time>2019-04-28T11:21:57Z</time>
      </trkpt>
      <trkpt lat="48.9281" lon="0.14147">
        <ele>221</ele>
        <time>2019-04-28T11:22:02Z</time>
      </trkpt>
      <trkpt lat="48.92813" lon="0.14161">
        <ele>218</ele>
        <time>2019-04-28T11:22:12Z</time>
      </trkpt>
      <trkpt lat="48.92817" lon="0.14174">
        <ele>216</ele>
        <time>2019-04-28T11:22:22Z</time>
      </trkpt>
      <trkpt lat="48.9282" lon="0.14184">
        <ele>216</ele>
        <time>2019-04-28T11:22:27Z</time>
      </trkpt>
      <trkpt lat="48.92823" lon="0.14192">
        <ele>215</ele>
        <time>2019-04-28T11:22:32Z</time>
      </trkpt>
      <trkpt lat="48.92832" lon="0.14207">
        <ele>214</ele>
        <time>2019-04-28T11:22:42Z</time>
      </trkpt>
      <trkpt lat="48.92841" lon="0.14216">
        <ele>213</ele>
        <time>2019-04-28T11:22:52Z</time>
      </trkpt>
      <trkpt lat="48.92847" lon="0.1422">
        <ele>212</ele>
        <time>2019-04-28T11:22:57Z</time>
      </trkpt>
      <trkpt lat="48.92854" lon="0.14222">
        <ele>211</ele>
        <time>2019-04-28T11:23:02Z</time>
      </trkpt>
      <trkpt lat="48.92864" lon="0.14222">
        <ele>210</ele>
        <time>2019-04-28T11:23:12Z</time>
      </trkpt>
      <trkpt lat="48.92876" lon="0.1422">
        <ele>209</ele>
        <time>2019-04-28T11:23:18Z</time>
      </trkpt>
      <trkpt lat="48.92885" lon="0.14216">
        <ele>210</ele>
        <time>2019-04-28T11:23:24Z</time>
      </trkpt>
      <trkpt lat="48.92892" lon="0.14213">
        <ele>210</ele>
        <time>2019-04-28T11:23:29Z</time>
      </trkpt>
      <trkpt lat="48.92898" lon="0.1421">
        <ele>210</ele>
        <time>2019-04-28T11:23:34Z</time>
      </trkpt>
      <trkpt lat="48.92904" lon="0.14206">
        <ele>210</ele>
        <time>2019-04-28T11:27:22Z</time>
      </trkpt>
      <trkpt lat="48.92908" lon="0.14203">
        <ele>210</ele>
        <time>2019-04-28T11:27:22Z</time>
      </trkpt>
      <trkpt lat="48.92915" lon="0.14198">
        <ele>210</ele>
        <time>2019-04-28T11:27:22Z</time>
      </trkpt>
      <trkpt lat="48.9292" lon="0.14195">
        <ele>210</ele>
        <time>2019-04-28T11:27:22Z</time>
      </trkpt>
      <trkpt lat="48.92926" lon="0.14193">
        <ele>210</ele>
        <time>2019-04-28T11:27:22Z</time>
      </trkpt>
      <trkpt lat="48.92931" lon="0.14194">
        <ele>210</ele>
        <time>2019-04-28T11:27:22Z</time>
      </trkpt>
      <trkpt lat="48.92935" lon="0.14196">
        <ele>210</ele>
        <time>2019-04-28T11:27:22Z</time>
      </trkpt>
      <trkpt lat="48.92939" lon="0.14195">
        <ele>210</ele>
        <time>2019-04-28T11:27:22Z</time>
      </trkpt>
      <trkpt lat="48.92943" lon="0.14192">
        <ele>210</ele>
        <time>2019-04-28T11:27:22Z</time>
      </trkpt>
      <trkpt lat="48.92945" lon="0.14191">
        <ele>210</ele>
        <time>2019-04-28T11:27:22Z</time>
      </trkpt>
      <trkpt lat="48.92945" lon="0.14191">
        <ele>210</ele>
        <time>2019-04-28T11:27:22Z</time>
      </trkpt>
      <trkpt lat="48.92945" lon="0.1419">
        <ele>210</ele>
        <time>2019-04-28T11:27:22Z</time>
      </trkpt>
      <trkpt lat="48.92946" lon="0.1419">
        <ele>210</ele>
        <time>2019-04-28T11:27:22Z</time>
      </trkpt>
      <trkpt lat="48.92946" lon="0.1419">
        <ele>210</ele>
        <time>2019-04-28T11:27:22Z</time>
      </trkpt>
      <trkpt lat="48.92946" lon="0.1419">
        <ele>210</ele>
        <time>2019-04-28T11:27:22Z</time>
      </trkpt>
      <trkpt lat="48.92946" lon="0.1419">
        <ele>210</ele>
        <time>2019-04-28T11:27:22Z</time>
      </trkpt>
      <trkpt lat="48.92946" lon="0.1419">
        <ele>210</ele>
        <time>2019-04-28T11:27:22Z</time>
      </trkpt>
      <trkpt lat="48.92947" lon="0.1419">
        <ele>210</ele>
        <time>2019-04-28T11:27:22Z</time>
      </trkpt>
      <trkpt lat="48.92949" lon="0.14186">
        <ele>210</ele>
        <time>2019-04-28T11:27:22Z</time>
      </trkpt>
      <trkpt lat="48.92949" lon="0.14185">
        <ele>210</ele>
        <time>2019-04-28T11:27:22Z</time>
      </trkpt>
      <trkpt lat="48.9295" lon="0.14184">
        <ele>210</ele>
        <time>2019-04-28T11:27:22Z</time>
      </trkpt>
      <trkpt lat="48.9295" lon="0.14184">
        <ele>210</ele>
        <time>2019-04-28T11:27:22Z</time>
      </trkpt>
      <trkpt lat="48.9295" lon="0.14184">
        <ele>210</ele>
        <time>2019-04-28T11:27:22Z</time>
      </trkpt>
      <trkpt lat="48.9295" lon="0.14184">
        <ele>210</ele>
        <time>2019-04-28T11:27:22Z</time>
      </trkpt>
      <trkpt lat="48.9295" lon="0.14184">
        <ele>210</ele>
        <time>2019-04-28T11:27:22Z</time>
      </trkpt>
      <trkpt lat="48.9295" lon="0.14184">
        <ele>210</ele>
        <time>2019-04-28T11:27:22Z</time>
      </trkpt>
      <trkpt lat="48.9295" lon="0.14184">
        <ele>210</ele>
        <time>2019-04-28T11:27:22Z</time>
      </trkpt>
      <trkpt lat="48.9295" lon="0.14184">
        <ele>210</ele>
        <time>2019-04-28T11:27:22Z</time>
      </trkpt>
      <trkpt lat="48.9295" lon="0.14184">
        <ele>210</ele>
        <time>2019-04-28T11:27:22Z</time>
      </trkpt>
      <trkpt lat="48.9295" lon="0.14184">
        <ele>210</ele>
        <time>2019-04-28T11:27:22Z</time>
      </trkpt>
      <trkpt lat="48.92951" lon="0.14182">
        <ele>210</ele>
        <time>2019-04-28T11:27:22Z</time>
      </trkpt>
      <trkpt lat="48.92952" lon="0.1418">
        <ele>210</ele>
        <time>2019-04-28T11:27:22Z</time>
      </trkpt>
      <trkpt lat="48.92952" lon="0.14179">
        <ele>210</ele>
        <time>2019-04-28T11:27:22Z</time>
      </trkpt>
      <trkpt lat="48.92953" lon="0.14179">
        <ele>210</ele>
        <time>2019-04-28T11:27:22Z</time>
      </trkpt>
      <trkpt lat="48.92953" lon="0.14179">
        <ele>210</ele>
        <time>2019-04-28T11:27:22Z</time>
      </trkpt>
      <trkpt lat="48.92953" lon="0.14179">
        <ele>210</ele>
        <time>2019-04-28T11:27:22Z</time>
      </trkpt>
      <trkpt lat="48.92953" lon="0.14179">
        <ele>210</ele>
        <time>2019-04-28T11:27:22Z</time>
      </trkpt>
      <trkpt lat="48.92953" lon="0.14179">
        <ele>210</ele>
        <time>2019-04-28T11:27:22Z</time>
      </trkpt>
      <trkpt lat="48.92953" lon="0.14179">
        <ele>210</ele>
        <time>2019-04-28T11:27:22Z</time>
      </trkpt>
      <trkpt lat="48.92954" lon="0.14175">
        <ele>209</ele>
        <time>2019-04-28T11:27:24Z</time>
      </trkpt>
      <trkpt lat="48.92954" lon="0.14172">
        <ele>209</ele>
        <time>2019-04-28T11:27:29Z</time>
      </trkpt>
      <trkpt lat="48.92955" lon="0.1417">
        <ele>207</ele>
        <time>2019-04-28T11:27:39Z</time>
      </trkpt>
      <trkpt lat="48.92955" lon="0.14169">
        <ele>206</ele>
        <time>2019-04-28T11:27:44Z</time>
      </trkpt>
      <trkpt lat="48.92955" lon="0.14173">
        <ele>206</ele>
        <time>2019-04-28T11:27:54Z</time>
      </trkpt>
      <trkpt lat="48.92954" lon="0.14178">
        <ele>206</ele>
        <time>2019-04-28T11:27:59Z</time>
      </trkpt>
      <trkpt lat="48.92952" lon="0.14181">
        <ele>204</ele>
        <time>2019-04-28T11:28:09Z</time>
      </trkpt>
      <trkpt lat="48.92952" lon="0.14183">
        <ele>207</ele>
        <time>2019-04-28T11:28:14Z</time>
      </trkpt>
      <trkpt lat="48.92952" lon="0.14183">
        <ele>208</ele>
        <time>2019-04-28T11:28:24Z</time>
      </trkpt>
      <trkpt lat="48.92952" lon="0.14183">
        <ele>208</ele>
        <time>2019-04-28T11:28:29Z</time>
      </trkpt>
      <trkpt lat="48.92952" lon="0.14184">
        <ele>208</ele>
        <time>2019-04-28T11:28:34Z</time>
      </trkpt>
      <trkpt lat="48.92952" lon="0.14184">
        <ele>208</ele>
        <time>2019-04-28T11:28:39Z</time>
      </trkpt>
      <trkpt lat="48.92952" lon="0.14184">
        <ele>208</ele>
        <time>2019-04-28T11:28:49Z</time>
      </trkpt>
      <trkpt lat="48.92952" lon="0.14184">
        <ele>208</ele>
        <time>2019-04-28T11:28:59Z</time>
      </trkpt>
      <trkpt lat="48.92952" lon="0.14184">
        <ele>208</ele>
        <time>2019-04-28T11:29:09Z</time>
      </trkpt>
      <trkpt lat="48.92952" lon="0.14184">
        <ele>208</ele>
        <time>2019-04-28T11:29:14Z</time>
      </trkpt>
      <trkpt lat="48.92952" lon="0.14184">
        <ele>208</ele>
        <time>2019-04-28T11:29:19Z</time>
      </trkpt>
      <trkpt lat="48.92952" lon="0.14183">
        <ele>207</ele>
        <time>2019-04-28T11:29:29Z</time>
      </trkpt>
      <trkpt lat="48.92952" lon="0.14182">
        <ele>207</ele>
        <time>2019-04-28T11:29:39Z</time>
      </trkpt>
      <trkpt lat="48.92953" lon="0.14182">
        <ele>207</ele>
        <time>2019-04-28T11:29:49Z</time>
      </trkpt>
      <trkpt lat="48.92953" lon="0.14182">
        <ele>207</ele>
        <time>2019-04-28T11:29:59Z</time>
      </trkpt>
      <trkpt lat="48.92953" lon="0.14182">
        <ele>207</ele>
        <time>2019-04-28T11:30:09Z</time>
      </trkpt>
      <trkpt lat="48.92953" lon="0.14182">
        <ele>207</ele>
        <time>2019-04-28T11:30:19Z</time>
      </trkpt>
      <trkpt lat="48.92953" lon="0.14182">
        <ele>207</ele>
        <time>2019-04-28T11:30:24Z</time>
      </trkpt>
      <trkpt lat="48.92953" lon="0.14182">
        <ele>207</ele>
        <time>2019-04-28T11:30:29Z</time>
      </trkpt>
      <trkpt lat="48.92953" lon="0.14182">
        <ele>207</ele>
        <time>2019-04-28T11:30:39Z</time>
      </trkpt>
      <trkpt lat="48.92953" lon="0.14182">
        <ele>207</ele>
        <time>2019-04-28T11:30:49Z</time>
      </trkpt>
      <trkpt lat="48.92953" lon="0.14183">
        <ele>207</ele>
        <time>2019-04-28T11:30:54Z</time>
      </trkpt>
      <trkpt lat="48.92953" lon="0.14183">
        <ele>207</ele>
        <time>2019-04-28T11:30:59Z</time>
      </trkpt>
      <trkpt lat="48.92953" lon="0.14183">
        <ele>207</ele>
        <time>2019-04-28T11:31:04Z</time>
      </trkpt>
      <trkpt lat="48.92953" lon="0.14183">
        <ele>207</ele>
        <time>2019-04-28T11:31:09Z</time>
      </trkpt>
      <trkpt lat="48.92953" lon="0.14183">
        <ele>207</ele>
        <time>2019-04-28T11:31:19Z</time>
      </trkpt>
      <trkpt lat="48.92953" lon="0.14184">
        <ele>207</ele>
        <time>2019-04-28T11:31:29Z</time>
      </trkpt>
      <trkpt lat="48.92953" lon="0.14184">
        <ele>207</ele>
        <time>2019-04-28T11:31:39Z</time>
      </trkpt>
      <trkpt lat="48.92953" lon="0.14183">
        <ele>207</ele>
        <time>2019-04-28T11:31:44Z</time>
      </trkpt>
      <trkpt lat="48.92952" lon="0.14184">
        <ele>207</ele>
        <time>2019-04-28T11:31:54Z</time>
      </trkpt>
      <trkpt lat="48.92952" lon="0.14184">
        <ele>207</ele>
        <time>2019-04-28T11:31:59Z</time>
      </trkpt>
      <trkpt lat="48.92952" lon="0.14184">
        <ele>206</ele>
        <time>2019-04-28T11:32:09Z</time>
      </trkpt>
      <trkpt lat="48.92952" lon="0.14185">
        <ele>206</ele>
        <time>2019-04-28T11:32:19Z</time>
      </trkpt>
      <trkpt lat="48.92952" lon="0.14185">
        <ele>206</ele>
        <time>2019-04-28T11:32:29Z</time>
      </trkpt>
      <trkpt lat="48.92952" lon="0.14185">
        <ele>206</ele>
        <time>2019-04-28T11:32:39Z</time>
      </trkpt>
      <trkpt lat="48.92952" lon="0.14185">
        <ele>206</ele>
        <time>2019-04-28T11:32:49Z</time>
      </trkpt>
      <trkpt lat="48.92952" lon="0.14185">
        <ele>206</ele>
        <time>2019-04-28T11:32:59Z</time>
      </trkpt>
      <trkpt lat="48.92952" lon="0.14185">
        <ele>206</ele>
        <time>2019-04-28T11:33:09Z</time>
      </trkpt>
      <trkpt lat="48.92952" lon="0.14185">
        <ele>206</ele>
        <time>2019-04-28T11:33:19Z</time>
      </trkpt>
      <trkpt lat="48.92952" lon="0.14185">
        <ele>206</ele>
        <time>2019-04-28T11:33:24Z</time>
      </trkpt>
      <trkpt lat="48.92952" lon="0.14185">
        <ele>206</ele>
        <time>2019-04-28T11:33:34Z</time>
      </trkpt>
      <trkpt lat="48.92952" lon="0.14185">
        <ele>206</ele>
        <time>2019-04-28T11:33:44Z</time>
      </trkpt>
      <trkpt lat="48.92952" lon="0.14184">
        <ele>206</ele>
        <time>2019-04-28T11:33:49Z</time>
      </trkpt>
      <trkpt lat="48.92952" lon="0.14184">
        <ele>206</ele>
        <time>2019-04-28T11:33:54Z</time>
      </trkpt>
      <trkpt lat="48.92952" lon="0.14183">
        <ele>204</ele>
        <time>2019-04-28T11:34:04Z</time>
      </trkpt>
      <trkpt lat="48.92952" lon="0.14182">
        <ele>204</ele>
        <time>2019-04-28T11:34:14Z</time>
      </trkpt>
      <trkpt lat="48.92951" lon="0.14181">
        <ele>204</ele>
        <time>2019-04-28T11:34:24Z</time>
      </trkpt>
      <trkpt lat="48.92951" lon="0.14181">
        <ele>204</ele>
        <time>2019-04-28T11:34:29Z</time>
      </trkpt>
      <trkpt lat="48.92951" lon="0.14181">
        <ele>204</ele>
        <time>2019-04-28T11:34:39Z</time>
      </trkpt>
      <trkpt lat="48.92951" lon="0.14181">
        <ele>205</ele>
        <time>2019-04-28T11:34:49Z</time>
      </trkpt>
      <trkpt lat="48.92951" lon="0.14181">
        <ele>205</ele>
        <time>2019-04-28T11:34:54Z</time>
      </trkpt>
      <trkpt lat="48.92951" lon="0.14182">
        <ele>205</ele>
        <time>2019-04-28T11:35:04Z</time>
      </trkpt>
      <trkpt lat="48.92951" lon="0.14183">
        <ele>205</ele>
        <time>2019-04-28T11:35:14Z</time>
      </trkpt>
      <trkpt lat="48.92951" lon="0.14183">
        <ele>205</ele>
        <time>2019-04-28T11:35:19Z</time>
      </trkpt>
      <trkpt lat="48.92951" lon="0.14183">
        <ele>205</ele>
        <time>2019-04-28T11:35:29Z</time>
      </trkpt>
      <trkpt lat="48.92951" lon="0.14183">
        <ele>205</ele>
        <time>2019-04-28T11:35:39Z</time>
      </trkpt>
      <trkpt lat="48.92951" lon="0.14183">
        <ele>205</ele>
        <time>2019-04-28T11:35:49Z</time>
      </trkpt>
      <trkpt lat="48.92951" lon="0.14183">
        <ele>205</ele>
        <time>2019-04-28T11:35:59Z</time>
      </trkpt>
      <trkpt lat="48.92951" lon="0.14183">
        <ele>205</ele>
        <time>2019-04-28T11:36:09Z</time>
      </trkpt>
      <trkpt lat="48.92951" lon="0.14183">
        <ele>205</ele>
        <time>2019-04-28T11:36:14Z</time>
      </trkpt>
      <trkpt lat="48.92951" lon="0.14183">
        <ele>205</ele>
        <time>2019-04-28T11:36:24Z</time>
      </trkpt>
      <trkpt lat="48.92951" lon="0.14183">
        <ele>205</ele>
        <time>2019-04-28T11:36:29Z</time>
      </trkpt>
      <trkpt lat="48.92952" lon="0.14184">
        <ele>206</ele>
        <time>2019-04-28T11:36:39Z</time>
      </trkpt>
      <trkpt lat="48.92952" lon="0.14185">
        <ele>206</ele>
        <time>2019-04-28T11:36:49Z</time>
      </trkpt>
      <trkpt lat="48.92952" lon="0.14185">
        <ele>206</ele>
        <time>2019-04-28T11:36:54Z</time>
      </trkpt>
      <trkpt lat="48.92952" lon="0.14185">
        <ele>206</ele>
        <time>2019-04-28T11:36:59Z</time>
      </trkpt>
      <trkpt lat="48.92952" lon="0.14185">
        <ele>206</ele>
        <time>2019-04-28T11:37:09Z</time>
      </trkpt>
      <trkpt lat="48.92952" lon="0.14185">
        <ele>206</ele>
        <time>2019-04-28T11:37:14Z</time>
      </trkpt>
      <trkpt lat="48.92952" lon="0.14185">
        <ele>206</ele>
        <time>2019-04-28T11:37:24Z</time>
      </trkpt>
      <trkpt lat="48.92952" lon="0.14185">
        <ele>206</ele>
        <time>2019-04-28T11:37:29Z</time>
      </trkpt>
      <trkpt lat="48.92952" lon="0.14185">
        <ele>206</ele>
        <time>2019-04-28T11:37:39Z</time>
      </trkpt>
      <trkpt lat="48.92952" lon="0.14185">
        <ele>206</ele>
        <time>2019-04-28T11:37:49Z</time>
      </trkpt>
      <trkpt lat="48.92952" lon="0.14185">
        <ele>206</ele>
        <time>2019-04-28T11:37:59Z</time>
      </trkpt>
      <trkpt lat="48.92952" lon="0.14185">
        <ele>206</ele>
        <time>2019-04-28T11:38:09Z</time>
      </trkpt>
      <trkpt lat="48.92952" lon="0.14185">
        <ele>206</ele>
        <time>2019-04-28T11:38:14Z</time>
      </trkpt>
      <trkpt lat="48.92952" lon="0.14185">
        <ele>206</ele>
        <time>2019-04-28T11:38:24Z</time>
      </trkpt>
      <trkpt lat="48.92952" lon="0.14185">
        <ele>206</ele>
        <time>2019-04-28T11:38:34Z</time>
      </trkpt>
      <trkpt lat="48.92952" lon="0.14185">
        <ele>206</ele>
        <time>2019-04-28T11:38:44Z</time>
      </trkpt>
      <trkpt lat="48.92952" lon="0.14185">
        <ele>206</ele>
        <time>2019-04-28T11:38:49Z</time>
      </trkpt>
      <trkpt lat="48.92952" lon="0.14185">
        <ele>206</ele>
        <time>2019-04-28T11:38:59Z</time>
      </trkpt>
      <trkpt lat="48.92952" lon="0.14185">
        <ele>206</ele>
        <time>2019-04-28T11:39:09Z</time>
      </trkpt>
      <trkpt lat="48.92952" lon="0.14186">
        <ele>206</ele>
        <time>2019-04-28T11:39:14Z</time>
      </trkpt>
      <trkpt lat="48.92952" lon="0.14186">
        <ele>206</ele>
        <time>2019-04-28T11:39:19Z</time>
      </trkpt>
      <trkpt lat="48.92952" lon="0.14186">
        <ele>206</ele>
        <time>2019-04-28T11:39:24Z</time>
      </trkpt>
      <trkpt lat="48.92952" lon="0.14186">
        <ele>206</ele>
        <time>2019-04-28T11:39:34Z</time>
      </trkpt>
      <trkpt lat="48.92953" lon="0.14186">
        <ele>206</ele>
        <time>2019-04-28T11:39:39Z</time>
      </trkpt>
      <trkpt lat="48.92953" lon="0.14186">
        <ele>206</ele>
        <time>2019-04-28T11:39:49Z</time>
      </trkpt>
      <trkpt lat="48.92953" lon="0.14186">
        <ele>205</ele>
        <time>2019-04-28T11:39:54Z</time>
      </trkpt>
      <trkpt lat="48.92952" lon="0.14186">
        <ele>205</ele>
        <time>2019-04-28T11:39:59Z</time>
      </trkpt>
      <trkpt lat="48.92951" lon="0.14186">
        <ele>205</ele>
        <time>2019-04-28T11:40:09Z</time>
      </trkpt>
      <trkpt lat="48.92951" lon="0.14185">
        <ele>205</ele>
        <time>2019-04-28T11:40:19Z</time>
      </trkpt>
      <trkpt lat="48.92951" lon="0.14185">
        <ele>205</ele>
        <time>2019-04-28T11:40:29Z</time>
      </trkpt>
      <trkpt lat="48.92951" lon="0.14185">
        <ele>205</ele>
        <time>2019-04-28T11:40:39Z</time>
      </trkpt>
      <trkpt lat="48.9295" lon="0.14185">
        <ele>205</ele>
        <time>2019-04-28T11:40:49Z</time>
      </trkpt>
      <trkpt lat="48.9295" lon="0.14184">
        <ele>205</ele>
        <time>2019-04-28T11:40:54Z</time>
      </trkpt>
      <trkpt lat="48.92953" lon="0.14179">
        <ele>207</ele>
        <time>2019-04-28T11:41:04Z</time>
      </trkpt>
      <trkpt lat="48.92955" lon="0.14174">
        <ele>207</ele>
        <time>2019-04-28T11:41:09Z</time>
      </trkpt>
      <trkpt lat="48.92956" lon="0.14171">
        <ele>206</ele>
        <time>2019-04-28T11:41:19Z</time>
      </trkpt>
      <trkpt lat="48.92956" lon="0.1417">
        <ele>206</ele>
        <time>2019-04-28T11:41:24Z</time>
      </trkpt>
      <trkpt lat="48.92956" lon="0.1417">
        <ele>206</ele>
        <time>2019-04-28T11:41:34Z</time>
      </trkpt>
      <trkpt lat="48.92955" lon="0.14172">
        <ele>206</ele>
        <time>2019-04-28T11:41:39Z</time>
      </trkpt>
      <trkpt lat="48.92954" lon="0.14176">
        <ele>206</ele>
        <time>2019-04-28T11:41:49Z</time>
      </trkpt>
      <trkpt lat="48.92954" lon="0.14177">
        <ele>206</ele>
        <time>2019-04-28T11:41:59Z</time>
      </trkpt>
      <trkpt lat="48.92953" lon="0.14178">
        <ele>206</ele>
        <time>2019-04-28T11:42:09Z</time>
      </trkpt>
      <trkpt lat="48.92953" lon="0.14178">
        <ele>206</ele>
        <time>2019-04-28T11:42:14Z</time>
      </trkpt>
      <trkpt lat="48.92953" lon="0.14178">
        <ele>206</ele>
        <time>2019-04-28T11:42:24Z</time>
      </trkpt>
      <trkpt lat="48.92953" lon="0.14178">
        <ele>206</ele>
        <time>2019-04-28T11:42:34Z</time>
      </trkpt>
      <trkpt lat="48.92953" lon="0.14178">
        <ele>206</ele>
        <time>2019-04-28T11:42:39Z</time>
      </trkpt>
      <trkpt lat="48.92953" lon="0.14178">
        <ele>206</ele>
        <time>2019-04-28T11:42:49Z</time>
      </trkpt>
      <trkpt lat="48.92953" lon="0.14178">
        <ele>206</ele>
        <time>2019-04-28T11:42:54Z</time>
      </trkpt>
      <trkpt lat="48.92953" lon="0.14179">
        <ele>206</ele>
        <time>2019-04-28T11:43:04Z</time>
      </trkpt>
      <trkpt lat="48.92953" lon="0.14179">
        <ele>206</ele>
        <time>2019-04-28T11:43:14Z</time>
      </trkpt>
      <trkpt lat="48.92953" lon="0.1418">
        <ele>206</ele>
        <time>2019-04-28T11:43:19Z</time>
      </trkpt>
      <trkpt lat="48.92953" lon="0.1418">
        <ele>206</ele>
        <time>2019-04-28T11:43:29Z</time>
      </trkpt>
      <trkpt lat="48.92953" lon="0.1418">
        <ele>206</ele>
        <time>2019-04-28T11:43:34Z</time>
      </trkpt>
      <trkpt lat="48.92953" lon="0.1418">
        <ele>206</ele>
        <time>2019-04-28T11:43:44Z</time>
      </trkpt>
      <trkpt lat="48.92953" lon="0.1418">
        <ele>206</ele>
        <time>2019-04-28T11:43:49Z</time>
      </trkpt>
      <trkpt lat="48.92953" lon="0.1418">
        <ele>206</ele>
        <time>2019-04-28T11:43:59Z</time>
      </trkpt>
      <trkpt lat="48.92953" lon="0.1418">
        <ele>206</ele>
        <time>2019-04-28T11:44:09Z</time>
      </trkpt>
      <trkpt lat="48.92953" lon="0.1418">
        <ele>206</ele>
        <time>2019-04-28T11:44:14Z</time>
      </trkpt>
      <trkpt lat="48.92953" lon="0.1418">
        <ele>206</ele>
        <time>2019-04-28T11:44:19Z</time>
      </trkpt>
      <trkpt lat="48.92953" lon="0.1418">
        <ele>206</ele>
        <time>2019-04-28T11:44:29Z</time>
      </trkpt>
      <trkpt lat="48.92953" lon="0.1418">
        <ele>206</ele>
        <time>2019-04-28T11:44:39Z</time>
      </trkpt>
      <trkpt lat="48.92953" lon="0.1418">
        <ele>206</ele>
        <time>2019-04-28T11:44:49Z</time>
      </trkpt>
      <trkpt lat="48.92953" lon="0.1418">
        <ele>206</ele>
        <time>2019-04-28T11:44:54Z</time>
      </trkpt>
      <trkpt lat="48.92953" lon="0.1418">
        <ele>206</ele>
        <time>2019-04-28T11:45:04Z</time>
      </trkpt>
      <trkpt lat="48.92953" lon="0.1418">
        <ele>206</ele>
        <time>2019-04-28T11:45:09Z</time>
      </trkpt>
      <trkpt lat="48.92953" lon="0.1418">
        <ele>206</ele>
        <time>2019-04-28T11:45:19Z</time>
      </trkpt>
      <trkpt lat="48.92953" lon="0.1418">
        <ele>206</ele>
        <time>2019-04-28T11:45:29Z</time>
      </trkpt>
      <trkpt lat="48.92953" lon="0.1418">
        <ele>206</ele>
        <time>2019-04-28T11:45:34Z</time>
      </trkpt>
      <trkpt lat="48.92953" lon="0.1418">
        <ele>206</ele>
        <time>2019-04-28T11:45:44Z</time>
      </trkpt>
      <trkpt lat="48.92953" lon="0.1418">
        <ele>206</ele>
        <time>2019-04-28T11:45:54Z</time>
      </trkpt>
      <trkpt lat="48.92953" lon="0.1418">
        <ele>206</ele>
        <time>2019-04-28T11:46:04Z</time>
      </trkpt>
      <trkpt lat="48.92953" lon="0.1418">
        <ele>206</ele>
        <time>2019-04-28T11:46:14Z</time>
      </trkpt>
      <trkpt lat="48.92953" lon="0.1418">
        <ele>206</ele>
        <time>2019-04-28T11:46:24Z</time>
      </trkpt>
      <trkpt lat="48.92953" lon="0.1418">
        <ele>206</ele>
        <time>2019-04-28T11:46:29Z</time>
      </trkpt>
      <trkpt lat="48.92953" lon="0.1418">
        <ele>206</ele>
        <time>2019-04-28T11:46:39Z</time>
      </trkpt>
      <trkpt lat="48.92953" lon="0.14181">
        <ele>207</ele>
        <time>2019-04-28T11:46:44Z</time>
      </trkpt>
      <trkpt lat="48.92954" lon="0.14182">
        <ele>207</ele>
        <time>2019-04-28T11:46:54Z</time>
      </trkpt>
      <trkpt lat="48.92954" lon="0.14182">
        <ele>207</ele>
        <time>2019-04-28T11:46:59Z</time>
      </trkpt>
      <trkpt lat="48.92954" lon="0.14182">
        <ele>207</ele>
        <time>2019-04-28T11:47:09Z</time>
      </trkpt>
      <trkpt lat="48.92954" lon="0.14183">
        <ele>207</ele>
        <time>2019-04-28T11:47:14Z</time>
      </trkpt>
      <trkpt lat="48.92954" lon="0.14184">
        <ele>208</ele>
        <time>2019-04-28T11:47:24Z</time>
      </trkpt>
      <trkpt lat="48.92954" lon="0.14184">
        <ele>208</ele>
        <time>2019-04-28T11:47:29Z</time>
      </trkpt>
      <trkpt lat="48.92954" lon="0.14185">
        <ele>209</ele>
        <time>2019-04-28T11:47:39Z</time>
      </trkpt>
      <trkpt lat="48.92955" lon="0.14185">
        <ele>209</ele>
        <time>2019-04-28T11:47:49Z</time>
      </trkpt>
      <trkpt lat="48.92955" lon="0.14185">
        <ele>209</ele>
        <time>2019-04-28T11:47:54Z</time>
      </trkpt>
      <trkpt lat="48.92955" lon="0.14185">
        <ele>209</ele>
        <time>2019-04-28T11:47:59Z</time>
      </trkpt>
      <trkpt lat="48.92956" lon="0.14186">
        <ele>208</ele>
        <time>2019-04-28T11:48:09Z</time>
      </trkpt>
      <trkpt lat="48.92957" lon="0.14186">
        <ele>208</ele>
        <time>2019-04-28T11:48:19Z</time>
      </trkpt>
      <trkpt lat="48.92958" lon="0.14186">
        <ele>208</ele>
        <time>2019-04-28T11:48:24Z</time>
      </trkpt>
      <trkpt lat="48.92958" lon="0.14187">
        <ele>208</ele>
        <time>2019-04-28T11:48:29Z</time>
      </trkpt>
      <trkpt lat="48.92958" lon="0.14187">
        <ele>208</ele>
        <time>2019-04-28T11:48:39Z</time>
      </trkpt>
      <trkpt lat="48.92958" lon="0.14187">
        <ele>208</ele>
        <time>2019-04-28T11:48:49Z</time>
      </trkpt>
      <trkpt lat="48.92958" lon="0.14187">
        <ele>208</ele>
        <time>2019-04-28T11:48:59Z</time>
      </trkpt>
      <trkpt lat="48.92958" lon="0.14187">
        <ele>208</ele>
        <time>2019-04-28T11:49:04Z</time>
      </trkpt>
      <trkpt lat="48.92958" lon="0.14187">
        <ele>208</ele>
        <time>2019-04-28T11:49:14Z</time>
      </trkpt>
      <trkpt lat="48.92958" lon="0.14187">
        <ele>208</ele>
        <time>2019-04-28T11:49:24Z</time>
      </trkpt>
      <trkpt lat="48.92958" lon="0.14187">
        <ele>208</ele>
        <time>2019-04-28T11:49:34Z</time>
      </trkpt>
      <trkpt lat="48.92958" lon="0.14187">
        <ele>208</ele>
        <time>2019-04-28T11:49:39Z</time>
      </trkpt>
      <trkpt lat="48.92958" lon="0.14187">
        <ele>208</ele>
        <time>2019-04-28T11:49:49Z</time>
      </trkpt>
      <trkpt lat="48.92958" lon="0.14187">
        <ele>208</ele>
        <time>2019-04-28T11:49:59Z</time>
      </trkpt>
      <trkpt lat="48.92958" lon="0.14187">
        <ele>208</ele>
        <time>2019-04-28T11:50:09Z</time>
      </trkpt>
      <trkpt lat="48.92958" lon="0.14187">
        <ele>208</ele>
        <time>2019-04-28T11:50:14Z</time>
      </trkpt>
      <trkpt lat="48.92958" lon="0.14187">
        <ele>208</ele>
        <time>2019-04-28T11:50:24Z</time>
      </trkpt>
      <trkpt lat="48.92958" lon="0.14187">
        <ele>208</ele>
        <time>2019-04-28T11:50:34Z</time>
      </trkpt>
      <trkpt lat="48.92958" lon="0.14187">
        <ele>208</ele>
        <time>2019-04-28T11:50:39Z</time>
      </trkpt>
      <trkpt lat="48.92958" lon="0.14187">
        <ele>208</ele>
        <time>2019-04-28T11:50:49Z</time>
      </trkpt>
      <trkpt lat="48.92958" lon="0.14187">
        <ele>208</ele>
        <time>2019-04-28T11:50:59Z</time>
      </trkpt>
      <trkpt lat="48.92958" lon="0.14187">
        <ele>208</ele>
        <time>2019-04-28T11:51:09Z</time>
      </trkpt>
      <trkpt lat="48.92958" lon="0.14187">
        <ele>208</ele>
        <time>2019-04-28T11:51:14Z</time>
      </trkpt>
      <trkpt lat="48.92958" lon="0.14187">
        <ele>208</ele>
        <time>2019-04-28T11:51:19Z</time>
      </trkpt>
      <trkpt lat="48.92958" lon="0.14187">
        <ele>208</ele>
        <time>2019-04-28T11:51:29Z</time>
      </trkpt>
      <trkpt lat="48.92958" lon="0.14187">
        <ele>208</ele>
        <time>2019-04-28T11:51:39Z</time>
      </trkpt>
      <trkpt lat="48.92958" lon="0.14187">
        <ele>208</ele>
        <time>2019-04-28T11:51:44Z</time>
      </trkpt>
      <trkpt lat="48.92958" lon="0.14187">
        <ele>208</ele>
        <time>2019-04-28T11:51:49Z</time>
      </trkpt>
      <trkpt lat="48.92958" lon="0.14187">
        <ele>208</ele>
        <time>2019-04-28T11:51:59Z</time>
      </trkpt>
      <trkpt lat="48.92958" lon="0.14187">
        <ele>208</ele>
        <time>2019-04-28T11:52:04Z</time>
      </trkpt>
      <trkpt lat="48.92958" lon="0.14187">
        <ele>208</ele>
        <time>2019-04-28T11:52:14Z</time>
      </trkpt>
      <trkpt lat="48.92958" lon="0.14187">
        <ele>208</ele>
        <time>2019-04-28T11:52:19Z</time>
      </trkpt>
      <trkpt lat="48.92958" lon="0.14187">
        <ele>208</ele>
        <time>2019-04-28T11:52:29Z</time>
      </trkpt>
      <trkpt lat="48.92958" lon="0.14187">
        <ele>208</ele>
        <time>2019-04-28T11:52:39Z</time>
      </trkpt>
      <trkpt lat="48.92958" lon="0.14187">
        <ele>208</ele>
        <time>2019-04-28T11:52:44Z</time>
      </trkpt>
      <trkpt lat="48.92958" lon="0.14187">
        <ele>208</ele>
        <time>2019-04-28T11:52:49Z</time>
      </trkpt>
      <trkpt lat="48.92957" lon="0.14186">
        <ele>209</ele>
        <time>2019-04-28T11:52:59Z</time>
      </trkpt>
      <trkpt lat="48.92956" lon="0.14185">
        <ele>208</ele>
        <time>2019-04-28T11:53:09Z</time>
      </trkpt>
      <trkpt lat="48.92956" lon="0.14184">
        <ele>208</ele>
        <time>2019-04-28T11:53:19Z</time>
      </trkpt>
      <trkpt lat="48.92956" lon="0.14182">
        <ele>209</ele>
        <time>2019-04-28T11:53:24Z</time>
      </trkpt>
      <trkpt lat="48.92956" lon="0.1418">
        <ele>208</ele>
        <time>2019-04-28T11:53:34Z</time>
      </trkpt>
      <trkpt lat="48.92956" lon="0.14181">
        <ele>209</ele>
        <time>2019-04-28T11:53:44Z</time>
      </trkpt>
      <trkpt lat="48.92955" lon="0.14181">
        <ele>209</ele>
        <time>2019-04-28T11:53:54Z</time>
      </trkpt>
      <trkpt lat="48.92954" lon="0.14181">
        <ele>209</ele>
        <time>2019-04-28T11:54:04Z</time>
      </trkpt>
      <trkpt lat="48.92953" lon="0.14181">
        <ele>209</ele>
        <time>2019-04-28T11:54:09Z</time>
      </trkpt>
      <trkpt lat="48.92952" lon="0.14181">
        <ele>209</ele>
        <time>2019-04-28T11:54:19Z</time>
      </trkpt>
      <trkpt lat="48.92952" lon="0.14181">
        <ele>209</ele>
        <time>2019-04-28T11:54:29Z</time>
      </trkpt>
      <trkpt lat="48.92952" lon="0.14181">
        <ele>209</ele>
        <time>2019-04-28T11:54:34Z</time>
      </trkpt>
      <trkpt lat="48.92952" lon="0.14181">
        <ele>209</ele>
        <time>2019-04-28T11:54:44Z</time>
      </trkpt>
      <trkpt lat="48.92952" lon="0.14181">
        <ele>209</ele>
        <time>2019-04-28T11:54:49Z</time>
      </trkpt>
      <trkpt lat="48.92952" lon="0.14181">
        <ele>209</ele>
        <time>2019-04-28T11:54:54Z</time>
      </trkpt>
      <trkpt lat="48.92952" lon="0.14181">
        <ele>209</ele>
        <time>2019-04-28T11:55:04Z</time>
      </trkpt>
      <trkpt lat="48.92952" lon="0.14181">
        <ele>209</ele>
        <time>2019-04-28T11:55:14Z</time>
      </trkpt>
      <trkpt lat="48.92952" lon="0.14181">
        <ele>209</ele>
        <time>2019-04-28T11:55:19Z</time>
      </trkpt>
      <trkpt lat="48.92952" lon="0.14181">
        <ele>209</ele>
        <time>2019-04-28T11:55:29Z</time>
      </trkpt>
      <trkpt lat="48.92952" lon="0.14181">
        <ele>209</ele>
        <time>2019-04-28T11:55:39Z</time>
      </trkpt>
      <trkpt lat="48.92952" lon="0.14181">
        <ele>209</ele>
        <time>2019-04-28T11:55:44Z</time>
      </trkpt>
      <trkpt lat="48.92952" lon="0.14181">
        <ele>209</ele>
        <time>2019-04-28T11:55:54Z</time>
      </trkpt>
      <trkpt lat="48.92952" lon="0.1418">
        <ele>209</ele>
        <time>2019-04-28T11:55:59Z</time>
      </trkpt>
      <trkpt lat="48.92951" lon="0.1418">
        <ele>209</ele>
        <time>2019-04-28T11:56:04Z</time>
      </trkpt>
      <trkpt lat="48.92951" lon="0.1418">
        <ele>209</ele>
        <time>2019-04-28T11:56:09Z</time>
      </trkpt>
      <trkpt lat="48.92951" lon="0.1418">
        <ele>209</ele>
        <time>2019-04-28T11:56:19Z</time>
      </trkpt>
      <trkpt lat="48.92951" lon="0.1418">
        <ele>209</ele>
        <time>2019-04-28T11:56:29Z</time>
      </trkpt>
      <trkpt lat="48.92951" lon="0.1418">
        <ele>209</ele>
        <time>2019-04-28T11:56:34Z</time>
      </trkpt>
      <trkpt lat="48.92951" lon="0.1418">
        <ele>209</ele>
        <time>2019-04-28T11:56:44Z</time>
      </trkpt>
      <trkpt lat="48.92951" lon="0.1418">
        <ele>209</ele>
        <time>2019-04-28T11:56:54Z</time>
      </trkpt>
      <trkpt lat="48.9295" lon="0.14179">
        <ele>209</ele>
        <time>2019-04-28T11:56:59Z</time>
      </trkpt>
      <trkpt lat="48.9295" lon="0.14178">
        <ele>209</ele>
        <time>2019-04-28T11:57:09Z</time>
      </trkpt>
      <trkpt lat="48.9295" lon="0.14178">
        <ele>209</ele>
        <time>2019-04-28T11:57:14Z</time>
      </trkpt>
      <trkpt lat="48.9295" lon="0.14178">
        <ele>209</ele>
        <time>2019-04-28T11:57:24Z</time>
      </trkpt>
      <trkpt lat="48.9295" lon="0.14178">
        <ele>209</ele>
        <time>2019-04-28T11:57:29Z</time>
      </trkpt>
      <trkpt lat="48.9295" lon="0.14177">
        <ele>209</ele>
        <time>2019-04-28T11:57:34Z</time>
      </trkpt>
      <trkpt lat="48.92949" lon="0.14179">
        <ele>208</ele>
        <time>2019-04-28T11:57:44Z</time>
      </trkpt>
      <trkpt lat="48.92948" lon="0.14183">
        <ele>208</ele>
        <time>2019-04-28T11:57:49Z</time>
      </trkpt>
      <trkpt lat="48.92946" lon="0.14189">
        <ele>208</ele>
        <time>2019-04-28T11:57:59Z</time>
      </trkpt>
      <trkpt lat="48.92943" lon="0.14201">
        <ele>207</ele>
        <time>2019-04-28T11:58:09Z</time>
      </trkpt>
      <trkpt lat="48.92943" lon="0.14211">
        <ele>208</ele>
        <time>2019-04-28T11:58:14Z</time>
      </trkpt>
      <trkpt lat="48.92945" lon="0.14223">
        <ele>208</ele>
        <time>2019-04-28T11:58:24Z</time>
      </trkpt>
      <trkpt lat="48.92946" lon="0.14229">
        <ele>208</ele>
        <time>2019-04-28T11:58:29Z</time>
      </trkpt>
      <trkpt lat="48.92948" lon="0.14233">
        <ele>211</ele>
        <time>2019-04-28T11:58:39Z</time>
      </trkpt>
      <trkpt lat="48.9295" lon="0.14237">
        <ele>212</ele>
        <time>2019-04-28T11:58:44Z</time>
      </trkpt>
      <trkpt lat="48.92952" lon="0.14242">
        <ele>212</ele>
        <time>2019-04-28T11:58:49Z</time>
      </trkpt>
      <trkpt lat="48.92954" lon="0.14247">
        <ele>211</ele>
        <time>2019-04-28T11:58:59Z</time>
      </trkpt>
      <trkpt lat="48.92955" lon="0.1425">
        <ele>211</ele>
        <time>2019-04-28T11:59:09Z</time>
      </trkpt>
      <trkpt lat="48.92955" lon="0.14252">
        <ele>211</ele>
        <time>2019-04-28T11:59:19Z</time>
      </trkpt>
      <trkpt lat="48.92955" lon="0.14252">
        <ele>211</ele>
        <time>2019-04-28T11:59:29Z</time>
      </trkpt>
      <trkpt lat="48.92955" lon="0.14253">
        <ele>211</ele>
        <time>2019-04-28T11:59:34Z</time>
      </trkpt>
      <trkpt lat="48.92955" lon="0.14253">
        <ele>211</ele>
        <time>2019-04-28T11:59:39Z</time>
      </trkpt>
      <trkpt lat="48.92955" lon="0.14253">
        <ele>211</ele>
        <time>2019-04-28T11:59:44Z</time>
      </trkpt>
      <trkpt lat="48.92955" lon="0.14253">
        <ele>211</ele>
        <time>2019-04-28T11:59:54Z</time>
      </trkpt>
      <trkpt lat="48.92955" lon="0.14253">
        <ele>211</ele>
        <time>2019-04-28T11:59:59Z</time>
      </trkpt>
      <trkpt lat="48.92955" lon="0.14253">
        <ele>211</ele>
        <time>2019-04-28T12:00:09Z</time>
      </trkpt>
      <trkpt lat="48.92955" lon="0.14253">
        <ele>211</ele>
        <time>2019-04-28T12:00:14Z</time>
      </trkpt>
      <trkpt lat="48.92955" lon="0.14253">
        <ele>211</ele>
        <time>2019-04-28T12:00:19Z</time>
      </trkpt>
      <trkpt lat="48.92955" lon="0.14253">
        <ele>211</ele>
        <time>2019-04-28T12:00:29Z</time>
      </trkpt>
      <trkpt lat="48.92955" lon="0.14253">
        <ele>211</ele>
        <time>2019-04-28T12:00:39Z</time>
      </trkpt>
      <trkpt lat="48.92955" lon="0.14253">
        <ele>211</ele>
        <time>2019-04-28T12:00:44Z</time>
      </trkpt>
      <trkpt lat="48.92955" lon="0.14253">
        <ele>211</ele>
        <time>2019-04-28T12:00:54Z</time>
      </trkpt>
      <trkpt lat="48.92955" lon="0.14253">
        <ele>211</ele>
        <time>2019-04-28T12:00:59Z</time>
      </trkpt>
      <trkpt lat="48.92955" lon="0.14253">
        <ele>211</ele>
        <time>2019-04-28T12:01:09Z</time>
      </trkpt>
      <trkpt lat="48.92955" lon="0.14253">
        <ele>211</ele>
        <time>2019-04-28T12:01:14Z</time>
      </trkpt>
      <trkpt lat="48.92955" lon="0.14253">
        <ele>211</ele>
        <time>2019-04-28T12:01:19Z</time>
      </trkpt>
      <trkpt lat="48.92955" lon="0.14253">
        <ele>211</ele>
        <time>2019-04-28T12:01:24Z</time>
      </trkpt>
      <trkpt lat="48.92955" lon="0.14253">
        <ele>211</ele>
        <time>2019-04-28T12:01:34Z</time>
      </trkpt>
      <trkpt lat="48.92955" lon="0.14253">
        <ele>211</ele>
        <time>2019-04-28T12:01:44Z</time>
      </trkpt>
      <trkpt lat="48.92955" lon="0.14253">
        <ele>211</ele>
        <time>2019-04-28T12:01:49Z</time>
      </trkpt>
      <trkpt lat="48.92955" lon="0.14253">
        <ele>211</ele>
        <time>2019-04-28T12:01:54Z</time>
      </trkpt>
      <trkpt lat="48.92955" lon="0.14253">
        <ele>211</ele>
        <time>2019-04-28T12:02:04Z</time>
      </trkpt>
      <trkpt lat="48.92955" lon="0.14253">
        <ele>211</ele>
        <time>2019-04-28T12:02:09Z</time>
      </trkpt>
      <trkpt lat="48.92955" lon="0.14253">
        <ele>211</ele>
        <time>2019-04-28T12:02:19Z</time>
      </trkpt>
      <trkpt lat="48.92955" lon="0.14253">
        <ele>211</ele>
        <time>2019-04-28T12:02:29Z</time>
      </trkpt>
      <trkpt lat="48.92955" lon="0.14253">
        <ele>211</ele>
        <time>2019-04-28T12:02:34Z</time>
      </trkpt>
      <trkpt lat="48.92955" lon="0.14253">
        <ele>211</ele>
        <time>2019-04-28T12:02:44Z</time>
      </trkpt>
      <trkpt lat="48.92955" lon="0.14252">
        <ele>212</ele>
        <time>2019-04-28T12:02:54Z</time>
      </trkpt>
      <trkpt lat="48.92955" lon="0.14248">
        <ele>210</ele>
        <time>2019-04-28T12:03:04Z</time>
      </trkpt>
      <trkpt lat="48.92953" lon="0.14243">
        <ele>210</ele>
        <time>2019-04-28T12:03:09Z</time>
      </trkpt>
      <trkpt lat="48.92952" lon="0.1424">
        <ele>210</ele>
        <time>2019-04-28T12:03:19Z</time>
      </trkpt>
      <trkpt lat="48.92952" lon="0.14238">
        <ele>210</ele>
        <time>2019-04-28T12:03:29Z</time>
      </trkpt>
      <trkpt lat="48.92956" lon="0.14243">
        <ele>209</ele>
        <time>2019-04-28T12:03:39Z</time>
      </trkpt>
      <trkpt lat="48.92958" lon="0.14246">
        <ele>209</ele>
        <time>2019-04-28T12:03:44Z</time>
      </trkpt>
      <trkpt lat="48.92961" lon="0.14248">
        <ele>210</ele>
        <time>2019-04-28T12:03:49Z</time>
      </trkpt>
      <trkpt lat="48.92966" lon="0.14252">
        <ele>209</ele>
        <time>2019-04-28T12:03:59Z</time>
      </trkpt>
      <trkpt lat="48.92972" lon="0.14259">
        <ele>209</ele>
        <time>2019-04-28T12:04:09Z</time>
      </trkpt>
      <trkpt lat="48.92977" lon="0.14266">
        <ele>212</ele>
        <time>2019-04-28T12:04:19Z</time>
      </trkpt>
      <trkpt lat="48.92978" lon="0.1427">
        <ele>212</ele>
        <time>2019-04-28T12:04:24Z</time>
      </trkpt>
      <trkpt lat="48.92976" lon="0.14273">
        <ele>211</ele>
        <time>2019-04-28T12:04:29Z</time>
      </trkpt>
      <trkpt lat="48.92972" lon="0.14277">
        <ele>210</ele>
        <time>2019-04-28T12:04:39Z</time>
      </trkpt>
      <trkpt lat="48.92967" lon="0.1428">
        <ele>210</ele>
        <time>2019-04-28T12:04:44Z</time>
      </trkpt>
      <trkpt lat="48.92957" lon="0.14287">
        <ele>210</ele>
        <time>2019-04-28T12:04:54Z</time>
      </trkpt>
      <trkpt lat="48.9295" lon="0.1429">
        <ele>211</ele>
        <time>2019-04-28T12:05:04Z</time>
      </trkpt>
      <trkpt lat="48.92944" lon="0.14294">
        <ele>212</ele>
        <time>2019-04-28T12:05:09Z</time>
      </trkpt>
      <trkpt lat="48.92933" lon="0.14297">
        <ele>212</ele>
        <time>2019-04-28T12:05:19Z</time>
      </trkpt>
      <trkpt lat="48.92925" lon="0.143">
        <ele>213</ele>
        <time>2019-04-28T12:05:24Z</time>
      </trkpt>
      <trkpt lat="48.92919" lon="0.14303">
        <ele>214</ele>
        <time>2019-04-28T12:05:29Z</time>
      </trkpt>
      <trkpt lat="48.92915" lon="0.14307">
        <ele>215</ele>
        <time>2019-04-28T12:05:34Z</time>
      </trkpt>
      <trkpt lat="48.92911" lon="0.14312">
        <ele>214</ele>
        <time>2019-04-28T12:05:44Z</time>
      </trkpt>
      <trkpt lat="48.92907" lon="0.14317">
        <ele>214</ele>
        <time>2019-04-28T12:05:54Z</time>
      </trkpt>
      <trkpt lat="48.92903" lon="0.1432">
        <ele>214</ele>
        <time>2019-04-28T12:05:59Z</time>
      </trkpt>
      <trkpt lat="48.92898" lon="0.14324">
        <ele>215</ele>
        <time>2019-04-28T12:06:04Z</time>
      </trkpt>
      <trkpt lat="48.92893" lon="0.14328">
        <ele>215</ele>
        <time>2019-04-28T12:06:09Z</time>
      </trkpt>
      <trkpt lat="48.92887" lon="0.14334">
        <ele>214</ele>
        <time>2019-04-28T12:06:14Z</time>
      </trkpt>
      <trkpt lat="48.92883" lon="0.14337">
        <ele>214</ele>
        <time>2019-04-28T12:06:19Z</time>
      </trkpt>
      <trkpt lat="48.92881" lon="0.14339">
        <ele>214</ele>
        <time>2019-04-28T12:06:24Z</time>
      </trkpt>
      <trkpt lat="48.92879" lon="0.1434">
        <ele>214</ele>
        <time>2019-04-28T12:06:34Z</time>
      </trkpt>
      <trkpt lat="48.92878" lon="0.1434">
        <ele>214</ele>
        <time>2019-04-28T12:06:44Z</time>
      </trkpt>
      <trkpt lat="48.92878" lon="0.1434">
        <ele>213</ele>
        <time>2019-04-28T12:06:49Z</time>
      </trkpt>
      <trkpt lat="48.92878" lon="0.14341">
        <ele>211</ele>
        <time>2019-04-28T12:06:59Z</time>
      </trkpt>
      <trkpt lat="48.92879" lon="0.14342">
        <ele>211</ele>
        <time>2019-04-28T12:07:09Z</time>
      </trkpt>
      <trkpt lat="48.92876" lon="0.14344">
        <ele>212</ele>
        <time>2019-04-28T12:07:14Z</time>
      </trkpt>
      <trkpt lat="48.92872" lon="0.14347">
        <ele>208</ele>
        <time>2019-04-28T12:07:24Z</time>
      </trkpt>
      <trkpt lat="48.92863" lon="0.14354">
        <ele>206</ele>
        <time>2019-04-28T12:07:29Z</time>
      </trkpt>
      <trkpt lat="48.92856" lon="0.14359">
        <ele>208</ele>
        <time>2019-04-28T12:07:39Z</time>
      </trkpt>
      <trkpt lat="48.92851" lon="0.14364">
        <ele>210</ele>
        <time>2019-04-28T12:07:44Z</time>
      </trkpt>
      <trkpt lat="48.92845" lon="0.14372">
        <ele>212</ele>
        <time>2019-04-28T12:07:54Z</time>
      </trkpt>
      <trkpt lat="48.92841" lon="0.14376">
        <ele>212</ele>
        <time>2019-04-28T12:07:59Z</time>
      </trkpt>
      <trkpt lat="48.92838" lon="0.14378">
        <ele>213</ele>
        <time>2019-04-28T12:08:04Z</time>
      </trkpt>
      <trkpt lat="48.92833" lon="0.14382">
        <ele>214</ele>
        <time>2019-04-28T12:08:14Z</time>
      </trkpt>
      <trkpt lat="48.92829" lon="0.14386">
        <ele>214</ele>
        <time>2019-04-28T12:08:19Z</time>
      </trkpt>
      <trkpt lat="48.92823" lon="0.14394">
        <ele>220</ele>
        <time>2019-04-28T12:08:29Z</time>
      </trkpt>
      <trkpt lat="48.92819" lon="0.14402">
        <ele>223</ele>
        <time>2019-04-28T12:08:34Z</time>
      </trkpt>
      <trkpt lat="48.92815" lon="0.1441">
        <ele>223</ele>
        <time>2019-04-28T12:08:39Z</time>
      </trkpt>
      <trkpt lat="48.92811" lon="0.14416">
        <ele>223</ele>
        <time>2019-04-28T12:08:48Z</time>
      </trkpt>
      <trkpt lat="48.92801" lon="0.14415">
        <ele>223</ele>
        <time>2019-04-28T12:08:58Z</time>
      </trkpt>
      <trkpt lat="48.92795" lon="0.14414">
        <ele>224</ele>
        <time>2019-04-28T12:09:03Z</time>
      </trkpt>
      <trkpt lat="48.92786" lon="0.14413">
        <ele>224</ele>
        <time>2019-04-28T12:09:13Z</time>
      </trkpt>
      <trkpt lat="48.92777" lon="0.14412">
        <ele>226</ele>
        <time>2019-04-28T12:09:18Z</time>
      </trkpt>
      <trkpt lat="48.92769" lon="0.14411">
        <ele>228</ele>
        <time>2019-04-28T12:09:28Z</time>
      </trkpt>
      <trkpt lat="48.92757" lon="0.14407">
        <ele>232</ele>
        <time>2019-04-28T12:09:38Z</time>
      </trkpt>
      <trkpt lat="48.92747" lon="0.14402">
        <ele>232</ele>
        <time>2019-04-28T12:09:43Z</time>
      </trkpt>
      <trkpt lat="48.92741" lon="0.14399">
        <ele>231</ele>
        <time>2019-04-28T12:09:48Z</time>
      </trkpt>
      <trkpt lat="48.92735" lon="0.14398">
        <ele>229</ele>
        <time>2019-04-28T12:09:53Z</time>
      </trkpt>
      <trkpt lat="48.92727" lon="0.14396">
        <ele>227</ele>
        <time>2019-04-28T12:10:02Z</time>
      </trkpt>
      <trkpt lat="48.92715" lon="0.14395">
        <ele>225</ele>
        <time>2019-04-28T12:10:08Z</time>
      </trkpt>
      <trkpt lat="48.9271" lon="0.14395">
        <ele>226</ele>
        <time>2019-04-28T12:10:13Z</time>
      </trkpt>
      <trkpt lat="48.92705" lon="0.14395">
        <ele>227</ele>
        <time>2019-04-28T12:10:21Z</time>
      </trkpt>
      <trkpt lat="48.92701" lon="0.14402">
        <ele>226</ele>
        <time>2019-04-28T12:13:37Z</time>
      </trkpt>
      <trkpt lat="48.92702" lon="0.14409">
        <ele>226</ele>
        <time>2019-04-28T12:13:37Z</time>
      </trkpt>
      <trkpt lat="48.92702" lon="0.14414">
        <ele>226</ele>
        <time>2019-04-28T12:13:37Z</time>
      </trkpt>
      <trkpt lat="48.92699" lon="0.1442">
        <ele>226</ele>
        <time>2019-04-28T12:13:37Z</time>
      </trkpt>
      <trkpt lat="48.92695" lon="0.14431">
        <ele>226</ele>
        <time>2019-04-28T12:13:37Z</time>
      </trkpt>
      <trkpt lat="48.92691" lon="0.1444">
        <ele>226</ele>
        <time>2019-04-28T12:13:37Z</time>
      </trkpt>
      <trkpt lat="48.92689" lon="0.14446">
        <ele>226</ele>
        <time>2019-04-28T12:13:37Z</time>
      </trkpt>
      <trkpt lat="48.92686" lon="0.14452">
        <ele>226</ele>
        <time>2019-04-28T12:13:37Z</time>
      </trkpt>
      <trkpt lat="48.92685" lon="0.14458">
        <ele>226</ele>
        <time>2019-04-28T12:13:37Z</time>
      </trkpt>
      <trkpt lat="48.92681" lon="0.1447">
        <ele>226</ele>
        <time>2019-04-28T12:13:37Z</time>
      </trkpt>
      <trkpt lat="48.92679" lon="0.14478">
        <ele>226</ele>
        <time>2019-04-28T12:13:37Z</time>
      </trkpt>
      <trkpt lat="48.92677" lon="0.14483">
        <ele>226</ele>
        <time>2019-04-28T12:13:37Z</time>
      </trkpt>
      <trkpt lat="48.92675" lon="0.14492">
        <ele>226</ele>
        <time>2019-04-28T12:13:37Z</time>
      </trkpt>
      <trkpt lat="48.92667" lon="0.14512">
        <ele>226</ele>
        <time>2019-04-28T12:13:37Z</time>
      </trkpt>
      <trkpt lat="48.92663" lon="0.14521">
        <ele>226</ele>
        <time>2019-04-28T12:13:37Z</time>
      </trkpt>
      <trkpt lat="48.92662" lon="0.14524">
        <ele>226</ele>
        <time>2019-04-28T12:13:37Z</time>
      </trkpt>
      <trkpt lat="48.92658" lon="0.14531">
        <ele>226</ele>
        <time>2019-04-28T12:13:37Z</time>
      </trkpt>
      <trkpt lat="48.92657" lon="0.14536">
        <ele>226</ele>
        <time>2019-04-28T12:13:37Z</time>
      </trkpt>
      <trkpt lat="48.92653" lon="0.14544">
        <ele>226</ele>
        <time>2019-04-28T12:13:37Z</time>
      </trkpt>
      <trkpt lat="48.9265" lon="0.14549">
        <ele>226</ele>
        <time>2019-04-28T12:13:37Z</time>
      </trkpt>
      <trkpt lat="48.92647" lon="0.14557">
        <ele>226</ele>
        <time>2019-04-28T12:13:37Z</time>
      </trkpt>
      <trkpt lat="48.92642" lon="0.1457">
        <ele>226</ele>
        <time>2019-04-28T12:13:37Z</time>
      </trkpt>
      <trkpt lat="48.92637" lon="0.14585">
        <ele>226</ele>
        <time>2019-04-28T12:13:37Z</time>
      </trkpt>
      <trkpt lat="48.92634" lon="0.14593">
        <ele>226</ele>
        <time>2019-04-28T12:13:37Z</time>
      </trkpt>
      <trkpt lat="48.92633" lon="0.14598">
        <ele>226</ele>
        <time>2019-04-28T12:13:37Z</time>
      </trkpt>
      <trkpt lat="48.92631" lon="0.14611">
        <ele>245</ele>
        <time>2019-04-28T12:13:39Z</time>
      </trkpt>
      <trkpt lat="48.9263" lon="0.1462">
        <ele>249</ele>
        <time>2019-04-28T12:13:49Z</time>
      </trkpt>
      <trkpt lat="48.92628" lon="0.14634">
        <ele>252</ele>
        <time>2019-04-28T12:13:59Z</time>
      </trkpt>
      <trkpt lat="48.92628" lon="0.14648">
        <ele>255</ele>
        <time>2019-04-28T12:14:09Z</time>
      </trkpt>
      <trkpt lat="48.92629" lon="0.14661">
        <ele>259</ele>
        <time>2019-04-28T12:14:19Z</time>
      </trkpt>
      <trkpt lat="48.92633" lon="0.14681">
        <ele>262</ele>
        <time>2019-04-28T12:14:29Z</time>
      </trkpt>
      <trkpt lat="48.92636" lon="0.14694">
        <ele>264</ele>
        <time>2019-04-28T12:14:39Z</time>
      </trkpt>
      <trkpt lat="48.92639" lon="0.14707">
        <ele>265</ele>
        <time>2019-04-28T12:14:49Z</time>
      </trkpt>
      <trkpt lat="48.92641" lon="0.14723">
        <ele>266</ele>
        <time>2019-04-28T12:14:54Z</time>
      </trkpt>
      <trkpt lat="48.92642" lon="0.14731">
        <ele>266</ele>
        <time>2019-04-28T12:14:59Z</time>
      </trkpt>
      <trkpt lat="48.92642" lon="0.14736">
        <ele>267</ele>
        <time>2019-04-28T12:15:09Z</time>
      </trkpt>
      <trkpt lat="48.92641" lon="0.14739">
        <ele>267</ele>
        <time>2019-04-28T12:15:14Z</time>
      </trkpt>
      <trkpt lat="48.92635" lon="0.14745">
        <ele>263</ele>
        <time>2019-04-28T12:15:24Z</time>
      </trkpt>
      <trkpt lat="48.92627" lon="0.14753">
        <ele>263</ele>
        <time>2019-04-28T12:15:34Z</time>
      </trkpt>
      <trkpt lat="48.92613" lon="0.14766">
        <ele>264</ele>
        <time>2019-04-28T12:15:44Z</time>
      </trkpt>
      <trkpt lat="48.92606" lon="0.14774">
        <ele>266</ele>
        <time>2019-04-28T12:15:49Z</time>
      </trkpt>
      <trkpt lat="48.92601" lon="0.1478">
        <ele>266</ele>
        <time>2019-04-28T12:15:54Z</time>
      </trkpt>
      <trkpt lat="48.92595" lon="0.14789">
        <ele>267</ele>
        <time>2019-04-28T12:15:59Z</time>
      </trkpt>
      <trkpt lat="48.92588" lon="0.14798">
        <ele>269</ele>
        <time>2019-04-28T12:16:09Z</time>
      </trkpt>
      <trkpt lat="48.92583" lon="0.14805">
        <ele>272</ele>
        <time>2019-04-28T12:16:19Z</time>
      </trkpt>
      <trkpt lat="48.92576" lon="0.14816">
        <ele>272</ele>
        <time>2019-04-28T12:16:29Z</time>
      </trkpt>
      <trkpt lat="48.92564" lon="0.14834">
        <ele>271</ele>
        <time>2019-04-28T12:16:39Z</time>
      </trkpt>
      <trkpt lat="48.92556" lon="0.14845">
        <ele>271</ele>
        <time>2019-04-28T12:16:49Z</time>
      </trkpt>
      <trkpt lat="48.92545" lon="0.1486">
        <ele>270</ele>
        <time>2019-04-28T12:16:59Z</time>
      </trkpt>
      <trkpt lat="48.92539" lon="0.14867">
        <ele>270</ele>
        <time>2019-04-28T12:17:04Z</time>
      </trkpt>
      <trkpt lat="48.92532" lon="0.14877">
        <ele>271</ele>
        <time>2019-04-28T12:17:14Z</time>
      </trkpt>
      <trkpt lat="48.92524" lon="0.1489">
        <ele>271</ele>
        <time>2019-04-28T12:17:19Z</time>
      </trkpt>
      <trkpt lat="48.92519" lon="0.149">
        <ele>271</ele>
        <time>2019-04-28T12:17:29Z</time>
      </trkpt>
      <trkpt lat="48.92517" lon="0.14921">
        <ele>273</ele>
        <time>2019-04-28T12:17:39Z</time>
      </trkpt>
      <trkpt lat="48.92521" lon="0.14928">
        <ele>272</ele>
        <time>2019-04-28T12:17:49Z</time>
      </trkpt>
      <trkpt lat="48.92527" lon="0.14931">
        <ele>272</ele>
        <time>2019-04-28T12:17:54Z</time>
      </trkpt>
      <trkpt lat="48.92534" lon="0.14931">
        <ele>272</ele>
        <time>2019-04-28T12:17:59Z</time>
      </trkpt>
      <trkpt lat="48.92541" lon="0.14931">
        <ele>272</ele>
        <time>2019-04-28T12:18:04Z</time>
      </trkpt>
      <trkpt lat="48.92551" lon="0.14931">
        <ele>272</ele>
        <time>2019-04-28T12:18:14Z</time>
      </trkpt>
      <trkpt lat="48.92563" lon="0.1493">
        <ele>270</ele>
        <time>2019-04-28T12:18:24Z</time>
      </trkpt>
      <trkpt lat="48.92574" lon="0.14929">
        <ele>269</ele>
        <time>2019-04-28T12:18:34Z</time>
      </trkpt>
      <trkpt lat="48.92589" lon="0.14926">
        <ele>269</ele>
        <time>2019-04-28T12:18:44Z</time>
      </trkpt>
      <trkpt lat="48.926" lon="0.14923">
        <ele>270</ele>
        <time>2019-04-28T12:18:49Z</time>
      </trkpt>
      <trkpt lat="48.92611" lon="0.1492">
        <ele>271</ele>
        <time>2019-04-28T12:18:59Z</time>
      </trkpt>
      <trkpt lat="48.92623" lon="0.14915">
        <ele>271</ele>
        <time>2019-04-28T12:19:07Z</time>
      </trkpt>
      <trkpt lat="48.92636" lon="0.14909">
        <ele>273</ele>
        <time>2019-04-28T12:19:16Z</time>
      </trkpt>
      <trkpt lat="48.92645" lon="0.14904">
        <ele>275</ele>
        <time>2019-04-28T12:19:21Z</time>
      </trkpt>
      <trkpt lat="48.92654" lon="0.14899">
        <ele>274</ele>
        <time>2019-04-28T12:19:31Z</time>
      </trkpt>
      <trkpt lat="48.92666" lon="0.14895">
        <ele>273</ele>
        <time>2019-04-28T12:19:41Z</time>
      </trkpt>
      <trkpt lat="48.92677" lon="0.14891">
        <ele>273</ele>
        <time>2019-04-28T12:19:49Z</time>
      </trkpt>
      <trkpt lat="48.92685" lon="0.14887">
        <ele>273</ele>
        <time>2019-04-28T12:19:56Z</time>
      </trkpt>
      <trkpt lat="48.92693" lon="0.14883">
        <ele>271</ele>
        <time>2019-04-28T12:20:06Z</time>
      </trkpt>
      <trkpt lat="48.92707" lon="0.14877">
        <ele>270</ele>
        <time>2019-04-28T12:20:16Z</time>
      </trkpt>
      <trkpt lat="48.92723" lon="0.14872">
        <ele>272</ele>
        <time>2019-04-28T12:20:26Z</time>
      </trkpt>
      <trkpt lat="48.92737" lon="0.14866">
        <ele>271</ele>
        <time>2019-04-28T12:20:36Z</time>
      </trkpt>
      <trkpt lat="48.92748" lon="0.14861">
        <ele>269</ele>
        <time>2019-04-28T12:20:46Z</time>
      </trkpt>
      <trkpt lat="48.92761" lon="0.14854">
        <ele>266</ele>
        <time>2019-04-28T12:20:56Z</time>
      </trkpt>
      <trkpt lat="48.92769" lon="0.1485">
        <ele>265</ele>
        <time>2019-04-28T12:21:01Z</time>
      </trkpt>
      <trkpt lat="48.9278" lon="0.14845">
        <ele>265</ele>
        <time>2019-04-28T12:21:11Z</time>
      </trkpt>
      <trkpt lat="48.92787" lon="0.14841">
        <ele>265</ele>
        <time>2019-04-28T12:21:16Z</time>
      </trkpt>
      <trkpt lat="48.92799" lon="0.14838">
        <ele>266</ele>
        <time>2019-04-28T12:21:26Z</time>
      </trkpt>
      <trkpt lat="48.92807" lon="0.14835">
        <ele>265</ele>
        <time>2019-04-28T12:21:31Z</time>
      </trkpt>
      <trkpt lat="48.92821" lon="0.14832">
        <ele>267</ele>
        <time>2019-04-28T12:21:41Z</time>
      </trkpt>
      <trkpt lat="48.92832" lon="0.14829">
        <ele>267</ele>
        <time>2019-04-28T12:21:46Z</time>
      </trkpt>
      <trkpt lat="48.92844" lon="0.14826">
        <ele>267</ele>
        <time>2019-04-28T12:21:56Z</time>
      </trkpt>
      <trkpt lat="48.92852" lon="0.14824">
        <ele>266</ele>
        <time>2019-04-28T12:22:01Z</time>
      </trkpt>
      <trkpt lat="48.92859" lon="0.14828">
        <ele>265</ele>
        <time>2019-04-28T12:22:11Z</time>
      </trkpt>
      <trkpt lat="48.92861" lon="0.14832">
        <ele>265</ele>
        <time>2019-04-28T12:22:16Z</time>
      </trkpt>
      <trkpt lat="48.9286" lon="0.14842">
        <ele>265</ele>
        <time>2019-04-28T12:22:26Z</time>
      </trkpt>
      <trkpt lat="48.92854" lon="0.14854">
        <ele>266</ele>
        <time>2019-04-28T12:22:36Z</time>
      </trkpt>
      <trkpt lat="48.92848" lon="0.14863">
        <ele>265</ele>
        <time>2019-04-28T12:22:41Z</time>
      </trkpt>
      <trkpt lat="48.92843" lon="0.14871">
        <ele>264</ele>
        <time>2019-04-28T12:22:46Z</time>
      </trkpt>
      <trkpt lat="48.92838" lon="0.14878">
        <ele>263</ele>
        <time>2019-04-28T12:22:51Z</time>
      </trkpt>
      <trkpt lat="48.92831" lon="0.14891">
        <ele>261</ele>
        <time>2019-04-28T12:23:01Z</time>
      </trkpt>
      <trkpt lat="48.92824" lon="0.14901">
        <ele>260</ele>
        <time>2019-04-28T12:23:06Z</time>
      </trkpt>
      <trkpt lat="48.92819" lon="0.14912">
        <ele>260</ele>
        <time>2019-04-28T12:23:11Z</time>
      </trkpt>
      <trkpt lat="48.92815" lon="0.14919">
        <ele>260</ele>
        <time>2019-04-28T12:23:16Z</time>
      </trkpt>
      <trkpt lat="48.92809" lon="0.1493">
        <ele>261</ele>
        <time>2019-04-28T12:23:26Z</time>
      </trkpt>
      <trkpt lat="48.92803" lon="0.1494">
        <ele>261</ele>
        <time>2019-04-28T12:23:31Z</time>
      </trkpt>
      <trkpt lat="48.92795" lon="0.14953">
        <ele>261</ele>
        <time>2019-04-28T12:23:41Z</time>
      </trkpt>
      <trkpt lat="48.92789" lon="0.14962">
        <ele>262</ele>
        <time>2019-04-28T12:23:46Z</time>
      </trkpt>
      <trkpt lat="48.92784" lon="0.14972">
        <ele>263</ele>
        <time>2019-04-28T12:23:51Z</time>
      </trkpt>
      <trkpt lat="48.92776" lon="0.14983">
        <ele>262</ele>
        <time>2019-04-28T12:24:01Z</time>
      </trkpt>
      <trkpt lat="48.92768" lon="0.14997">
        <ele>264</ele>
        <time>2019-04-28T12:24:11Z</time>
      </trkpt>
      <trkpt lat="48.9276" lon="0.15013">
        <ele>264</ele>
        <time>2019-04-28T12:24:21Z</time>
      </trkpt>
      <trkpt lat="48.92755" lon="0.15024">
        <ele>263</ele>
        <time>2019-04-28T12:24:26Z</time>
      </trkpt>
      <trkpt lat="48.92748" lon="0.1504">
        <ele>265</ele>
        <time>2019-04-28T12:24:36Z</time>
      </trkpt>
      <trkpt lat="48.92741" lon="0.15056">
        <ele>267</ele>
        <time>2019-04-28T12:24:46Z</time>
      </trkpt>
      <trkpt lat="48.92735" lon="0.15068">
        <ele>268</ele>
        <time>2019-04-28T12:24:51Z</time>
      </trkpt>
      <trkpt lat="48.92727" lon="0.15081">
        <ele>269</ele>
        <time>2019-04-28T12:25:01Z</time>
      </trkpt>
      <trkpt lat="48.92722" lon="0.15092">
        <ele>269</ele>
        <time>2019-04-28T12:25:06Z</time>
      </trkpt>
      <trkpt lat="48.92713" lon="0.15107">
        <ele>269</ele>
        <time>2019-04-28T12:25:16Z</time>
      </trkpt>
      <trkpt lat="48.92705" lon="0.15121">
        <ele>268</ele>
        <time>2019-04-28T12:25:26Z</time>
      </trkpt>
      <trkpt lat="48.92699" lon="0.1513">
        <ele>267</ele>
        <time>2019-04-28T12:25:31Z</time>
      </trkpt>
      <trkpt lat="48.92695" lon="0.15137">
        <ele>267</ele>
        <time>2019-04-28T12:25:36Z</time>
      </trkpt>
      <trkpt lat="48.92688" lon="0.15149">
        <ele>266</ele>
        <time>2019-04-28T12:25:46Z</time>
      </trkpt>
      <trkpt lat="48.92682" lon="0.15159">
        <ele>267</ele>
        <time>2019-04-28T12:25:51Z</time>
      </trkpt>
      <trkpt lat="48.92675" lon="0.1517">
        <ele>268</ele>
        <time>2019-04-28T12:26:01Z</time>
      </trkpt>
      <trkpt lat="48.9267" lon="0.15179">
        <ele>267</ele>
        <time>2019-04-28T12:26:06Z</time>
      </trkpt>
      <trkpt lat="48.92663" lon="0.15189">
        <ele>268</ele>
        <time>2019-04-28T12:26:16Z</time>
      </trkpt>
      <trkpt lat="48.92656" lon="0.15201">
        <ele>271</ele>
        <time>2019-04-28T12:26:26Z</time>
      </trkpt>
      <trkpt lat="48.92648" lon="0.1522">
        <ele>272</ele>
        <time>2019-04-28T12:26:36Z</time>
      </trkpt>
      <trkpt lat="48.92644" lon="0.15232">
        <ele>272</ele>
        <time>2019-04-28T12:26:41Z</time>
      </trkpt>
      <trkpt lat="48.92643" lon="0.15243">
        <ele>272</ele>
        <time>2019-04-28T12:26:46Z</time>
      </trkpt>
      <trkpt lat="48.92646" lon="0.15257">
        <ele>271</ele>
        <time>2019-04-28T12:26:56Z</time>
      </trkpt>
      <trkpt lat="48.92648" lon="0.15268">
        <ele>271</ele>
        <time>2019-04-28T12:27:01Z</time>
      </trkpt>
      <trkpt lat="48.92651" lon="0.15284">
        <ele>270</ele>
        <time>2019-04-28T12:27:11Z</time>
      </trkpt>
      <trkpt lat="48.92654" lon="0.15295">
        <ele>270</ele>
        <time>2019-04-28T12:27:16Z</time>
      </trkpt>
      <trkpt lat="48.92659" lon="0.15311">
        <ele>268</ele>
        <time>2019-04-28T12:27:26Z</time>
      </trkpt>
      <trkpt lat="48.92664" lon="0.15327">
        <ele>268</ele>
        <time>2019-04-28T12:27:36Z</time>
      </trkpt>
      <trkpt lat="48.92669" lon="0.15343">
        <ele>265</ele>
        <time>2019-04-28T12:27:46Z</time>
      </trkpt>
      <trkpt lat="48.92674" lon="0.15355">
        <ele>265</ele>
        <time>2019-04-28T12:27:51Z</time>
      </trkpt>
      <trkpt lat="48.92678" lon="0.15368">
        <ele>264</ele>
        <time>2019-04-28T12:27:56Z</time>
      </trkpt>
      <trkpt lat="48.92687" lon="0.15385">
        <ele>265</ele>
        <time>2019-04-28T12:28:06Z</time>
      </trkpt>
      <trkpt lat="48.92693" lon="0.15397">
        <ele>267</ele>
        <time>2019-04-28T12:28:11Z</time>
      </trkpt>
      <trkpt lat="48.92701" lon="0.15413">
        <ele>269</ele>
        <time>2019-04-28T12:28:21Z</time>
      </trkpt>
      <trkpt lat="48.92707" lon="0.15424">
        <ele>270</ele>
        <time>2019-04-28T12:28:26Z</time>
      </trkpt>
      <trkpt lat="48.92712" lon="0.15433">
        <ele>271</ele>
        <time>2019-04-28T12:28:31Z</time>
      </trkpt>
      <trkpt lat="48.9272" lon="0.15447">
        <ele>272</ele>
        <time>2019-04-28T12:28:41Z</time>
      </trkpt>
      <trkpt lat="48.92728" lon="0.15462">
        <ele>270</ele>
        <time>2019-04-28T12:28:51Z</time>
      </trkpt>
      <trkpt lat="48.92735" lon="0.15472">
        <ele>268</ele>
        <time>2019-04-28T12:28:56Z</time>
      </trkpt>
      <trkpt lat="48.9274" lon="0.15481">
        <ele>267</ele>
        <time>2019-04-28T12:29:01Z</time>
      </trkpt>
      <trkpt lat="48.92749" lon="0.15493">
        <ele>265</ele>
        <time>2019-04-28T12:29:11Z</time>
      </trkpt>
      <trkpt lat="48.92756" lon="0.15503">
        <ele>265</ele>
        <time>2019-04-28T12:29:16Z</time>
      </trkpt>
      <trkpt lat="48.92765" lon="0.15515">
        <ele>266</ele>
        <time>2019-04-28T12:29:26Z</time>
      </trkpt>
      <trkpt lat="48.92774" lon="0.15527">
        <ele>265</ele>
        <time>2019-04-28T12:29:36Z</time>
      </trkpt>
      <trkpt lat="48.92783" lon="0.1554">
        <ele>262</ele>
        <time>2019-04-28T12:29:46Z</time>
      </trkpt>
      <trkpt lat="48.92792" lon="0.15553">
        <ele>263</ele>
        <time>2019-04-28T12:29:56Z</time>
      </trkpt>
      <trkpt lat="48.92803" lon="0.15565">
        <ele>265</ele>
        <time>2019-04-28T12:30:06Z</time>
      </trkpt>
      <trkpt lat="48.92812" lon="0.15577">
        <ele>266</ele>
        <time>2019-04-28T12:30:16Z</time>
      </trkpt>
      <trkpt lat="48.92818" lon="0.15587">
        <ele>266</ele>
        <time>2019-04-28T12:30:21Z</time>
      </trkpt>
      <trkpt lat="48.92822" lon="0.15599">
        <ele>264</ele>
        <time>2019-04-28T12:30:31Z</time>
      </trkpt>
      <trkpt lat="48.92825" lon="0.15609">
        <ele>264</ele>
        <time>2019-04-28T12:30:36Z</time>
      </trkpt>
      <trkpt lat="48.92827" lon="0.1562">
        <ele>264</ele>
        <time>2019-04-28T12:30:41Z</time>
      </trkpt>
      <trkpt lat="48.92831" lon="0.15641">
        <ele>262</ele>
        <time>2019-04-28T12:30:51Z</time>
      </trkpt>
      <trkpt lat="48.92836" lon="0.15661">
        <ele>264</ele>
        <time>2019-04-28T12:31:01Z</time>
      </trkpt>
      <trkpt lat="48.92841" lon="0.15676">
        <ele>266</ele>
        <time>2019-04-28T12:31:11Z</time>
      </trkpt>
      <trkpt lat="48.92847" lon="0.15692">
        <ele>267</ele>
        <time>2019-04-28T12:31:21Z</time>
      </trkpt>
      <trkpt lat="48.92852" lon="0.15703">
        <ele>268</ele>
        <time>2019-04-28T12:31:26Z</time>
      </trkpt>
      <trkpt lat="48.92857" lon="0.15717">
        <ele>269</ele>
        <time>2019-04-28T12:31:31Z</time>
      </trkpt>
      <trkpt lat="48.92861" lon="0.15728">
        <ele>268</ele>
        <time>2019-04-28T12:31:41Z</time>
      </trkpt>
      <trkpt lat="48.92864" lon="0.15743">
        <ele>268</ele>
        <time>2019-04-28T12:31:51Z</time>
      </trkpt>
      <trkpt lat="48.92867" lon="0.15756">
        <ele>266</ele>
        <time>2019-04-28T12:31:56Z</time>
      </trkpt>
      <trkpt lat="48.92872" lon="0.15775">
        <ele>266</ele>
        <time>2019-04-28T12:32:06Z</time>
      </trkpt>
      <trkpt lat="48.92878" lon="0.15795">
        <ele>266</ele>
        <time>2019-04-28T12:32:16Z</time>
      </trkpt>
      <trkpt lat="48.92884" lon="0.15814">
        <ele>265</ele>
        <time>2019-04-28T12:32:26Z</time>
      </trkpt>
      <trkpt lat="48.92888" lon="0.15827">
        <ele>265</ele>
        <time>2019-04-28T12:32:31Z</time>
      </trkpt>
      <trkpt lat="48.92892" lon="0.15843">
        <ele>265</ele>
        <time>2019-04-28T12:32:41Z</time>
      </trkpt>
      <trkpt lat="48.92895" lon="0.15854">
        <ele>265</ele>
        <time>2019-04-28T12:32:46Z</time>
      </trkpt>
      <trkpt lat="48.92899" lon="0.1587">
        <ele>263</ele>
        <time>2019-04-28T12:32:56Z</time>
      </trkpt>
      <trkpt lat="48.92902" lon="0.15881">
        <ele>263</ele>
        <time>2019-04-28T12:33:01Z</time>
      </trkpt>
      <trkpt lat="48.92906" lon="0.15898">
        <ele>262</ele>
        <time>2019-04-28T12:33:11Z</time>
      </trkpt>
      <trkpt lat="48.92909" lon="0.15915">
        <ele>260</ele>
        <time>2019-04-28T12:33:21Z</time>
      </trkpt>
      <trkpt lat="48.92912" lon="0.15932">
        <ele>260</ele>
        <time>2019-04-28T12:33:31Z</time>
      </trkpt>
      <trkpt lat="48.92915" lon="0.15945">
        <ele>260</ele>
        <time>2019-04-28T12:33:36Z</time>
      </trkpt>
      <trkpt lat="48.92918" lon="0.15958">
        <ele>261</ele>
        <time>2019-04-28T12:33:41Z</time>
      </trkpt>
      <trkpt lat="48.92925" lon="0.15982">
        <ele>267</ele>
        <time>2019-04-28T12:33:51Z</time>
      </trkpt>
      <trkpt lat="48.9293" lon="0.15996">
        <ele>267</ele>
        <time>2019-04-28T12:33:56Z</time>
      </trkpt>
      <trkpt lat="48.92936" lon="0.16009">
        <ele>267</ele>
        <time>2019-04-28T12:34:06Z</time>
      </trkpt>
      <trkpt lat="48.92939" lon="0.16017">
        <ele>267</ele>
        <time>2019-04-28T12:34:11Z</time>
      </trkpt>
      <trkpt lat="48.92945" lon="0.1603">
        <ele>268</ele>
        <time>2019-04-28T12:34:21Z</time>
      </trkpt>
      <trkpt lat="48.92952" lon="0.16048">
        <ele>267</ele>
        <time>2019-04-28T12:34:31Z</time>
      </trkpt>
      <trkpt lat="48.92958" lon="0.16065">
        <ele>266</ele>
        <time>2019-04-28T12:34:41Z</time>
      </trkpt>
      <trkpt lat="48.92962" lon="0.16076">
        <ele>267</ele>
        <time>2019-04-28T12:34:46Z</time>
      </trkpt>
      <trkpt lat="48.92969" lon="0.16094">
        <ele>267</ele>
        <time>2019-04-28T12:34:56Z</time>
      </trkpt>
      <trkpt lat="48.92972" lon="0.16104">
        <ele>266</ele>
        <time>2019-04-28T12:35:01Z</time>
      </trkpt>
      <trkpt lat="48.92975" lon="0.16118">
        <ele>265</ele>
        <time>2019-04-28T12:35:11Z</time>
      </trkpt>
      <trkpt lat="48.92979" lon="0.16128">
        <ele>265</ele>
        <time>2019-04-28T12:35:21Z</time>
      </trkpt>
      <trkpt lat="48.92985" lon="0.16133">
        <ele>266</ele>
        <time>2019-04-28T12:35:26Z</time>
      </trkpt>
      <trkpt lat="48.92993" lon="0.16134">
        <ele>266</ele>
        <time>2019-04-28T12:35:35Z</time>
      </trkpt>
      <trkpt lat="48.93009" lon="0.16141">
        <ele>268</ele>
        <time>2019-04-28T12:35:44Z</time>
      </trkpt>
      <trkpt lat="48.93016" lon="0.16144">
        <ele>266</ele>
        <time>2019-04-28T12:35:54Z</time>
      </trkpt>
      <trkpt lat="48.9302" lon="0.16147">
        <ele>266</ele>
        <time>2019-04-28T12:35:59Z</time>
      </trkpt>
      <trkpt lat="48.93021" lon="0.16148">
        <ele>266</ele>
        <time>2019-04-28T12:36:04Z</time>
      </trkpt>
      <trkpt lat="48.93022" lon="0.16149">
        <ele>266</ele>
        <time>2019-04-28T12:36:10Z</time>
      </trkpt>
      <trkpt lat="48.93022" lon="0.16149">
        <ele>266</ele>
        <time>2019-04-28T12:36:19Z</time>
      </trkpt>
      <trkpt lat="48.93022" lon="0.16149">
        <ele>266</ele>
        <time>2019-04-28T12:36:24Z</time>
      </trkpt>
      <trkpt lat="48.93022" lon="0.16149">
        <ele>266</ele>
        <time>2019-04-28T12:36:34Z</time>
      </trkpt>
      <trkpt lat="48.93024" lon="0.16151">
        <ele>264</ele>
        <time>2019-04-28T12:36:44Z</time>
      </trkpt>
      <trkpt lat="48.93026" lon="0.16155">
        <ele>263</ele>
        <time>2019-04-28T12:36:49Z</time>
      </trkpt>
      <trkpt lat="48.93034" lon="0.16162">
        <ele>262</ele>
        <time>2019-04-28T12:36:55Z</time>
      </trkpt>
      <trkpt lat="48.93046" lon="0.16175">
        <ele>260</ele>
        <time>2019-04-28T12:37:04Z</time>
      </trkpt>
      <trkpt lat="48.93053" lon="0.16182">
        <ele>260</ele>
        <time>2019-04-28T12:37:09Z</time>
      </trkpt>
      <trkpt lat="48.93063" lon="0.16191">
        <ele>260</ele>
        <time>2019-04-28T12:37:19Z</time>
      </trkpt>
      <trkpt lat="48.93074" lon="0.16204">
        <ele>260</ele>
        <time>2019-04-28T12:37:29Z</time>
      </trkpt>
      <trkpt lat="48.93086" lon="0.16219">
        <ele>259</ele>
        <time>2019-04-28T12:37:39Z</time>
      </trkpt>
      <trkpt lat="48.93094" lon="0.1623">
        <ele>259</ele>
        <time>2019-04-28T12:37:44Z</time>
      </trkpt>
      <trkpt lat="48.93103" lon="0.16243">
        <ele>259</ele>
        <time>2019-04-28T12:37:54Z</time>
      </trkpt>
      <trkpt lat="48.93109" lon="0.16252">
        <ele>259</ele>
        <time>2019-04-28T12:37:59Z</time>
      </trkpt>
      <trkpt lat="48.93116" lon="0.16265">
        <ele>261</ele>
        <time>2019-04-28T12:38:09Z</time>
      </trkpt>
      <trkpt lat="48.93122" lon="0.16279">
        <ele>260</ele>
        <time>2019-04-28T12:38:14Z</time>
      </trkpt>
      <trkpt lat="48.93124" lon="0.16285">
        <ele>259</ele>
        <time>2019-04-28T12:38:19Z</time>
      </trkpt>
      <trkpt lat="48.9313" lon="0.16298">
        <ele>259</ele>
        <time>2019-04-28T12:38:24Z</time>
      </trkpt>
      <trkpt lat="48.93134" lon="0.16306">
        <ele>259</ele>
        <time>2019-04-28T12:38:34Z</time>
      </trkpt>
      <trkpt lat="48.93138" lon="0.16311">
        <ele>260</ele>
        <time>2019-04-28T12:38:39Z</time>
      </trkpt>
      <trkpt lat="48.93144" lon="0.16318">
        <ele>259</ele>
        <time>2019-04-28T12:38:44Z</time>
      </trkpt>
      <trkpt lat="48.93152" lon="0.16326">
        <ele>259</ele>
        <time>2019-04-28T12:38:49Z</time>
      </trkpt>
      <trkpt lat="48.93165" lon="0.16341">
        <ele>261</ele>
        <time>2019-04-28T12:38:59Z</time>
      </trkpt>
      <trkpt lat="48.9318" lon="0.16359">
        <ele>260</ele>
        <time>2019-04-28T12:39:09Z</time>
      </trkpt>
      <trkpt lat="48.93194" lon="0.16377">
        <ele>259</ele>
        <time>2019-04-28T12:39:19Z</time>
      </trkpt>
      <trkpt lat="48.93204" lon="0.16392">
        <ele>257</ele>
        <time>2019-04-28T12:39:29Z</time>
      </trkpt>
      <trkpt lat="48.93212" lon="0.16406">
        <ele>257</ele>
        <time>2019-04-28T12:39:39Z</time>
      </trkpt>
      <trkpt lat="48.93221" lon="0.16424">
        <ele>257</ele>
        <time>2019-04-28T12:39:49Z</time>
      </trkpt>
      <trkpt lat="48.93229" lon="0.16438">
        <ele>257</ele>
        <time>2019-04-28T12:39:54Z</time>
      </trkpt>
      <trkpt lat="48.93235" lon="0.16449">
        <ele>257</ele>
        <time>2019-04-28T12:39:59Z</time>
      </trkpt>
      <trkpt lat="48.93242" lon="0.16464">
        <ele>256</ele>
        <time>2019-04-28T12:40:09Z</time>
      </trkpt>
      <trkpt lat="48.93247" lon="0.16483">
        <ele>256</ele>
        <time>2019-04-28T12:40:19Z</time>
      </trkpt>
      <trkpt lat="48.93249" lon="0.16509">
        <ele>255</ele>
        <time>2019-04-28T12:40:24Z</time>
      </trkpt>
      <trkpt lat="48.9325" lon="0.16525">
        <ele>253</ele>
        <time>2019-04-28T12:40:29Z</time>
      </trkpt>
      <trkpt lat="48.93249" lon="0.16538">
        <ele>254</ele>
        <time>2019-04-28T12:40:39Z</time>
      </trkpt>
      <trkpt lat="48.93246" lon="0.16549">
        <ele>256</ele>
        <time>2019-04-28T12:40:49Z</time>
      </trkpt>
      <trkpt lat="48.93241" lon="0.16562">
        <ele>255</ele>
        <time>2019-04-28T12:40:56Z</time>
      </trkpt>
      <trkpt lat="48.93235" lon="0.16576">
        <ele>253</ele>
        <time>2019-04-28T12:41:04Z</time>
      </trkpt>
      <trkpt lat="48.93232" lon="0.16585">
        <ele>253</ele>
        <time>2019-04-28T12:41:14Z</time>
      </trkpt>
      <trkpt lat="48.93231" lon="0.16589">
        <ele>253</ele>
        <time>2019-04-28T12:41:19Z</time>
      </trkpt>
      <trkpt lat="48.93228" lon="0.16598">
        <ele>253</ele>
        <time>2019-04-28T12:41:29Z</time>
      </trkpt>
      <trkpt lat="48.93224" lon="0.1661">
        <ele>253</ele>
        <time>2019-04-28T12:41:34Z</time>
      </trkpt>
      <trkpt lat="48.93223" lon="0.1662">
        <ele>253</ele>
        <time>2019-04-28T12:41:44Z</time>
      </trkpt>
      <trkpt lat="48.93223" lon="0.16636">
        <ele>254</ele>
        <time>2019-04-28T12:41:54Z</time>
      </trkpt>
      <trkpt lat="48.93225" lon="0.16652">
        <ele>257</ele>
        <time>2019-04-28T12:42:04Z</time>
      </trkpt>
      <trkpt lat="48.93227" lon="0.16666">
        <ele>258</ele>
        <time>2019-04-28T12:42:09Z</time>
      </trkpt>
      <trkpt lat="48.93231" lon="0.16684">
        <ele>258</ele>
        <time>2019-04-28T12:42:14Z</time>
      </trkpt>
      <trkpt lat="48.93235" lon="0.16702">
        <ele>259</ele>
        <time>2019-04-28T12:42:24Z</time>
      </trkpt>
      <trkpt lat="48.93239" lon="0.16714">
        <ele>258</ele>
        <time>2019-04-28T12:42:29Z</time>
      </trkpt>
      <trkpt lat="48.93244" lon="0.16731">
        <ele>261</ele>
        <time>2019-04-28T12:42:39Z</time>
      </trkpt>
      <trkpt lat="48.93249" lon="0.1675">
        <ele>261</ele>
        <time>2019-04-28T12:42:44Z</time>
      </trkpt>
      <trkpt lat="48.93252" lon="0.16759">
        <ele>264</ele>
        <time>2019-04-28T12:42:49Z</time>
      </trkpt>
      <trkpt lat="48.93255" lon="0.16764">
        <ele>264</ele>
        <time>2019-04-28T12:42:54Z</time>
      </trkpt>
      <trkpt lat="48.93259" lon="0.16771">
        <ele>261</ele>
        <time>2019-04-28T12:42:59Z</time>
      </trkpt>
      <trkpt lat="48.9327" lon="0.16786">
        <ele>260</ele>
        <time>2019-04-28T12:43:09Z</time>
      </trkpt>
      <trkpt lat="48.93281" lon="0.16802">
        <ele>260</ele>
        <time>2019-04-28T12:43:19Z</time>
      </trkpt>
      <trkpt lat="48.93292" lon="0.16817">
        <ele>259</ele>
        <time>2019-04-28T12:43:29Z</time>
      </trkpt>
      <trkpt lat="48.93299" lon="0.16829">
        <ele>260</ele>
        <time>2019-04-28T12:43:34Z</time>
      </trkpt>
      <trkpt lat="48.93306" lon="0.16841">
        <ele>261</ele>
        <time>2019-04-28T12:43:39Z</time>
      </trkpt>
      <trkpt lat="48.93314" lon="0.16857">
        <ele>259</ele>
        <time>2019-04-28T12:43:49Z</time>
      </trkpt>
      <trkpt lat="48.93319" lon="0.16868">
        <ele>261</ele>
        <time>2019-04-28T12:43:54Z</time>
      </trkpt>
      <trkpt lat="48.93324" lon="0.16878">
        <ele>261</ele>
        <time>2019-04-28T12:43:59Z</time>
      </trkpt>
      <trkpt lat="48.93333" lon="0.16893">
        <ele>261</ele>
        <time>2019-04-28T12:44:09Z</time>
      </trkpt>
      <trkpt lat="48.93343" lon="0.1691">
        <ele>260</ele>
        <time>2019-04-28T12:44:19Z</time>
      </trkpt>
      <trkpt lat="48.93351" lon="0.16924">
        <ele>258</ele>
        <time>2019-04-28T12:44:24Z</time>
      </trkpt>
      <trkpt lat="48.93358" lon="0.16942">
        <ele>256</ele>
        <time>2019-04-28T12:44:34Z</time>
      </trkpt>
      <trkpt lat="48.93364" lon="0.1696">
        <ele>254</ele>
        <time>2019-04-28T12:44:44Z</time>
      </trkpt>
      <trkpt lat="48.93368" lon="0.16972">
        <ele>253</ele>
        <time>2019-04-28T12:44:49Z</time>
      </trkpt>
      <trkpt lat="48.93373" lon="0.16985">
        <ele>251</ele>
        <time>2019-04-28T12:44:59Z</time>
      </trkpt>
      <trkpt lat="48.93376" lon="0.16998">
        <ele>250</ele>
        <time>2019-04-28T12:45:04Z</time>
      </trkpt>
      <trkpt lat="48.93379" lon="0.17012">
        <ele>248</ele>
        <time>2019-04-28T12:45:09Z</time>
      </trkpt>
      <trkpt lat="48.93383" lon="0.17034">
        <ele>247</ele>
        <time>2019-04-28T12:45:19Z</time>
      </trkpt>
      <trkpt lat="48.93386" lon="0.17051">
        <ele>247</ele>
        <time>2019-04-28T12:45:24Z</time>
      </trkpt>
      <trkpt lat="48.9339" lon="0.17072">
        <ele>245</ele>
        <time>2019-04-28T12:45:34Z</time>
      </trkpt>
      <trkpt lat="48.93393" lon="0.17087">
        <ele>246</ele>
        <time>2019-04-28T12:45:39Z</time>
      </trkpt>
      <trkpt lat="48.93398" lon="0.17105">
        <ele>245</ele>
        <time>2019-04-28T12:45:49Z</time>
      </trkpt>
      <trkpt lat="48.93401" lon="0.17118">
        <ele>247</ele>
        <time>2019-04-28T12:45:54Z</time>
      </trkpt>
      <trkpt lat="48.93404" lon="0.17128">
        <ele>247</ele>
        <time>2019-04-28T12:45:59Z</time>
      </trkpt>
      <trkpt lat="48.93409" lon="0.17143">
        <ele>248</ele>
        <time>2019-04-28T12:46:09Z</time>
      </trkpt>
      <trkpt lat="48.93416" lon="0.17157">
        <ele>250</ele>
        <time>2019-04-28T12:46:19Z</time>
      </trkpt>
      <trkpt lat="48.93425" lon="0.17171">
        <ele>253</ele>
        <time>2019-04-28T12:46:29Z</time>
      </trkpt>
      <trkpt lat="48.93437" lon="0.17186">
        <ele>257</ele>
        <time>2019-04-28T12:46:39Z</time>
      </trkpt>
      <trkpt lat="48.93446" lon="0.17195">
        <ele>257</ele>
        <time>2019-04-28T12:46:44Z</time>
      </trkpt>
      <trkpt lat="48.9346" lon="0.17205">
        <ele>258</ele>
        <time>2019-04-28T12:46:54Z</time>
      </trkpt>
      <trkpt lat="48.93468" lon="0.17212">
        <ele>257</ele>
        <time>2019-04-28T12:47:04Z</time>
      </trkpt>
      <trkpt lat="48.93479" lon="0.1722">
        <ele>257</ele>
        <time>2019-04-28T12:47:09Z</time>
      </trkpt>
      <trkpt lat="48.93484" lon="0.17224">
        <ele>256</ele>
        <time>2019-04-28T12:47:14Z</time>
      </trkpt>
      <trkpt lat="48.93493" lon="0.1723">
        <ele>255</ele>
        <time>2019-04-28T12:47:24Z</time>
      </trkpt>
      <trkpt lat="48.93506" lon="0.17241">
        <ele>254</ele>
        <time>2019-04-28T12:47:34Z</time>
      </trkpt>
      <trkpt lat="48.93514" lon="0.17246">
        <ele>253</ele>
        <time>2019-04-28T12:47:39Z</time>
      </trkpt>
      <trkpt lat="48.93525" lon="0.17253">
        <ele>252</ele>
        <time>2019-04-28T12:47:44Z</time>
      </trkpt>
      <trkpt lat="48.93531" lon="0.17256">
        <ele>252</ele>
        <time>2019-04-28T12:47:49Z</time>
      </trkpt>
      <trkpt lat="48.9354" lon="0.17261">
        <ele>252</ele>
        <time>2019-04-28T12:47:59Z</time>
      </trkpt>
      <trkpt lat="48.93552" lon="0.17266">
        <ele>250</ele>
        <time>2019-04-28T12:48:09Z</time>
      </trkpt>
      <trkpt lat="48.93562" lon="0.17271">
        <ele>249</ele>
        <time>2019-04-28T12:48:19Z</time>
      </trkpt>
      <trkpt lat="48.93565" lon="0.17272">
        <ele>248</ele>
        <time>2019-04-28T12:48:29Z</time>
      </trkpt>
      <trkpt lat="48.93566" lon="0.17272">
        <ele>248</ele>
        <time>2019-04-28T12:48:39Z</time>
      </trkpt>
      <trkpt lat="48.93567" lon="0.17272">
        <ele>248</ele>
        <time>2019-04-28T12:48:44Z</time>
      </trkpt>
      <trkpt lat="48.93567" lon="0.17272">
        <ele>248</ele>
        <time>2019-04-28T12:48:54Z</time>
      </trkpt>
      <trkpt lat="48.93567" lon="0.17272">
        <ele>248</ele>
        <time>2019-04-28T12:49:04Z</time>
      </trkpt>
      <trkpt lat="48.93567" lon="0.17272">
        <ele>248</ele>
        <time>2019-04-28T12:49:09Z</time>
      </trkpt>
      <trkpt lat="48.93567" lon="0.17272">
        <ele>248</ele>
        <time>2019-04-28T12:49:19Z</time>
      </trkpt>
      <trkpt lat="48.93571" lon="0.17276">
        <ele>245</ele>
        <time>2019-04-28T12:49:29Z</time>
      </trkpt>
      <trkpt lat="48.93578" lon="0.17277">
        <ele>245</ele>
        <time>2019-04-28T12:49:39Z</time>
      </trkpt>
      <trkpt lat="48.93584" lon="0.17274">
        <ele>241</ele>
        <time>2019-04-28T12:49:49Z</time>
      </trkpt>
      <trkpt lat="48.93592" lon="0.17273">
        <ele>240</ele>
        <time>2019-04-28T12:49:59Z</time>
      </trkpt>
      <trkpt lat="48.93598" lon="0.17279">
        <ele>239</ele>
        <time>2019-04-28T12:50:09Z</time>
      </trkpt>
      <trkpt lat="48.93602" lon="0.17286">
        <ele>238</ele>
        <time>2019-04-28T12:50:14Z</time>
      </trkpt>
      <trkpt lat="48.93608" lon="0.17302">
        <ele>238</ele>
        <time>2019-04-28T12:50:25Z</time>
      </trkpt>
      <trkpt lat="48.93613" lon="0.17314">
        <ele>239</ele>
        <time>2019-04-28T12:50:34Z</time>
      </trkpt>
      <trkpt lat="48.93622" lon="0.17327">
        <ele>239</ele>
        <time>2019-04-28T12:50:44Z</time>
      </trkpt>
      <trkpt lat="48.93627" lon="0.17332">
        <ele>239</ele>
        <time>2019-04-28T12:50:49Z</time>
      </trkpt>
      <trkpt lat="48.93633" lon="0.17338">
        <ele>237</ele>
        <time>2019-04-28T12:50:59Z</time>
      </trkpt>
      <trkpt lat="48.9364" lon="0.17349">
        <ele>237</ele>
        <time>2019-04-28T12:51:04Z</time>
      </trkpt>
      <trkpt lat="48.93645" lon="0.17358">
        <ele>237</ele>
        <time>2019-04-28T12:51:14Z</time>
      </trkpt>
      <trkpt lat="48.93649" lon="0.17367">
        <ele>237</ele>
        <time>2019-04-28T12:51:24Z</time>
      </trkpt>
      <trkpt lat="48.93653" lon="0.17375">
        <ele>236</ele>
        <time>2019-04-28T12:51:29Z</time>
      </trkpt>
      <trkpt lat="48.93656" lon="0.17391">
        <ele>233</ele>
        <time>2019-04-28T12:51:39Z</time>
      </trkpt>
      <trkpt lat="48.93661" lon="0.17421">
        <ele>228</ele>
        <time>2019-04-28T12:51:48Z</time>
      </trkpt>
      <trkpt lat="48.93662" lon="0.17436">
        <ele>230</ele>
        <time>2019-04-28T12:51:53Z</time>
      </trkpt>
      <trkpt lat="48.93664" lon="0.17448">
        <ele>229</ele>
        <time>2019-04-28T12:51:59Z</time>
      </trkpt>
      <trkpt lat="48.93664" lon="0.17454">
        <ele>229</ele>
        <time>2019-04-28T12:52:08Z</time>
      </trkpt>
      <trkpt lat="48.93666" lon="0.17457">
        <ele>229</ele>
        <time>2019-04-28T12:52:18Z</time>
      </trkpt>
      <trkpt lat="48.93667" lon="0.17462">
        <ele>230</ele>
        <time>2019-04-28T12:52:23Z</time>
      </trkpt>
      <trkpt lat="48.93668" lon="0.17469">
        <ele>230</ele>
        <time>2019-04-28T12:52:33Z</time>
      </trkpt>
      <trkpt lat="48.9367" lon="0.17487">
        <ele>229</ele>
        <time>2019-04-28T12:52:38Z</time>
      </trkpt>
      <trkpt lat="48.93671" lon="0.17498">
        <ele>229</ele>
        <time>2019-04-28T12:52:43Z</time>
      </trkpt>
      <trkpt lat="48.93672" lon="0.1751">
        <ele>229</ele>
        <time>2019-04-28T12:52:53Z</time>
      </trkpt>
      <trkpt lat="48.93672" lon="0.17515">
        <ele>229</ele>
        <time>2019-04-28T12:52:58Z</time>
      </trkpt>
      <trkpt lat="48.93673" lon="0.17518">
        <ele>231</ele>
        <time>2019-04-28T12:53:03Z</time>
      </trkpt>
      <trkpt lat="48.93683" lon="0.17518">
        <ele>233</ele>
        <time>2019-04-28T12:53:13Z</time>
      </trkpt>
      <trkpt lat="48.93691" lon="0.17519">
        <ele>230</ele>
        <time>2019-04-28T12:53:23Z</time>
      </trkpt>
      <trkpt lat="48.93702" lon="0.17518">
        <ele>224</ele>
        <time>2019-04-28T12:53:33Z</time>
      </trkpt>
      <trkpt lat="48.93714" lon="0.17518">
        <ele>219</ele>
        <time>2019-04-28T12:53:43Z</time>
      </trkpt>
      <trkpt lat="48.93728" lon="0.17518">
        <ele>218</ele>
        <time>2019-04-28T12:53:48Z</time>
      </trkpt>
      <trkpt lat="48.93736" lon="0.17518">
        <ele>218</ele>
        <time>2019-04-28T12:53:58Z</time>
      </trkpt>
      <trkpt lat="48.9374" lon="0.17518">
        <ele>219</ele>
        <time>2019-04-28T12:54:03Z</time>
      </trkpt>
      <trkpt lat="48.93753" lon="0.17518">
        <ele>220</ele>
        <time>2019-04-28T12:54:13Z</time>
      </trkpt>
      <trkpt lat="48.93758" lon="0.17517">
        <ele>222</ele>
        <time>2019-04-28T12:54:18Z</time>
      </trkpt>
      <trkpt lat="48.93767" lon="0.17517">
        <ele>223</ele>
        <time>2019-04-28T12:54:28Z</time>
      </trkpt>
      <trkpt lat="48.93777" lon="0.17516">
        <ele>223</ele>
        <time>2019-04-28T12:54:38Z</time>
      </trkpt>
      <trkpt lat="48.93794" lon="0.17512">
        <ele>222</ele>
        <time>2019-04-28T12:54:48Z</time>
      </trkpt>
      <trkpt lat="48.93805" lon="0.1751">
        <ele>221</ele>
        <time>2019-04-28T12:54:53Z</time>
      </trkpt>
      <trkpt lat="48.93811" lon="0.17509">
        <ele>221</ele>
        <time>2019-04-28T12:55:03Z</time>
      </trkpt>
      <trkpt lat="48.93818" lon="0.17509">
        <ele>221</ele>
        <time>2019-04-28T12:55:08Z</time>
      </trkpt>
      <trkpt lat="48.93826" lon="0.17509">
        <ele>221</ele>
        <time>2019-04-28T12:55:18Z</time>
      </trkpt>
      <trkpt lat="48.93833" lon="0.1751">
        <ele>221</ele>
        <time>2019-04-28T12:55:28Z</time>
      </trkpt>
      <trkpt lat="48.93842" lon="0.1751">
        <ele>221</ele>
        <time>2019-04-28T12:55:33Z</time>
      </trkpt>
      <trkpt lat="48.93846" lon="0.1751">
        <ele>220</ele>
        <time>2019-04-28T12:55:38Z</time>
      </trkpt>
      <trkpt lat="48.9386" lon="0.17507">
        <ele>219</ele>
        <time>2019-04-28T12:55:48Z</time>
      </trkpt>
      <trkpt lat="48.93868" lon="0.17505">
        <ele>219</ele>
        <time>2019-04-28T12:55:53Z</time>
      </trkpt>
      <trkpt lat="48.93876" lon="0.17504">
        <ele>219</ele>
        <time>2019-04-28T12:56:03Z</time>
      </trkpt>
      <trkpt lat="48.9388" lon="0.17503">
        <ele>219</ele>
        <time>2019-04-28T12:56:08Z</time>
      </trkpt>
      <trkpt lat="48.93883" lon="0.17503">
        <ele>219</ele>
        <time>2019-04-28T12:56:18Z</time>
      </trkpt>
      <trkpt lat="48.93892" lon="0.17504">
        <ele>217</ele>
        <time>2019-04-28T12:56:28Z</time>
      </trkpt>
      <trkpt lat="48.93897" lon="0.17504">
        <ele>217</ele>
        <time>2019-04-28T12:56:33Z</time>
      </trkpt>
      <trkpt lat="48.93905" lon="0.17505">
        <ele>217</ele>
        <time>2019-04-28T12:56:43Z</time>
      </trkpt>
      <trkpt lat="48.93922" lon="0.17504">
        <ele>217</ele>
        <time>2019-04-28T12:56:48Z</time>
      </trkpt>
      <trkpt lat="48.93931" lon="0.17504">
        <ele>217</ele>
        <time>2019-04-28T12:56:53Z</time>
      </trkpt>
      <trkpt lat="48.9394" lon="0.17504">
        <ele>217</ele>
        <time>2019-04-28T12:57:03Z</time>
      </trkpt>
      <trkpt lat="48.93946" lon="0.17504">
        <ele>215</ele>
        <time>2019-04-28T12:57:13Z</time>
      </trkpt>
      <trkpt lat="48.93958" lon="0.17505">
        <ele>215</ele>
        <time>2019-04-28T12:57:18Z</time>
      </trkpt>
      <trkpt lat="48.93966" lon="0.17506">
        <ele>213</ele>
        <time>2019-04-28T12:57:28Z</time>
      </trkpt>
      <trkpt lat="48.93979" lon="0.17508">
        <ele>212</ele>
        <time>2019-04-28T12:57:38Z</time>
      </trkpt>
      <trkpt lat="48.93985" lon="0.17508">
        <ele>212</ele>
        <time>2019-04-28T12:57:48Z</time>
      </trkpt>
      <trkpt lat="48.94001" lon="0.17513">
        <ele>211</ele>
        <time>2019-04-28T12:57:58Z</time>
      </trkpt>
      <trkpt lat="48.94008" lon="0.17515">
        <ele>211</ele>
        <time>2019-04-28T12:58:03Z</time>
      </trkpt>
      <trkpt lat="48.9402" lon="0.17519">
        <ele>211</ele>
        <time>2019-04-28T12:58:08Z</time>
      </trkpt>
      <trkpt lat="48.94027" lon="0.17522">
        <ele>211</ele>
        <time>2019-04-28T12:58:18Z</time>
      </trkpt>
      <trkpt lat="48.94041" lon="0.17527">
        <ele>210</ele>
        <time>2019-04-28T12:58:28Z</time>
      </trkpt>
      <trkpt lat="48.94047" lon="0.17529">
        <ele>210</ele>
        <time>2019-04-28T12:58:33Z</time>
      </trkpt>
      <trkpt lat="48.94049" lon="0.1753">
        <ele>210</ele>
        <time>2019-04-28T12:58:43Z</time>
      </trkpt>
      <trkpt lat="48.94052" lon="0.1753">
        <ele>210</ele>
        <time>2019-04-28T12:58:53Z</time>
      </trkpt>
      <trkpt lat="48.94054" lon="0.17531">
        <ele>210</ele>
        <time>2019-04-28T12:58:58Z</time>
      </trkpt>
      <trkpt lat="48.94062" lon="0.17534">
        <ele>209</ele>
        <time>2019-04-28T12:59:08Z</time>
      </trkpt>
      <trkpt lat="48.94078" lon="0.1754">
        <ele>210</ele>
        <time>2019-04-28T12:59:18Z</time>
      </trkpt>
      <trkpt lat="48.94091" lon="0.17545">
        <ele>209</ele>
        <time>2019-04-28T12:59:28Z</time>
      </trkpt>
      <trkpt lat="48.94102" lon="0.17552">
        <ele>207</ele>
        <time>2019-04-28T12:59:33Z</time>
      </trkpt>
      <trkpt lat="48.94115" lon="0.17558">
        <ele>207</ele>
        <time>2019-04-28T12:59:43Z</time>
      </trkpt>
      <trkpt lat="48.94128" lon="0.17565">
        <ele>207</ele>
        <time>2019-04-28T12:59:53Z</time>
      </trkpt>
      <trkpt lat="48.94139" lon="0.17571">
        <ele>206</ele>
        <time>2019-04-28T13:00:03Z</time>
      </trkpt>
      <trkpt lat="48.94158" lon="0.1759">
        <ele>207</ele>
        <time>2019-04-28T13:00:13Z</time>
      </trkpt>
      <trkpt lat="48.94168" lon="0.17599">
        <ele>204</ele>
        <time>2019-04-28T13:00:23Z</time>
      </trkpt>
      <trkpt lat="48.94181" lon="0.1761">
        <ele>203</ele>
        <time>2019-04-28T13:00:33Z</time>
      </trkpt>
      <trkpt lat="48.9419" lon="0.17617">
        <ele>201</ele>
        <time>2019-04-28T13:00:43Z</time>
      </trkpt>
      <trkpt lat="48.94203" lon="0.17626">
        <ele>202</ele>
        <time>2019-04-28T13:00:53Z</time>
      </trkpt>
      <trkpt lat="48.94211" lon="0.17631">
        <ele>202</ele>
        <time>2019-04-28T13:01:03Z</time>
      </trkpt>
      <trkpt lat="48.94222" lon="0.17638">
        <ele>200</ele>
        <time>2019-04-28T13:01:13Z</time>
      </trkpt>
      <trkpt lat="48.94236" lon="0.17647">
        <ele>199</ele>
        <time>2019-04-28T13:01:23Z</time>
      </trkpt>
      <trkpt lat="48.94248" lon="0.17654">
        <ele>199</ele>
        <time>2019-04-28T13:01:33Z</time>
      </trkpt>
      <trkpt lat="48.94256" lon="0.17659">
        <ele>198</ele>
        <time>2019-04-28T13:01:38Z</time>
      </trkpt>
      <trkpt lat="48.94265" lon="0.17665">
        <ele>195</ele>
        <time>2019-04-28T13:01:43Z</time>
      </trkpt>
      <trkpt lat="48.94273" lon="0.17671">
        <ele>193</ele>
        <time>2019-04-28T13:01:53Z</time>
      </trkpt>
      <trkpt lat="48.94279" lon="0.17674">
        <ele>193</ele>
        <time>2019-04-28T13:01:58Z</time>
      </trkpt>
      <trkpt lat="48.94291" lon="0.1768">
        <ele>194</ele>
        <time>2019-04-28T13:02:08Z</time>
      </trkpt>
      <trkpt lat="48.94298" lon="0.17682">
        <ele>195</ele>
        <time>2019-04-28T13:02:18Z</time>
      </trkpt>
      <trkpt lat="48.94302" lon="0.17674">
        <ele>194</ele>
        <time>2019-04-28T13:02:28Z</time>
      </trkpt>
      <trkpt lat="48.94307" lon="0.17661">
        <ele>192</ele>
        <time>2019-04-28T13:02:38Z</time>
      </trkpt>
      <trkpt lat="48.94312" lon="0.17652">
        <ele>192</ele>
        <time>2019-04-28T13:02:48Z</time>
      </trkpt>
      <trkpt lat="48.94316" lon="0.17645">
        <ele>192</ele>
        <time>2019-04-28T13:02:53Z</time>
      </trkpt>
      <trkpt lat="48.94323" lon="0.17631">
        <ele>192</ele>
        <time>2019-04-28T13:02:58Z</time>
      </trkpt>
      <trkpt lat="48.94329" lon="0.1763">
        <ele>187</ele>
        <time>2019-04-28T13:03:08Z</time>
      </trkpt>
      <trkpt lat="48.94334" lon="0.17634">
        <ele>185</ele>
        <time>2019-04-28T13:03:13Z</time>
      </trkpt>
      <trkpt lat="48.94341" lon="0.17646">
        <ele>186</ele>
        <time>2019-04-28T13:03:23Z</time>
      </trkpt>
      <trkpt lat="48.94348" lon="0.17661">
        <ele>187</ele>
        <time>2019-04-28T13:03:33Z</time>
      </trkpt>
      <trkpt lat="48.94355" lon="0.17677">
        <ele>189</ele>
        <time>2019-04-28T13:03:43Z</time>
      </trkpt>
      <trkpt lat="48.94362" lon="0.17695">
        <ele>189</ele>
        <time>2019-04-28T13:03:53Z</time>
      </trkpt>
      <trkpt lat="48.94367" lon="0.17708">
        <ele>188</ele>
        <time>2019-04-28T13:03:58Z</time>
      </trkpt>
      <trkpt lat="48.94372" lon="0.17723">
        <ele>190</ele>
        <time>2019-04-28T13:04:08Z</time>
      </trkpt>
      <trkpt lat="48.94379" lon="0.17744">
        <ele>188</ele>
        <time>2019-04-28T13:04:18Z</time>
      </trkpt>
      <trkpt lat="48.94382" lon="0.17754">
        <ele>189</ele>
        <time>2019-04-28T13:04:23Z</time>
      </trkpt>
      <trkpt lat="48.94385" lon="0.17765">
        <ele>189</ele>
        <time>2019-04-28T13:04:28Z</time>
      </trkpt>
      <trkpt lat="48.94388" lon="0.17773">
        <ele>190</ele>
        <time>2019-04-28T13:04:33Z</time>
      </trkpt>
      <trkpt lat="48.94394" lon="0.17786">
        <ele>191</ele>
        <time>2019-04-28T13:04:43Z</time>
      </trkpt>
      <trkpt lat="48.94402" lon="0.17804">
        <ele>191</ele>
        <time>2019-04-28T13:04:53Z</time>
      </trkpt>
      <trkpt lat="48.94409" lon="0.17817">
        <ele>192</ele>
        <time>2019-04-28T13:04:58Z</time>
      </trkpt>
      <trkpt lat="48.94416" lon="0.17832">
        <ele>192</ele>
        <time>2019-04-28T13:05:08Z</time>
      </trkpt>
      <trkpt lat="48.94424" lon="0.17849">
        <ele>193</ele>
        <time>2019-04-28T13:05:18Z</time>
      </trkpt>
      <trkpt lat="48.9443" lon="0.17867">
        <ele>193</ele>
        <time>2019-04-28T13:05:28Z</time>
      </trkpt>
      <trkpt lat="48.94433" lon="0.17879">
        <ele>193</ele>
        <time>2019-04-28T13:05:33Z</time>
      </trkpt>
      <trkpt lat="48.94436" lon="0.17894">
        <ele>192</ele>
        <time>2019-04-28T13:05:43Z</time>
      </trkpt>
      <trkpt lat="48.94438" lon="0.17912">
        <ele>191</ele>
        <time>2019-04-28T13:05:53Z</time>
      </trkpt>
      <trkpt lat="48.94439" lon="0.17925">
        <ele>190</ele>
        <time>2019-04-28T13:05:58Z</time>
      </trkpt>
      <trkpt lat="48.94441" lon="0.17941">
        <ele>192</ele>
        <time>2019-04-28T13:06:08Z</time>
      </trkpt>
      <trkpt lat="48.94444" lon="0.1796">
        <ele>193</ele>
        <time>2019-04-28T13:06:18Z</time>
      </trkpt>
      <trkpt lat="48.94448" lon="0.17977">
        <ele>194</ele>
        <time>2019-04-28T13:06:28Z</time>
      </trkpt>
      <trkpt lat="48.9445" lon="0.17988">
        <ele>193</ele>
        <time>2019-04-28T13:06:33Z</time>
      </trkpt>
      <trkpt lat="48.94451" lon="0.17997">
        <ele>191</ele>
        <time>2019-04-28T13:06:38Z</time>
      </trkpt>
      <trkpt lat="48.94455" lon="0.18015">
        <ele>189</ele>
        <time>2019-04-28T13:06:48Z</time>
      </trkpt>
      <trkpt lat="48.94457" lon="0.1803">
        <ele>189</ele>
        <time>2019-04-28T13:06:53Z</time>
      </trkpt>
      <trkpt lat="48.94461" lon="0.18047">
        <ele>188</ele>
        <time>2019-04-28T13:07:03Z</time>
      </trkpt>
      <trkpt lat="48.94463" lon="0.1806">
        <ele>188</ele>
        <time>2019-04-28T13:07:08Z</time>
      </trkpt>
      <trkpt lat="48.94466" lon="0.18078">
        <ele>188</ele>
        <time>2019-04-28T13:07:18Z</time>
      </trkpt>
      <trkpt lat="48.94467" lon="0.18092">
        <ele>187</ele>
        <time>2019-04-28T13:07:23Z</time>
      </trkpt>
      <trkpt lat="48.94467" lon="0.18103">
        <ele>186</ele>
        <time>2019-04-28T13:07:28Z</time>
      </trkpt>
      <trkpt lat="48.94463" lon="0.18122">
        <ele>183</ele>
        <time>2019-04-28T13:07:38Z</time>
      </trkpt>
      <trkpt lat="48.94457" lon="0.18142">
        <ele>184</ele>
        <time>2019-04-28T13:07:48Z</time>
      </trkpt>
      <trkpt lat="48.94451" lon="0.18157">
        <ele>184</ele>
        <time>2019-04-28T13:07:58Z</time>
      </trkpt>
      <trkpt lat="48.94445" lon="0.18167">
        <ele>184</ele>
        <time>2019-04-28T13:08:03Z</time>
      </trkpt>
      <trkpt lat="48.94441" lon="0.18174">
        <ele>184</ele>
        <time>2019-04-28T13:08:08Z</time>
      </trkpt>
      <trkpt lat="48.94437" lon="0.1818">
        <ele>184</ele>
        <time>2019-04-28T13:08:13Z</time>
      </trkpt>
      <trkpt lat="48.94428" lon="0.18188">
        <ele>183</ele>
        <time>2019-04-28T13:08:23Z</time>
      </trkpt>
      <trkpt lat="48.94415" lon="0.18197">
        <ele>181</ele>
        <time>2019-04-28T13:08:33Z</time>
      </trkpt>
      <trkpt lat="48.94408" lon="0.18202">
        <ele>181</ele>
        <time>2019-04-28T13:08:38Z</time>
      </trkpt>
      <trkpt lat="48.94394" lon="0.18206">
        <ele>181</ele>
        <time>2019-04-28T13:08:48Z</time>
      </trkpt>
      <trkpt lat="48.94382" lon="0.1821">
        <ele>181</ele>
        <time>2019-04-28T13:08:58Z</time>
      </trkpt>
      <trkpt lat="48.9437" lon="0.18213">
        <ele>182</ele>
        <time>2019-04-28T13:09:08Z</time>
      </trkpt>
      <trkpt lat="48.94361" lon="0.18216">
        <ele>180</ele>
        <time>2019-04-28T13:09:13Z</time>
      </trkpt>
      <trkpt lat="48.94354" lon="0.18219">
        <ele>180</ele>
        <time>2019-04-28T13:09:18Z</time>
      </trkpt>
      <trkpt lat="48.94343" lon="0.18223">
        <ele>179</ele>
        <time>2019-04-28T13:09:28Z</time>
      </trkpt>
      <trkpt lat="48.94336" lon="0.18227">
        <ele>179</ele>
        <time>2019-04-28T13:09:33Z</time>
      </trkpt>
      <trkpt lat="48.94325" lon="0.18232">
        <ele>178</ele>
        <time>2019-04-28T13:09:43Z</time>
      </trkpt>
      <trkpt lat="48.94318" lon="0.18236">
        <ele>178</ele>
        <time>2019-04-28T13:09:48Z</time>
      </trkpt>
      <trkpt lat="48.94305" lon="0.18242">
        <ele>177</ele>
        <time>2019-04-28T13:09:58Z</time>
      </trkpt>
      <trkpt lat="48.9429" lon="0.18251">
        <ele>175</ele>
        <time>2019-04-28T13:10:08Z</time>
      </trkpt>
      <trkpt lat="48.9428" lon="0.18257">
        <ele>176</ele>
        <time>2019-04-28T13:10:13Z</time>
      </trkpt>
      <trkpt lat="48.94267" lon="0.18266">
        <ele>177</ele>
        <time>2019-04-28T13:10:23Z</time>
      </trkpt>
      <trkpt lat="48.94259" lon="0.18273">
        <ele>175</ele>
        <time>2019-04-28T13:10:28Z</time>
      </trkpt>
      <trkpt lat="48.94253" lon="0.18279">
        <ele>172</ele>
        <time>2019-04-28T13:10:33Z</time>
      </trkpt>
      <trkpt lat="48.94248" lon="0.18285">
        <ele>172</ele>
        <time>2019-04-28T13:10:38Z</time>
      </trkpt>
      <trkpt lat="48.9424" lon="0.18293">
        <ele>171</ele>
        <time>2019-04-28T13:10:48Z</time>
      </trkpt>
      <trkpt lat="48.94229" lon="0.18304">
        <ele>171</ele>
        <time>2019-04-28T13:10:58Z</time>
      </trkpt>
      <trkpt lat="48.94221" lon="0.1831">
        <ele>170</ele>
        <time>2019-04-28T13:11:03Z</time>
      </trkpt>
      <trkpt lat="48.94212" lon="0.18318">
        <ele>168</ele>
        <time>2019-04-28T13:11:13Z</time>
      </trkpt>
      <trkpt lat="48.94201" lon="0.18325">
        <ele>168</ele>
        <time>2019-04-28T13:11:23Z</time>
      </trkpt>
      <trkpt lat="48.9419" lon="0.18333">
        <ele>167</ele>
        <time>2019-04-28T13:11:33Z</time>
      </trkpt>
      <trkpt lat="48.94177" lon="0.18341">
        <ele>166</ele>
        <time>2019-04-28T13:11:43Z</time>
      </trkpt>
      <trkpt lat="48.94169" lon="0.18346">
        <ele>166</ele>
        <time>2019-04-28T13:11:48Z</time>
      </trkpt>
      <trkpt lat="48.94156" lon="0.18353">
        <ele>166</ele>
        <time>2019-04-28T13:11:58Z</time>
      </trkpt>
      <trkpt lat="48.94151" lon="0.18356">
        <ele>166</ele>
        <time>2019-04-28T13:12:08Z</time>
      </trkpt>
      <trkpt lat="48.94147" lon="0.18357">
        <ele>164</ele>
        <time>2019-04-28T13:12:18Z</time>
      </trkpt>
      <trkpt lat="48.94144" lon="0.18359">
        <ele>164</ele>
        <time>2019-04-28T13:12:23Z</time>
      </trkpt>
      <trkpt lat="48.94136" lon="0.18365">
        <ele>162</ele>
        <time>2019-04-28T13:12:33Z</time>
      </trkpt>
      <trkpt lat="48.94127" lon="0.18371">
        <ele>163</ele>
        <time>2019-04-28T13:12:43Z</time>
      </trkpt>
      <trkpt lat="48.94117" lon="0.18377">
        <ele>160</ele>
        <time>2019-04-28T13:12:53Z</time>
      </trkpt>
      <trkpt lat="48.9411" lon="0.18382">
        <ele>160</ele>
        <time>2019-04-28T13:12:58Z</time>
      </trkpt>
      <trkpt lat="48.941" lon="0.18388">
        <ele>160</ele>
        <time>2019-04-28T13:13:08Z</time>
      </trkpt>
      <trkpt lat="48.94093" lon="0.18392">
        <ele>160</ele>
        <time>2019-04-28T13:13:13Z</time>
      </trkpt>
      <trkpt lat="48.94082" lon="0.18399">
        <ele>158</ele>
        <time>2019-04-28T13:13:23Z</time>
      </trkpt>
      <trkpt lat="48.94071" lon="0.18408">
        <ele>156</ele>
        <time>2019-04-28T13:13:33Z</time>
      </trkpt>
      <trkpt lat="48.94063" lon="0.18414">
        <ele>154</ele>
        <time>2019-04-28T13:13:38Z</time>
      </trkpt>
      <trkpt lat="48.94052" lon="0.18423">
        <ele>152</ele>
        <time>2019-04-28T13:13:48Z</time>
      </trkpt>
      <trkpt lat="48.94041" lon="0.18432">
        <ele>151</ele>
        <time>2019-04-28T13:13:58Z</time>
      </trkpt>
      <trkpt lat="48.94033" lon="0.18437">
        <ele>149</ele>
        <time>2019-04-28T13:14:03Z</time>
      </trkpt>
      <trkpt lat="48.94026" lon="0.18442">
        <ele>149</ele>
        <time>2019-04-28T13:14:08Z</time>
      </trkpt>
      <trkpt lat="48.94016" lon="0.18447">
        <ele>149</ele>
        <time>2019-04-28T13:14:18Z</time>
      </trkpt>
      <trkpt lat="48.94005" lon="0.18454">
        <ele>148</ele>
        <time>2019-04-28T13:14:28Z</time>
      </trkpt>
      <trkpt lat="48.93997" lon="0.18458">
        <ele>148</ele>
        <time>2019-04-28T13:14:33Z</time>
      </trkpt>
      <trkpt lat="48.93989" lon="0.18462">
        <ele>148</ele>
        <time>2019-04-28T13:14:38Z</time>
      </trkpt>
      <trkpt lat="48.93977" lon="0.18465">
        <ele>148</ele>
        <time>2019-04-28T13:14:48Z</time>
      </trkpt>
      <trkpt lat="48.93965" lon="0.18468">
        <ele>148</ele>
        <time>2019-04-28T13:14:58Z</time>
      </trkpt>
      <trkpt lat="48.93955" lon="0.18469">
        <ele>148</ele>
        <time>2019-04-28T13:15:03Z</time>
      </trkpt>
      <trkpt lat="48.93944" lon="0.18471">
        <ele>146</ele>
        <time>2019-04-28T13:15:13Z</time>
      </trkpt>
      <trkpt lat="48.93935" lon="0.18473">
        <ele>145</ele>
        <time>2019-04-28T13:15:18Z</time>
      </trkpt>
      <trkpt lat="48.93928" lon="0.18475">
        <ele>143</ele>
        <time>2019-04-28T13:15:23Z</time>
      </trkpt>
      <trkpt lat="48.93918" lon="0.18479">
        <ele>142</ele>
        <time>2019-04-28T13:15:33Z</time>
      </trkpt>
      <trkpt lat="48.93911" lon="0.18482">
        <ele>141</ele>
        <time>2019-04-28T13:15:38Z</time>
      </trkpt>
      <trkpt lat="48.93901" lon="0.1849">
        <ele>141</ele>
        <time>2019-04-28T13:15:48Z</time>
      </trkpt>
      <trkpt lat="48.93891" lon="0.18501">
        <ele>143</ele>
        <time>2019-04-28T13:15:58Z</time>
      </trkpt>
      <trkpt lat="48.93884" lon="0.1851">
        <ele>143</ele>
        <time>2019-04-28T13:16:03Z</time>
      </trkpt>
      <trkpt lat="48.93876" lon="0.18523">
        <ele>143</ele>
        <time>2019-04-28T13:16:13Z</time>
      </trkpt>
      <trkpt lat="48.9387" lon="0.18533">
        <ele>143</ele>
        <time>2019-04-28T13:16:18Z</time>
      </trkpt>
      <trkpt lat="48.93865" lon="0.18543">
        <ele>145</ele>
        <time>2019-04-28T13:16:23Z</time>
      </trkpt>
      <trkpt lat="48.93861" lon="0.18559">
        <ele>145</ele>
        <time>2019-04-28T13:16:33Z</time>
      </trkpt>
      <trkpt lat="48.93862" lon="0.18572">
        <ele>146</ele>
        <time>2019-04-28T13:16:38Z</time>
      </trkpt>
      <trkpt lat="48.93863" lon="0.18577">
        <ele>145</ele>
        <time>2019-04-28T13:16:43Z</time>
      </trkpt>
      <trkpt lat="48.93869" lon="0.1858">
        <ele>146</ele>
        <time>2019-04-28T13:16:53Z</time>
      </trkpt>
      <trkpt lat="48.93883" lon="0.18578">
        <ele>145</ele>
        <time>2019-04-28T13:17:03Z</time>
      </trkpt>
      <trkpt lat="48.93893" lon="0.18574">
        <ele>146</ele>
        <time>2019-04-28T13:17:08Z</time>
      </trkpt>
      <trkpt lat="48.93903" lon="0.1857">
        <ele>146</ele>
        <time>2019-04-28T13:17:13Z</time>
      </trkpt>
      <trkpt lat="48.93916" lon="0.18568">
        <ele>145</ele>
        <time>2019-04-28T13:17:23Z</time>
      </trkpt>
      <trkpt lat="48.93927" lon="0.18565">
        <ele>142</ele>
        <time>2019-04-28T13:17:33Z</time>
      </trkpt>
      <trkpt lat="48.93936" lon="0.18564">
        <ele>144</ele>
        <time>2019-04-28T13:17:38Z</time>
      </trkpt>
      <trkpt lat="48.93943" lon="0.18567">
        <ele>144</ele>
        <time>2019-04-28T13:17:43Z</time>
      </trkpt>
      <trkpt lat="48.9395" lon="0.18572">
        <ele>143</ele>
        <time>2019-04-28T13:17:48Z</time>
      </trkpt>
      <trkpt lat="48.93955" lon="0.18578">
        <ele>142</ele>
        <time>2019-04-28T13:17:53Z</time>
      </trkpt>
      <trkpt lat="48.93962" lon="0.1859">
        <ele>143</ele>
        <time>2019-04-28T13:18:03Z</time>
      </trkpt>
      <trkpt lat="48.93967" lon="0.18602">
        <ele>143</ele>
        <time>2019-04-28T13:18:08Z</time>
      </trkpt>
      <trkpt lat="48.93972" lon="0.18616">
        <ele>144</ele>
        <time>2019-04-28T13:18:18Z</time>
      </trkpt>
      <trkpt lat="48.93975" lon="0.18629">
        <ele>145</ele>
        <time>2019-04-28T13:18:23Z</time>
      </trkpt>
      <trkpt lat="48.93976" lon="0.18636">
        <ele>145</ele>
        <time>2019-04-28T13:18:33Z</time>
      </trkpt>
      <trkpt lat="48.93977" lon="0.18638">
        <ele>145</ele>
        <time>2019-04-28T13:18:38Z</time>
      </trkpt>
      <trkpt lat="48.93977" lon="0.1864">
        <ele>145</ele>
        <time>2019-04-28T13:18:43Z</time>
      </trkpt>
      <trkpt lat="48.93978" lon="0.18641">
        <ele>145</ele>
        <time>2019-04-28T13:18:53Z</time>
      </trkpt>
      <trkpt lat="48.93978" lon="0.18641">
        <ele>145</ele>
        <time>2019-04-28T13:19:03Z</time>
      </trkpt>
      <trkpt lat="48.93978" lon="0.18641">
        <ele>145</ele>
        <time>2019-04-28T13:19:13Z</time>
      </trkpt>
      <trkpt lat="48.93978" lon="0.18642">
        <ele>145</ele>
        <time>2019-04-28T13:19:18Z</time>
      </trkpt>
      <trkpt lat="48.93978" lon="0.18642">
        <ele>145</ele>
        <time>2019-04-28T13:19:23Z</time>
      </trkpt>
      <trkpt lat="48.93978" lon="0.18642">
        <ele>145</ele>
        <time>2019-04-28T13:19:28Z</time>
      </trkpt>
      <trkpt lat="48.93978" lon="0.18642">
        <ele>145</ele>
        <time>2019-04-28T13:19:33Z</time>
      </trkpt>
      <trkpt lat="48.93978" lon="0.18642">
        <ele>145</ele>
        <time>2019-04-28T13:19:38Z</time>
      </trkpt>
      <trkpt lat="48.93978" lon="0.18642">
        <ele>145</ele>
        <time>2019-04-28T13:19:48Z</time>
      </trkpt>
      <trkpt lat="48.93978" lon="0.18642">
        <ele>145</ele>
        <time>2019-04-28T13:19:58Z</time>
      </trkpt>
      <trkpt lat="48.93978" lon="0.18642">
        <ele>145</ele>
        <time>2019-04-28T13:20:08Z</time>
      </trkpt>
      <trkpt lat="48.93978" lon="0.18642">
        <ele>145</ele>
        <time>2019-04-28T13:20:18Z</time>
      </trkpt>
      <trkpt lat="48.93978" lon="0.18642">
        <ele>145</ele>
        <time>2019-04-28T13:20:28Z</time>
      </trkpt>
      <trkpt lat="48.93978" lon="0.18642">
        <ele>145</ele>
        <time>2019-04-28T13:20:33Z</time>
      </trkpt>
      <trkpt lat="48.93978" lon="0.18642">
        <ele>145</ele>
        <time>2019-04-28T13:20:38Z</time>
      </trkpt>
      <trkpt lat="48.93978" lon="0.18642">
        <ele>145</ele>
        <time>2019-04-28T13:20:48Z</time>
      </trkpt>
      <trkpt lat="48.93978" lon="0.18642">
        <ele>145</ele>
        <time>2019-04-28T13:20:53Z</time>
      </trkpt>
      <trkpt lat="48.93978" lon="0.18642">
        <ele>145</ele>
        <time>2019-04-28T13:20:58Z</time>
      </trkpt>
      <trkpt lat="48.93978" lon="0.18642">
        <ele>145</ele>
        <time>2019-04-28T13:21:03Z</time>
      </trkpt>
      <trkpt lat="48.93978" lon="0.18642">
        <ele>145</ele>
        <time>2019-04-28T13:21:13Z</time>
      </trkpt>
      <trkpt lat="48.93978" lon="0.18642">
        <ele>145</ele>
        <time>2019-04-28T13:21:23Z</time>
      </trkpt>
      <trkpt lat="48.93978" lon="0.18642">
        <ele>145</ele>
        <time>2019-04-28T13:21:33Z</time>
      </trkpt>
      <trkpt lat="48.93978" lon="0.18642">
        <ele>145</ele>
        <time>2019-04-28T13:21:38Z</time>
      </trkpt>
      <trkpt lat="48.93978" lon="0.18642">
        <ele>145</ele>
        <time>2019-04-28T13:21:48Z</time>
      </trkpt>
      <trkpt lat="48.93978" lon="0.18642">
        <ele>145</ele>
        <time>2019-04-28T13:21:53Z</time>
      </trkpt>
      <trkpt lat="48.93978" lon="0.18642">
        <ele>145</ele>
        <time>2019-04-28T13:22:03Z</time>
      </trkpt>
      <trkpt lat="48.93983" lon="0.18643">
        <ele>144</ele>
        <time>2019-04-28T13:22:08Z</time>
      </trkpt>
      <trkpt lat="48.93986" lon="0.18644">
        <ele>144</ele>
        <time>2019-04-28T13:22:13Z</time>
      </trkpt>
      <trkpt lat="48.93988" lon="0.18645">
        <ele>144</ele>
        <time>2019-04-28T13:22:18Z</time>
      </trkpt>
      <trkpt lat="48.93994" lon="0.18648">
        <ele>141</ele>
        <time>2019-04-28T13:22:23Z</time>
      </trkpt>
      <trkpt lat="48.93998" lon="0.1865">
        <ele>141</ele>
        <time>2019-04-28T13:22:33Z</time>
      </trkpt>
      <trkpt lat="48.94001" lon="0.18651">
        <ele>141</ele>
        <time>2019-04-28T13:22:43Z</time>
      </trkpt>
      <trkpt lat="48.94003" lon="0.18652">
        <ele>141</ele>
        <time>2019-04-28T13:22:53Z</time>
      </trkpt>
      <trkpt lat="48.94003" lon="0.18652">
        <ele>141</ele>
        <time>2019-04-28T13:23:03Z</time>
      </trkpt>
      <trkpt lat="48.94003" lon="0.18652">
        <ele>141</ele>
        <time>2019-04-28T13:23:08Z</time>
      </trkpt>
      <trkpt lat="48.94003" lon="0.18652">
        <ele>141</ele>
        <time>2019-04-28T13:23:18Z</time>
      </trkpt>
      <trkpt lat="48.94003" lon="0.18652">
        <ele>141</ele>
        <time>2019-04-28T13:23:23Z</time>
      </trkpt>
      <trkpt lat="48.94003" lon="0.18654">
        <ele>142</ele>
        <time>2019-04-28T13:23:33Z</time>
      </trkpt>
      <trkpt lat="48.94004" lon="0.18656">
        <ele>143</ele>
        <time>2019-04-28T13:23:38Z</time>
      </trkpt>
      <trkpt lat="48.94005" lon="0.18667">
        <ele>143</ele>
        <time>2019-04-28T13:23:48Z</time>
      </trkpt>
      <trkpt lat="48.94005" lon="0.18671">
        <ele>143</ele>
        <time>2019-04-28T13:23:53Z</time>
      </trkpt>
      <trkpt lat="48.94005" lon="0.18673">
        <ele>143</ele>
        <time>2019-04-28T13:24:03Z</time>
      </trkpt>
      <trkpt lat="48.94005" lon="0.18673">
        <ele>143</ele>
        <time>2019-04-28T13:24:08Z</time>
      </trkpt>
      <trkpt lat="48.94005" lon="0.18674">
        <ele>143</ele>
        <time>2019-04-28T13:24:13Z</time>
      </trkpt>
      <trkpt lat="48.94005" lon="0.18674">
        <ele>143</ele>
        <time>2019-04-28T13:24:18Z</time>
      </trkpt>
      <trkpt lat="48.94005" lon="0.18674">
        <ele>143</ele>
        <time>2019-04-28T13:24:28Z</time>
      </trkpt>
      <trkpt lat="48.94005" lon="0.18674">
        <ele>143</ele>
        <time>2019-04-28T13:24:33Z</time>
      </trkpt>
      <trkpt lat="48.94005" lon="0.18674">
        <ele>143</ele>
        <time>2019-04-28T13:24:39Z</time>
      </trkpt>
      <trkpt lat="48.94005" lon="0.18674">
        <ele>143</ele>
        <time>2019-04-28T13:24:43Z</time>
      </trkpt>
      <trkpt lat="48.94005" lon="0.18673">
        <ele>143</ele>
        <time>2019-04-28T13:24:53Z</time>
      </trkpt>
      <trkpt lat="48.94007" lon="0.18673">
        <ele>144</ele>
        <time>2019-04-28T13:24:58Z</time>
      </trkpt>
      <trkpt lat="48.94007" lon="0.18674">
        <ele>144</ele>
        <time>2019-04-28T13:25:03Z</time>
      </trkpt>
      <trkpt lat="48.94008" lon="0.18675">
        <ele>144</ele>
        <time>2019-04-28T13:25:08Z</time>
      </trkpt>
      <trkpt lat="48.9401" lon="0.18678">
        <ele>144</ele>
        <time>2019-04-28T13:25:18Z</time>
      </trkpt>
      <trkpt lat="48.94011" lon="0.18679">
        <ele>144</ele>
        <time>2019-04-28T13:25:28Z</time>
      </trkpt>
      <trkpt lat="48.94013" lon="0.18681">
        <ele>144</ele>
        <time>2019-04-28T13:25:38Z</time>
      </trkpt>
      <trkpt lat="48.94013" lon="0.18682">
        <ele>144</ele>
        <time>2019-04-28T13:25:43Z</time>
      </trkpt>
      <trkpt lat="48.94016" lon="0.18689">
        <ele>141</ele>
        <time>2019-04-28T13:25:53Z</time>
      </trkpt>
      <trkpt lat="48.94017" lon="0.18692">
        <ele>141</ele>
        <time>2019-04-28T13:25:58Z</time>
      </trkpt>
      <trkpt lat="48.94018" lon="0.18693">
        <ele>141</ele>
        <time>2019-04-28T13:26:08Z</time>
      </trkpt>
      <trkpt lat="48.9402" lon="0.18693">
        <ele>141</ele>
        <time>2019-04-28T13:26:13Z</time>
      </trkpt>
      <trkpt lat="48.94028" lon="0.18694">
        <ele>140</ele>
        <time>2019-04-28T13:26:23Z</time>
      </trkpt>
      <trkpt lat="48.94034" lon="0.18695">
        <ele>138</ele>
        <time>2019-04-28T13:26:28Z</time>
      </trkpt>
      <trkpt lat="48.94044" lon="0.18691">
        <ele>137</ele>
        <time>2019-04-28T13:26:38Z</time>
      </trkpt>
      <trkpt lat="48.94051" lon="0.18688">
        <ele>135</ele>
        <time>2019-04-28T13:26:43Z</time>
      </trkpt>
      <trkpt lat="48.94059" lon="0.18681">
        <ele>134</ele>
        <time>2019-04-28T13:26:53Z</time>
      </trkpt>
      <trkpt lat="48.94067" lon="0.18672">
        <ele>132</ele>
        <time>2019-04-28T13:27:03Z</time>
      </trkpt>
      <trkpt lat="48.94077" lon="0.18661">
        <ele>132</ele>
        <time>2019-04-28T13:27:13Z</time>
      </trkpt>
      <trkpt lat="48.94084" lon="0.18652">
        <ele>132</ele>
        <time>2019-04-28T13:27:18Z</time>
      </trkpt>
      <trkpt lat="48.94093" lon="0.1864">
        <ele>132</ele>
        <time>2019-04-28T13:27:28Z</time>
      </trkpt>
      <trkpt lat="48.94102" lon="0.18627">
        <ele>132</ele>
        <time>2019-04-28T13:27:38Z</time>
      </trkpt>
      <trkpt lat="48.9411" lon="0.18619">
        <ele>133</ele>
        <time>2019-04-28T13:27:43Z</time>
      </trkpt>
      <trkpt lat="48.94119" lon="0.1861">
        <ele>134</ele>
        <time>2019-04-28T13:27:53Z</time>
      </trkpt>
      <trkpt lat="48.94127" lon="0.18603">
        <ele>133</ele>
        <time>2019-04-28T13:27:58Z</time>
      </trkpt>
      <trkpt lat="48.94134" lon="0.18598">
        <ele>133</ele>
        <time>2019-04-28T13:28:03Z</time>
      </trkpt>
      <trkpt lat="48.94144" lon="0.18589">
        <ele>134</ele>
        <time>2019-04-28T13:28:13Z</time>
      </trkpt>
      <trkpt lat="48.94157" lon="0.18579">
        <ele>135</ele>
        <time>2019-04-28T13:28:23Z</time>
      </trkpt>
      <trkpt lat="48.94166" lon="0.18572">
        <ele>136</ele>
        <time>2019-04-28T13:28:28Z</time>
      </trkpt>
      <trkpt lat="48.94174" lon="0.18567">
        <ele>137</ele>
        <time>2019-04-28T13:28:33Z</time>
      </trkpt>
      <trkpt lat="48.9418" lon="0.18564">
        <ele>137</ele>
        <time>2019-04-28T13:28:38Z</time>
      </trkpt>
      <trkpt lat="48.9419" lon="0.18561">
        <ele>138</ele>
        <time>2019-04-28T13:28:48Z</time>
      </trkpt>
      <trkpt lat="48.94202" lon="0.18554">
        <ele>136</ele>
        <time>2019-04-28T13:28:58Z</time>
      </trkpt>
      <trkpt lat="48.94209" lon="0.18548">
        <ele>135</ele>
        <time>2019-04-28T13:29:03Z</time>
      </trkpt>
      <trkpt lat="48.94216" lon="0.18536">
        <ele>134</ele>
        <time>2019-04-28T13:29:13Z</time>
      </trkpt>
      <trkpt lat="48.94225" lon="0.18529">
        <ele>135</ele>
        <time>2019-04-28T13:29:23Z</time>
      </trkpt>
      <trkpt lat="48.94238" lon="0.18526">
        <ele>136</ele>
        <time>2019-04-28T13:29:33Z</time>
      </trkpt>
      <trkpt lat="48.94248" lon="0.18524">
        <ele>137</ele>
        <time>2019-04-28T13:29:38Z</time>
      </trkpt>
      <trkpt lat="48.94259" lon="0.18527">
        <ele>136</ele>
        <time>2019-04-28T13:29:48Z</time>
      </trkpt>
      <trkpt lat="48.94271" lon="0.18532">
        <ele>135</ele>
        <time>2019-04-28T13:29:58Z</time>
      </trkpt>
      <trkpt lat="48.94278" lon="0.18535">
        <ele>134</ele>
        <time>2019-04-28T13:30:03Z</time>
      </trkpt>
      <trkpt lat="48.94283" lon="0.1854">
        <ele>133</ele>
        <time>2019-04-28T13:30:08Z</time>
      </trkpt>
      <trkpt lat="48.94285" lon="0.18545">
        <ele>133</ele>
        <time>2019-04-28T13:30:13Z</time>
      </trkpt>
      <trkpt lat="48.94288" lon="0.18558">
        <ele>133</ele>
        <time>2019-04-28T13:30:23Z</time>
      </trkpt>
      <trkpt lat="48.94291" lon="0.18568">
        <ele>134</ele>
        <time>2019-04-28T13:30:28Z</time>
      </trkpt>
      <trkpt lat="48.94298" lon="0.18578">
        <ele>132</ele>
        <time>2019-04-28T13:30:38Z</time>
      </trkpt>
      <trkpt lat="48.94305" lon="0.18583">
        <ele>132</ele>
        <time>2019-04-28T13:30:43Z</time>
      </trkpt>
      <trkpt lat="48.94311" lon="0.18588">
        <ele>132</ele>
        <time>2019-04-28T13:30:48Z</time>
      </trkpt>
      <trkpt lat="48.9432" lon="0.18593">
        <ele>134</ele>
        <time>2019-04-28T13:30:58Z</time>
      </trkpt>
      <trkpt lat="48.94332" lon="0.18603">
        <ele>135</ele>
        <time>2019-04-28T13:31:08Z</time>
      </trkpt>
      <trkpt lat="48.9434" lon="0.18609">
        <ele>135</ele>
        <time>2019-04-28T13:31:13Z</time>
      </trkpt>
      <trkpt lat="48.9435" lon="0.18614">
        <ele>133</ele>
        <time>2019-04-28T13:31:23Z</time>
      </trkpt>
      <trkpt lat="48.94358" lon="0.18617">
        <ele>133</ele>
        <time>2019-04-28T13:31:28Z</time>
      </trkpt>
      <trkpt lat="48.9437" lon="0.18622">
        <ele>132</ele>
        <time>2019-04-28T13:31:38Z</time>
      </trkpt>
      <trkpt lat="48.94382" lon="0.18626">
        <ele>132</ele>
        <time>2019-04-28T13:31:48Z</time>
      </trkpt>
      <trkpt lat="48.94391" lon="0.1863">
        <ele>133</ele>
        <time>2019-04-28T13:31:53Z</time>
      </trkpt>
      <trkpt lat="48.94399" lon="0.18634">
        <ele>133</ele>
        <time>2019-04-28T13:31:58Z</time>
      </trkpt>
      <trkpt lat="48.94409" lon="0.18638">
        <ele>131</ele>
        <time>2019-04-28T13:32:08Z</time>
      </trkpt>
      <trkpt lat="48.94416" lon="0.18641">
        <ele>130</ele>
        <time>2019-04-28T13:32:13Z</time>
      </trkpt>
      <trkpt lat="48.94427" lon="0.18645">
        <ele>130</ele>
        <time>2019-04-28T13:32:23Z</time>
      </trkpt>
      <trkpt lat="48.94439" lon="0.1865">
        <ele>131</ele>
        <time>2019-04-28T13:32:33Z</time>
      </trkpt>
      <trkpt lat="48.94449" lon="0.18654">
        <ele>131</ele>
        <time>2019-04-28T13:32:38Z</time>
      </trkpt>
      <trkpt lat="48.94456" lon="0.18657">
        <ele>131</ele>
        <time>2019-04-28T13:32:43Z</time>
      </trkpt>
      <trkpt lat="48.94463" lon="0.18661">
        <ele>134</ele>
        <time>2019-04-28T13:32:48Z</time>
      </trkpt>
      <trkpt lat="48.9447" lon="0.18664">
        <ele>134</ele>
        <time>2019-04-28T13:32:53Z</time>
      </trkpt>
      <trkpt lat="48.9448" lon="0.1867">
        <ele>135</ele>
        <time>2019-04-28T13:33:03Z</time>
      </trkpt>
      <trkpt lat="48.94487" lon="0.18677">
        <ele>136</ele>
        <time>2019-04-28T13:33:08Z</time>
      </trkpt>
      <trkpt lat="48.94491" lon="0.18684">
        <ele>135</ele>
        <time>2019-04-28T13:33:13Z</time>
      </trkpt>
      <trkpt lat="48.94495" lon="0.18693">
        <ele>135</ele>
        <time>2019-04-28T13:33:18Z</time>
      </trkpt>
      <trkpt lat="48.94498" lon="0.1871">
        <ele>134</ele>
        <time>2019-04-28T13:33:28Z</time>
      </trkpt>
      <trkpt lat="48.94501" lon="0.18723">
        <ele>134</ele>
        <time>2019-04-28T13:33:33Z</time>
      </trkpt>
      <trkpt lat="48.94503" lon="0.18736">
        <ele>134</ele>
        <time>2019-04-28T13:33:38Z</time>
      </trkpt>
      <trkpt lat="48.94506" lon="0.18753">
        <ele>132</ele>
        <time>2019-04-28T13:33:48Z</time>
      </trkpt>
      <trkpt lat="48.94508" lon="0.18766">
        <ele>132</ele>
        <time>2019-04-28T13:33:53Z</time>
      </trkpt>
      <trkpt lat="48.9451" lon="0.18777">
        <ele>132</ele>
        <time>2019-04-28T13:33:58Z</time>
      </trkpt>
      <trkpt lat="48.94511" lon="0.18793">
        <ele>132</ele>
        <time>2019-04-28T13:34:08Z</time>
      </trkpt>
      <trkpt lat="48.94512" lon="0.18806">
        <ele>131</ele>
        <time>2019-04-28T13:34:13Z</time>
      </trkpt>
      <trkpt lat="48.94512" lon="0.18823">
        <ele>131</ele>
        <time>2019-04-28T13:34:23Z</time>
      </trkpt>
      <trkpt lat="48.94514" lon="0.18843">
        <ele>132</ele>
        <time>2019-04-28T13:34:33Z</time>
      </trkpt>
      <trkpt lat="48.94515" lon="0.18857">
        <ele>132</ele>
        <time>2019-04-28T13:34:38Z</time>
      </trkpt>
      <trkpt lat="48.94516" lon="0.18869">
        <ele>132</ele>
        <time>2019-04-28T13:34:43Z</time>
      </trkpt>
      <trkpt lat="48.94517" lon="0.18879">
        <ele>132</ele>
        <time>2019-04-28T13:34:48Z</time>
      </trkpt>
      <trkpt lat="48.94518" lon="0.18897">
        <ele>132</ele>
        <time>2019-04-28T13:34:58Z</time>
      </trkpt>
      <trkpt lat="48.94519" lon="0.18917">
        <ele>133</ele>
        <time>2019-04-28T13:35:08Z</time>
      </trkpt>
      <trkpt lat="48.94521" lon="0.18936">
        <ele>133</ele>
        <time>2019-04-28T13:35:18Z</time>
      </trkpt>
      <trkpt lat="48.94523" lon="0.1895">
        <ele>133</ele>
        <time>2019-04-28T13:35:23Z</time>
      </trkpt>
      <trkpt lat="48.94527" lon="0.18972">
        <ele>134</ele>
        <time>2019-04-28T13:35:33Z</time>
      </trkpt>
      <trkpt lat="48.94531" lon="0.18992">
        <ele>135</ele>
        <time>2019-04-28T13:35:43Z</time>
      </trkpt>
      <trkpt lat="48.94533" lon="0.19006">
        <ele>136</ele>
        <time>2019-04-28T13:35:48Z</time>
      </trkpt>
      <trkpt lat="48.94535" lon="0.19022">
        <ele>135</ele>
        <time>2019-04-28T13:35:58Z</time>
      </trkpt>
      <trkpt lat="48.94536" lon="0.19034">
        <ele>135</ele>
        <time>2019-04-28T13:36:03Z</time>
      </trkpt>
      <trkpt lat="48.94538" lon="0.19048">
        <ele>136</ele>
        <time>2019-04-28T13:36:13Z</time>
      </trkpt>
      <trkpt lat="48.9454" lon="0.19066">
        <ele>137</ele>
        <time>2019-04-28T13:36:23Z</time>
      </trkpt>
      <trkpt lat="48.94542" lon="0.19087">
        <ele>138</ele>
        <time>2019-04-28T13:36:33Z</time>
      </trkpt>
      <trkpt lat="48.94543" lon="0.19101">
        <ele>138</ele>
        <time>2019-04-28T13:36:38Z</time>
      </trkpt>
      <trkpt lat="48.94545" lon="0.19121">
        <ele>141</ele>
        <time>2019-04-28T13:36:48Z</time>
      </trkpt>
      <trkpt lat="48.94547" lon="0.19141">
        <ele>141</ele>
        <time>2019-04-28T13:36:58Z</time>
      </trkpt>
      <trkpt lat="48.94548" lon="0.19155">
        <ele>141</ele>
        <time>2019-04-28T13:37:03Z</time>
      </trkpt>
      <trkpt lat="48.9455" lon="0.19174">
        <ele>143</ele>
        <time>2019-04-28T13:37:13Z</time>
      </trkpt>
      <trkpt lat="48.94552" lon="0.19188">
        <ele>144</ele>
        <time>2019-04-28T13:37:18Z</time>
      </trkpt>
      <trkpt lat="48.94553" lon="0.19207">
        <ele>146</ele>
        <time>2019-04-28T13:37:28Z</time>
      </trkpt>
      <trkpt lat="48.94555" lon="0.19221">
        <ele>146</ele>
        <time>2019-04-28T13:37:33Z</time>
      </trkpt>
      <trkpt lat="48.94557" lon="0.19239">
        <ele>147</ele>
        <time>2019-04-28T13:37:43Z</time>
      </trkpt>
      <trkpt lat="48.94559" lon="0.19252">
        <ele>147</ele>
        <time>2019-04-28T13:37:48Z</time>
      </trkpt>
      <trkpt lat="48.94564" lon="0.19267">
        <ele>150</ele>
        <time>2019-04-28T13:37:58Z</time>
      </trkpt>
      <trkpt lat="48.94574" lon="0.19279">
        <ele>153</ele>
        <time>2019-04-28T13:38:08Z</time>
      </trkpt>
      <trkpt lat="48.94586" lon="0.19283">
        <ele>155</ele>
        <time>2019-04-28T13:38:18Z</time>
      </trkpt>
      <trkpt lat="48.94595" lon="0.19283">
        <ele>156</ele>
        <time>2019-04-28T13:38:23Z</time>
      </trkpt>
      <trkpt lat="48.94606" lon="0.19278">
        <ele>155</ele>
        <time>2019-04-28T13:38:33Z</time>
      </trkpt>
      <trkpt lat="48.94615" lon="0.19274">
        <ele>156</ele>
        <time>2019-04-28T13:38:38Z</time>
      </trkpt>
      <trkpt lat="48.94626" lon="0.19272">
        <ele>157</ele>
        <time>2019-04-28T13:38:48Z</time>
      </trkpt>
      <trkpt lat="48.94636" lon="0.1928">
        <ele>157</ele>
        <time>2019-04-28T13:38:58Z</time>
      </trkpt>
      <trkpt lat="48.9464" lon="0.19287">
        <ele>156</ele>
        <time>2019-04-28T13:39:08Z</time>
      </trkpt>
      <trkpt lat="48.94639" lon="0.19297">
        <ele>152</ele>
        <time>2019-04-28T13:39:18Z</time>
      </trkpt>
      <trkpt lat="48.94633" lon="0.19307">
        <ele>154</ele>
        <time>2019-04-28T13:39:28Z</time>
      </trkpt>
      <trkpt lat="48.94624" lon="0.19317">
        <ele>157</ele>
        <time>2019-04-28T13:39:38Z</time>
      </trkpt>
      <trkpt lat="48.94612" lon="0.19328">
        <ele>157</ele>
        <time>2019-04-28T13:39:48Z</time>
      </trkpt>
      <trkpt lat="48.946" lon="0.19338">
        <ele>157</ele>
        <time>2019-04-28T13:39:58Z</time>
      </trkpt>
      <trkpt lat="48.9459" lon="0.1935">
        <ele>158</ele>
        <time>2019-04-28T13:40:08Z</time>
      </trkpt>
      <trkpt lat="48.94583" lon="0.19359">
        <ele>159</ele>
        <time>2019-04-28T13:40:13Z</time>
      </trkpt>
      <trkpt lat="48.94575" lon="0.19372">
        <ele>159</ele>
        <time>2019-04-28T13:40:23Z</time>
      </trkpt>
      <trkpt lat="48.94567" lon="0.19389">
        <ele>160</ele>
        <time>2019-04-28T13:40:33Z</time>
      </trkpt>
      <trkpt lat="48.94561" lon="0.194">
        <ele>159</ele>
        <time>2019-04-28T13:40:38Z</time>
      </trkpt>
      <trkpt lat="48.94556" lon="0.1941">
        <ele>159</ele>
        <time>2019-04-28T13:40:43Z</time>
      </trkpt>
      <trkpt lat="48.94552" lon="0.19419">
        <ele>160</ele>
        <time>2019-04-28T13:40:48Z</time>
      </trkpt>
      <trkpt lat="48.94549" lon="0.19428">
        <ele>161</ele>
        <time>2019-04-28T13:40:58Z</time>
      </trkpt>
      <trkpt lat="48.94549" lon="0.1944">
        <ele>162</ele>
        <time>2019-04-28T13:41:08Z</time>
      </trkpt>
      <trkpt lat="48.94549" lon="0.19456">
        <ele>163</ele>
        <time>2019-04-28T13:41:18Z</time>
      </trkpt>
      <trkpt lat="48.94545" lon="0.19469">
        <ele>163</ele>
        <time>2019-04-28T13:41:28Z</time>
      </trkpt>
      <trkpt lat="48.94538" lon="0.19484">
        <ele>163</ele>
        <time>2019-04-28T13:41:38Z</time>
      </trkpt>
      <trkpt lat="48.94533" lon="0.19494">
        <ele>164</ele>
        <time>2019-04-28T13:41:43Z</time>
      </trkpt>
      <trkpt lat="48.94525" lon="0.19505">
        <ele>163</ele>
        <time>2019-04-28T13:41:53Z</time>
      </trkpt>
      <trkpt lat="48.94516" lon="0.19517">
        <ele>162</ele>
        <time>2019-04-28T13:42:03Z</time>
      </trkpt>
      <trkpt lat="48.94504" lon="0.19533">
        <ele>163</ele>
        <time>2019-04-28T13:42:13Z</time>
      </trkpt>
      <trkpt lat="48.94499" lon="0.19542">
        <ele>163</ele>
        <time>2019-04-28T13:42:18Z</time>
      </trkpt>
      <trkpt lat="48.94494" lon="0.1955">
        <ele>164</ele>
        <time>2019-04-28T13:42:28Z</time>
      </trkpt>
      <trkpt lat="48.94488" lon="0.19559">
        <ele>164</ele>
        <time>2019-04-28T13:42:38Z</time>
      </trkpt>
      <trkpt lat="48.9448" lon="0.19574">
        <ele>164</ele>
        <time>2019-04-28T13:42:48Z</time>
      </trkpt>
      <trkpt lat="48.94474" lon="0.19585">
        <ele>165</ele>
        <time>2019-04-28T13:42:53Z</time>
      </trkpt>
      <trkpt lat="48.94467" lon="0.19598">
        <ele>165</ele>
        <time>2019-04-28T13:43:03Z</time>
      </trkpt>
      <trkpt lat="48.94462" lon="0.19608">
        <ele>165</ele>
        <time>2019-04-28T13:43:08Z</time>
      </trkpt>
      <trkpt lat="48.94453" lon="0.19624">
        <ele>165</ele>
        <time>2019-04-28T13:43:18Z</time>
      </trkpt>
      <trkpt lat="48.94448" lon="0.19635">
        <ele>166</ele>
        <time>2019-04-28T13:43:23Z</time>
      </trkpt>
      <trkpt lat="48.94443" lon="0.19644">
        <ele>168</ele>
        <time>2019-04-28T13:43:28Z</time>
      </trkpt>
      <trkpt lat="48.94435" lon="0.19658">
        <ele>167</ele>
        <time>2019-04-28T13:43:38Z</time>
      </trkpt>
      <trkpt lat="48.9443" lon="0.19668">
        <ele>167</ele>
        <time>2019-04-28T13:43:43Z</time>
      </trkpt>
      <trkpt lat="48.94422" lon="0.19684">
        <ele>166</ele>
        <time>2019-04-28T13:43:53Z</time>
      </trkpt>
      <trkpt lat="48.94414" lon="0.19702">
        <ele>168</ele>
        <time>2019-04-28T13:44:03Z</time>
      </trkpt>
      <trkpt lat="48.94408" lon="0.19715">
        <ele>169</ele>
        <time>2019-04-28T13:44:08Z</time>
      </trkpt>
      <trkpt lat="48.94401" lon="0.19728">
        <ele>170</ele>
        <time>2019-04-28T13:44:18Z</time>
      </trkpt>
      <trkpt lat="48.94396" lon="0.19738">
        <ele>170</ele>
        <time>2019-04-28T13:44:23Z</time>
      </trkpt>
      <trkpt lat="48.94391" lon="0.1975">
        <ele>168</ele>
        <time>2019-04-28T13:44:33Z</time>
      </trkpt>
      <trkpt lat="48.94383" lon="0.19763">
        <ele>170</ele>
        <time>2019-04-28T13:44:43Z</time>
      </trkpt>
      <trkpt lat="48.94377" lon="0.19775">
        <ele>170</ele>
        <time>2019-04-28T13:44:48Z</time>
      </trkpt>
      <trkpt lat="48.9437" lon="0.19786">
        <ele>168</ele>
        <time>2019-04-28T13:44:58Z</time>
      </trkpt>
      <trkpt lat="48.94362" lon="0.19799">
        <ele>165</ele>
        <time>2019-04-28T13:45:08Z</time>
      </trkpt>
      <trkpt lat="48.94355" lon="0.19808">
        <ele>165</ele>
        <time>2019-04-28T13:45:13Z</time>
      </trkpt>
      <trkpt lat="48.9435" lon="0.19816">
        <ele>166</ele>
        <time>2019-04-28T13:45:18Z</time>
      </trkpt>
      <trkpt lat="48.94342" lon="0.19826">
        <ele>166</ele>
        <time>2019-04-28T13:45:28Z</time>
      </trkpt>
      <trkpt lat="48.94332" lon="0.19838">
        <ele>167</ele>
        <time>2019-04-28T13:45:38Z</time>
      </trkpt>
      <trkpt lat="48.94324" lon="0.19847">
        <ele>167</ele>
        <time>2019-04-28T13:45:43Z</time>
      </trkpt>
      <trkpt lat="48.94319" lon="0.19854">
        <ele>167</ele>
        <time>2019-04-28T13:45:48Z</time>
      </trkpt>
      <trkpt lat="48.94313" lon="0.19861">
        <ele>168</ele>
        <time>2019-04-28T13:45:53Z</time>
      </trkpt>
      <trkpt lat="48.94303" lon="0.19871">
        <ele>167</ele>
        <time>2019-04-28T13:46:03Z</time>
      </trkpt>
      <trkpt lat="48.94295" lon="0.19879">
        <ele>167</ele>
        <time>2019-04-28T13:46:08Z</time>
      </trkpt>
      <trkpt lat="48.94286" lon="0.19887">
        <ele>168</ele>
        <time>2019-04-28T13:46:18Z</time>
      </trkpt>
      <trkpt lat="48.94277" lon="0.19894">
        <ele>169</ele>
        <time>2019-04-28T13:46:28Z</time>
      </trkpt>
      <trkpt lat="48.94265" lon="0.19903">
        <ele>170</ele>
        <time>2019-04-28T13:46:38Z</time>
      </trkpt>
      <trkpt lat="48.94257" lon="0.19908">
        <ele>170</ele>
        <time>2019-04-28T13:46:43Z</time>
      </trkpt>
      <trkpt lat="48.9425" lon="0.19912">
        <ele>171</ele>
        <time>2019-04-28T13:46:48Z</time>
      </trkpt>
      <trkpt lat="48.94239" lon="0.19917">
        <ele>172</ele>
        <time>2019-04-28T13:46:58Z</time>
      </trkpt>
      <trkpt lat="48.94227" lon="0.19922">
        <ele>173</ele>
        <time>2019-04-28T13:47:08Z</time>
      </trkpt>
      <trkpt lat="48.94218" lon="0.19926">
        <ele>172</ele>
        <time>2019-04-28T13:47:13Z</time>
      </trkpt>
      <trkpt lat="48.94207" lon="0.1993">
        <ele>171</ele>
        <time>2019-04-28T13:47:23Z</time>
      </trkpt>
      <trkpt lat="48.94199" lon="0.19932">
        <ele>171</ele>
        <time>2019-04-28T13:47:28Z</time>
      </trkpt>
      <trkpt lat="48.94188" lon="0.19934">
        <ele>170</ele>
        <time>2019-04-28T13:47:38Z</time>
      </trkpt>
      <trkpt lat="48.94179" lon="0.19935">
        <ele>171</ele>
        <time>2019-04-28T13:47:43Z</time>
      </trkpt>
      <trkpt lat="48.94168" lon="0.19936">
        <ele>173</ele>
        <time>2019-04-28T13:47:53Z</time>
      </trkpt>
      <trkpt lat="48.94155" lon="0.19938">
        <ele>174</ele>
        <time>2019-04-28T13:48:03Z</time>
      </trkpt>
      <trkpt lat="48.9414" lon="0.19939">
        <ele>175</ele>
        <time>2019-04-28T13:48:13Z</time>
      </trkpt>
      <trkpt lat="48.94126" lon="0.19941">
        <ele>177</ele>
        <time>2019-04-28T13:48:23Z</time>
      </trkpt>
      <trkpt lat="48.94115" lon="0.19941">
        <ele>177</ele>
        <time>2019-04-28T13:48:33Z</time>
      </trkpt>
      <trkpt lat="48.94102" lon="0.19939">
        <ele>177</ele>
        <time>2019-04-28T13:48:43Z</time>
      </trkpt>
      <trkpt lat="48.94091" lon="0.19938">
        <ele>177</ele>
        <time>2019-04-28T13:48:53Z</time>
      </trkpt>
      <trkpt lat="48.94083" lon="0.19937">
        <ele>177</ele>
        <time>2019-04-28T13:48:58Z</time>
      </trkpt>
      <trkpt lat="48.94077" lon="0.19937">
        <ele>177</ele>
        <time>2019-04-28T13:49:03Z</time>
      </trkpt>
      <trkpt lat="48.9407" lon="0.19937">
        <ele>178</ele>
        <time>2019-04-28T13:49:08Z</time>
      </trkpt>
      <trkpt lat="48.94063" lon="0.19937">
        <ele>179</ele>
        <time>2019-04-28T13:49:13Z</time>
      </trkpt>
      <trkpt lat="48.94051" lon="0.19937">
        <ele>180</ele>
        <time>2019-04-28T13:49:23Z</time>
      </trkpt>
      <trkpt lat="48.94042" lon="0.19937">
        <ele>180</ele>
        <time>2019-04-28T13:49:28Z</time>
      </trkpt>
      <trkpt lat="48.9403" lon="0.19936">
        <ele>179</ele>
        <time>2019-04-28T13:49:38Z</time>
      </trkpt>
      <trkpt lat="48.94022" lon="0.19935">
        <ele>179</ele>
        <time>2019-04-28T13:49:43Z</time>
      </trkpt>
      <trkpt lat="48.94012" lon="0.19935">
        <ele>179</ele>
        <time>2019-04-28T13:49:53Z</time>
      </trkpt>
      <trkpt lat="48.94004" lon="0.19935">
        <ele>179</ele>
        <time>2019-04-28T13:49:58Z</time>
      </trkpt>
      <trkpt lat="48.93995" lon="0.19935">
        <ele>180</ele>
        <time>2019-04-28T13:50:08Z</time>
      </trkpt>
      <trkpt lat="48.93985" lon="0.19935">
        <ele>181</ele>
        <time>2019-04-28T13:50:18Z</time>
      </trkpt>
      <trkpt lat="48.93972" lon="0.19935">
        <ele>180</ele>
        <time>2019-04-28T13:50:28Z</time>
      </trkpt>
      <trkpt lat="48.93961" lon="0.19935">
        <ele>180</ele>
        <time>2019-04-28T13:50:33Z</time>
      </trkpt>
      <trkpt lat="48.93952" lon="0.19935">
        <ele>179</ele>
        <time>2019-04-28T13:50:38Z</time>
      </trkpt>
      <trkpt lat="48.9394" lon="0.19937">
        <ele>179</ele>
        <time>2019-04-28T13:50:48Z</time>
      </trkpt>
      <trkpt lat="48.93926" lon="0.19942">
        <ele>179</ele>
        <time>2019-04-28T13:50:58Z</time>
      </trkpt>
      <trkpt lat="48.93917" lon="0.19947">
        <ele>179</ele>
        <time>2019-04-28T13:51:03Z</time>
      </trkpt>
      <trkpt lat="48.93911" lon="0.19952">
        <ele>178</ele>
        <time>2019-04-28T13:51:08Z</time>
      </trkpt>
      <trkpt lat="48.93903" lon="0.19968">
        <ele>175</ele>
        <time>2019-04-28T13:51:18Z</time>
      </trkpt>
      <trkpt lat="48.93898" lon="0.19979">
        <ele>173</ele>
        <time>2019-04-28T13:51:23Z</time>
      </trkpt>
      <trkpt lat="48.93892" lon="0.19987">
        <ele>173</ele>
        <time>2019-04-28T13:51:28Z</time>
      </trkpt>
      <trkpt lat="48.93886" lon="0.19994">
        <ele>173</ele>
        <time>2019-04-28T13:51:38Z</time>
      </trkpt>
      <trkpt lat="48.9388" lon="0.19998">
        <ele>174</ele>
        <time>2019-04-28T13:51:43Z</time>
      </trkpt>
      <trkpt lat="48.93875" lon="0.20001">
        <ele>175</ele>
        <time>2019-04-28T13:51:48Z</time>
      </trkpt>
      <trkpt lat="48.93868" lon="0.20005">
        <ele>176</ele>
        <time>2019-04-28T13:51:53Z</time>
      </trkpt>
      <trkpt lat="48.9386" lon="0.20013">
        <ele>179</ele>
        <time>2019-04-28T13:52:03Z</time>
      </trkpt>
      <trkpt lat="48.93853" lon="0.20019">
        <ele>179</ele>
        <time>2019-04-28T13:52:08Z</time>
      </trkpt>
      <trkpt lat="48.93842" lon="0.20028">
        <ele>181</ele>
        <time>2019-04-28T13:52:18Z</time>
      </trkpt>
      <trkpt lat="48.9383" lon="0.20035">
        <ele>180</ele>
        <time>2019-04-28T13:52:28Z</time>
      </trkpt>
      <trkpt lat="48.93817" lon="0.20043">
        <ele>178</ele>
        <time>2019-04-28T13:52:38Z</time>
      </trkpt>
      <trkpt lat="48.93807" lon="0.20049">
        <ele>177</ele>
        <time>2019-04-28T13:52:43Z</time>
      </trkpt>
      <trkpt lat="48.938" lon="0.20053">
        <ele>177</ele>
        <time>2019-04-28T13:52:48Z</time>
      </trkpt>
      <trkpt lat="48.93789" lon="0.20059">
        <ele>177</ele>
        <time>2019-04-28T13:52:58Z</time>
      </trkpt>
      <trkpt lat="48.9378" lon="0.20064">
        <ele>177</ele>
        <time>2019-04-28T13:53:03Z</time>
      </trkpt>
      <trkpt lat="48.93772" lon="0.20067">
        <ele>178</ele>
        <time>2019-04-28T13:53:08Z</time>
      </trkpt>
      <trkpt lat="48.93765" lon="0.20069">
        <ele>178</ele>
        <time>2019-04-28T13:53:13Z</time>
      </trkpt>
      <trkpt lat="48.93755" lon="0.20074">
        <ele>178</ele>
        <time>2019-04-28T13:53:23Z</time>
      </trkpt>
      <trkpt lat="48.93745" lon="0.20076">
        <ele>178</ele>
        <time>2019-04-28T13:53:28Z</time>
      </trkpt>
      <trkpt lat="48.93732" lon="0.20076">
        <ele>178</ele>
        <time>2019-04-28T13:53:38Z</time>
      </trkpt>
      <trkpt lat="48.93722" lon="0.20079">
        <ele>180</ele>
        <time>2019-04-28T13:53:43Z</time>
      </trkpt>
      <trkpt lat="48.9371" lon="0.20082">
        <ele>181</ele>
        <time>2019-04-28T13:53:53Z</time>
      </trkpt>
      <trkpt lat="48.93699" lon="0.2009">
        <ele>182</ele>
        <time>2019-04-28T13:54:03Z</time>
      </trkpt>
      <trkpt lat="48.93689" lon="0.20099">
        <ele>182</ele>
        <time>2019-04-28T13:54:08Z</time>
      </trkpt>
      <trkpt lat="48.93682" lon="0.20105">
        <ele>183</ele>
        <time>2019-04-28T13:54:13Z</time>
      </trkpt>
      <trkpt lat="48.93676" lon="0.20113">
        <ele>183</ele>
        <time>2019-04-28T13:54:23Z</time>
      </trkpt>
      <trkpt lat="48.93666" lon="0.20124">
        <ele>184</ele>
        <time>2019-04-28T13:54:33Z</time>
      </trkpt>
      <trkpt lat="48.93656" lon="0.20133">
        <ele>184</ele>
        <time>2019-04-28T13:54:43Z</time>
      </trkpt>
      <trkpt lat="48.93649" lon="0.2014">
        <ele>182</ele>
        <time>2019-04-28T13:54:48Z</time>
      </trkpt>
      <trkpt lat="48.93643" lon="0.20146">
        <ele>180</ele>
        <time>2019-04-28T13:54:53Z</time>
      </trkpt>
      <trkpt lat="48.93637" lon="0.20152">
        <ele>179</ele>
        <time>2019-04-28T13:54:58Z</time>
      </trkpt>
      <trkpt lat="48.93632" lon="0.20158">
        <ele>180</ele>
        <time>2019-04-28T13:55:03Z</time>
      </trkpt>
      <trkpt lat="48.93625" lon="0.20169">
        <ele>182</ele>
        <time>2019-04-28T13:55:13Z</time>
      </trkpt>
      <trkpt lat="48.93619" lon="0.20179">
        <ele>184</ele>
        <time>2019-04-28T13:55:18Z</time>
      </trkpt>
      <trkpt lat="48.9361" lon="0.20194">
        <ele>185</ele>
        <time>2019-04-28T13:55:28Z</time>
      </trkpt>
      <trkpt lat="48.93604" lon="0.20205">
        <ele>183</ele>
        <time>2019-04-28T13:55:33Z</time>
      </trkpt>
      <trkpt lat="48.93598" lon="0.20213">
        <ele>182</ele>
        <time>2019-04-28T13:55:38Z</time>
      </trkpt>
      <trkpt lat="48.93592" lon="0.20218">
        <ele>181</ele>
        <time>2019-04-28T13:55:43Z</time>
      </trkpt>
      <trkpt lat="48.9358" lon="0.20219">
        <ele>179</ele>
        <time>2019-04-28T13:55:53Z</time>
      </trkpt>
      <trkpt lat="48.93572" lon="0.2022">
        <ele>178</ele>
        <time>2019-04-28T13:55:58Z</time>
      </trkpt>
      <trkpt lat="48.93565" lon="0.20226">
        <ele>177</ele>
        <time>2019-04-28T13:56:08Z</time>
      </trkpt>
      <trkpt lat="48.93556" lon="0.20236">
        <ele>178</ele>
        <time>2019-04-28T13:56:18Z</time>
      </trkpt>
      <trkpt lat="48.93553" lon="0.20241">
        <ele>177</ele>
        <time>2019-04-28T13:56:23Z</time>
      </trkpt>
      <trkpt lat="48.93546" lon="0.20248">
        <ele>176</ele>
        <time>2019-04-28T13:56:33Z</time>
      </trkpt>
      <trkpt lat="48.9354" lon="0.20257">
        <ele>175</ele>
        <time>2019-04-28T13:56:38Z</time>
      </trkpt>
      <trkpt lat="48.93531" lon="0.20269">
        <ele>176</ele>
        <time>2019-04-28T13:56:48Z</time>
      </trkpt>
      <trkpt lat="48.93526" lon="0.20277">
        <ele>176</ele>
        <time>2019-04-28T13:56:53Z</time>
      </trkpt>
      <trkpt lat="48.9352" lon="0.20285">
        <ele>177</ele>
        <time>2019-04-28T13:56:58Z</time>
      </trkpt>
      <trkpt lat="48.93513" lon="0.20295">
        <ele>178</ele>
        <time>2019-04-28T13:57:08Z</time>
      </trkpt>
      <trkpt lat="48.93507" lon="0.20303">
        <ele>178</ele>
        <time>2019-04-28T13:57:13Z</time>
      </trkpt>
      <trkpt lat="48.93498" lon="0.20315">
        <ele>179</ele>
        <time>2019-04-28T13:57:23Z</time>
      </trkpt>
      <trkpt lat="48.9349" lon="0.20326">
        <ele>179</ele>
        <time>2019-04-28T13:57:28Z</time>
      </trkpt>
      <trkpt lat="48.93485" lon="0.20334">
        <ele>179</ele>
        <time>2019-04-28T13:57:33Z</time>
      </trkpt>
      <trkpt lat="48.9348" lon="0.20341">
        <ele>179</ele>
        <time>2019-04-28T13:57:43Z</time>
      </trkpt>
      <trkpt lat="48.93468" lon="0.20356">
        <ele>181</ele>
        <time>2019-04-28T13:57:53Z</time>
      </trkpt>
      <trkpt lat="48.93457" lon="0.20369">
        <ele>180</ele>
        <time>2019-04-28T13:58:03Z</time>
      </trkpt>
      <trkpt lat="48.9345" lon="0.20377">
        <ele>180</ele>
        <time>2019-04-28T13:58:13Z</time>
      </trkpt>
      <trkpt lat="48.93445" lon="0.20384">
        <ele>180</ele>
        <time>2019-04-28T13:58:18Z</time>
      </trkpt>
      <trkpt lat="48.93437" lon="0.20394">
        <ele>180</ele>
        <time>2019-04-28T13:58:23Z</time>
      </trkpt>
      <trkpt lat="48.93432" lon="0.204">
        <ele>179</ele>
        <time>2019-04-28T13:58:28Z</time>
      </trkpt>
      <trkpt lat="48.93428" lon="0.20405">
        <ele>180</ele>
        <time>2019-04-28T13:58:33Z</time>
      </trkpt>
      <trkpt lat="48.93421" lon="0.20413">
        <ele>180</ele>
        <time>2019-04-28T13:58:38Z</time>
      </trkpt>
      <trkpt lat="48.93416" lon="0.20418">
        <ele>180</ele>
        <time>2019-04-28T13:58:48Z</time>
      </trkpt>
      <trkpt lat="48.93409" lon="0.20425">
        <ele>180</ele>
        <time>2019-04-28T13:58:53Z</time>
      </trkpt>
      <trkpt lat="48.93397" lon="0.20436">
        <ele>180</ele>
        <time>2019-04-28T13:59:03Z</time>
      </trkpt>
      <trkpt lat="48.93385" lon="0.20446">
        <ele>182</ele>
        <time>2019-04-28T13:59:13Z</time>
      </trkpt>
      <trkpt lat="48.93378" lon="0.20452">
        <ele>182</ele>
        <time>2019-04-28T13:59:18Z</time>
      </trkpt>
      <trkpt lat="48.93374" lon="0.20456">
        <ele>182</ele>
        <time>2019-04-28T13:59:28Z</time>
      </trkpt>
      <trkpt lat="48.93369" lon="0.20459">
        <ele>182</ele>
        <time>2019-04-28T13:59:33Z</time>
      </trkpt>
      <trkpt lat="48.93365" lon="0.20461">
        <ele>183</ele>
        <time>2019-04-28T13:59:38Z</time>
      </trkpt>
      <trkpt lat="48.93359" lon="0.20464">
        <ele>183</ele>
        <time>2019-04-28T13:59:43Z</time>
      </trkpt>
      <trkpt lat="48.93345" lon="0.20471">
        <ele>182</ele>
        <time>2019-04-28T13:59:53Z</time>
      </trkpt>
      <trkpt lat="48.93338" lon="0.20474">
        <ele>182</ele>
        <time>2019-04-28T13:59:58Z</time>
      </trkpt>
      <trkpt lat="48.93328" lon="0.20479">
        <ele>182</ele>
        <time>2019-04-28T14:00:08Z</time>
      </trkpt>
      <trkpt lat="48.93316" lon="0.20484">
        <ele>182</ele>
        <time>2019-04-28T14:00:18Z</time>
      </trkpt>
      <trkpt lat="48.93302" lon="0.20488">
        <ele>183</ele>
        <time>2019-04-28T14:00:28Z</time>
      </trkpt>
      <trkpt lat="48.93293" lon="0.20491">
        <ele>182</ele>
        <time>2019-04-28T14:00:33Z</time>
      </trkpt>
      <trkpt lat="48.93282" lon="0.20495">
        <ele>182</ele>
        <time>2019-04-28T14:00:43Z</time>
      </trkpt>
      <trkpt lat="48.9327" lon="0.205">
        <ele>184</ele>
        <time>2019-04-28T14:00:53Z</time>
      </trkpt>
      <trkpt lat="48.93261" lon="0.20502">
        <ele>184</ele>
        <time>2019-04-28T14:00:58Z</time>
      </trkpt>
      <trkpt lat="48.93249" lon="0.20505">
        <ele>185</ele>
        <time>2019-04-28T14:01:08Z</time>
      </trkpt>
      <trkpt lat="48.9324" lon="0.20506">
        <ele>184</ele>
        <time>2019-04-28T14:01:13Z</time>
      </trkpt>
      <trkpt lat="48.93228" lon="0.20507">
        <ele>186</ele>
        <time>2019-04-28T14:01:23Z</time>
      </trkpt>
      <trkpt lat="48.9322" lon="0.20508">
        <ele>186</ele>
        <time>2019-04-28T14:01:28Z</time>
      </trkpt>
      <trkpt lat="48.93208" lon="0.2051">
        <ele>185</ele>
        <time>2019-04-28T14:01:38Z</time>
      </trkpt>
      <trkpt lat="48.93197" lon="0.20511">
        <ele>184</ele>
        <time>2019-04-28T14:01:48Z</time>
      </trkpt>
      <trkpt lat="48.93188" lon="0.20512">
        <ele>184</ele>
        <time>2019-04-28T14:01:53Z</time>
      </trkpt>
      <trkpt lat="48.93177" lon="0.20513">
        <ele>184</ele>
        <time>2019-04-28T14:02:03Z</time>
      </trkpt>
      <trkpt lat="48.93171" lon="0.20513">
        <ele>184</ele>
        <time>2019-04-28T14:02:08Z</time>
      </trkpt>
      <trkpt lat="48.9316" lon="0.20514">
        <ele>183</ele>
        <time>2019-04-28T14:02:18Z</time>
      </trkpt>
      <trkpt lat="48.93141" lon="0.20514">
        <ele>183</ele>
        <time>2019-04-28T14:02:28Z</time>
      </trkpt>
      <trkpt lat="48.93131" lon="0.20515">
        <ele>184</ele>
        <time>2019-04-28T14:02:38Z</time>
      </trkpt>
      <trkpt lat="48.93125" lon="0.20515">
        <ele>184</ele>
        <time>2019-04-28T14:02:43Z</time>
      </trkpt>
      <trkpt lat="48.93118" lon="0.20516">
        <ele>184</ele>
        <time>2019-04-28T14:02:53Z</time>
      </trkpt>
      <trkpt lat="48.93113" lon="0.20517">
        <ele>185</ele>
        <time>2019-04-28T14:02:58Z</time>
      </trkpt>
      <trkpt lat="48.93099" lon="0.20517">
        <ele>185</ele>
        <time>2019-04-28T14:03:08Z</time>
      </trkpt>
      <trkpt lat="48.93088" lon="0.20518">
        <ele>184</ele>
        <time>2019-04-28T14:03:13Z</time>
      </trkpt>
      <trkpt lat="48.93079" lon="0.20519">
        <ele>186</ele>
        <time>2019-04-28T14:03:18Z</time>
      </trkpt>
      <trkpt lat="48.93067" lon="0.20519">
        <ele>187</ele>
        <time>2019-04-28T14:03:28Z</time>
      </trkpt>
      <trkpt lat="48.93058" lon="0.2052">
        <ele>188</ele>
        <time>2019-04-28T14:03:33Z</time>
      </trkpt>
      <trkpt lat="48.93047" lon="0.20521">
        <ele>188</ele>
        <time>2019-04-28T14:03:43Z</time>
      </trkpt>
      <trkpt lat="48.9304" lon="0.20521">
        <ele>188</ele>
        <time>2019-04-28T14:03:48Z</time>
      </trkpt>
      <trkpt lat="48.93031" lon="0.20522">
        <ele>187</ele>
        <time>2019-04-28T14:03:58Z</time>
      </trkpt>
      <trkpt lat="48.9302" lon="0.20523">
        <ele>186</ele>
        <time>2019-04-28T14:04:08Z</time>
      </trkpt>
      <trkpt lat="48.93012" lon="0.20524">
        <ele>188</ele>
        <time>2019-04-28T14:04:13Z</time>
      </trkpt>
      <trkpt lat="48.92999" lon="0.20525">
        <ele>187</ele>
        <time>2019-04-28T14:04:23Z</time>
      </trkpt>
      <trkpt lat="48.92992" lon="0.20526">
        <ele>187</ele>
        <time>2019-04-28T14:04:28Z</time>
      </trkpt>
      <trkpt lat="48.92981" lon="0.20528">
        <ele>187</ele>
        <time>2019-04-28T14:04:38Z</time>
      </trkpt>
      <trkpt lat="48.9297" lon="0.20529">
        <ele>187</ele>
        <time>2019-04-28T14:04:48Z</time>
      </trkpt>
      <trkpt lat="48.92962" lon="0.20529">
        <ele>188</ele>
        <time>2019-04-28T14:04:53Z</time>
      </trkpt>
      <trkpt lat="48.92947" lon="0.2053">
        <ele>189</ele>
        <time>2019-04-28T14:05:03Z</time>
      </trkpt>
      <trkpt lat="48.92939" lon="0.2053">
        <ele>189</ele>
        <time>2019-04-28T14:05:13Z</time>
      </trkpt>
      <trkpt lat="48.92933" lon="0.2053">
        <ele>191</ele>
        <time>2019-04-28T14:05:18Z</time>
      </trkpt>
      <trkpt lat="48.92917" lon="0.20534">
        <ele>193</ele>
        <time>2019-04-28T14:05:28Z</time>
      </trkpt>
      <trkpt lat="48.92906" lon="0.20535">
        <ele>193</ele>
        <time>2019-04-28T14:05:38Z</time>
      </trkpt>
      <trkpt lat="48.929" lon="0.20536">
        <ele>193</ele>
        <time>2019-04-28T14:05:43Z</time>
      </trkpt>
      <trkpt lat="48.92891" lon="0.20538">
        <ele>193</ele>
        <time>2019-04-28T14:05:53Z</time>
      </trkpt>
      <trkpt lat="48.92878" lon="0.20541">
        <ele>193</ele>
        <time>2019-04-28T14:06:03Z</time>
      </trkpt>
      <trkpt lat="48.9287" lon="0.20543">
        <ele>193</ele>
        <time>2019-04-28T14:06:08Z</time>
      </trkpt>
      <trkpt lat="48.92863" lon="0.20544">
        <ele>193</ele>
        <time>2019-04-28T14:06:18Z</time>
      </trkpt>
      <trkpt lat="48.92858" lon="0.20545">
        <ele>193</ele>
        <time>2019-04-28T14:06:23Z</time>
      </trkpt>
      <trkpt lat="48.92849" lon="0.20546">
        <ele>192</ele>
        <time>2019-04-28T14:06:33Z</time>
      </trkpt>
      <trkpt lat="48.92838" lon="0.20548">
        <ele>191</ele>
        <time>2019-04-28T14:06:38Z</time>
      </trkpt>
      <trkpt lat="48.92827" lon="0.2055">
        <ele>192</ele>
        <time>2019-04-28T14:06:48Z</time>
      </trkpt>
      <trkpt lat="48.9282" lon="0.20552">
        <ele>194</ele>
        <time>2019-04-28T14:06:53Z</time>
      </trkpt>
      <trkpt lat="48.92809" lon="0.20557">
        <ele>195</ele>
        <time>2019-04-28T14:07:03Z</time>
      </trkpt>
      <trkpt lat="48.928" lon="0.20562">
        <ele>196</ele>
        <time>2019-04-28T14:07:08Z</time>
      </trkpt>
      <trkpt lat="48.92788" lon="0.20569">
        <ele>200</ele>
        <time>2019-04-28T14:07:18Z</time>
      </trkpt>
      <trkpt lat="48.92781" lon="0.20572">
        <ele>200</ele>
        <time>2019-04-28T14:07:23Z</time>
      </trkpt>
      <trkpt lat="48.92779" lon="0.20574">
        <ele>198</ele>
        <time>2019-04-28T14:07:33Z</time>
      </trkpt>
      <trkpt lat="48.92776" lon="0.20575">
        <ele>196</ele>
        <time>2019-04-28T14:07:38Z</time>
      </trkpt>
      <trkpt lat="48.92767" lon="0.20581">
        <ele>195</ele>
        <time>2019-04-28T14:07:48Z</time>
      </trkpt>
      <trkpt lat="48.92753" lon="0.2059">
        <ele>196</ele>
        <time>2019-04-28T14:07:58Z</time>
      </trkpt>
      <trkpt lat="48.92745" lon="0.20596">
        <ele>195</ele>
        <time>2019-04-28T14:08:03Z</time>
      </trkpt>
      <trkpt lat="48.92735" lon="0.20606">
        <ele>194</ele>
        <time>2019-04-28T14:08:13Z</time>
      </trkpt>
      <trkpt lat="48.92727" lon="0.20614">
        <ele>194</ele>
        <time>2019-04-28T14:08:23Z</time>
      </trkpt>
      <trkpt lat="48.92722" lon="0.20621">
        <ele>194</ele>
        <time>2019-04-28T14:08:28Z</time>
      </trkpt>
      <trkpt lat="48.92715" lon="0.20628">
        <ele>194</ele>
        <time>2019-04-28T14:08:33Z</time>
      </trkpt>
      <trkpt lat="48.92709" lon="0.20635">
        <ele>195</ele>
        <time>2019-04-28T14:08:43Z</time>
      </trkpt>
      <trkpt lat="48.92703" lon="0.20641">
        <ele>195</ele>
        <time>2019-04-28T14:08:48Z</time>
      </trkpt>
      <trkpt lat="48.92694" lon="0.20652">
        <ele>195</ele>
        <time>2019-04-28T14:08:58Z</time>
      </trkpt>
      <trkpt lat="48.92681" lon="0.20669">
        <ele>195</ele>
        <time>2019-04-28T14:09:08Z</time>
      </trkpt>
      <trkpt lat="48.92672" lon="0.20687">
        <ele>197</ele>
        <time>2019-04-28T14:09:18Z</time>
      </trkpt>
      <trkpt lat="48.92663" lon="0.20708">
        <ele>196</ele>
        <time>2019-04-28T14:09:28Z</time>
      </trkpt>
      <trkpt lat="48.92651" lon="0.20729">
        <ele>196</ele>
        <time>2019-04-28T14:09:38Z</time>
      </trkpt>
      <trkpt lat="48.92644" lon="0.20748">
        <ele>196</ele>
        <time>2019-04-28T14:09:48Z</time>
      </trkpt>
      <trkpt lat="48.9264" lon="0.2076">
        <ele>195</ele>
        <time>2019-04-28T14:09:53Z</time>
      </trkpt>
      <trkpt lat="48.92635" lon="0.20769">
        <ele>194</ele>
        <time>2019-04-28T14:09:58Z</time>
      </trkpt>
      <trkpt lat="48.92629" lon="0.20782">
        <ele>197</ele>
        <time>2019-04-28T14:10:08Z</time>
      </trkpt>
      <trkpt lat="48.92625" lon="0.20789">
        <ele>197</ele>
        <time>2019-04-28T14:10:18Z</time>
      </trkpt>
      <trkpt lat="48.92621" lon="0.20798">
        <ele>198</ele>
        <time>2019-04-28T14:10:28Z</time>
      </trkpt>
      <trkpt lat="48.92618" lon="0.20807">
        <ele>197</ele>
        <time>2019-04-28T14:10:33Z</time>
      </trkpt>
      <trkpt lat="48.92612" lon="0.20823">
        <ele>197</ele>
        <time>2019-04-28T14:10:43Z</time>
      </trkpt>
      <trkpt lat="48.92605" lon="0.20847">
        <ele>197</ele>
        <time>2019-04-28T14:10:53Z</time>
      </trkpt>
      <trkpt lat="48.92601" lon="0.20861">
        <ele>198</ele>
        <time>2019-04-28T14:11:03Z</time>
      </trkpt>
      <trkpt lat="48.92599" lon="0.2087">
        <ele>198</ele>
        <time>2019-04-28T14:11:08Z</time>
      </trkpt>
      <trkpt lat="48.92597" lon="0.20877">
        <ele>197</ele>
        <time>2019-04-28T14:11:13Z</time>
      </trkpt>
      <trkpt lat="48.92592" lon="0.20893">
        <ele>198</ele>
        <time>2019-04-28T14:11:23Z</time>
      </trkpt>
      <trkpt lat="48.92589" lon="0.20905">
        <ele>199</ele>
        <time>2019-04-28T14:11:28Z</time>
      </trkpt>
      <trkpt lat="48.92586" lon="0.20917">
        <ele>199</ele>
        <time>2019-04-28T14:11:33Z</time>
      </trkpt>
      <trkpt lat="48.92583" lon="0.20928">
        <ele>200</ele>
        <time>2019-04-28T14:11:38Z</time>
      </trkpt>
      <trkpt lat="48.92579" lon="0.20944">
        <ele>199</ele>
        <time>2019-04-28T14:11:48Z</time>
      </trkpt>
      <trkpt lat="48.92576" lon="0.20962">
        <ele>199</ele>
        <time>2019-04-28T14:11:58Z</time>
      </trkpt>
      <trkpt lat="48.92573" lon="0.20975">
        <ele>199</ele>
        <time>2019-04-28T14:12:03Z</time>
      </trkpt>
      <trkpt lat="48.92572" lon="0.20985">
        <ele>198</ele>
        <time>2019-04-28T14:12:08Z</time>
      </trkpt>
      <trkpt lat="48.92569" lon="0.20998">
        <ele>198</ele>
        <time>2019-04-28T14:12:18Z</time>
      </trkpt>
      <trkpt lat="48.92566" lon="0.21009">
        <ele>198</ele>
        <time>2019-04-28T14:12:23Z</time>
      </trkpt>
      <trkpt lat="48.9256" lon="0.21031">
        <ele>198</ele>
        <time>2019-04-28T14:12:33Z</time>
      </trkpt>
      <trkpt lat="48.92557" lon="0.21041">
        <ele>197</ele>
        <time>2019-04-28T14:12:38Z</time>
      </trkpt>
      <trkpt lat="48.92556" lon="0.21045">
        <ele>197</ele>
        <time>2019-04-28T14:12:43Z</time>
      </trkpt>
      <trkpt lat="48.92557" lon="0.2105">
        <ele>199</ele>
        <time>2019-04-28T14:12:53Z</time>
      </trkpt>
      <trkpt lat="48.92559" lon="0.21056">
        <ele>197</ele>
        <time>2019-04-28T14:12:58Z</time>
      </trkpt>
      <trkpt lat="48.9256" lon="0.21064">
        <ele>194</ele>
        <time>2019-04-28T14:13:03Z</time>
      </trkpt>
      <trkpt lat="48.92562" lon="0.21078">
        <ele>195</ele>
        <time>2019-04-28T14:13:13Z</time>
      </trkpt>
      <trkpt lat="48.92563" lon="0.21088">
        <ele>197</ele>
        <time>2019-04-28T14:13:18Z</time>
      </trkpt>
      <trkpt lat="48.92565" lon="0.21106">
        <ele>197</ele>
        <time>2019-04-28T14:13:28Z</time>
      </trkpt>
      <trkpt lat="48.92567" lon="0.21124">
        <ele>197</ele>
        <time>2019-04-28T14:13:38Z</time>
      </trkpt>
      <trkpt lat="48.92569" lon="0.21134">
        <ele>198</ele>
        <time>2019-04-28T14:13:43Z</time>
      </trkpt>
      <trkpt lat="48.9257" lon="0.21143">
        <ele>197</ele>
        <time>2019-04-28T14:13:48Z</time>
      </trkpt>
      <trkpt lat="48.92573" lon="0.21156">
        <ele>196</ele>
        <time>2019-04-28T14:13:58Z</time>
      </trkpt>
      <trkpt lat="48.92576" lon="0.21166">
        <ele>195</ele>
        <time>2019-04-28T14:14:03Z</time>
      </trkpt>
      <trkpt lat="48.92578" lon="0.21174">
        <ele>195</ele>
        <time>2019-04-28T14:14:08Z</time>
      </trkpt>
      <trkpt lat="48.92583" lon="0.21187">
        <ele>197</ele>
        <time>2019-04-28T14:14:18Z</time>
      </trkpt>
      <trkpt lat="48.92587" lon="0.21197">
        <ele>198</ele>
        <time>2019-04-28T14:14:23Z</time>
      </trkpt>
      <trkpt lat="48.9259" lon="0.21204">
        <ele>197</ele>
        <time>2019-04-28T14:14:28Z</time>
      </trkpt>
      <trkpt lat="48.92596" lon="0.21221">
        <ele>196</ele>
        <time>2019-04-28T14:14:38Z</time>
      </trkpt>
      <trkpt lat="48.92599" lon="0.21228">
        <ele>195</ele>
        <time>2019-04-28T14:14:43Z</time>
      </trkpt>
      <trkpt lat="48.92601" lon="0.21232">
        <ele>194</ele>
        <time>2019-04-28T14:14:48Z</time>
      </trkpt>
      <trkpt lat="48.92604" lon="0.21237">
        <ele>194</ele>
        <time>2019-04-28T14:14:53Z</time>
      </trkpt>
      <trkpt lat="48.92609" lon="0.21247">
        <ele>194</ele>
        <time>2019-04-28T14:15:03Z</time>
      </trkpt>
      <trkpt lat="48.92613" lon="0.21255">
        <ele>195</ele>
        <time>2019-04-28T14:15:08Z</time>
      </trkpt>
      <trkpt lat="48.92617" lon="0.21262">
        <ele>194</ele>
        <time>2019-04-28T14:15:13Z</time>
      </trkpt>
      <trkpt lat="48.92622" lon="0.21273">
        <ele>194</ele>
        <time>2019-04-28T14:15:23Z</time>
      </trkpt>
      <trkpt lat="48.92627" lon="0.21286">
        <ele>195</ele>
        <time>2019-04-28T14:15:33Z</time>
      </trkpt>
      <trkpt lat="48.92632" lon="0.21301">
        <ele>194</ele>
        <time>2019-04-28T14:15:43Z</time>
      </trkpt>
      <trkpt lat="48.92636" lon="0.21318">
        <ele>192</ele>
        <time>2019-04-28T14:15:53Z</time>
      </trkpt>
      <trkpt lat="48.92639" lon="0.2133">
        <ele>192</ele>
        <time>2019-04-28T14:15:58Z</time>
      </trkpt>
      <trkpt lat="48.9264" lon="0.21346">
        <ele>191</ele>
        <time>2019-04-28T14:16:08Z</time>
      </trkpt>
      <trkpt lat="48.9264" lon="0.21364">
        <ele>191</ele>
        <time>2019-04-28T14:16:18Z</time>
      </trkpt>
      <trkpt lat="48.9264" lon="0.21382">
        <ele>191</ele>
        <time>2019-04-28T14:16:23Z</time>
      </trkpt>
      <trkpt lat="48.9264" lon="0.2139">
        <ele>191</ele>
        <time>2019-04-28T14:16:28Z</time>
      </trkpt>
      <trkpt lat="48.92638" lon="0.214">
        <ele>191</ele>
        <time>2019-04-28T14:16:38Z</time>
      </trkpt>
      <trkpt lat="48.92637" lon="0.21408">
        <ele>191</ele>
        <time>2019-04-28T14:16:43Z</time>
      </trkpt>
      <trkpt lat="48.92635" lon="0.21417">
        <ele>191</ele>
        <time>2019-04-28T14:16:48Z</time>
      </trkpt>
      <trkpt lat="48.92634" lon="0.21426">
        <ele>191</ele>
        <time>2019-04-28T14:16:53Z</time>
      </trkpt>
      <trkpt lat="48.92631" lon="0.21441">
        <ele>190</ele>
        <time>2019-04-28T14:17:03Z</time>
      </trkpt>
      <trkpt lat="48.9263" lon="0.21457">
        <ele>189</ele>
        <time>2019-04-28T14:17:13Z</time>
      </trkpt>
      <trkpt lat="48.9263" lon="0.21468">
        <ele>188</ele>
        <time>2019-04-28T14:17:18Z</time>
      </trkpt>
      <trkpt lat="48.9263" lon="0.21477">
        <ele>188</ele>
        <time>2019-04-28T14:17:23Z</time>
      </trkpt>
      <trkpt lat="48.92632" lon="0.21491">
        <ele>185</ele>
        <time>2019-04-28T14:17:33Z</time>
      </trkpt>
      <trkpt lat="48.92634" lon="0.215">
        <ele>183</ele>
        <time>2019-04-28T14:17:38Z</time>
      </trkpt>
      <trkpt lat="48.92638" lon="0.21512">
        <ele>183</ele>
        <time>2019-04-28T14:17:48Z</time>
      </trkpt>
      <trkpt lat="48.92642" lon="0.21522">
        <ele>184</ele>
        <time>2019-04-28T14:17:53Z</time>
      </trkpt>
      <trkpt lat="48.92647" lon="0.21535">
        <ele>185</ele>
        <time>2019-04-28T14:18:03Z</time>
      </trkpt>
      <trkpt lat="48.92651" lon="0.21545">
        <ele>185</ele>
        <time>2019-04-28T14:18:08Z</time>
      </trkpt>
      <trkpt lat="48.92654" lon="0.21558">
        <ele>183</ele>
        <time>2019-04-28T14:18:13Z</time>
      </trkpt>
      <trkpt lat="48.92655" lon="0.21567">
        <ele>182</ele>
        <time>2019-04-28T14:18:23Z</time>
      </trkpt>
      <trkpt lat="48.92657" lon="0.21582">
        <ele>182</ele>
        <time>2019-04-28T14:18:33Z</time>
      </trkpt>
      <trkpt lat="48.92659" lon="0.21592">
        <ele>182</ele>
        <time>2019-04-28T14:18:38Z</time>
      </trkpt>
      <trkpt lat="48.92663" lon="0.21604">
        <ele>181</ele>
        <time>2019-04-28T14:18:48Z</time>
      </trkpt>
      <trkpt lat="48.92669" lon="0.21614">
        <ele>180</ele>
        <time>2019-04-28T14:18:53Z</time>
      </trkpt>
      <trkpt lat="48.92671" lon="0.21618">
        <ele>180</ele>
        <time>2019-04-28T14:19:03Z</time>
      </trkpt>
      <trkpt lat="48.92672" lon="0.2162">
        <ele>180</ele>
        <time>2019-04-28T14:19:08Z</time>
      </trkpt>
      <trkpt lat="48.92674" lon="0.21622">
        <ele>181</ele>
        <time>2019-04-28T14:19:18Z</time>
      </trkpt>
      <trkpt lat="48.92676" lon="0.21625">
        <ele>181</ele>
        <time>2019-04-28T14:19:28Z</time>
      </trkpt>
      <trkpt lat="48.92678" lon="0.21627">
        <ele>182</ele>
        <time>2019-04-28T14:19:33Z</time>
      </trkpt>
      <trkpt lat="48.92679" lon="0.21628">
        <ele>182</ele>
        <time>2019-04-28T14:19:38Z</time>
      </trkpt>
      <trkpt lat="48.92679" lon="0.21629">
        <ele>182</ele>
        <time>2019-04-28T14:19:48Z</time>
      </trkpt>
      <trkpt lat="48.9268" lon="0.21631">
        <ele>182</ele>
        <time>2019-04-28T14:19:53Z</time>
      </trkpt>
      <trkpt lat="48.9268" lon="0.21634">
        <ele>183</ele>
        <time>2019-04-28T14:20:03Z</time>
      </trkpt>
      <trkpt lat="48.92681" lon="0.21637">
        <ele>183</ele>
        <time>2019-04-28T14:20:13Z</time>
      </trkpt>
      <trkpt lat="48.92682" lon="0.21638">
        <ele>183</ele>
        <time>2019-04-28T14:20:18Z</time>
      </trkpt>
      <trkpt lat="48.92682" lon="0.21639">
        <ele>183</ele>
        <time>2019-04-28T14:20:28Z</time>
      </trkpt>
      <trkpt lat="48.92682" lon="0.2164">
        <ele>183</ele>
        <time>2019-04-28T14:20:33Z</time>
      </trkpt>
      <trkpt lat="48.92682" lon="0.21642">
        <ele>183</ele>
        <time>2019-04-28T14:20:38Z</time>
      </trkpt>
      <trkpt lat="48.92682" lon="0.21644">
        <ele>183</ele>
        <time>2019-04-28T14:20:48Z</time>
      </trkpt>
      <trkpt lat="48.92684" lon="0.21648">
        <ele>183</ele>
        <time>2019-04-28T14:20:53Z</time>
      </trkpt>
      <trkpt lat="48.92685" lon="0.21651">
        <ele>183</ele>
        <time>2019-04-28T14:20:58Z</time>
      </trkpt>
      <trkpt lat="48.92686" lon="0.21653">
        <ele>183</ele>
        <time>2019-04-28T14:21:08Z</time>
      </trkpt>
      <trkpt lat="48.92686" lon="0.21654">
        <ele>183</ele>
        <time>2019-04-28T14:21:13Z</time>
      </trkpt>
      <trkpt lat="48.92686" lon="0.21654">
        <ele>183</ele>
        <time>2019-04-28T14:21:18Z</time>
      </trkpt>
      <trkpt lat="48.92686" lon="0.21654">
        <ele>183</ele>
        <time>2019-04-28T14:21:28Z</time>
      </trkpt>
      <trkpt lat="48.92686" lon="0.21654">
        <ele>185</ele>
        <time>2019-04-28T14:21:33Z</time>
      </trkpt>
      <trkpt lat="48.92685" lon="0.21656">
        <ele>185</ele>
        <time>2019-04-28T14:21:38Z</time>
      </trkpt>
      <trkpt lat="48.92684" lon="0.21657">
        <ele>185</ele>
        <time>2019-04-28T14:21:43Z</time>
      </trkpt>
      <trkpt lat="48.92684" lon="0.21657">
        <ele>185</ele>
        <time>2019-04-28T14:21:50Z</time>
      </trkpt>
      <trkpt lat="48.92683" lon="0.21658">
        <ele>185</ele>
        <time>2019-04-28T14:21:58Z</time>
      </trkpt>
      <trkpt lat="48.92683" lon="0.21658">
        <ele>185</ele>
        <time>2019-04-28T14:22:03Z</time>
      </trkpt>
      <trkpt lat="48.92683" lon="0.21658">
        <ele>186</ele>
        <time>2019-04-28T14:22:10Z</time>
      </trkpt>
      <trkpt lat="48.92683" lon="0.21658">
        <ele>185</ele>
        <time>2019-04-28T14:22:14Z</time>
      </trkpt>
      <trkpt lat="48.92683" lon="0.21659">
        <ele>184</ele>
        <time>2019-04-28T14:22:21Z</time>
      </trkpt>
      <trkpt lat="48.92683" lon="0.21659">
        <ele>184</ele>
        <time>2019-04-28T14:22:24Z</time>
      </trkpt>
      <trkpt lat="48.92682" lon="0.21661">
        <ele>184</ele>
        <time>2019-04-28T14:22:31Z</time>
      </trkpt>
      <trkpt lat="48.92682" lon="0.21661">
        <ele>184</ele>
        <time>2019-04-28T14:22:34Z</time>
      </trkpt>
      <trkpt lat="48.92682" lon="0.21661">
        <ele>184</ele>
        <time>2019-04-28T14:22:41Z</time>
      </trkpt>
      <trkpt lat="48.92683" lon="0.2166">
        <ele>184</ele>
        <time>2019-04-28T14:22:44Z</time>
      </trkpt>
      <trkpt lat="48.92687" lon="0.21659">
        <ele>183</ele>
        <time>2019-04-28T14:22:51Z</time>
      </trkpt>
      <trkpt lat="48.92688" lon="0.21658">
        <ele>182</ele>
        <time>2019-04-28T14:22:54Z</time>
      </trkpt>
      <trkpt lat="48.92689" lon="0.21657">
        <ele>183</ele>
        <time>2019-04-28T14:23:01Z</time>
      </trkpt>
      <trkpt lat="48.9269" lon="0.21656">
        <ele>183</ele>
        <time>2019-04-28T14:23:04Z</time>
      </trkpt>
      <trkpt lat="48.9269" lon="0.21656">
        <ele>183</ele>
        <time>2019-04-28T14:23:11Z</time>
      </trkpt>
      <trkpt lat="48.9269" lon="0.21656">
        <ele>183</ele>
        <time>2019-04-28T14:23:14Z</time>
      </trkpt>
      <trkpt lat="48.9269" lon="0.21656">
        <ele>183</ele>
        <time>2019-04-28T14:23:21Z</time>
      </trkpt>
      <trkpt lat="48.92691" lon="0.21656">
        <ele>183</ele>
        <time>2019-04-28T14:23:24Z</time>
      </trkpt>
      <trkpt lat="48.92691" lon="0.21655">
        <ele>183</ele>
        <time>2019-04-28T14:23:31Z</time>
      </trkpt>
      <trkpt lat="48.92689" lon="0.21649">
        <ele>184</ele>
        <time>2019-04-28T14:23:34Z</time>
      </trkpt>
      <trkpt lat="48.92688" lon="0.21646">
        <ele>184</ele>
        <time>2019-04-28T14:23:41Z</time>
      </trkpt>
      <trkpt lat="48.92687" lon="0.21645">
        <ele>184</ele>
        <time>2019-04-28T14:23:46Z</time>
      </trkpt>
      <trkpt lat="48.92687" lon="0.21644">
        <ele>184</ele>
        <time>2019-04-28T14:23:53Z</time>
      </trkpt>
      <trkpt lat="48.92687" lon="0.21644">
        <ele>184</ele>
        <time>2019-04-28T14:23:58Z</time>
      </trkpt>
      <trkpt lat="48.92687" lon="0.21644">
        <ele>184</ele>
        <time>2019-04-28T14:24:03Z</time>
      </trkpt>
      <trkpt lat="48.92687" lon="0.21644">
        <ele>184</ele>
        <time>2019-04-28T14:24:10Z</time>
      </trkpt>
      <trkpt lat="48.92687" lon="0.21644">
        <ele>184</ele>
        <time>2019-04-28T14:24:16Z</time>
      </trkpt>
      <trkpt lat="48.92687" lon="0.21644">
        <ele>184</ele>
        <time>2019-04-28T14:24:23Z</time>
      </trkpt>
      <trkpt lat="48.92685" lon="0.21645">
        <ele>182</ele>
        <time>2019-04-28T14:24:33Z</time>
      </trkpt>
      <trkpt lat="48.92684" lon="0.21646">
        <ele>183</ele>
        <time>2019-04-28T14:24:38Z</time>
      </trkpt>
      <trkpt lat="48.92683" lon="0.21646">
        <ele>183</ele>
        <time>2019-04-28T14:24:43Z</time>
      </trkpt>
      <trkpt lat="48.92683" lon="0.21646">
        <ele>183</ele>
        <time>2019-04-28T14:24:53Z</time>
      </trkpt>
      <trkpt lat="48.92682" lon="0.21646">
        <ele>183</ele>
        <time>2019-04-28T14:24:58Z</time>
      </trkpt>
      <trkpt lat="48.92682" lon="0.21647">
        <ele>182</ele>
        <time>2019-04-28T14:25:08Z</time>
      </trkpt>
      <trkpt lat="48.92682" lon="0.21648">
        <ele>182</ele>
        <time>2019-04-28T14:25:18Z</time>
      </trkpt>
      <trkpt lat="48.92682" lon="0.21649">
        <ele>182</ele>
        <time>2019-04-28T14:25:23Z</time>
      </trkpt>
      <trkpt lat="48.92682" lon="0.21649">
        <ele>182</ele>
        <time>2019-04-28T14:25:30Z</time>
      </trkpt>
      <trkpt lat="48.92682" lon="0.21649">
        <ele>182</ele>
        <time>2019-04-28T14:25:37Z</time>
      </trkpt>
      <trkpt lat="48.92682" lon="0.21649">
        <ele>182</ele>
        <time>2019-04-28T14:25:43Z</time>
      </trkpt>
      <trkpt lat="48.92682" lon="0.21649">
        <ele>182</ele>
        <time>2019-04-28T14:25:53Z</time>
      </trkpt>
      <trkpt lat="48.92682" lon="0.21649">
        <ele>182</ele>
        <time>2019-04-28T14:25:58Z</time>
      </trkpt>
      <trkpt lat="48.92682" lon="0.21649">
        <ele>182</ele>
        <time>2019-04-28T14:26:03Z</time>
      </trkpt>
      <trkpt lat="48.92682" lon="0.21649">
        <ele>182</ele>
        <time>2019-04-28T14:26:13Z</time>
      </trkpt>
      <trkpt lat="48.92682" lon="0.21649">
        <ele>182</ele>
        <time>2019-04-28T14:26:18Z</time>
      </trkpt>
      <trkpt lat="48.9268" lon="0.2165">
        <ele>183</ele>
        <time>2019-04-28T14:26:27Z</time>
      </trkpt>
      <trkpt lat="48.92679" lon="0.21651">
        <ele>183</ele>
        <time>2019-04-28T14:26:33Z</time>
      </trkpt>
      <trkpt lat="48.92678" lon="0.21651">
        <ele>183</ele>
        <time>2019-04-28T14:26:43Z</time>
      </trkpt>
      <trkpt lat="48.92678" lon="0.21651">
        <ele>183</ele>
        <time>2019-04-28T14:26:53Z</time>
      </trkpt>
      <trkpt lat="48.92678" lon="0.21651">
        <ele>183</ele>
        <time>2019-04-28T14:27:05Z</time>
      </trkpt>
      <trkpt lat="48.92678" lon="0.21651">
        <ele>183</ele>
        <time>2019-04-28T14:27:13Z</time>
      </trkpt>
      <trkpt lat="48.92678" lon="0.21651">
        <ele>183</ele>
        <time>2019-04-28T14:27:18Z</time>
      </trkpt>
      <trkpt lat="48.92678" lon="0.21651">
        <ele>183</ele>
        <time>2019-04-28T14:27:23Z</time>
      </trkpt>
      <trkpt lat="48.92678" lon="0.21651">
        <ele>183</ele>
        <time>2019-04-28T14:27:33Z</time>
      </trkpt>
      <trkpt lat="48.92678" lon="0.21651">
        <ele>183</ele>
        <time>2019-04-28T14:27:38Z</time>
      </trkpt>
      <trkpt lat="48.92678" lon="0.21651">
        <ele>183</ele>
        <time>2019-04-28T14:27:43Z</time>
      </trkpt>
      <trkpt lat="48.92678" lon="0.21651">
        <ele>183</ele>
        <time>2019-04-28T14:27:53Z</time>
      </trkpt>
      <trkpt lat="48.92678" lon="0.21651">
        <ele>183</ele>
        <time>2019-04-28T14:28:03Z</time>
      </trkpt>
      <trkpt lat="48.92678" lon="0.21651">
        <ele>183</ele>
        <time>2019-04-28T14:28:08Z</time>
      </trkpt>
      <trkpt lat="48.92677" lon="0.21652">
        <ele>183</ele>
        <time>2019-04-28T14:28:13Z</time>
      </trkpt>
      <trkpt lat="48.92674" lon="0.21653">
        <ele>184</ele>
        <time>2019-04-28T14:28:18Z</time>
      </trkpt>
      <trkpt lat="48.92664" lon="0.21659">
        <ele>178</ele>
        <time>2019-04-28T14:28:28Z</time>
      </trkpt>
      <trkpt lat="48.92659" lon="0.21661">
        <ele>178</ele>
        <time>2019-04-28T14:28:33Z</time>
      </trkpt>
      <trkpt lat="48.92657" lon="0.21662">
        <ele>178</ele>
        <time>2019-04-28T14:28:38Z</time>
      </trkpt>
      <trkpt lat="48.92653" lon="0.21664">
        <ele>176</ele>
        <time>2019-04-28T14:28:43Z</time>
      </trkpt>
      <trkpt lat="48.92646" lon="0.2167">
        <ele>176</ele>
        <time>2019-04-28T14:28:53Z</time>
      </trkpt>
      <trkpt lat="48.92642" lon="0.21673">
        <ele>176</ele>
        <time>2019-04-28T14:29:03Z</time>
      </trkpt>
      <trkpt lat="48.9264" lon="0.21676">
        <ele>177</ele>
        <time>2019-04-28T14:29:13Z</time>
      </trkpt>
      <trkpt lat="48.92639" lon="0.21681">
        <ele>178</ele>
        <time>2019-04-28T14:29:18Z</time>
      </trkpt>
      <trkpt lat="48.92636" lon="0.21695">
        <ele>178</ele>
        <time>2019-04-28T14:29:28Z</time>
      </trkpt>
      <trkpt lat="48.92635" lon="0.21703">
        <ele>178</ele>
        <time>2019-04-28T14:29:33Z</time>
      </trkpt>
      <trkpt lat="48.92632" lon="0.21715">
        <ele>182</ele>
        <time>2019-04-28T14:29:43Z</time>
      </trkpt>
      <trkpt lat="48.92631" lon="0.21728">
        <ele>182</ele>
        <time>2019-04-28T14:29:53Z</time>
      </trkpt>
      <trkpt lat="48.92632" lon="0.21738">
        <ele>181</ele>
        <time>2019-04-28T14:29:58Z</time>
      </trkpt>
      <trkpt lat="48.92637" lon="0.21756">
        <ele>182</ele>
        <time>2019-04-28T14:30:08Z</time>
      </trkpt>
      <trkpt lat="48.92641" lon="0.21771">
        <ele>182</ele>
        <time>2019-04-28T14:30:13Z</time>
      </trkpt>
      <trkpt lat="48.92643" lon="0.21778">
        <ele>183</ele>
        <time>2019-04-28T14:30:18Z</time>
      </trkpt>
      <trkpt lat="48.92646" lon="0.21792">
        <ele>183</ele>
        <time>2019-04-28T14:30:28Z</time>
      </trkpt>
      <trkpt lat="48.92647" lon="0.21807">
        <ele>184</ele>
        <time>2019-04-28T14:30:38Z</time>
      </trkpt>
      <trkpt lat="48.92646" lon="0.2182">
        <ele>185</ele>
        <time>2019-04-28T14:30:48Z</time>
      </trkpt>
      <trkpt lat="48.92646" lon="0.21826">
        <ele>185</ele>
        <time>2019-04-28T14:30:53Z</time>
      </trkpt>
      <trkpt lat="48.92644" lon="0.21838">
        <ele>186</ele>
        <time>2019-04-28T14:31:03Z</time>
      </trkpt>
      <trkpt lat="48.92642" lon="0.21846">
        <ele>187</ele>
        <time>2019-04-28T14:31:13Z</time>
      </trkpt>
      <trkpt lat="48.9264" lon="0.21862">
        <ele>188</ele>
        <time>2019-04-28T14:31:23Z</time>
      </trkpt>
      <trkpt lat="48.92639" lon="0.21872">
        <ele>188</ele>
        <time>2019-04-28T14:31:33Z</time>
      </trkpt>
      <trkpt lat="48.92638" lon="0.21887">
        <ele>190</ele>
        <time>2019-04-28T14:31:43Z</time>
      </trkpt>
      <trkpt lat="48.92638" lon="0.21899">
        <ele>188</ele>
        <time>2019-04-28T14:31:48Z</time>
      </trkpt>
      <trkpt lat="48.92639" lon="0.21915">
        <ele>188</ele>
        <time>2019-04-28T14:31:58Z</time>
      </trkpt>
      <trkpt lat="48.9264" lon="0.21927">
        <ele>189</ele>
        <time>2019-04-28T14:32:03Z</time>
      </trkpt>
      <trkpt lat="48.92642" lon="0.21936">
        <ele>189</ele>
        <time>2019-04-28T14:32:08Z</time>
      </trkpt>
      <trkpt lat="48.92644" lon="0.2195">
        <ele>190</ele>
        <time>2019-04-28T14:32:18Z</time>
      </trkpt>
      <trkpt lat="48.92645" lon="0.2196">
        <ele>190</ele>
        <time>2019-04-28T14:32:23Z</time>
      </trkpt>
      <trkpt lat="48.92646" lon="0.21974">
        <ele>189</ele>
        <time>2019-04-28T14:32:33Z</time>
      </trkpt>
      <trkpt lat="48.92646" lon="0.21984">
        <ele>190</ele>
        <time>2019-04-28T14:32:38Z</time>
      </trkpt>
      <trkpt lat="48.92648" lon="0.21998">
        <ele>192</ele>
        <time>2019-04-28T14:32:48Z</time>
      </trkpt>
      <trkpt lat="48.92649" lon="0.22013">
        <ele>193</ele>
        <time>2019-04-28T14:32:58Z</time>
      </trkpt>
      <trkpt lat="48.92652" lon="0.22027">
        <ele>194</ele>
        <time>2019-04-28T14:33:08Z</time>
      </trkpt>
      <trkpt lat="48.92653" lon="0.22037">
        <ele>194</ele>
        <time>2019-04-28T14:33:13Z</time>
      </trkpt>
      <trkpt lat="48.92651" lon="0.22048">
        <ele>198</ele>
        <time>2019-04-28T14:33:23Z</time>
      </trkpt>
      <trkpt lat="48.92651" lon="0.22062">
        <ele>199</ele>
        <time>2019-04-28T14:33:33Z</time>
      </trkpt>
      <trkpt lat="48.92651" lon="0.22073">
        <ele>200</ele>
        <time>2019-04-28T14:33:38Z</time>
      </trkpt>
      <trkpt lat="48.92652" lon="0.22082">
        <ele>200</ele>
        <time>2019-04-28T14:33:43Z</time>
      </trkpt>
      <trkpt lat="48.92654" lon="0.22096">
        <ele>200</ele>
        <time>2019-04-28T14:33:53Z</time>
      </trkpt>
      <trkpt lat="48.92657" lon="0.22113">
        <ele>196</ele>
        <time>2019-04-28T14:34:03Z</time>
      </trkpt>
      <trkpt lat="48.92659" lon="0.22125">
        <ele>196</ele>
        <time>2019-04-28T14:34:08Z</time>
      </trkpt>
      <trkpt lat="48.92661" lon="0.22142">
        <ele>197</ele>
        <time>2019-04-28T14:34:18Z</time>
      </trkpt>
      <trkpt lat="48.92663" lon="0.22161">
        <ele>198</ele>
        <time>2019-04-28T14:34:28Z</time>
      </trkpt>
      <trkpt lat="48.92664" lon="0.22175">
        <ele>198</ele>
        <time>2019-04-28T14:34:33Z</time>
      </trkpt>
      <trkpt lat="48.92664" lon="0.22191">
        <ele>198</ele>
        <time>2019-04-28T14:34:43Z</time>
      </trkpt>
      <trkpt lat="48.92662" lon="0.22201">
        <ele>200</ele>
        <time>2019-04-28T14:34:48Z</time>
      </trkpt>
      <trkpt lat="48.92659" lon="0.22214">
        <ele>200</ele>
        <time>2019-04-28T14:34:58Z</time>
      </trkpt>
      <trkpt lat="48.92657" lon="0.22219">
        <ele>200</ele>
        <time>2019-04-28T14:35:03Z</time>
      </trkpt>
      <trkpt lat="48.92657" lon="0.22221">
        <ele>200</ele>
        <time>2019-04-28T14:35:08Z</time>
      </trkpt>
      <trkpt lat="48.92656" lon="0.22222">
        <ele>200</ele>
        <time>2019-04-28T14:35:18Z</time>
      </trkpt>
      <trkpt lat="48.92656" lon="0.22222">
        <ele>200</ele>
        <time>2019-04-28T14:35:23Z</time>
      </trkpt>
      <trkpt lat="48.92656" lon="0.22222">
        <ele>200</ele>
        <time>2019-04-28T14:35:28Z</time>
      </trkpt>
      <trkpt lat="48.92657" lon="0.22223">
        <ele>202</ele>
        <time>2019-04-28T14:35:38Z</time>
      </trkpt>
      <trkpt lat="48.92658" lon="0.22224">
        <ele>202</ele>
        <time>2019-04-28T14:35:43Z</time>
      </trkpt>
      <trkpt lat="48.92666" lon="0.22234">
        <ele>203</ele>
        <time>2019-04-28T14:35:48Z</time>
      </trkpt>
      <trkpt lat="48.9267" lon="0.2224">
        <ele>203</ele>
        <time>2019-04-28T14:35:58Z</time>
      </trkpt>
      <trkpt lat="48.92673" lon="0.22245">
        <ele>202</ele>
        <time>2019-04-28T14:36:03Z</time>
      </trkpt>
      <trkpt lat="48.92685" lon="0.22258">
        <ele>202</ele>
        <time>2019-04-28T14:36:13Z</time>
      </trkpt>
      <trkpt lat="48.92693" lon="0.22268">
        <ele>201</ele>
        <time>2019-04-28T14:36:18Z</time>
      </trkpt>
      <trkpt lat="48.92704" lon="0.22281">
        <ele>201</ele>
        <time>2019-04-28T14:36:28Z</time>
      </trkpt>
      <trkpt lat="48.9271" lon="0.22288">
        <ele>202</ele>
        <time>2019-04-28T14:36:33Z</time>
      </trkpt>
      <trkpt lat="48.92719" lon="0.22297">
        <ele>203</ele>
        <time>2019-04-28T14:36:43Z</time>
      </trkpt>
      <trkpt lat="48.92728" lon="0.22308">
        <ele>204</ele>
        <time>2019-04-28T14:36:53Z</time>
      </trkpt>
      <trkpt lat="48.92738" lon="0.22322">
        <ele>204</ele>
        <time>2019-04-28T14:37:03Z</time>
      </trkpt>
      <trkpt lat="48.9275" lon="0.22342">
        <ele>204</ele>
        <time>2019-04-28T14:37:08Z</time>
      </trkpt>
      <trkpt lat="48.92756" lon="0.22351">
        <ele>203</ele>
        <time>2019-04-28T14:37:18Z</time>
      </trkpt>
      <trkpt lat="48.92761" lon="0.22357">
        <ele>205</ele>
        <time>2019-04-28T14:37:23Z</time>
      </trkpt>
      <trkpt lat="48.92771" lon="0.22367">
        <ele>208</ele>
        <time>2019-04-28T14:37:33Z</time>
      </trkpt>
      <trkpt lat="48.92778" lon="0.22374">
        <ele>210</ele>
        <time>2019-04-28T14:37:38Z</time>
      </trkpt>
      <trkpt lat="48.92788" lon="0.22385">
        <ele>211</ele>
        <time>2019-04-28T14:37:48Z</time>
      </trkpt>
      <trkpt lat="48.92797" lon="0.22394">
        <ele>211</ele>
        <time>2019-04-28T14:37:53Z</time>
      </trkpt>
      <trkpt lat="48.92805" lon="0.22405">
        <ele>212</ele>
        <time>2019-04-28T14:37:58Z</time>
      </trkpt>
      <trkpt lat="48.92816" lon="0.2242">
        <ele>210</ele>
        <time>2019-04-28T14:38:04Z</time>
      </trkpt>
      <trkpt lat="48.92827" lon="0.22438">
        <ele>209</ele>
        <time>2019-04-28T14:38:13Z</time>
      </trkpt>
      <trkpt lat="48.92834" lon="0.22451">
        <ele>208</ele>
        <time>2019-04-28T14:38:18Z</time>
      </trkpt>
      <trkpt lat="48.9284" lon="0.22465">
        <ele>205</ele>
        <time>2019-04-28T14:38:28Z</time>
      </trkpt>
      <trkpt lat="48.92844" lon="0.22475">
        <ele>204</ele>
        <time>2019-04-28T14:38:33Z</time>
      </trkpt>
      <trkpt lat="48.92848" lon="0.22487">
        <ele>204</ele>
        <time>2019-04-28T14:38:38Z</time>
      </trkpt>
      <trkpt lat="48.92854" lon="0.22507">
        <ele>204</ele>
        <time>2019-04-28T14:38:43Z</time>
      </trkpt>
      <trkpt lat="48.92857" lon="0.22516">
        <ele>205</ele>
        <time>2019-04-28T14:38:50Z</time>
      </trkpt>
      <trkpt lat="48.92859" lon="0.22524">
        <ele>206</ele>
        <time>2019-04-28T14:38:54Z</time>
      </trkpt>
      <trkpt lat="48.92862" lon="0.22533">
        <ele>207</ele>
        <time>2019-04-28T14:39:01Z</time>
      </trkpt>
      <trkpt lat="48.92866" lon="0.22544">
        <ele>207</ele>
        <time>2019-04-28T14:39:04Z</time>
      </trkpt>
      <trkpt lat="48.9287" lon="0.22561">
        <ele>207</ele>
        <time>2019-04-28T14:39:11Z</time>
      </trkpt>
      <trkpt lat="48.92871" lon="0.22569">
        <ele>208</ele>
        <time>2019-04-28T14:39:14Z</time>
      </trkpt>
      <trkpt lat="48.92873" lon="0.22577">
        <ele>209</ele>
        <time>2019-04-28T14:39:21Z</time>
      </trkpt>
      <trkpt lat="48.92873" lon="0.22586">
        <ele>209</ele>
        <time>2019-04-28T14:39:25Z</time>
      </trkpt>
      <trkpt lat="48.92874" lon="0.22597">
        <ele>210</ele>
        <time>2019-04-28T14:39:31Z</time>
      </trkpt>
      <trkpt lat="48.92874" lon="0.22606">
        <ele>211</ele>
        <time>2019-04-28T14:39:35Z</time>
      </trkpt>
      <trkpt lat="48.92874" lon="0.22613">
        <ele>211</ele>
        <time>2019-04-28T14:39:42Z</time>
      </trkpt>
      <trkpt lat="48.92874" lon="0.22623">
        <ele>212</ele>
        <time>2019-04-28T14:39:45Z</time>
      </trkpt>
      <trkpt lat="48.92873" lon="0.22634">
        <ele>213</ele>
        <time>2019-04-28T14:39:52Z</time>
      </trkpt>
      <trkpt lat="48.92872" lon="0.22649">
        <ele>213</ele>
        <time>2019-04-28T14:39:55Z</time>
      </trkpt>
      <trkpt lat="48.92872" lon="0.22656">
        <ele>213</ele>
        <time>2019-04-28T14:40:02Z</time>
      </trkpt>
      <trkpt lat="48.92872" lon="0.22668">
        <ele>214</ele>
        <time>2019-04-28T14:40:05Z</time>
      </trkpt>
      <trkpt lat="48.92872" lon="0.22674">
        <ele>213</ele>
        <time>2019-04-28T14:40:12Z</time>
      </trkpt>
      <trkpt lat="48.92872" lon="0.22688">
        <ele>213</ele>
        <time>2019-04-28T14:40:15Z</time>
      </trkpt>
      <trkpt lat="48.92872" lon="0.22695">
        <ele>214</ele>
        <time>2019-04-28T14:40:22Z</time>
      </trkpt>
      <trkpt lat="48.92872" lon="0.22703">
        <ele>213</ele>
        <time>2019-04-28T14:40:25Z</time>
      </trkpt>
      <trkpt lat="48.92873" lon="0.22713">
        <ele>212</ele>
        <time>2019-04-28T14:40:32Z</time>
      </trkpt>
      <trkpt lat="48.92876" lon="0.22723">
        <ele>210</ele>
        <time>2019-04-28T14:40:36Z</time>
      </trkpt>
      <trkpt lat="48.92879" lon="0.22729">
        <ele>209</ele>
        <time>2019-04-28T14:40:42Z</time>
      </trkpt>
      <trkpt lat="48.92885" lon="0.22732">
        <ele>208</ele>
        <time>2019-04-28T14:40:46Z</time>
      </trkpt>
      <trkpt lat="48.92891" lon="0.22732">
        <ele>206</ele>
        <time>2019-04-28T14:40:53Z</time>
      </trkpt>
      <trkpt lat="48.92897" lon="0.22732">
        <ele>206</ele>
        <time>2019-04-28T14:40:56Z</time>
      </trkpt>
      <trkpt lat="48.92903" lon="0.22733">
        <ele>207</ele>
        <time>2019-04-28T14:41:01Z</time>
      </trkpt>
      <trkpt lat="48.92909" lon="0.22733">
        <ele>207</ele>
        <time>2019-04-28T14:41:08Z</time>
      </trkpt>
      <trkpt lat="48.92916" lon="0.22733">
        <ele>206</ele>
        <time>2019-04-28T14:41:13Z</time>
      </trkpt>
      <trkpt lat="48.92924" lon="0.22733">
        <ele>206</ele>
        <time>2019-04-28T14:41:18Z</time>
      </trkpt>
      <trkpt lat="48.92934" lon="0.22738">
        <ele>208</ele>
        <time>2019-04-28T14:41:28Z</time>
      </trkpt>
      <trkpt lat="48.92942" lon="0.22746">
        <ele>208</ele>
        <time>2019-04-28T14:41:33Z</time>
      </trkpt>
      <trkpt lat="48.92946" lon="0.22752">
        <ele>207</ele>
        <time>2019-04-28T14:41:38Z</time>
      </trkpt>
      <trkpt lat="48.92948" lon="0.22756">
        <ele>207</ele>
        <time>2019-04-28T14:41:43Z</time>
      </trkpt>
      <trkpt lat="48.92948" lon="0.22759">
        <ele>207</ele>
        <time>2019-04-28T14:41:48Z</time>
      </trkpt>
      <trkpt lat="48.92947" lon="0.22774">
        <ele>207</ele>
        <time>2019-04-28T14:41:58Z</time>
      </trkpt>
      <trkpt lat="48.92946" lon="0.2278">
        <ele>208</ele>
        <time>2019-04-28T14:42:08Z</time>
      </trkpt>
      <trkpt lat="48.92947" lon="0.2279">
        <ele>211</ele>
        <time>2019-04-28T14:42:18Z</time>
      </trkpt>
      <trkpt lat="48.92951" lon="0.2281">
        <ele>213</ele>
        <time>2019-04-28T14:42:23Z</time>
      </trkpt>
      <trkpt lat="48.92952" lon="0.22819">
        <ele>213</ele>
        <time>2019-04-28T14:42:30Z</time>
      </trkpt>
      <trkpt lat="48.92953" lon="0.22822">
        <ele>213</ele>
        <time>2019-04-28T14:42:34Z</time>
      </trkpt>
      <trkpt lat="48.92954" lon="0.22824">
        <ele>214</ele>
        <time>2019-04-28T14:42:40Z</time>
      </trkpt>
      <trkpt lat="48.92958" lon="0.22825">
        <ele>217</ele>
        <time>2019-04-28T14:42:44Z</time>
      </trkpt>
      <trkpt lat="48.92966" lon="0.22828">
        <ele>217</ele>
        <time>2019-04-28T14:42:50Z</time>
      </trkpt>
      <trkpt lat="48.92969" lon="0.22829">
        <ele>217</ele>
        <time>2019-04-28T14:42:54Z</time>
      </trkpt>
      <trkpt lat="48.92974" lon="0.22831">
        <ele>219</ele>
        <time>2019-04-28T14:43:01Z</time>
      </trkpt>
      <trkpt lat="48.92978" lon="0.22832">
        <ele>219</ele>
        <time>2019-04-28T14:43:04Z</time>
      </trkpt>
      <trkpt lat="48.92979" lon="0.22833">
        <ele>219</ele>
        <time>2019-04-28T14:43:11Z</time>
      </trkpt>
      <trkpt lat="48.9298" lon="0.22833">
        <ele>219</ele>
        <time>2019-04-28T14:43:14Z</time>
      </trkpt>
      <trkpt lat="48.92986" lon="0.22839">
        <ele>221</ele>
        <time>2019-04-28T14:43:21Z</time>
      </trkpt>
      <trkpt lat="48.92989" lon="0.22842">
        <ele>220</ele>
        <time>2019-04-28T14:43:24Z</time>
      </trkpt>
      <trkpt lat="48.92992" lon="0.22845">
        <ele>220</ele>
        <time>2019-04-28T14:43:31Z</time>
      </trkpt>
      <trkpt lat="48.93004" lon="0.22858">
        <ele>222</ele>
        <time>2019-04-28T14:43:34Z</time>
      </trkpt>
      <trkpt lat="48.9301" lon="0.22865">
        <ele>224</ele>
        <time>2019-04-28T14:43:41Z</time>
      </trkpt>
      <trkpt lat="48.93016" lon="0.22871">
        <ele>224</ele>
        <time>2019-04-28T14:43:44Z</time>
      </trkpt>
      <trkpt lat="48.93021" lon="0.22879">
        <ele>223</ele>
        <time>2019-04-28T14:43:51Z</time>
      </trkpt>
      <trkpt lat="48.93028" lon="0.22892">
        <ele>223</ele>
        <time>2019-04-28T14:43:55Z</time>
      </trkpt>
      <trkpt lat="48.93031" lon="0.22897">
        <ele>224</ele>
        <time>2019-04-28T14:44:01Z</time>
      </trkpt>
      <trkpt lat="48.93033" lon="0.22903">
        <ele>223</ele>
        <time>2019-04-28T14:44:05Z</time>
      </trkpt>
      <trkpt lat="48.93035" lon="0.2291">
        <ele>222</ele>
        <time>2019-04-28T14:44:11Z</time>
      </trkpt>
      <trkpt lat="48.9304" lon="0.22925">
        <ele>221</ele>
        <time>2019-04-28T14:44:15Z</time>
      </trkpt>
      <trkpt lat="48.93042" lon="0.22931">
        <ele>221</ele>
        <time>2019-04-28T14:44:22Z</time>
      </trkpt>
      <trkpt lat="48.93043" lon="0.22937">
        <ele>223</ele>
        <time>2019-04-28T14:44:25Z</time>
      </trkpt>
      <trkpt lat="48.93042" lon="0.22948">
        <ele>223</ele>
        <time>2019-04-28T14:44:32Z</time>
      </trkpt>
      <trkpt lat="48.93041" lon="0.22956">
        <ele>223</ele>
        <time>2019-04-28T14:44:35Z</time>
      </trkpt>
      <trkpt lat="48.93041" lon="0.2296">
        <ele>223</ele>
        <time>2019-04-28T14:44:42Z</time>
      </trkpt>
      <trkpt lat="48.9304" lon="0.22962">
        <ele>223</ele>
        <time>2019-04-28T14:44:45Z</time>
      </trkpt>
      <trkpt lat="48.9304" lon="0.22962">
        <ele>223</ele>
        <time>2019-04-28T14:44:52Z</time>
      </trkpt>
      <trkpt lat="48.93039" lon="0.22968">
        <ele>223</ele>
        <time>2019-04-28T14:44:55Z</time>
      </trkpt>
      <trkpt lat="48.93037" lon="0.22974">
        <ele>223</ele>
        <time>2019-04-28T14:45:03Z</time>
      </trkpt>
      <trkpt lat="48.93034" lon="0.22981">
        <ele>224</ele>
        <time>2019-04-28T14:45:12Z</time>
      </trkpt>
      <trkpt lat="48.93026" lon="0.22995">
        <ele>224</ele>
        <time>2019-04-28T14:45:15Z</time>
      </trkpt>
      <trkpt lat="48.93023" lon="0.23">
        <ele>224</ele>
        <time>2019-04-28T14:45:22Z</time>
      </trkpt>
      <trkpt lat="48.93019" lon="0.23007">
        <ele>224</ele>
        <time>2019-04-28T14:45:26Z</time>
      </trkpt>
      <trkpt lat="48.93018" lon="0.2301">
        <ele>225</ele>
        <time>2019-04-28T14:45:32Z</time>
      </trkpt>
      <trkpt lat="48.93014" lon="0.23018">
        <ele>228</ele>
        <time>2019-04-28T14:45:36Z</time>
      </trkpt>
      <trkpt lat="48.93013" lon="0.23022">
        <ele>229</ele>
        <time>2019-04-28T14:45:42Z</time>
      </trkpt>
      <trkpt lat="48.9301" lon="0.23026">
        <ele>234</ele>
        <time>2019-04-28T14:45:46Z</time>
      </trkpt>
      <trkpt lat="48.93006" lon="0.23032">
        <ele>236</ele>
        <time>2019-04-28T14:45:52Z</time>
      </trkpt>
      <trkpt lat="48.92997" lon="0.23044">
        <ele>237</ele>
        <time>2019-04-28T14:45:56Z</time>
      </trkpt>
      <trkpt lat="48.92994" lon="0.23049">
        <ele>236</ele>
        <time>2019-04-28T14:46:03Z</time>
      </trkpt>
      <trkpt lat="48.92987" lon="0.23058">
        <ele>238</ele>
        <time>2019-04-28T14:46:06Z</time>
      </trkpt>
      <trkpt lat="48.92984" lon="0.23062">
        <ele>238</ele>
        <time>2019-04-28T14:46:13Z</time>
      </trkpt>
      <trkpt lat="48.92982" lon="0.23064">
        <ele>238</ele>
        <time>2019-04-28T14:46:16Z</time>
      </trkpt>
      <trkpt lat="48.92981" lon="0.23065">
        <ele>239</ele>
        <time>2019-04-28T14:46:23Z</time>
      </trkpt>
      <trkpt lat="48.92977" lon="0.23069">
        <ele>238</ele>
        <time>2019-04-28T14:46:26Z</time>
      </trkpt>
      <trkpt lat="48.92971" lon="0.23074">
        <ele>239</ele>
        <time>2019-04-28T14:46:33Z</time>
      </trkpt>
      <trkpt lat="48.92963" lon="0.2308">
        <ele>239</ele>
        <time>2019-04-28T14:46:36Z</time>
      </trkpt>
      <trkpt lat="48.92952" lon="0.23088">
        <ele>239</ele>
        <time>2019-04-28T14:46:43Z</time>
      </trkpt>
      <trkpt lat="48.92942" lon="0.23096">
        <ele>245</ele>
        <time>2019-04-28T14:46:48Z</time>
      </trkpt>
      <trkpt lat="48.92934" lon="0.23106">
        <ele>246</ele>
        <time>2019-04-28T14:46:58Z</time>
      </trkpt>
      <trkpt lat="48.92926" lon="0.23112">
        <ele>247</ele>
        <time>2019-04-28T14:47:08Z</time>
      </trkpt>
      <trkpt lat="48.92917" lon="0.23119">
        <ele>247</ele>
        <time>2019-04-28T14:47:18Z</time>
      </trkpt>
      <trkpt lat="48.92908" lon="0.23124">
        <ele>250</ele>
        <time>2019-04-28T14:47:28Z</time>
      </trkpt>
      <trkpt lat="48.92902" lon="0.23126">
        <ele>250</ele>
        <time>2019-04-28T14:47:33Z</time>
      </trkpt>
      <trkpt lat="48.92896" lon="0.23129">
        <ele>250</ele>
        <time>2019-04-28T14:47:38Z</time>
      </trkpt>
      <trkpt lat="48.92888" lon="0.23135">
        <ele>250</ele>
        <time>2019-04-28T14:47:48Z</time>
      </trkpt>
      <trkpt lat="48.92882" lon="0.23141">
        <ele>249</ele>
        <time>2019-04-28T14:47:53Z</time>
      </trkpt>
      <trkpt lat="48.92877" lon="0.23146">
        <ele>247</ele>
        <time>2019-04-28T14:47:58Z</time>
      </trkpt>
      <trkpt lat="48.9287" lon="0.23153">
        <ele>246</ele>
        <time>2019-04-28T14:48:08Z</time>
      </trkpt>
      <trkpt lat="48.92863" lon="0.23164">
        <ele>247</ele>
        <time>2019-04-28T14:48:18Z</time>
      </trkpt>
      <trkpt lat="48.92859" lon="0.23172">
        <ele>250</ele>
        <time>2019-04-28T14:48:23Z</time>
      </trkpt>
      <trkpt lat="48.92854" lon="0.23187">
        <ele>251</ele>
        <time>2019-04-28T14:48:33Z</time>
      </trkpt>
      <trkpt lat="48.92851" lon="0.23198">
        <ele>251</ele>
        <time>2019-04-28T14:48:38Z</time>
      </trkpt>
      <trkpt lat="48.92846" lon="0.2321">
        <ele>253</ele>
        <time>2019-04-28T14:48:48Z</time>
      </trkpt>
      <trkpt lat="48.92841" lon="0.23222">
        <ele>254</ele>
        <time>2019-04-28T14:48:58Z</time>
      </trkpt>
      <trkpt lat="48.92835" lon="0.23235">
        <ele>254</ele>
        <time>2019-04-28T14:49:08Z</time>
      </trkpt>
      <trkpt lat="48.92828" lon="0.23249">
        <ele>255</ele>
        <time>2019-04-28T14:49:18Z</time>
      </trkpt>
      <trkpt lat="48.92821" lon="0.23263">
        <ele>254</ele>
        <time>2019-04-28T14:49:23Z</time>
      </trkpt>
      <trkpt lat="48.92818" lon="0.2327">
        <ele>254</ele>
        <time>2019-04-28T14:49:28Z</time>
      </trkpt>
      <trkpt lat="48.92812" lon="0.23282">
        <ele>255</ele>
        <time>2019-04-28T14:49:38Z</time>
      </trkpt>
      <trkpt lat="48.92804" lon="0.23296">
        <ele>257</ele>
        <time>2019-04-28T14:49:48Z</time>
      </trkpt>
      <trkpt lat="48.92794" lon="0.2331">
        <ele>257</ele>
        <time>2019-04-28T14:49:58Z</time>
      </trkpt>
      <trkpt lat="48.92788" lon="0.23319">
        <ele>257</ele>
        <time>2019-04-28T14:50:03Z</time>
      </trkpt>
      <trkpt lat="48.92782" lon="0.23327">
        <ele>258</ele>
        <time>2019-04-28T14:50:08Z</time>
      </trkpt>
      <trkpt lat="48.92776" lon="0.23334">
        <ele>257</ele>
        <time>2019-04-28T14:50:13Z</time>
      </trkpt>
      <trkpt lat="48.92768" lon="0.23345">
        <ele>255</ele>
        <time>2019-04-28T14:50:23Z</time>
      </trkpt>
      <trkpt lat="48.92763" lon="0.23352">
        <ele>254</ele>
        <time>2019-04-28T14:50:28Z</time>
      </trkpt>
      <trkpt lat="48.92756" lon="0.23363">
        <ele>254</ele>
        <time>2019-04-28T14:50:38Z</time>
      </trkpt>
      <trkpt lat="48.9275" lon="0.23371">
        <ele>255</ele>
        <time>2019-04-28T14:50:43Z</time>
      </trkpt>
      <trkpt lat="48.92743" lon="0.23381">
        <ele>256</ele>
        <time>2019-04-28T14:50:53Z</time>
      </trkpt>
      <trkpt lat="48.92738" lon="0.23388">
        <ele>255</ele>
        <time>2019-04-28T14:50:58Z</time>
      </trkpt>
      <trkpt lat="48.92733" lon="0.23395">
        <ele>256</ele>
        <time>2019-04-28T14:51:03Z</time>
      </trkpt>
      <trkpt lat="48.92726" lon="0.23406">
        <ele>257</ele>
        <time>2019-04-28T14:51:13Z</time>
      </trkpt>
      <trkpt lat="48.92718" lon="0.2342">
        <ele>258</ele>
        <time>2019-04-28T14:51:23Z</time>
      </trkpt>
      <trkpt lat="48.9271" lon="0.23434">
        <ele>258</ele>
        <time>2019-04-28T14:51:33Z</time>
      </trkpt>
      <trkpt lat="48.92701" lon="0.23448">
        <ele>256</ele>
        <time>2019-04-28T14:51:38Z</time>
      </trkpt>
      <trkpt lat="48.92697" lon="0.23455">
        <ele>256</ele>
        <time>2019-04-28T14:51:43Z</time>
      </trkpt>
      <trkpt lat="48.92691" lon="0.23464">
        <ele>253</ele>
        <time>2019-04-28T14:51:53Z</time>
      </trkpt>
      <trkpt lat="48.92687" lon="0.23472">
        <ele>254</ele>
        <time>2019-04-28T14:51:58Z</time>
      </trkpt>
      <trkpt lat="48.92679" lon="0.23483">
        <ele>252</ele>
        <time>2019-04-28T14:52:08Z</time>
      </trkpt>
      <trkpt lat="48.92673" lon="0.23491">
        <ele>250</ele>
        <time>2019-04-28T14:52:13Z</time>
      </trkpt>
      <trkpt lat="48.92668" lon="0.23499">
        <ele>250</ele>
        <time>2019-04-28T14:52:18Z</time>
      </trkpt>
      <trkpt lat="48.92663" lon="0.23507">
        <ele>248</ele>
        <time>2019-04-28T14:52:23Z</time>
      </trkpt>
      <trkpt lat="48.92658" lon="0.23514">
        <ele>248</ele>
        <time>2019-04-28T14:52:28Z</time>
      </trkpt>
      <trkpt lat="48.9265" lon="0.23527">
        <ele>250</ele>
        <time>2019-04-28T14:52:38Z</time>
      </trkpt>
      <trkpt lat="48.92642" lon="0.23542">
        <ele>251</ele>
        <time>2019-04-28T14:52:48Z</time>
      </trkpt>
      <trkpt lat="48.92636" lon="0.23552">
        <ele>250</ele>
        <time>2019-04-28T14:52:53Z</time>
      </trkpt>
      <trkpt lat="48.92631" lon="0.23561">
        <ele>249</ele>
        <time>2019-04-28T14:52:58Z</time>
      </trkpt>
      <trkpt lat="48.92623" lon="0.23575">
        <ele>251</ele>
        <time>2019-04-28T14:53:08Z</time>
      </trkpt>
      <trkpt lat="48.92613" lon="0.23591">
        <ele>253</ele>
        <time>2019-04-28T14:53:18Z</time>
      </trkpt>
      <trkpt lat="48.92606" lon="0.23603">
        <ele>255</ele>
        <time>2019-04-28T14:53:23Z</time>
      </trkpt>
      <trkpt lat="48.92601" lon="0.2361">
        <ele>254</ele>
        <time>2019-04-28T14:53:28Z</time>
      </trkpt>
      <trkpt lat="48.92595" lon="0.23614">
        <ele>253</ele>
        <time>2019-04-28T14:53:33Z</time>
      </trkpt>
      <trkpt lat="48.92586" lon="0.23618">
        <ele>254</ele>
        <time>2019-04-28T14:53:43Z</time>
      </trkpt>
      <trkpt lat="48.92574" lon="0.2362">
        <ele>254</ele>
        <time>2019-04-28T14:53:53Z</time>
      </trkpt>
      <trkpt lat="48.92565" lon="0.23622">
        <ele>255</ele>
        <time>2019-04-28T14:53:58Z</time>
      </trkpt>
      <trkpt lat="48.92557" lon="0.23623">
        <ele>254</ele>
        <time>2019-04-28T14:54:03Z</time>
      </trkpt>
      <trkpt lat="48.92549" lon="0.23625">
        <ele>255</ele>
        <time>2019-04-28T14:54:08Z</time>
      </trkpt>
      <trkpt lat="48.92537" lon="0.23628">
        <ele>255</ele>
        <time>2019-04-28T14:54:18Z</time>
      </trkpt>
      <trkpt lat="48.92528" lon="0.23629">
        <ele>255</ele>
        <time>2019-04-28T14:54:23Z</time>
      </trkpt>
      <trkpt lat="48.92516" lon="0.23634">
        <ele>256</ele>
        <time>2019-04-28T14:54:33Z</time>
      </trkpt>
      <trkpt lat="48.92504" lon="0.23639">
        <ele>255</ele>
        <time>2019-04-28T14:54:43Z</time>
      </trkpt>
      <trkpt lat="48.92497" lon="0.23642">
        <ele>255</ele>
        <time>2019-04-28T14:54:48Z</time>
      </trkpt>
      <trkpt lat="48.9249" lon="0.23645">
        <ele>255</ele>
        <time>2019-04-28T14:54:53Z</time>
      </trkpt>
      <trkpt lat="48.92476" lon="0.23651">
        <ele>258</ele>
        <time>2019-04-28T14:55:03Z</time>
      </trkpt>
      <trkpt lat="48.92467" lon="0.23655">
        <ele>258</ele>
        <time>2019-04-28T14:55:13Z</time>
      </trkpt>
      <trkpt lat="48.92457" lon="0.23661">
        <ele>259</ele>
        <time>2019-04-28T14:55:23Z</time>
      </trkpt>
      <trkpt lat="48.92444" lon="0.23669">
        <ele>260</ele>
        <time>2019-04-28T14:55:33Z</time>
      </trkpt>
      <trkpt lat="48.92435" lon="0.23675">
        <ele>259</ele>
        <time>2019-04-28T14:55:38Z</time>
      </trkpt>
      <trkpt lat="48.92427" lon="0.23681">
        <ele>257</ele>
        <time>2019-04-28T14:55:43Z</time>
      </trkpt>
      <trkpt lat="48.92419" lon="0.23689">
        <ele>256</ele>
        <time>2019-04-28T14:55:53Z</time>
      </trkpt>
      <trkpt lat="48.92409" lon="0.23701">
        <ele>256</ele>
        <time>2019-04-28T14:56:03Z</time>
      </trkpt>
      <trkpt lat="48.92403" lon="0.23709">
        <ele>256</ele>
        <time>2019-04-28T14:56:08Z</time>
      </trkpt>
      <trkpt lat="48.92397" lon="0.23717">
        <ele>255</ele>
        <time>2019-04-28T14:56:13Z</time>
      </trkpt>
      <trkpt lat="48.9239" lon="0.2373">
        <ele>254</ele>
        <time>2019-04-28T14:56:23Z</time>
      </trkpt>
      <trkpt lat="48.92385" lon="0.23738">
        <ele>255</ele>
        <time>2019-04-28T14:56:28Z</time>
      </trkpt>
      <trkpt lat="48.9238" lon="0.23746">
        <ele>256</ele>
        <time>2019-04-28T14:56:33Z</time>
      </trkpt>
      <trkpt lat="48.92376" lon="0.23753">
        <ele>257</ele>
        <time>2019-04-28T14:56:38Z</time>
      </trkpt>
      <trkpt lat="48.92371" lon="0.23762">
        <ele>258</ele>
        <time>2019-04-28T14:56:43Z</time>
      </trkpt>
      <trkpt lat="48.92368" lon="0.23768">
        <ele>258</ele>
        <time>2019-04-28T14:56:48Z</time>
      </trkpt>
      <trkpt lat="48.92364" lon="0.23774">
        <ele>260</ele>
        <time>2019-04-28T14:56:53Z</time>
      </trkpt>
      <trkpt lat="48.92361" lon="0.23779">
        <ele>260</ele>
        <time>2019-04-28T14:56:58Z</time>
      </trkpt>
      <trkpt lat="48.92353" lon="0.23792">
        <ele>261</ele>
        <time>2019-04-28T14:57:08Z</time>
      </trkpt>
      <trkpt lat="48.92347" lon="0.23803">
        <ele>261</ele>
        <time>2019-04-28T14:57:13Z</time>
      </trkpt>
      <trkpt lat="48.92341" lon="0.2381">
        <ele>263</ele>
        <time>2019-04-28T14:57:18Z</time>
      </trkpt>
      <trkpt lat="48.92336" lon="0.23817">
        <ele>263</ele>
        <time>2019-04-28T14:57:23Z</time>
      </trkpt>
      <trkpt lat="48.92332" lon="0.23824">
        <ele>263</ele>
        <time>2019-04-28T14:57:28Z</time>
      </trkpt>
      <trkpt lat="48.92325" lon="0.23834">
        <ele>261</ele>
        <time>2019-04-28T14:57:38Z</time>
      </trkpt>
      <trkpt lat="48.9232" lon="0.23843">
        <ele>261</ele>
        <time>2019-04-28T14:57:43Z</time>
      </trkpt>
      <trkpt lat="48.92316" lon="0.23851">
        <ele>261</ele>
        <time>2019-04-28T14:57:48Z</time>
      </trkpt>
      <trkpt lat="48.92312" lon="0.23858">
        <ele>262</ele>
        <time>2019-04-28T14:57:53Z</time>
      </trkpt>
      <trkpt lat="48.92307" lon="0.23869">
        <ele>262</ele>
        <time>2019-04-28T14:58:03Z</time>
      </trkpt>
      <trkpt lat="48.92301" lon="0.23881">
        <ele>261</ele>
        <time>2019-04-28T14:58:13Z</time>
      </trkpt>
      <trkpt lat="48.92294" lon="0.23895">
        <ele>263</ele>
        <time>2019-04-28T14:58:23Z</time>
      </trkpt>
      <trkpt lat="48.92286" lon="0.2391">
        <ele>263</ele>
        <time>2019-04-28T14:58:33Z</time>
      </trkpt>
      <trkpt lat="48.92281" lon="0.2392">
        <ele>263</ele>
        <time>2019-04-28T14:58:38Z</time>
      </trkpt>
      <trkpt lat="48.92277" lon="0.23928">
        <ele>265</ele>
        <time>2019-04-28T14:58:43Z</time>
      </trkpt>
      <trkpt lat="48.92271" lon="0.23939">
        <ele>267</ele>
        <time>2019-04-28T14:58:53Z</time>
      </trkpt>
      <trkpt lat="48.92261" lon="0.2396">
        <ele>264</ele>
        <time>2019-04-28T14:59:03Z</time>
      </trkpt>
      <trkpt lat="48.92255" lon="0.23968">
        <ele>263</ele>
        <time>2019-04-28T14:59:08Z</time>
      </trkpt>
      <trkpt lat="48.92249" lon="0.23971">
        <ele>262</ele>
        <time>2019-04-28T14:59:13Z</time>
      </trkpt>
      <trkpt lat="48.92244" lon="0.23973">
        <ele>262</ele>
        <time>2019-04-28T14:59:18Z</time>
      </trkpt>
      <trkpt lat="48.92238" lon="0.23976">
        <ele>261</ele>
        <time>2019-04-28T14:59:23Z</time>
      </trkpt>
      <trkpt lat="48.92233" lon="0.23985">
        <ele>262</ele>
        <time>2019-04-28T14:59:33Z</time>
      </trkpt>
      <trkpt lat="48.92227" lon="0.23991">
        <ele>262</ele>
        <time>2019-04-28T14:59:38Z</time>
      </trkpt>
      <trkpt lat="48.92221" lon="0.23997">
        <ele>262</ele>
        <time>2019-04-28T14:59:48Z</time>
      </trkpt>
      <trkpt lat="48.92217" lon="0.24003">
        <ele>261</ele>
        <time>2019-04-28T14:59:53Z</time>
      </trkpt>
      <trkpt lat="48.92211" lon="0.24013">
        <ele>261</ele>
        <time>2019-04-28T15:00:03Z</time>
      </trkpt>
      <trkpt lat="48.922" lon="0.24025">
        <ele>261</ele>
        <time>2019-04-28T15:00:13Z</time>
      </trkpt>
      <trkpt lat="48.92193" lon="0.24032">
        <ele>262</ele>
        <time>2019-04-28T15:00:18Z</time>
      </trkpt>
      <trkpt lat="48.92183" lon="0.24042">
        <ele>264</ele>
        <time>2019-04-28T15:00:28Z</time>
      </trkpt>
      <trkpt lat="48.92175" lon="0.2405">
        <ele>265</ele>
        <time>2019-04-28T15:00:33Z</time>
      </trkpt>
      <trkpt lat="48.92163" lon="0.24059">
        <ele>265</ele>
        <time>2019-04-28T15:00:43Z</time>
      </trkpt>
      <trkpt lat="48.92155" lon="0.24066">
        <ele>265</ele>
        <time>2019-04-28T15:00:53Z</time>
      </trkpt>
      <trkpt lat="48.92148" lon="0.2407">
        <ele>265</ele>
        <time>2019-04-28T15:00:58Z</time>
      </trkpt>
      <trkpt lat="48.9214" lon="0.24077">
        <ele>265</ele>
        <time>2019-04-28T15:01:08Z</time>
      </trkpt>
      <trkpt lat="48.92134" lon="0.24081">
        <ele>266</ele>
        <time>2019-04-28T15:01:13Z</time>
      </trkpt>
      <trkpt lat="48.92122" lon="0.24089">
        <ele>266</ele>
        <time>2019-04-28T15:01:23Z</time>
      </trkpt>
      <trkpt lat="48.92116" lon="0.24093">
        <ele>266</ele>
        <time>2019-04-28T15:01:28Z</time>
      </trkpt>
      <trkpt lat="48.92102" lon="0.24102">
        <ele>266</ele>
        <time>2019-04-28T15:01:38Z</time>
      </trkpt>
      <trkpt lat="48.92096" lon="0.24106">
        <ele>266</ele>
        <time>2019-04-28T15:01:43Z</time>
      </trkpt>
      <trkpt lat="48.92089" lon="0.2411">
        <ele>266</ele>
        <time>2019-04-28T15:01:53Z</time>
      </trkpt>
      <trkpt lat="48.92079" lon="0.24116">
        <ele>265</ele>
        <time>2019-04-28T15:02:03Z</time>
      </trkpt>
      <trkpt lat="48.92071" lon="0.2412">
        <ele>264</ele>
        <time>2019-04-28T15:02:08Z</time>
      </trkpt>
      <trkpt lat="48.9206" lon="0.24127">
        <ele>267</ele>
        <time>2019-04-28T15:02:18Z</time>
      </trkpt>
      <trkpt lat="48.92049" lon="0.24134">
        <ele>267</ele>
        <time>2019-04-28T15:02:28Z</time>
      </trkpt>
      <trkpt lat="48.92038" lon="0.24139">
        <ele>266</ele>
        <time>2019-04-28T15:02:38Z</time>
      </trkpt>
      <trkpt lat="48.92031" lon="0.24143">
        <ele>265</ele>
        <time>2019-04-28T15:02:43Z</time>
      </trkpt>
      <trkpt lat="48.92023" lon="0.24148">
        <ele>263</ele>
        <time>2019-04-28T15:02:53Z</time>
      </trkpt>
      <trkpt lat="48.92012" lon="0.24154">
        <ele>264</ele>
        <time>2019-04-28T15:03:03Z</time>
      </trkpt>
      <trkpt lat="48.92" lon="0.2416">
        <ele>263</ele>
        <time>2019-04-28T15:03:13Z</time>
      </trkpt>
      <trkpt lat="48.91987" lon="0.24164">
        <ele>264</ele>
        <time>2019-04-28T15:03:23Z</time>
      </trkpt>
      <trkpt lat="48.9198" lon="0.24166">
        <ele>264</ele>
        <time>2019-04-28T15:03:28Z</time>
      </trkpt>
      <trkpt lat="48.9197" lon="0.24166">
        <ele>264</ele>
        <time>2019-04-28T15:03:38Z</time>
      </trkpt>
      <trkpt lat="48.91958" lon="0.24167">
        <ele>267</ele>
        <time>2019-04-28T15:03:48Z</time>
      </trkpt>
      <trkpt lat="48.91942" lon="0.24166">
        <ele>268</ele>
        <time>2019-04-28T15:03:58Z</time>
      </trkpt>
      <trkpt lat="48.91934" lon="0.24165">
        <ele>266</ele>
        <time>2019-04-28T15:04:08Z</time>
      </trkpt>
      <trkpt lat="48.91923" lon="0.2416">
        <ele>267</ele>
        <time>2019-04-28T15:04:18Z</time>
      </trkpt>
      <trkpt lat="48.91909" lon="0.24158">
        <ele>266</ele>
        <time>2019-04-28T15:04:28Z</time>
      </trkpt>
      <trkpt lat="48.919" lon="0.2416">
        <ele>265</ele>
        <time>2019-04-28T15:04:33Z</time>
      </trkpt>
      <trkpt lat="48.91894" lon="0.24165">
        <ele>264</ele>
        <time>2019-04-28T15:04:38Z</time>
      </trkpt>
      <trkpt lat="48.91887" lon="0.24178">
        <ele>263</ele>
        <time>2019-04-28T15:04:48Z</time>
      </trkpt>
      <trkpt lat="48.91879" lon="0.24191">
        <ele>266</ele>
        <time>2019-04-28T15:04:58Z</time>
      </trkpt>
      <trkpt lat="48.91874" lon="0.242">
        <ele>265</ele>
        <time>2019-04-28T15:05:03Z</time>
      </trkpt>
      <trkpt lat="48.9187" lon="0.24208">
        <ele>265</ele>
        <time>2019-04-28T15:05:08Z</time>
      </trkpt>
      <trkpt lat="48.91863" lon="0.24219">
        <ele>266</ele>
        <time>2019-04-28T15:05:13Z</time>
      </trkpt>
      <trkpt lat="48.91859" lon="0.24224">
        <ele>266</ele>
        <time>2019-04-28T15:05:18Z</time>
      </trkpt>
      <trkpt lat="48.91853" lon="0.24234">
        <ele>266</ele>
        <time>2019-04-28T15:05:28Z</time>
      </trkpt>
      <trkpt lat="48.91849" lon="0.24241">
        <ele>266</ele>
        <time>2019-04-28T15:05:33Z</time>
      </trkpt>
      <trkpt lat="48.91845" lon="0.24248">
        <ele>267</ele>
        <time>2019-04-28T15:05:38Z</time>
      </trkpt>
      <trkpt lat="48.91841" lon="0.24256">
        <ele>267</ele>
        <time>2019-04-28T15:05:43Z</time>
      </trkpt>
      <trkpt lat="48.91837" lon="0.24265">
        <ele>270</ele>
        <time>2019-04-28T15:05:48Z</time>
      </trkpt>
      <trkpt lat="48.9183" lon="0.24279">
        <ele>270</ele>
        <time>2019-04-28T15:05:53Z</time>
      </trkpt>
      <trkpt lat="48.91825" lon="0.24288">
        <ele>271</ele>
        <time>2019-04-28T15:06:03Z</time>
      </trkpt>
      <trkpt lat="48.91819" lon="0.24297">
        <ele>269</ele>
        <time>2019-04-28T15:06:13Z</time>
      </trkpt>
      <trkpt lat="48.91812" lon="0.24304">
        <ele>268</ele>
        <time>2019-04-28T15:06:18Z</time>
      </trkpt>
      <trkpt lat="48.91803" lon="0.24317">
        <ele>266</ele>
        <time>2019-04-28T15:06:28Z</time>
      </trkpt>
      <trkpt lat="48.91796" lon="0.24333">
        <ele>266</ele>
        <time>2019-04-28T15:06:38Z</time>
      </trkpt>
      <trkpt lat="48.91793" lon="0.24344">
        <ele>266</ele>
        <time>2019-04-28T15:06:43Z</time>
      </trkpt>
      <trkpt lat="48.91791" lon="0.24363">
        <ele>264</ele>
        <time>2019-04-28T15:06:53Z</time>
      </trkpt>
      <trkpt lat="48.91791" lon="0.24382">
        <ele>261</ele>
        <time>2019-04-28T15:07:03Z</time>
      </trkpt>
      <trkpt lat="48.9179" lon="0.24395">
        <ele>261</ele>
        <time>2019-04-28T15:07:08Z</time>
      </trkpt>
      <trkpt lat="48.91787" lon="0.24413">
        <ele>261</ele>
        <time>2019-04-28T15:07:18Z</time>
      </trkpt>
      <trkpt lat="48.91783" lon="0.24426">
        <ele>262</ele>
        <time>2019-04-28T15:07:23Z</time>
      </trkpt>
      <trkpt lat="48.91777" lon="0.24441">
        <ele>264</ele>
        <time>2019-04-28T15:07:33Z</time>
      </trkpt>
      <trkpt lat="48.9177" lon="0.24457">
        <ele>263</ele>
        <time>2019-04-28T15:07:43Z</time>
      </trkpt>
      <trkpt lat="48.91767" lon="0.24468">
        <ele>263</ele>
        <time>2019-04-28T15:07:48Z</time>
      </trkpt>
      <trkpt lat="48.91767" lon="0.24478">
        <ele>261</ele>
        <time>2019-04-28T15:07:53Z</time>
      </trkpt>
      <trkpt lat="48.9177" lon="0.24492">
        <ele>260</ele>
        <time>2019-04-28T15:08:03Z</time>
      </trkpt>
      <trkpt lat="48.91773" lon="0.24502">
        <ele>260</ele>
        <time>2019-04-28T15:08:08Z</time>
      </trkpt>
      <trkpt lat="48.91777" lon="0.24516">
        <ele>261</ele>
        <time>2019-04-28T15:08:18Z</time>
      </trkpt>
      <trkpt lat="48.91781" lon="0.24531">
        <ele>262</ele>
        <time>2019-04-28T15:08:28Z</time>
      </trkpt>
      <trkpt lat="48.91784" lon="0.24549">
        <ele>263</ele>
        <time>2019-04-28T15:08:38Z</time>
      </trkpt>
      <trkpt lat="48.91786" lon="0.24564">
        <ele>263</ele>
        <time>2019-04-28T15:08:48Z</time>
      </trkpt>
      <trkpt lat="48.91789" lon="0.24582">
        <ele>264</ele>
        <time>2019-04-28T15:08:58Z</time>
      </trkpt>
      <trkpt lat="48.91791" lon="0.24596">
        <ele>265</ele>
        <time>2019-04-28T15:09:03Z</time>
      </trkpt>
      <trkpt lat="48.91795" lon="0.24616">
        <ele>266</ele>
        <time>2019-04-28T15:09:13Z</time>
      </trkpt>
      <trkpt lat="48.91799" lon="0.2463">
        <ele>267</ele>
        <time>2019-04-28T15:09:18Z</time>
      </trkpt>
      <trkpt lat="48.91803" lon="0.2465">
        <ele>270</ele>
        <time>2019-04-28T15:09:28Z</time>
      </trkpt>
      <trkpt lat="48.91807" lon="0.24664">
        <ele>270</ele>
        <time>2019-04-28T15:09:33Z</time>
      </trkpt>
      <trkpt lat="48.91811" lon="0.24676">
        <ele>270</ele>
        <time>2019-04-28T15:09:38Z</time>
      </trkpt>
      <trkpt lat="48.91818" lon="0.24694">
        <ele>268</ele>
        <time>2019-04-28T15:09:48Z</time>
      </trkpt>
      <trkpt lat="48.91823" lon="0.2471">
        <ele>263</ele>
        <time>2019-04-28T15:09:58Z</time>
      </trkpt>
      <trkpt lat="48.9183" lon="0.24726">
        <ele>260</ele>
        <time>2019-04-28T15:10:08Z</time>
      </trkpt>
      <trkpt lat="48.91835" lon="0.24738">
        <ele>260</ele>
        <time>2019-04-28T15:10:13Z</time>
      </trkpt>
      <trkpt lat="48.91839" lon="0.24748">
        <ele>258</ele>
        <time>2019-04-28T15:10:18Z</time>
      </trkpt>
      <trkpt lat="48.91846" lon="0.24763">
        <ele>256</ele>
        <time>2019-04-28T15:10:28Z</time>
      </trkpt>
      <trkpt lat="48.91856" lon="0.24775">
        <ele>256</ele>
        <time>2019-04-28T15:10:38Z</time>
      </trkpt>
      <trkpt lat="48.91864" lon="0.24789">
        <ele>256</ele>
        <time>2019-04-28T15:10:48Z</time>
      </trkpt>
      <trkpt lat="48.9187" lon="0.24799">
        <ele>255</ele>
        <time>2019-04-28T15:10:53Z</time>
      </trkpt>
      <trkpt lat="48.91878" lon="0.24812">
        <ele>255</ele>
        <time>2019-04-28T15:11:03Z</time>
      </trkpt>
      <trkpt lat="48.91883" lon="0.24823">
        <ele>256</ele>
        <time>2019-04-28T15:11:08Z</time>
      </trkpt>
      <trkpt lat="48.91887" lon="0.24832">
        <ele>256</ele>
        <time>2019-04-28T15:11:13Z</time>
      </trkpt>
      <trkpt lat="48.91892" lon="0.24845">
        <ele>257</ele>
        <time>2019-04-28T15:11:23Z</time>
      </trkpt>
      <trkpt lat="48.91896" lon="0.24855">
        <ele>257</ele>
        <time>2019-04-28T15:11:28Z</time>
      </trkpt>
      <trkpt lat="48.91899" lon="0.24864">
        <ele>258</ele>
        <time>2019-04-28T15:11:33Z</time>
      </trkpt>
      <trkpt lat="48.91904" lon="0.24877">
        <ele>258</ele>
        <time>2019-04-28T15:11:43Z</time>
      </trkpt>
      <trkpt lat="48.9191" lon="0.24895">
        <ele>256</ele>
        <time>2019-04-28T15:11:53Z</time>
      </trkpt>
      <trkpt lat="48.91911" lon="0.24909">
        <ele>256</ele>
        <time>2019-04-28T15:11:58Z</time>
      </trkpt>
      <trkpt lat="48.91906" lon="0.24926">
        <ele>253</ele>
        <time>2019-04-28T15:12:08Z</time>
      </trkpt>
      <trkpt lat="48.91901" lon="0.24936">
        <ele>253</ele>
        <time>2019-04-28T15:12:13Z</time>
      </trkpt>
      <trkpt lat="48.91894" lon="0.24944">
        <ele>252</ele>
        <time>2019-04-28T15:12:23Z</time>
      </trkpt>
      <trkpt lat="48.91884" lon="0.24954">
        <ele>252</ele>
        <time>2019-04-28T15:12:33Z</time>
      </trkpt>
      <trkpt lat="48.9188" lon="0.24958">
        <ele>252</ele>
        <time>2019-04-28T15:12:38Z</time>
      </trkpt>
      <trkpt lat="48.91879" lon="0.24959">
        <ele>252</ele>
        <time>2019-04-28T15:12:43Z</time>
      </trkpt>
      <trkpt lat="48.91878" lon="0.2496">
        <ele>252</ele>
        <time>2019-04-28T15:12:48Z</time>
      </trkpt>
      <trkpt lat="48.91878" lon="0.2496">
        <ele>252</ele>
        <time>2019-04-28T15:12:58Z</time>
      </trkpt>
      <trkpt lat="48.91878" lon="0.2496">
        <ele>252</ele>
        <time>2019-04-28T15:13:03Z</time>
      </trkpt>
      <trkpt lat="48.91878" lon="0.2496">
        <ele>252</ele>
        <time>2019-04-28T15:13:13Z</time>
      </trkpt>
      <trkpt lat="48.91877" lon="0.2496">
        <ele>253</ele>
        <time>2019-04-28T15:13:18Z</time>
      </trkpt>
      <trkpt lat="48.91874" lon="0.24964">
        <ele>252</ele>
        <time>2019-04-28T15:13:28Z</time>
      </trkpt>
      <trkpt lat="48.9187" lon="0.24969">
        <ele>252</ele>
        <time>2019-04-28T15:13:33Z</time>
      </trkpt>
      <trkpt lat="48.91867" lon="0.24974">
        <ele>252</ele>
        <time>2019-04-28T15:13:38Z</time>
      </trkpt>
      <trkpt lat="48.91863" lon="0.2498">
        <ele>251</ele>
        <time>2019-04-28T15:13:43Z</time>
      </trkpt>
      <trkpt lat="48.91856" lon="0.24985">
        <ele>251</ele>
        <time>2019-04-28T15:13:53Z</time>
      </trkpt>
      <trkpt lat="48.9185" lon="0.24991">
        <ele>252</ele>
        <time>2019-04-28T15:13:58Z</time>
      </trkpt>
      <trkpt lat="48.91843" lon="0.24997">
        <ele>252</ele>
        <time>2019-04-28T15:14:08Z</time>
      </trkpt>
      <trkpt lat="48.91839" lon="0.25001">
        <ele>252</ele>
        <time>2019-04-28T15:14:13Z</time>
      </trkpt>
      <trkpt lat="48.91836" lon="0.25005">
        <ele>253</ele>
        <time>2019-04-28T15:14:18Z</time>
      </trkpt>
      <trkpt lat="48.91826" lon="0.25015">
        <ele>254</ele>
        <time>2019-04-28T15:14:23Z</time>
      </trkpt>
      <trkpt lat="48.91822" lon="0.2502">
        <ele>254</ele>
        <time>2019-04-28T15:14:28Z</time>
      </trkpt>
      <trkpt lat="48.91816" lon="0.25027">
        <ele>255</ele>
        <time>2019-04-28T15:14:38Z</time>
      </trkpt>
      <trkpt lat="48.9181" lon="0.25033">
        <ele>256</ele>
        <time>2019-04-28T15:14:43Z</time>
      </trkpt>
      <trkpt lat="48.91801" lon="0.25042">
        <ele>257</ele>
        <time>2019-04-28T15:14:53Z</time>
      </trkpt>
      <trkpt lat="48.91792" lon="0.25051">
        <ele>258</ele>
        <time>2019-04-28T15:15:03Z</time>
      </trkpt>
      <trkpt lat="48.91782" lon="0.2506">
        <ele>258</ele>
        <time>2019-04-28T15:15:13Z</time>
      </trkpt>
      <trkpt lat="48.91772" lon="0.25068">
        <ele>258</ele>
        <time>2019-04-28T15:15:23Z</time>
      </trkpt>
      <trkpt lat="48.91764" lon="0.25073">
        <ele>256</ele>
        <time>2019-04-28T15:15:28Z</time>
      </trkpt>
      <trkpt lat="48.9176" lon="0.25076">
        <ele>257</ele>
        <time>2019-04-28T15:15:33Z</time>
      </trkpt>
      <trkpt lat="48.91753" lon="0.25081">
        <ele>258</ele>
        <time>2019-04-28T15:15:43Z</time>
      </trkpt>
      <trkpt lat="48.91744" lon="0.25088">
        <ele>257</ele>
        <time>2019-04-28T15:15:53Z</time>
      </trkpt>
      <trkpt lat="48.91735" lon="0.25093">
        <ele>258</ele>
        <time>2019-04-28T15:16:03Z</time>
      </trkpt>
      <trkpt lat="48.91728" lon="0.25097">
        <ele>258</ele>
        <time>2019-04-28T15:16:08Z</time>
      </trkpt>
      <trkpt lat="48.91722" lon="0.25101">
        <ele>259</ele>
        <time>2019-04-28T15:16:13Z</time>
      </trkpt>
      <trkpt lat="48.91712" lon="0.25106">
        <ele>260</ele>
        <time>2019-04-28T15:16:23Z</time>
      </trkpt>
      <trkpt lat="48.91705" lon="0.2511">
        <ele>260</ele>
        <time>2019-04-28T15:16:28Z</time>
      </trkpt>
      <trkpt lat="48.91699" lon="0.25114">
        <ele>260</ele>
        <time>2019-04-28T15:16:33Z</time>
      </trkpt>
      <trkpt lat="48.91685" lon="0.25121">
        <ele>261</ele>
        <time>2019-04-28T15:16:43Z</time>
      </trkpt>
      <trkpt lat="48.91675" lon="0.25125">
        <ele>261</ele>
        <time>2019-04-28T15:16:53Z</time>
      </trkpt>
      <trkpt lat="48.9167" lon="0.25127">
        <ele>261</ele>
        <time>2019-04-28T15:16:58Z</time>
      </trkpt>
      <trkpt lat="48.91665" lon="0.25129">
        <ele>261</ele>
        <time>2019-04-28T15:17:03Z</time>
      </trkpt>
      <trkpt lat="48.91657" lon="0.25132">
        <ele>261</ele>
        <time>2019-04-28T15:17:13Z</time>
      </trkpt>
      <trkpt lat="48.9165" lon="0.25133">
        <ele>261</ele>
        <time>2019-04-28T15:17:18Z</time>
      </trkpt>
      <trkpt lat="48.91637" lon="0.25136">
        <ele>262</ele>
        <time>2019-04-28T15:17:28Z</time>
      </trkpt>
      <trkpt lat="48.91628" lon="0.25139">
        <ele>262</ele>
        <time>2019-04-28T15:17:33Z</time>
      </trkpt>
      <trkpt lat="48.91621" lon="0.25142">
        <ele>263</ele>
        <time>2019-04-28T15:17:43Z</time>
      </trkpt>
      <trkpt lat="48.91611" lon="0.25145">
        <ele>263</ele>
        <time>2019-04-28T15:17:53Z</time>
      </trkpt>
      <trkpt lat="48.91601" lon="0.25145">
        <ele>263</ele>
        <time>2019-04-28T15:17:58Z</time>
      </trkpt>
      <trkpt lat="48.91592" lon="0.25144">
        <ele>265</ele>
        <time>2019-04-28T15:18:03Z</time>
      </trkpt>
      <trkpt lat="48.91582" lon="0.25142">
        <ele>265</ele>
        <time>2019-04-28T15:18:13Z</time>
      </trkpt>
      <trkpt lat="48.91571" lon="0.25145">
        <ele>266</ele>
        <time>2019-04-28T15:18:23Z</time>
      </trkpt>
      <trkpt lat="48.91565" lon="0.25148">
        <ele>266</ele>
        <time>2019-04-28T15:18:28Z</time>
      </trkpt>
      <trkpt lat="48.91552" lon="0.25159">
        <ele>266</ele>
        <time>2019-04-28T15:18:38Z</time>
      </trkpt>
      <trkpt lat="48.91546" lon="0.25164">
        <ele>266</ele>
        <time>2019-04-28T15:18:43Z</time>
      </trkpt>
      <trkpt lat="48.91536" lon="0.2517">
        <ele>265</ele>
        <time>2019-04-28T15:18:53Z</time>
      </trkpt>
      <trkpt lat="48.91529" lon="0.25174">
        <ele>266</ele>
        <time>2019-04-28T15:19:03Z</time>
      </trkpt>
      <trkpt lat="48.91523" lon="0.25177">
        <ele>268</ele>
        <time>2019-04-28T15:19:08Z</time>
      </trkpt>
      <trkpt lat="48.91511" lon="0.2518">
        <ele>268</ele>
        <time>2019-04-28T15:19:13Z</time>
      </trkpt>
      <trkpt lat="48.91503" lon="0.25184">
        <ele>267</ele>
        <time>2019-04-28T15:19:23Z</time>
      </trkpt>
      <trkpt lat="48.91492" lon="0.25191">
        <ele>265</ele>
        <time>2019-04-28T15:19:33Z</time>
      </trkpt>
      <trkpt lat="48.91484" lon="0.25197">
        <ele>265</ele>
        <time>2019-04-28T15:19:38Z</time>
      </trkpt>
      <trkpt lat="48.91473" lon="0.25205">
        <ele>264</ele>
        <time>2019-04-28T15:19:48Z</time>
      </trkpt>
      <trkpt lat="48.91463" lon="0.25213">
        <ele>264</ele>
        <time>2019-04-28T15:19:58Z</time>
      </trkpt>
      <trkpt lat="48.91457" lon="0.25219">
        <ele>264</ele>
        <time>2019-04-28T15:20:03Z</time>
      </trkpt>
      <trkpt lat="48.91451" lon="0.25225">
        <ele>263</ele>
        <time>2019-04-28T15:20:08Z</time>
      </trkpt>
      <trkpt lat="48.91442" lon="0.25237">
        <ele>263</ele>
        <time>2019-04-28T15:20:18Z</time>
      </trkpt>
      <trkpt lat="48.91433" lon="0.2525">
        <ele>263</ele>
        <time>2019-04-28T15:20:28Z</time>
      </trkpt>
      <trkpt lat="48.91425" lon="0.2526">
        <ele>263</ele>
        <time>2019-04-28T15:20:38Z</time>
      </trkpt>
      <trkpt lat="48.91412" lon="0.25273">
        <ele>261</ele>
        <time>2019-04-28T15:20:48Z</time>
      </trkpt>
      <trkpt lat="48.91407" lon="0.25282">
        <ele>262</ele>
        <time>2019-04-28T15:20:53Z</time>
      </trkpt>
      <trkpt lat="48.91404" lon="0.2529">
        <ele>260</ele>
        <time>2019-04-28T15:20:58Z</time>
      </trkpt>
      <trkpt lat="48.91397" lon="0.25302">
        <ele>259</ele>
        <time>2019-04-28T15:21:08Z</time>
      </trkpt>
      <trkpt lat="48.91391" lon="0.25311">
        <ele>259</ele>
        <time>2019-04-28T15:21:13Z</time>
      </trkpt>
      <trkpt lat="48.91388" lon="0.25323">
        <ele>259</ele>
        <time>2019-04-28T15:21:23Z</time>
      </trkpt>
      <trkpt lat="48.91385" lon="0.25332">
        <ele>259</ele>
        <time>2019-04-28T15:21:28Z</time>
      </trkpt>
      <trkpt lat="48.91383" lon="0.25338">
        <ele>258</ele>
        <time>2019-04-28T15:21:33Z</time>
      </trkpt>
      <trkpt lat="48.9138" lon="0.25344">
        <ele>258</ele>
        <time>2019-04-28T15:21:38Z</time>
      </trkpt>
      <trkpt lat="48.91371" lon="0.25358">
        <ele>258</ele>
        <time>2019-04-28T15:21:48Z</time>
      </trkpt>
      <trkpt lat="48.91366" lon="0.25367">
        <ele>257</ele>
        <time>2019-04-28T15:21:53Z</time>
      </trkpt>
      <trkpt lat="48.91359" lon="0.25374">
        <ele>258</ele>
        <time>2019-04-28T15:21:58Z</time>
      </trkpt>
      <trkpt lat="48.9135" lon="0.25377">
        <ele>257</ele>
        <time>2019-04-28T15:22:08Z</time>
      </trkpt>
      <trkpt lat="48.91342" lon="0.25376">
        <ele>258</ele>
        <time>2019-04-28T15:22:13Z</time>
      </trkpt>
      <trkpt lat="48.91334" lon="0.25374">
        <ele>259</ele>
        <time>2019-04-28T15:22:18Z</time>
      </trkpt>
      <trkpt lat="48.91326" lon="0.25372">
        <ele>260</ele>
        <time>2019-04-28T15:22:28Z</time>
      </trkpt>
      <trkpt lat="48.91316" lon="0.2537">
        <ele>261</ele>
        <time>2019-04-28T15:22:38Z</time>
      </trkpt>
      <trkpt lat="48.9131" lon="0.25369">
        <ele>261</ele>
        <time>2019-04-28T15:22:43Z</time>
      </trkpt>
      <trkpt lat="48.91301" lon="0.25369">
        <ele>262</ele>
        <time>2019-04-28T15:22:48Z</time>
      </trkpt>
      <trkpt lat="48.9129" lon="0.25369">
        <ele>263</ele>
        <time>2019-04-28T15:22:58Z</time>
      </trkpt>
      <trkpt lat="48.91281" lon="0.25369">
        <ele>263</ele>
        <time>2019-04-28T15:23:03Z</time>
      </trkpt>
      <trkpt lat="48.91274" lon="0.25369">
        <ele>263</ele>
        <time>2019-04-28T15:23:08Z</time>
      </trkpt>
      <trkpt lat="48.91265" lon="0.25371">
        <ele>265</ele>
        <time>2019-04-28T15:23:18Z</time>
      </trkpt>
      <trkpt lat="48.91252" lon="0.25375">
        <ele>265</ele>
        <time>2019-04-28T15:23:28Z</time>
      </trkpt>
      <trkpt lat="48.91243" lon="0.25375">
        <ele>264</ele>
        <time>2019-04-28T15:23:33Z</time>
      </trkpt>
      <trkpt lat="48.91232" lon="0.25374">
        <ele>262</ele>
        <time>2019-04-28T15:23:43Z</time>
      </trkpt>
      <trkpt lat="48.9122" lon="0.25371">
        <ele>262</ele>
        <time>2019-04-28T15:23:53Z</time>
      </trkpt>
      <trkpt lat="48.91213" lon="0.25368">
        <ele>261</ele>
        <time>2019-04-28T15:23:58Z</time>
      </trkpt>
      <trkpt lat="48.91206" lon="0.25364">
        <ele>261</ele>
        <time>2019-04-28T15:24:03Z</time>
      </trkpt>
      <trkpt lat="48.91197" lon="0.25359">
        <ele>264</ele>
        <time>2019-04-28T15:24:13Z</time>
      </trkpt>
      <trkpt lat="48.91188" lon="0.25352">
        <ele>265</ele>
        <time>2019-04-28T15:24:23Z</time>
      </trkpt>
      <trkpt lat="48.91176" lon="0.2534">
        <ele>265</ele>
        <time>2019-04-28T15:24:33Z</time>
      </trkpt>
      <trkpt lat="48.91169" lon="0.25333">
        <ele>263</ele>
        <time>2019-04-28T15:24:38Z</time>
      </trkpt>
      <trkpt lat="48.91163" lon="0.25326">
        <ele>263</ele>
        <time>2019-04-28T15:24:43Z</time>
      </trkpt>
      <trkpt lat="48.91155" lon="0.25316">
        <ele>262</ele>
        <time>2019-04-28T15:24:53Z</time>
      </trkpt>
      <trkpt lat="48.91145" lon="0.25305">
        <ele>262</ele>
        <time>2019-04-28T15:25:03Z</time>
      </trkpt>
      <trkpt lat="48.91135" lon="0.25295">
        <ele>261</ele>
        <time>2019-04-28T15:25:13Z</time>
      </trkpt>
      <trkpt lat="48.9112" lon="0.2528">
        <ele>260</ele>
        <time>2019-04-28T15:25:23Z</time>
      </trkpt>
      <trkpt lat="48.91114" lon="0.25274">
        <ele>261</ele>
        <time>2019-04-28T15:25:28Z</time>
      </trkpt>
      <trkpt lat="48.9111" lon="0.25271">
        <ele>261</ele>
        <time>2019-04-28T15:25:33Z</time>
      </trkpt>
      <trkpt lat="48.91103" lon="0.25267">
        <ele>261</ele>
        <time>2019-04-28T15:25:43Z</time>
      </trkpt>
      <trkpt lat="48.91091" lon="0.2526">
        <ele>261</ele>
        <time>2019-04-28T15:25:53Z</time>
      </trkpt>
      <trkpt lat="48.91084" lon="0.25256">
        <ele>262</ele>
        <time>2019-04-28T15:25:58Z</time>
      </trkpt>
      <trkpt lat="48.91078" lon="0.25253">
        <ele>262</ele>
        <time>2019-04-28T15:26:03Z</time>
      </trkpt>
      <trkpt lat="48.9106" lon="0.25243">
        <ele>263</ele>
        <time>2019-04-28T15:26:13Z</time>
      </trkpt>
      <trkpt lat="48.91053" lon="0.25239">
        <ele>263</ele>
        <time>2019-04-28T15:26:18Z</time>
      </trkpt>
      <trkpt lat="48.91043" lon="0.25233">
        <ele>262</ele>
        <time>2019-04-28T15:26:28Z</time>
      </trkpt>
      <trkpt lat="48.91037" lon="0.25229">
        <ele>261</ele>
        <time>2019-04-28T15:26:33Z</time>
      </trkpt>
      <trkpt lat="48.91029" lon="0.25224">
        <ele>262</ele>
        <time>2019-04-28T15:26:43Z</time>
      </trkpt>
      <trkpt lat="48.91019" lon="0.2522">
        <ele>264</ele>
        <time>2019-04-28T15:26:53Z</time>
      </trkpt>
      <trkpt lat="48.91012" lon="0.25218">
        <ele>264</ele>
        <time>2019-04-28T15:26:58Z</time>
      </trkpt>
      <trkpt lat="48.90997" lon="0.25213">
        <ele>263</ele>
        <time>2019-04-28T15:27:08Z</time>
      </trkpt>
      <trkpt lat="48.9098" lon="0.25207">
        <ele>265</ele>
        <time>2019-04-28T15:27:18Z</time>
      </trkpt>
      <trkpt lat="48.90967" lon="0.25204">
        <ele>265</ele>
        <time>2019-04-28T15:27:28Z</time>
      </trkpt>
      <trkpt lat="48.9096" lon="0.25202">
        <ele>265</ele>
        <time>2019-04-28T15:27:33Z</time>
      </trkpt>
      <trkpt lat="48.90949" lon="0.25198">
        <ele>265</ele>
        <time>2019-04-28T15:27:43Z</time>
      </trkpt>
      <trkpt lat="48.90934" lon="0.25194">
        <ele>263</ele>
        <time>2019-04-28T15:27:53Z</time>
      </trkpt>
      <trkpt lat="48.90921" lon="0.25192">
        <ele>263</ele>
        <time>2019-04-28T15:27:58Z</time>
      </trkpt>
      <trkpt lat="48.90913" lon="0.25188">
        <ele>262</ele>
        <time>2019-04-28T15:28:03Z</time>
      </trkpt>
      <trkpt lat="48.90904" lon="0.2518">
        <ele>262</ele>
        <time>2019-04-28T15:28:13Z</time>
      </trkpt>
      <trkpt lat="48.90893" lon="0.25173">
        <ele>262</ele>
        <time>2019-04-28T15:28:23Z</time>
      </trkpt>
      <trkpt lat="48.90882" lon="0.25168">
        <ele>264</ele>
        <time>2019-04-28T15:28:33Z</time>
      </trkpt>
      <trkpt lat="48.90876" lon="0.25167">
        <ele>264</ele>
        <time>2019-04-28T15:28:38Z</time>
      </trkpt>
      <trkpt lat="48.90872" lon="0.25166">
        <ele>264</ele>
        <time>2019-04-28T15:28:43Z</time>
      </trkpt>
      <trkpt lat="48.90867" lon="0.25166">
        <ele>265</ele>
        <time>2019-04-28T15:28:48Z</time>
      </trkpt>
      <trkpt lat="48.90857" lon="0.25164">
        <ele>264</ele>
        <time>2019-04-28T15:28:58Z</time>
      </trkpt>
      <trkpt lat="48.90844" lon="0.25167">
        <ele>261</ele>
        <time>2019-04-28T15:29:08Z</time>
      </trkpt>
      <trkpt lat="48.90831" lon="0.25174">
        <ele>260</ele>
        <time>2019-04-28T15:29:18Z</time>
      </trkpt>
      <trkpt lat="48.90817" lon="0.25185">
        <ele>262</ele>
        <time>2019-04-28T15:29:28Z</time>
      </trkpt>
      <trkpt lat="48.90803" lon="0.25194">
        <ele>262</ele>
        <time>2019-04-28T15:29:38Z</time>
      </trkpt>
      <trkpt lat="48.90796" lon="0.25199">
        <ele>263</ele>
        <time>2019-04-28T15:29:43Z</time>
      </trkpt>
      <trkpt lat="48.90789" lon="0.25198">
        <ele>263</ele>
        <time>2019-04-28T15:29:53Z</time>
      </trkpt>
      <trkpt lat="48.90786" lon="0.25195">
        <ele>263</ele>
        <time>2019-04-28T15:29:58Z</time>
      </trkpt>
      <trkpt lat="48.90783" lon="0.25188">
        <ele>262</ele>
        <time>2019-04-28T15:30:03Z</time>
      </trkpt>
      <trkpt lat="48.90781" lon="0.25176">
        <ele>261</ele>
        <time>2019-04-28T15:30:13Z</time>
      </trkpt>
      <trkpt lat="48.90779" lon="0.25166">
        <ele>262</ele>
        <time>2019-04-28T15:30:18Z</time>
      </trkpt>
      <trkpt lat="48.90777" lon="0.25159">
        <ele>262</ele>
        <time>2019-04-28T15:30:23Z</time>
      </trkpt>
      <trkpt lat="48.90773" lon="0.25153">
        <ele>266</ele>
        <time>2019-04-28T15:30:28Z</time>
      </trkpt>
      <trkpt lat="48.9077" lon="0.25151">
        <ele>267</ele>
        <time>2019-04-28T15:30:33Z</time>
      </trkpt>
      <trkpt lat="48.90766" lon="0.25147">
        <ele>267</ele>
        <time>2019-04-28T15:30:38Z</time>
      </trkpt>
      <trkpt lat="48.90761" lon="0.25145">
        <ele>267</ele>
        <time>2019-04-28T15:30:43Z</time>
      </trkpt>
      <trkpt lat="48.90753" lon="0.25148">
        <ele>265</ele>
        <time>2019-04-28T15:30:53Z</time>
      </trkpt>
      <trkpt lat="48.9074" lon="0.25158">
        <ele>265</ele>
        <time>2019-04-28T15:31:03Z</time>
      </trkpt>
      <trkpt lat="48.90729" lon="0.25169">
        <ele>266</ele>
        <time>2019-04-28T15:31:13Z</time>
      </trkpt>
      <trkpt lat="48.90721" lon="0.25176">
        <ele>266</ele>
        <time>2019-04-28T15:31:18Z</time>
      </trkpt>
      <trkpt lat="48.9071" lon="0.25186">
        <ele>265</ele>
        <time>2019-04-28T15:31:28Z</time>
      </trkpt>
      <trkpt lat="48.90699" lon="0.25195">
        <ele>266</ele>
        <time>2019-04-28T15:31:38Z</time>
      </trkpt>
      <trkpt lat="48.90686" lon="0.25201">
        <ele>264</ele>
        <time>2019-04-28T15:31:48Z</time>
      </trkpt>
      <trkpt lat="48.90675" lon="0.25211">
        <ele>263</ele>
        <time>2019-04-28T15:31:58Z</time>
      </trkpt>
      <trkpt lat="48.90667" lon="0.25218">
        <ele>263</ele>
        <time>2019-04-28T15:32:03Z</time>
      </trkpt>
      <trkpt lat="48.90661" lon="0.25224">
        <ele>262</ele>
        <time>2019-04-28T15:32:08Z</time>
      </trkpt>
      <trkpt lat="48.90651" lon="0.25232">
        <ele>263</ele>
        <time>2019-04-28T15:32:18Z</time>
      </trkpt>
      <trkpt lat="48.90643" lon="0.25239">
        <ele>262</ele>
        <time>2019-04-28T15:32:23Z</time>
      </trkpt>
      <trkpt lat="48.9063" lon="0.25248">
        <ele>263</ele>
        <time>2019-04-28T15:32:33Z</time>
      </trkpt>
      <trkpt lat="48.9062" lon="0.25254">
        <ele>263</ele>
        <time>2019-04-28T15:32:38Z</time>
      </trkpt>
      <trkpt lat="48.90611" lon="0.25261">
        <ele>263</ele>
        <time>2019-04-28T15:32:48Z</time>
      </trkpt>
      <trkpt lat="48.90602" lon="0.25268">
        <ele>263</ele>
        <time>2019-04-28T15:32:58Z</time>
      </trkpt>
      <trkpt lat="48.906" lon="0.25276">
        <ele>264</ele>
        <time>2019-04-28T15:33:08Z</time>
      </trkpt>
      <trkpt lat="48.90602" lon="0.25284">
        <ele>265</ele>
        <time>2019-04-28T15:33:14Z</time>
      </trkpt>
      <trkpt lat="48.90603" lon="0.25287">
        <ele>265</ele>
        <time>2019-04-28T15:33:22Z</time>
      </trkpt>
      <trkpt lat="48.90603" lon="0.25287">
        <ele>265</ele>
        <time>2019-04-28T15:33:27Z</time>
      </trkpt>
      <trkpt lat="48.90601" lon="0.25285">
        <ele>264</ele>
        <time>2019-04-28T15:33:34Z</time>
      </trkpt>
      <trkpt lat="48.90601" lon="0.25284">
        <ele>263</ele>
        <time>2019-04-28T15:33:42Z</time>
      </trkpt>
      <trkpt lat="48.90603" lon="0.25287">
        <ele>263</ele>
        <time>2019-04-28T15:33:47Z</time>
      </trkpt>
      <trkpt lat="48.90606" lon="0.25289">
        <ele>263</ele>
        <time>2019-04-28T15:33:52Z</time>
      </trkpt>
      <trkpt lat="48.9061" lon="0.25291">
        <ele>262</ele>
        <time>2019-04-28T15:33:57Z</time>
      </trkpt>
      <trkpt lat="48.9062" lon="0.25299">
        <ele>262</ele>
        <time>2019-04-28T15:34:07Z</time>
      </trkpt>
      <trkpt lat="48.90627" lon="0.25306">
        <ele>262</ele>
        <time>2019-04-28T15:34:12Z</time>
      </trkpt>
      <trkpt lat="48.90642" lon="0.2532">
        <ele>262</ele>
        <time>2019-04-28T15:34:22Z</time>
      </trkpt>
      <trkpt lat="48.9065" lon="0.25325">
        <ele>262</ele>
        <time>2019-04-28T15:34:27Z</time>
      </trkpt>
      <trkpt lat="48.90654" lon="0.25327">
        <ele>262</ele>
        <time>2019-04-28T15:34:32Z</time>
      </trkpt>
      <trkpt lat="48.90655" lon="0.25327">
        <ele>262</ele>
        <time>2019-04-28T15:34:42Z</time>
      </trkpt>
      <trkpt lat="48.90656" lon="0.25327">
        <ele>263</ele>
        <time>2019-04-28T15:34:47Z</time>
      </trkpt>
      <trkpt lat="48.90658" lon="0.25326">
        <ele>263</ele>
        <time>2019-04-28T15:34:57Z</time>
      </trkpt>
      <trkpt lat="48.90658" lon="0.25325">
        <ele>263</ele>
        <time>2019-04-28T15:35:02Z</time>
      </trkpt>
      <trkpt lat="48.90658" lon="0.25325">
        <ele>263</ele>
        <time>2019-04-28T15:35:12Z</time>
      </trkpt>
      <trkpt lat="48.90658" lon="0.25325">
        <ele>263</ele>
        <time>2019-04-28T15:35:17Z</time>
      </trkpt>
      <trkpt lat="48.90658" lon="0.25325">
        <ele>263</ele>
        <time>2019-04-28T15:35:27Z</time>
      </trkpt>
      <trkpt lat="48.90659" lon="0.25325">
        <ele>263</ele>
        <time>2019-04-28T15:35:32Z</time>
      </trkpt>
      <trkpt lat="48.90659" lon="0.25325">
        <ele>263</ele>
        <time>2019-04-28T15:35:37Z</time>
      </trkpt>
      <trkpt lat="48.90659" lon="0.25326">
        <ele>262</ele>
        <time>2019-04-28T15:35:47Z</time>
      </trkpt>
      <trkpt lat="48.90659" lon="0.25326">
        <ele>262</ele>
        <time>2019-04-28T15:35:52Z</time>
      </trkpt>
      <trkpt lat="48.90659" lon="0.25326">
        <ele>262</ele>
        <time>2019-04-28T15:36:02Z</time>
      </trkpt>
      <trkpt lat="48.90659" lon="0.25326">
        <ele>262</ele>
        <time>2019-04-28T15:36:07Z</time>
      </trkpt>
      <trkpt lat="48.90659" lon="0.25326">
        <ele>262</ele>
        <time>2019-04-28T15:36:12Z</time>
      </trkpt>
      <trkpt lat="48.90659" lon="0.25326">
        <ele>262</ele>
        <time>2019-04-28T15:36:17Z</time>
      </trkpt>
      <trkpt lat="48.90659" lon="0.25326">
        <ele>262</ele>
        <time>2019-04-28T15:36:27Z</time>
      </trkpt>
      <trkpt lat="48.90659" lon="0.25326">
        <ele>262</ele>
        <time>2019-04-28T15:36:37Z</time>
      </trkpt>
      <trkpt lat="48.90659" lon="0.25328">
        <ele>263</ele>
        <time>2019-04-28T15:36:47Z</time>
      </trkpt>
      <trkpt lat="48.9066" lon="0.25329">
        <ele>264</ele>
        <time>2019-04-28T15:36:52Z</time>
      </trkpt>
      <trkpt lat="48.9066" lon="0.25334">
        <ele>263</ele>
        <time>2019-04-28T15:37:02Z</time>
      </trkpt>
      <trkpt lat="48.90661" lon="0.25336">
        <ele>263</ele>
        <time>2019-04-28T15:37:07Z</time>
      </trkpt>
      <trkpt lat="48.90662" lon="0.25339">
        <ele>263</ele>
        <time>2019-04-28T15:37:17Z</time>
      </trkpt>
      <trkpt lat="48.90663" lon="0.25341">
        <ele>263</ele>
        <time>2019-04-28T15:37:27Z</time>
      </trkpt>
      <trkpt lat="48.90663" lon="0.25341">
        <ele>263</ele>
        <time>2019-04-28T15:37:32Z</time>
      </trkpt>
      <trkpt lat="48.90663" lon="0.25342">
        <ele>263</ele>
        <time>2019-04-28T15:37:42Z</time>
      </trkpt>
      <trkpt lat="48.90663" lon="0.25342">
        <ele>263</ele>
        <time>2019-04-28T15:37:52Z</time>
      </trkpt>
      <trkpt lat="48.90663" lon="0.25342">
        <ele>263</ele>
        <time>2019-04-28T15:37:57Z</time>
      </trkpt>
      <trkpt lat="48.90663" lon="0.25342">
        <ele>263</ele>
        <time>2019-04-28T15:38:02Z</time>
      </trkpt>
      <trkpt lat="48.90664" lon="0.25342">
        <ele>263</ele>
        <time>2019-04-28T15:38:12Z</time>
      </trkpt>
      <trkpt lat="48.90664" lon="0.25343">
        <ele>263</ele>
        <time>2019-04-28T15:38:22Z</time>
      </trkpt>
      <trkpt lat="48.90664" lon="0.25343">
        <ele>263</ele>
        <time>2019-04-28T15:38:27Z</time>
      </trkpt>
      <trkpt lat="48.90664" lon="0.25343">
        <ele>263</ele>
        <time>2019-04-28T15:38:37Z</time>
      </trkpt>
      <trkpt lat="48.90665" lon="0.25343">
        <ele>263</ele>
        <time>2019-04-28T15:38:42Z</time>
      </trkpt>
      <trkpt lat="48.90665" lon="0.25343">
        <ele>263</ele>
        <time>2019-04-28T15:38:52Z</time>
      </trkpt>
      <trkpt lat="48.90665" lon="0.25343">
        <ele>263</ele>
        <time>2019-04-28T15:38:57Z</time>
      </trkpt>
      <trkpt lat="48.90665" lon="0.25343">
        <ele>263</ele>
        <time>2019-04-28T15:39:02Z</time>
      </trkpt>
      <trkpt lat="48.90665" lon="0.25343">
        <ele>263</ele>
        <time>2019-04-28T15:39:07Z</time>
      </trkpt>
      <trkpt lat="48.90665" lon="0.25343">
        <ele>263</ele>
        <time>2019-04-28T15:39:17Z</time>
      </trkpt>
      <trkpt lat="48.90665" lon="0.2534">
        <ele>262</ele>
        <time>2019-04-28T15:39:27Z</time>
      </trkpt>
      <trkpt lat="48.90665" lon="0.25338">
        <ele>262</ele>
        <time>2019-04-28T15:39:37Z</time>
      </trkpt>
      <trkpt lat="48.90665" lon="0.25338">
        <ele>262</ele>
        <time>2019-04-28T15:39:47Z</time>
      </trkpt>
      <trkpt lat="48.90665" lon="0.25337">
        <ele>262</ele>
        <time>2019-04-28T15:39:57Z</time>
      </trkpt>
      <trkpt lat="48.90665" lon="0.25337">
        <ele>262</ele>
        <time>2019-04-28T15:40:07Z</time>
      </trkpt>
      <trkpt lat="48.90665" lon="0.25337">
        <ele>262</ele>
        <time>2019-04-28T15:40:12Z</time>
      </trkpt>
      <trkpt lat="48.90665" lon="0.25337">
        <ele>262</ele>
        <time>2019-04-28T15:40:17Z</time>
      </trkpt>
      <trkpt lat="48.90665" lon="0.25337">
        <ele>262</ele>
        <time>2019-04-28T15:40:27Z</time>
      </trkpt>
      <trkpt lat="48.90665" lon="0.25337">
        <ele>262</ele>
        <time>2019-04-28T15:40:32Z</time>
      </trkpt>
      <trkpt lat="48.90665" lon="0.25337">
        <ele>262</ele>
        <time>2019-04-28T15:40:37Z</time>
      </trkpt>
      <trkpt lat="48.90665" lon="0.25337">
        <ele>262</ele>
        <time>2019-04-28T15:41:33Z</time>
      </trkpt>
      <trkpt lat="48.90665" lon="0.25338">
        <ele>262</ele>
        <time>2019-04-28T15:41:33Z</time>
      </trkpt>
      <trkpt lat="48.90665" lon="0.25338">
        <ele>262</ele>
        <time>2019-04-28T15:41:33Z</time>
      </trkpt>
      <trkpt lat="48.90665" lon="0.25338">
        <ele>262</ele>
        <time>2019-04-28T15:41:33Z</time>
      </trkpt>
      <trkpt lat="48.90665" lon="0.25338">
        <ele>262</ele>
        <time>2019-04-28T15:41:33Z</time>
      </trkpt>
      <trkpt lat="48.90665" lon="0.25339">
        <ele>262</ele>
        <time>2019-04-28T15:41:33Z</time>
      </trkpt>
      <trkpt lat="48.90665" lon="0.2534">
        <ele>262</ele>
        <time>2019-04-28T15:41:33Z</time>
      </trkpt>
      <trkpt lat="48.90665" lon="0.25341">
        <ele>262</ele>
        <time>2019-04-28T15:41:33Z</time>
      </trkpt>
    </trkseg>
  </trk>
</gpx>